# Wetter Temperatur Luftdruck Luftfeuchtigkeit Sichtweite Windgeschwindigkeit Windrichtung Zeit
1 Clouds 28 1013 74 10000 3.1 60 09:42 08.04.2020
2 Clouds 28 1013 74 10000 3.1 60 09:21 08.04.2020
3 Clouds 28 1012 74 10000 3.1 60 08:59 08.04.2020
4 Clouds 28 1012 74 10000 3.1 60 08:41 08.04.2020
5 Clouds 28 1012 74 10000 3.1 60 08:22 08.04.2020
6 Clouds 28 1012 83 10000 3.1 60 07:44 08.04.2020
7 Clouds 28 1012 83 10000 3.1 60 07:23 08.04.2020
8 Clouds 28 1011 83 10000 3.1 60 06:48 08.04.2020
9 Clouds 28 1011 78 10000 2.6 50 05:49 08.04.2020
10 Clouds 29 1011 83 10000 3.1 40 03:34 08.04.2020
11 Clouds 29 1012 79 10000 3.1 40 02:41 08.04.2020
12 Clouds 29 1012 79 10000 3.1 40 02:19 08.04.2020
13 Clouds 29 1012 79 10000 4.1 40 01:30 08.04.2020
14 Clouds 30 1013 79 10000 4.1 40 00:57 08.04.2020
15 Clouds 30 1013 79 10000 4.1 40 00:39 08.04.2020
16 Clouds 30 1013 79 10000 4.1 40 00:19 08.04.2020
17 Clouds 29 1014 79 10000 3.1 50 23:39 07.04.2020
18 Clouds 29 1014 79 10000 3.1 50 23:20 07.04.2020
19 Clouds 28 1014 83 10000 4.1 40 22:56 07.04.2020
20 Clouds 28 1014 83 10000 4.1 40 22:38 07.04.2020
21 Clouds 28 1014 83 10000 4.1 40 22:19 07.04.2020
22 Clouds 28 1013 83 10000 4.1 40 21:54 07.04.2020
23 Clouds 28 1013 83 10000 4.1 40 21:36 07.04.2020
24 Clouds 28 1013 83 10000 4.1 40 21:18 07.04.2020
25 Clouds 27 1013 88 10000 3.6 50 20:41 07.04.2020
26 Clouds 27 1013 88 10000 3.6 50 20:21 07.04.2020
27 Clouds 27 1012 88 10000 3.6 60 19:58 07.04.2020
28 Clouds 27 1012 88 10000 3.6 60 19:38 07.04.2020
29 Clouds 27 1012 83 10000 3.1 60 19:20 07.04.2020
30 Clouds 27 1012 83 10000 3.1 60 18:59 07.04.2020
31 Clouds 27 1012 83 10000 3.1 60 18:40 07.04.2020
32 Clouds 27 1012 83 10000 3.1 60 18:21 07.04.2020
33 Clouds 27 1012 83 10000 2.6 50 17:48 07.04.2020
34 Clouds 27 1012 83 10000 2.6 50 17:25 07.04.2020
35 Clouds 26 1012 88 10000 2.1 70 16:59 07.04.2020
36 Clouds 26 1012 88 10000 2.1 70 16:41 07.04.2020
37 Clouds 26 1012 94 10000 3.1 60 16:22 07.04.2020
38 Clouds 26 1012 94 10000 3.1 60 15:44 07.04.2020
39 Clouds 26 1012 94 10000 2.1 80 15:26 07.04.2020
40 Clouds 26 1012 94 10000 2.1 80 14:55 07.04.2020
41 Clouds 26 1012 88 10000 2.6 80 14:36 07.04.2020
42 Clouds 26 1012 88 10000 2.6 80 14:18 07.04.2020
43 Clouds 26 1013 88 10000 2.6 90 13:41 07.04.2020
44 Clouds 26 1013 88 10000 2.6 90 13:19 07.04.2020
45 Clouds 26 1013 88 10000 2.6 90 12:56 07.04.2020
46 Clouds 26 1013 83 10000 3.6 40 12:37 07.04.2020
47 Clouds 26 1013 83 10000 3.6 40 12:19 07.04.2020
48 Clouds 26 1013 83 10000 3.6 40 11:45 07.04.2020
49 Clouds 26 1013 83 10000 3.6 40 11:27 07.04.2020
50 Rain 27 1013 78 10000 3.6 40 10:59 07.04.2020
51 Rain 27 1013 78 10000 3.6 40 10:39 07.04.2020
52 Rain 27 1013 78 10000 3.6 40 10:19 07.04.2020
53 Clouds 27 1012 78 10000 3.6 50 09:46 07.04.2020
54 Clouds 27 1012 78 10000 3.6 50 09:20 07.04.2020
55 Clouds 27 1012 78 10000 3.6 50 08:59 07.04.2020
56 Clouds 27 1012 78 10000 3.6 50 08:39 07.04.2020
57 Clouds 27 1012 78 10000 3.6 50 08:19 07.04.2020
58 Clouds 27 1011 83 10000 2.1 90 07:44 07.04.2020
59 Clouds 27 1011 83 10000 2.1 90 07:26 07.04.2020
60 Clouds 28 1011 78 10000 2.6 70 06:51 07.04.2020
61 Clouds 28 1011 78 10000 2.6 70 06:25 07.04.2020
62 Clouds 29 1010 74 10000 2.6 60 05:46 07.04.2020
63 Clouds 29 1010 74 10000 2.6 60 05:22 07.04.2020
64 Clouds 29 1010 74 10000 3.1 40 03:32 07.04.2020
65 Clouds 29 1010 79 10000 3.1 40 02:59 07.04.2020
66 Clouds 29 1011 79 10000 2.6 40 01:59 07.04.2020
67 Clouds 29 1011 79 10000 2.6 40 01:32 07.04.2020
68 Clouds 29 1012 79 10000 3.1 30 00:29 07.04.2020
69 Clouds 26 1012 88 10000 2.6 20 23:57 06.04.2020
70 Clouds 26 1012 88 10000 2.6 20 23:38 06.04.2020
71 Clouds 26 1012 88 10000 2.6 20 23:20 06.04.2020
72 Clouds 26 1012 88 10000 2.1 140 22:41 06.04.2020
73 Clouds 26 1012 88 10000 2.1 140 22:22 06.04.2020
74 Clouds 25 1012 94 10000 2.1 100 21:58 06.04.2020
75 Clouds 25 1012 94 10000 2.1 100 21:40 06.04.2020
76 Clouds 25 1012 94 10000 2.1 100 21:19 06.04.2020
77 Drizzle 24 1012 94 10000 2.1 100 20:55 06.04.2020
78 Drizzle 24 1012 94 10000 2.1 100 20:55 06.04.2020
79 Drizzle 24 1012 94 10000 2.1 100 20:37 06.04.2020
80 Drizzle 24 1012 94 10000 2.1 100 20:19 06.04.2020
81 Drizzle 24 1011 94 10000 1 140 19:41 06.04.2020
82 Drizzle 24 1011 94 10000 1 140 19:23 06.04.2020
83 Clouds 24 1010 94 10000 1.5 230 18:59 06.04.2020
84 Clouds 24 1010 94 10000 1.5 230 18:39 06.04.2020
85 Clouds 24 1010 94 10000 1.5 230 18:21 06.04.2020
86 Clouds 24 1010 94 10000 1 110 17:42 06.04.2020
87 Clouds 24 1010 94 10000 1 110 17:20 06.04.2020
88 Clouds 24 1010 100 10000 1.5 120 16:50 06.04.2020
89 Clouds 24 1010 100 10000 1.5 120 16:32 06.04.2020
90 Rain 24 1010 94 10000 3.1 90 16:00 06.04.2020
91 Rain 24 1010 94 10000 3.1 90 16:00 06.04.2020
92 Drizzle 25 1010 94 10000 2.6 180 14:34 06.04.2020
93 Drizzle 25 1010 94 10000 2.6 180 14:34 06.04.2020
94 Drizzle 25 1010 94 10000 2.6 180 14:34 06.04.2020
95 Drizzle 25 1010 94 10000 2.6 180 14:34 06.04.2020
96 Drizzle 25 1010 94 10000 2.6 180 14:33 06.04.2020
97 Rain 24 1010 94 10000 2.6 180 13:43 06.04.2020
98 Rain 24 1010 94 10000 2.6 180 13:43 06.04.2020
99 -273 0 0 0 0 0 13:20 06.04.2020
100 Rain 24 1010 94 10000 2.6 180 13:20 06.04.2020
101 Rain 24 1010 94 10000 2.6 180 13:20 06.04.2020
102 Rain 24 1011 94 10000 1.5 150 12:25 06.04.2020
103 Rain 24 1011 94 10000 1.5 150 12:25 06.04.2020
104 Rain 24 1011 94 10000 1.5 150 12:23 06.04.2020
105 Rain 24 1011 94 10000 1.5 150 12:23 06.04.2020
106 Clouds 25 1010 88 10000 1.5 90 11:55 06.04.2020
107 Clouds 25 1010 88 10000 1.5 90 11:55 06.04.2020
108 Clouds 25 1010 88 10000 1.5 90 11:33 06.04.2020
109 Clouds 25 1010 88 10000 1.5 90 11:33 06.04.2020
110 Clouds 25 1010 88 10000 1.5 90 11:33 06.04.2020
111 Clouds 25 1010 88 10000 1.5 90 11:33 06.04.2020
112 Clouds 25 1010 88 10000 1.5 90 11:33 06.04.2020
113 Clouds 25 1010 94 10000 0.5 140 10:52 06.04.2020
114 Clouds 25 1010 94 10000 0.5 140 10:52 06.04.2020
115 Clouds 25 1010 94 10000 0.5 140 10:52 06.04.2020
116 Clouds 25 1010 94 10000 0.5 140 10:52 06.04.2020
117 Clouds 25 1010 94 10000 0.5 140 10:52 06.04.2020
118 Rain 25 1010 94 10000 0.5 160 10:22 06.04.2020
119 Rain 25 1010 94 10000 0.5 160 09:47 06.04.2020
120 Clouds 25 1009 88 10000 1 180 09:22 06.04.2020
121 Clouds 25 1009 88 10000 1 180 08:55 06.04.2020
122 Clouds 25 1009 88 10000 1 180 08:30 06.04.2020
123 Clouds 26 1009 88 10000 1 180 07:39 06.04.2020
124 Clouds 27 1008 83 10000 1.5 170 06:47 06.04.2020
125 Clouds 27 1008 83 10000 1.5 170 06:24 06.04.2020
126 Clouds 28 1008 78 10000 2.1 210 04:20 06.04.2020
127 Rain 28 1009 83 10000 3.6 260 02:59 06.04.2020
128 Rain 28 1009 83 10000 3.6 260 02:36 06.04.2020
129 Rain 28 1009 83 10000 4.1 260 01:28 06.04.2020
130 Rain 28 1009 83 10000 4.6 250 00:44 06.04.2020
131 Clouds 28 1010 83 10000 4.1 300 00:23 06.04.2020
132 Clouds 28 1010 83 10000 4.1 300 23:44 05.04.2020
133 Clouds 28 1010 83 10000 4.1 300 23:25 05.04.2020
134 Clouds 28 1010 83 10000 4.1 300 23:25 05.04.2020
135 Clouds 27 1010 83 10000 5.7 290 22:55 05.04.2020
136 Clouds 27 1010 83 10000 5.7 290 22:37 05.04.2020
137 Clouds 27 1010 83 10000 5.7 290 22:18 05.04.2020
138 Rain 27 1010 88 10000 5.7 290 21:45 05.04.2020
139 Rain 27 1010 88 10000 5.7 290 21:24 05.04.2020
140 Rain 27 1010 88 10000 5.7 290 21:24 05.04.2020
141 Rain 27 1010 88 10000 5.7 290 21:24 05.04.2020
142 Rain 28 1010 78 0 3 309 20:26 05.04.2020
143 Rain 28 1010 78 0 3 309 20:00 05.04.2020
144 Rain 28 1010 78 0 3 309 20:00 05.04.2020
145 Rain 28 1010 78 0 3 309 19:37 05.04.2020
146 Rain 28 1010 78 0 3 309 19:19 05.04.2020
147 Rain 28 1010 78 0 3 309 18:44 05.04.2020
148 Rain 28 1010 78 0 3 309 18:44 05.04.2020
149 Rain 28 1010 78 0 3 309 18:44 05.04.2020
150 Rain 28 1010 78 0 3 309 18:43 05.04.2020
151 Rain 28 1010 78 0 3 309 18:42 05.04.2020
152 Rain 27 1008 79 0 4.01 308 17:51 05.04.2020
153 Rain 27 1008 79 0 4.01 308 17:51 05.04.2020
154 Rain 27 1008 79 0 4.01 308 17:51 05.04.2020
155 Rain 27 1008 79 0 4.01 308 17:51 05.04.2020
156 Rain 27 1008 79 0 4.01 308 17:51 05.04.2020
157 Clouds 26 1007 88 10000 5.7 300 17:23 05.04.2020
158 Clouds 26 1007 88 10000 5.7 300 16:47 05.04.2020
159 Clouds 26 1007 88 10000 5.7 300 16:20 05.04.2020
160 Clouds 26 1007 88 10000 5.7 300 16:20 05.04.2020
161 Rain 27 1008 79 0 4.01 308 15:49 05.04.2020
162 Rain 27 1008 79 0 4.01 308 15:30 05.04.2020
163 Clouds 27 1008 79 0 4 320 14:48 05.04.2020
164 Clouds 27 1008 79 0 4 320 14:48 05.04.2020
165 Clouds 27 1008 79 0 4 320 14:24 05.04.2020
166 Clouds 27 1008 78 0 3.22 341 13:41 05.04.2020
167 Clouds 27 1008 78 0 3.22 341 12:48 05.04.2020
168 Clouds 27 1008 78 0 3.22 341 12:48 05.04.2020
169 Clouds 27 1008 78 0 3.22 341 12:48 05.04.2020
170 Clouds 27 1008 78 0 3.22 341 12:48 05.04.2020
171 Clouds 27 1008 78 0 3.22 341 12:42 05.04.2020
172 Drizzle 27 1009 83 10000 4.1 280 11:41 05.04.2020
173 Drizzle 27 1009 83 10000 4.1 280 11:20 05.04.2020
174 Drizzle 27 1009 83 10000 4.1 280 10:48 05.04.2020
175 Rain 27 1009 88 10000 6.2 290 10:24 05.04.2020
176 Rain 27 1009 88 10000 6.2 290 10:24 05.04.2020
177 Rain 27 1009 88 10000 6.2 290 10:24 05.04.2020
178 Rain 27 1009 88 10000 6.2 290 10:24 05.04.2020
179 Rain 27 1009 88 10000 6.2 290 10:24 05.04.2020
180 Rain 27 1009 88 10000 6.2 290 09:55 05.04.2020
181 Rain 28 1008 88 10000 5.7 290 09:27 05.04.2020
182 Rain 28 1008 88 10000 5.7 290 08:34 05.04.2020
183 Rain 28 1008 88 10000 5.7 290 08:34 05.04.2020
184 Rain 28 1007 88 10000 5.7 310 07:21 05.04.2020
185 Rain 28 1007 83 10000 6.7 320 04:32 05.04.2020
186 Rain 27 1008 88 10000 5.7 350 03:29 05.04.2020
187 Rain 27 1008 88 10000 5.7 350 03:29 05.04.2020
188 Rain 27 1009 88 10000 5.1 360 02:46 05.04.2020
189 Rain 27 1009 88 10000 5.1 360 01:45 05.04.2020
190 Rain 27 1009 83 10000 5.1 10 01:23 05.04.2020
191 Rain 27 1009 83 10000 4.6 20 00:37 05.04.2020
192 Rain 27 1010 88 0 3.47 43 00:19 05.04.2020
193 Clouds 27 1010 88 10000 7.2 360 23:42 04.04.2020
194 Clouds 27 1010 88 10000 7.2 360 23:22 04.04.2020
195 Clouds 27 1010 88 10000 6.7 360 22:57 04.04.2020
196 Clouds 27 1010 88 10000 6.7 360 22:39 04.04.2020
197 Clouds 27 1010 88 10000 6.7 360 22:20 04.04.2020
198 Clouds 26 1009 94 10000 6.7 20 21:57 04.04.2020
199 Clouds 26 1009 94 10000 6.7 20 21:39 04.04.2020
200 Clouds 26 1009 94 10000 6.7 20 21:19 04.04.2020
201 Clouds 26 1010 88 10000 6.2 30 20:55 04.04.2020
202 Clouds 26 1010 88 10000 6.2 30 20:36 04.04.2020
203 Clouds 26 1010 88 10000 6.2 30 20:18 04.04.2020
204 Clouds 25 1009 88 10000 4.1 40 19:41 04.04.2020
205 Clouds 25 1009 88 10000 4.1 40 19:21 04.04.2020
206 Rain 27 1011 78 0 3.6 91 18:59 04.04.2020
207 Rain 27 1011 77 0 3.9 59 18:39 04.04.2020
208 Rain 25 1009 94 10000 2.6 50 18:21 04.04.2020
209 Rain 25 1009 94 10000 2.6 50 18:21 04.04.2020
210 Rain 25 1009 94 10000 2.6 50 18:21 04.04.2020
211 Rain 25 1009 94 10000 2.6 50 17:58 04.04.2020
212 Rain 25 1009 94 10000 2.6 50 17:39 04.04.2020
213 Rain 25 1009 94 10000 2.6 50 17:19 04.04.2020
214 Rain 25 1009 94 10000 2.1 80 16:45 04.04.2020
215 Rain 25 1009 94 10000 2.1 80 16:27 04.04.2020
216 Clouds 24 1009 94 10000 2.1 90 15:58 04.04.2020
217 Clouds 24 1009 94 10000 2.1 90 15:38 04.04.2020
218 Clouds 24 1009 94 10000 2.1 90 15:19 04.04.2020
219 Clouds 24 1009 94 10000 2.1 90 15:19 04.04.2020
220 Clouds 24 1010 94 10000 1 150 14:46 04.04.2020
221 Clouds 24 1010 94 10000 1 150 14:25 04.04.2020
222 Clouds 24 1010 94 10000 2.1 80 14:00 04.04.2020
223 Clouds 24 1010 94 10000 2.1 80 13:41 04.04.2020
224 Clouds 24 1010 94 10000 2.1 80 13:41 04.04.2020
225 Clouds 24 1010 94 10000 2.1 80 13:20 04.04.2020
226 Rain 26 1010 79 0 2.18 170 12:57 04.04.2020
227 Rain 26 1010 79 0 2.18 170 12:39 04.04.2020
228 Rain 24 1011 94 10000 1 150 12:19 04.04.2020
229 Rain 24 1011 94 10000 1 150 11:41 04.04.2020
230 Rain 24 1011 94 10000 1 150 11:23 04.04.2020
231 Drizzle 24 1011 100 10000 1 150 10:58 04.04.2020
232 Drizzle 24 1011 100 10000 1 150 10:40 04.04.2020
233 Drizzle 24 1011 100 10000 1 150 10:21 04.04.2020
234 Rain 24 1010 94 10000 1 110 09:55 04.04.2020
235 Rain 24 1010 94 10000 1 110 09:37 04.04.2020
236 Rain 24 1010 94 10000 1 110 09:19 04.04.2020
237 Drizzle 24 1009 88 10000 2.1 100 08:42 04.04.2020
238 Rain 29 1010 83 10000 2.1 200 08:23 04.04.2020
239 Rain 29 1010 83 10000 2.1 200 07:47 04.04.2020
240 Rain 29 1010 83 10000 2.1 200 07:29 04.04.2020
241 Rain 29 1010 83 10000 6.2 240 06:58 04.04.2020
242 Rain 29 1010 83 10000 6.2 240 06:21 04.04.2020
243 Rain 29 1008 83 10000 2.6 20 05:51 04.04.2020
244 Rain 29 1008 83 10000 2.6 20 05:32 04.04.2020
245 Clouds 30 1008 84 10000 4.1 350 04:33 04.04.2020
246 Clouds 30 1008 84 10000 4.6 350 03:55 04.04.2020
247 Clouds 30 1008 84 10000 4.6 350 03:27 04.04.2020
248 Clouds 30 1008 84 10000 5.7 350 02:40 04.04.2020
249 Clouds 30 1008 84 10000 5.7 350 02:22 04.04.2020
250 Clouds 30 1009 84 10000 6.2 10 01:27 04.04.2020
251 Clouds 30 1009 79 10000 6.2 350 00:55 04.04.2020
252 Clouds 30 1009 79 10000 6.2 350 00:30 04.04.2020
253 Clouds 29 1010 83 10000 5.7 360 23:55 03.04.2020
254 Clouds 29 1010 83 10000 5.7 360 23:36 03.04.2020
255 Clouds 29 1010 83 10000 5.7 360 23:18 03.04.2020
256 Clouds 28 1010 83 10000 5.1 350 22:40 03.04.2020
257 Clouds 28 1010 83 10000 5.1 350 22:19 03.04.2020
258 Clouds 27 1010 94 10000 4.1 30 21:56 03.04.2020
259 Clouds 27 1010 94 10000 4.1 30 21:37 03.04.2020
260 Clouds 27 1010 94 10000 4.1 30 21:19 03.04.2020
261 Clouds 26 1009 94 10000 2.1 50 20:54 03.04.2020
262 Clouds 26 1009 94 10000 2.1 50 20:36 03.04.2020
263 Clouds 26 1009 94 10000 2.1 50 20:18 03.04.2020
264 Clouds 25 1009 94 10000 2.6 100 19:54 03.04.2020
265 Clouds 25 1009 94 10000 2.6 100 19:36 03.04.2020
266 Clouds 25 1009 94 10000 2.6 100 19:36 03.04.2020
267 Clouds 25 1009 94 10000 2.6 100 19:18 03.04.2020
268 Clouds 25 1008 88 10000 2.6 90 18:42 03.04.2020
269 Clouds 25 1008 88 10000 2.6 90 18:23 03.04.2020
270 Clouds 25 1008 88 10000 2.6 90 18:23 03.04.2020
271 Clouds 24 1008 94 10000 2.6 90 17:58 03.04.2020
272 Clouds 24 1008 94 10000 2.6 90 17:40 03.04.2020
273 Clouds 24 1008 94 10000 2.6 90 17:19 03.04.2020
274 Clouds 24 1008 94 10000 2.6 90 17:19 03.04.2020
275 Rain 23 1008 100 10000 1.5 100 16:54 03.04.2020
276 Rain 23 1008 100 10000 1.5 100 16:36 03.04.2020
277 Rain 23 1008 100 10000 1.5 100 16:18 03.04.2020
278 Drizzle 23 1008 94 10000 1 130 15:40 03.04.2020
279 Drizzle 23 1008 94 10000 1 130 15:22 03.04.2020
280 Drizzle 23 1008 94 10000 1.5 130 14:56 03.04.2020
281 Rain 27 1009 76 0 3.5 315 14:38 03.04.2020
282 Rain 27 1009 76 0 3.55 322 14:20 03.04.2020
283 Rain 27 1009 76 0 3.55 322 13:45 03.04.2020
284 Rain 24 1010 94 10000 2.1 70 13:26 03.04.2020
285 Rain 24 1010 94 10000 2.1 70 12:56 03.04.2020
286 Rain 24 1010 94 10000 2.1 70 12:37 03.04.2020
287 Drizzle 24 1010 94 10000 2.1 180 12:18 03.04.2020
288 Drizzle 24 1010 94 10000 2.1 180 12:18 03.04.2020
289 Drizzle 24 1010 94 10000 2.1 180 11:54 03.04.2020
290 Drizzle 24 1010 94 10000 2.1 180 11:36 03.04.2020
291 Drizzle 24 1010 94 10000 2.1 180 11:18 03.04.2020
292 Drizzle 24 1010 94 10000 2.6 90 10:54 03.04.2020
293 Drizzle 24 1010 94 10000 2.6 90 10:36 03.04.2020
294 Drizzle 24 1010 94 10000 2.6 90 10:18 03.04.2020
295 Rain 24 1010 83 10000 0.5 180 09:40 03.04.2020
296 Rain 24 1010 83 10000 0.5 180 09:22 03.04.2020
297 Rain 24 1010 83 10000 0.5 180 08:57 03.04.2020
298 Rain 24 1010 83 10000 0.5 180 08:38 03.04.2020
299 Rain 24 1010 83 10000 0.5 180 08:20 03.04.2020
300 Drizzle 25 1009 94 10000 2.1 80 07:48 03.04.2020
301 Drizzle 25 1009 94 10000 2.1 80 07:29 03.04.2020
302 Drizzle 25 1008 94 9000 2.1 50 06:42 03.04.2020
303 Drizzle 25 1008 94 9000 2.1 50 06:23 03.04.2020
304 Rain 25 1008 94 9000 1.5 170 05:39 03.04.2020
305 Rain 25 1008 94 9000 3.6 270 03:42 03.04.2020
306 Rain 30 1007 84 10000 4.6 320 02:56 03.04.2020
307 Rain 30 1007 84 10000 4.6 320 02:27 03.04.2020
308 Rain 28 1007 94 10000 2.6 300 01:22 03.04.2020
309 Drizzle 31 1008 74 10000 3.1 320 00:36 03.04.2020
310 Drizzle 31 1008 74 10000 3.1 320 00:18 03.04.2020
311 Clouds 28 1009 83 10000 1 280 23:40 02.04.2020
312 Clouds 28 1009 83 10000 1 280 23:21 02.04.2020
313 Clouds 28 1009 88 10000 1 340 22:57 02.04.2020
314 Clouds 28 1009 88 10000 1 340 22:37 02.04.2020
315 Clouds 28 1009 88 10000 1 340 22:18 02.04.2020
316 Clouds 27 1008 88 10000 4.6 300 21:39 02.04.2020
317 Clouds 27 1008 88 10000 4.6 300 21:20 02.04.2020
318 Clouds 27 1008 88 10000 1 150 20:58 02.04.2020
319 Clouds 27 1008 88 10000 1 150 20:58 02.04.2020
320 Clouds 27 1008 88 10000 1 150 20:58 02.04.2020
321 Clouds 27 1008 88 10000 1 150 20:40 02.04.2020
322 Clouds 27 1008 88 10000 1 150 20:21 02.04.2020
323 Clouds 25 1008 94 10000 1 110 19:44 02.04.2020
324 Clouds 25 1008 94 10000 1 110 19:21 02.04.2020
325 Clouds 25 1007 94 10000 1.5 80 18:58 02.04.2020
326 Clouds 25 1007 94 10000 1.5 80 18:39 02.04.2020
327 Clouds 25 1007 94 10000 1.5 80 18:20 02.04.2020
328 Clouds 25 1007 94 10000 1 120 17:56 02.04.2020
329 Clouds 25 1007 94 10000 1 120 17:38 02.04.2020
330 Clouds 25 1007 94 10000 1 120 17:18 02.04.2020
331 Clouds 25 1007 94 10000 1.5 90 16:55 02.04.2020
332 Clouds 25 1007 94 10000 1.5 90 16:36 02.04.2020
333 Clouds 25 1007 94 10000 1.5 90 16:36 02.04.2020
334 Clouds 25 1007 94 10000 1.5 90 16:18 02.04.2020
335 -273 0 0 0 0 0 15:44 02.04.2020
336 Clouds 25 1007 94 10000 1 150 15:43 02.04.2020
337 Clouds 25 1007 94 10000 1 150 15:43 02.04.2020
338 Clouds 25 1007 94 10000 1 150 15:21 02.04.2020
339 Clouds 25 1007 94 10000 2.1 120 14:58 02.04.2020
340 Clouds 25 1007 94 10000 2.1 120 14:58 02.04.2020
341 Clouds 25 1007 94 10000 2.1 120 14:39 02.04.2020
342 Clouds 25 1007 94 10000 2.1 120 14:19 02.04.2020
343 Clouds 25 1008 94 10000 2.1 170 13:55 02.04.2020
344 Clouds 25 1008 94 10000 2.1 170 13:37 02.04.2020
345 Clouds 25 1008 94 10000 2.1 170 13:18 02.04.2020
346 Clouds 25 1008 94 10000 1.5 160 12:46 02.04.2020
347 Clouds 25 1008 94 10000 1.5 160 12:20 02.04.2020
348 Clouds 26 1008 88 10000 1 120 11:58 02.04.2020
349 Clouds 26 1008 88 10000 1 120 11:58 02.04.2020
350 Clouds 26 1008 88 10000 1 120 11:39 02.04.2020
351 Drizzle 26 1008 94 10000 1 120 11:20 02.04.2020
352 Drizzle 26 1008 94 10000 1 120 10:56 02.04.2020
353 Drizzle 26 1008 94 10000 1 120 10:38 02.04.2020
354 Drizzle 26 1008 94 10000 1 170 10:20 02.04.2020
355 Rain 28 1009 79 0 2.12 324 09:58 02.04.2020
356 Rain 28 1009 79 0 2.12 324 09:58 02.04.2020
357 Rain 28 1009 79 0 2.12 324 09:40 02.04.2020
358 Clouds 26 1008 94 10000 1.5 190 09:20 02.04.2020
359 Clouds 26 1008 94 10000 1.5 190 08:47 02.04.2020
360 Clouds 26 1008 94 10000 1.5 190 08:47 02.04.2020
361 Clouds 28 1008 83 10000 1.5 180 08:27 02.04.2020
362 Clouds 28 1008 83 10000 1.5 180 07:47 02.04.2020
363 Clouds 28 1008 83 10000 1.5 180 07:22 02.04.2020
364 Clouds 29 1008 83 10000 2.1 250 06:59 02.04.2020
365 Clouds 29 1008 83 10000 2.1 250 06:23 02.04.2020
366 Clouds 29 1009 83 10000 2.6 260 05:45 02.04.2020
367 Clouds 29 1007 83 10000 3.6 270 04:47 02.04.2020
368 Rain 29 1008 83 10000 3.1 290 02:18 02.04.2020
369 Clouds 29 1010 83 10000 5.1 300 00:54 02.04.2020
370 Clouds 29 1010 83 10000 5.1 300 00:31 02.04.2020
371 Clouds 29 1010 83 10000 5.1 300 23:59 01.04.2020
372 Clouds 29 1010 83 10000 5.1 300 23:37 01.04.2020
373 Clouds 29 1010 83 10000 5.1 300 23:18 01.04.2020
374 Clouds 28 1010 78 10000 5.7 290 22:41 01.04.2020
375 Clouds 28 1010 78 10000 5.7 290 22:22 01.04.2020
376 Clouds 27 1010 88 10000 4.6 290 21:58 01.04.2020
377 Clouds 27 1010 88 10000 4.6 290 21:58 01.04.2020
378 Clouds 27 1010 88 10000 4.6 290 21:39 01.04.2020
379 Clouds 27 1010 88 10000 4.6 290 21:19 01.04.2020
380 Clouds 27 1010 88 10000 4.6 290 21:19 01.04.2020
381 Rain 28 1011 78 0 4.26 333 20:55 01.04.2020
382 Rain 28 1011 78 0 4.26 333 20:37 01.04.2020
383 Drizzle 27 1009 88 10000 4.6 330 20:18 01.04.2020
384 Drizzle 27 1009 88 10000 4.6 330 19:43 01.04.2020
385 Drizzle 27 1009 88 10000 4.6 330 19:22 01.04.2020
386 Clouds 27 1009 94 10000 4.6 330 18:59 01.04.2020
387 Clouds 27 1009 94 10000 4.6 330 18:59 01.04.2020
388 Clouds 27 1009 94 10000 4.6 330 18:59 01.04.2020
389 Clouds 27 1009 94 10000 4.6 330 18:40 01.04.2020
390 Clouds 27 1009 94 10000 4.6 330 18:21 01.04.2020
391 Clouds 27 1008 94 10000 4.6 340 17:56 01.04.2020
392 Clouds 27 1008 94 10000 4.6 340 17:56 01.04.2020
393 Clouds 27 1008 94 10000 4.6 340 17:36 01.04.2020
394 Clouds 27 1008 94 10000 4.6 340 17:36 01.04.2020
395 Clouds 27 1008 94 10000 4.6 340 17:18 01.04.2020
396 Clouds 27 1008 94 10000 4.6 340 16:43 01.04.2020
397 Clouds 27 1008 94 10000 4.6 340 16:24 01.04.2020
398 Clouds 28 1009 88 10000 5.7 340 15:59 01.04.2020
399 Clouds 28 1009 88 10000 5.7 340 15:41 01.04.2020
400 Clouds 28 1009 88 10000 5.7 340 15:21 01.04.2020
401 Clouds 28 1009 88 10000 6.2 350 14:57 01.04.2020
402 Clouds 28 1009 88 10000 6.2 350 14:38 01.04.2020
403 Clouds 28 1009 88 10000 6.2 350 14:38 01.04.2020
404 Clouds 28 1009 88 10000 6.2 350 14:19 01.04.2020
405 Clouds 28 1009 88 10000 6.2 350 14:19 01.04.2020
406 Clouds 28 1009 83 10000 7.7 360 13:58 01.04.2020
407 Clouds 28 1009 83 10000 7.7 360 13:38 01.04.2020
408 Clouds 28 1009 83 10000 7.7 360 13:19 01.04.2020
409 Clouds 27 1010 88 10000 5.1 10 12:55 01.04.2020
410 Clouds 27 1010 88 10000 5.1 10 12:36 01.04.2020
411 Clouds 27 1010 88 10000 5.1 10 12:18 01.04.2020
412 Rain 27 1011 94 10000 5.1 10 11:42 01.04.2020
413 Clouds 26 1011 94 10000 3.6 10 11:23 01.04.2020
414 Clouds 26 1011 94 10000 3.6 10 10:58 01.04.2020
415 Clouds 26 1011 94 10000 3.6 10 10:37 01.04.2020
416 Clouds 27 1011 88 10000 4.1 30 10:18 01.04.2020
417 Clouds 27 1011 88 10000 4.1 30 09:55 01.04.2020
418 Clouds 27 1011 88 10000 4.1 30 09:37 01.04.2020
419 Clouds 27 1011 88 10000 3.1 30 09:18 01.04.2020
420 Clouds 27 1011 88 10000 3.1 30 09:18 01.04.2020
421 Clouds 27 1011 88 10000 3.1 30 08:40 01.04.2020
422 Clouds 27 1010 88 10000 3.1 40 08:18 01.04.2020
423 Clouds 27 1010 88 10000 3.1 40 07:42 01.04.2020
424 Clouds 27 1010 88 10000 3.1 40 07:20 01.04.2020
425 Clouds 28 1010 83 10000 2.1 40 06:47 01.04.2020
426 Clouds 28 1010 83 10000 2.1 40 06:23 01.04.2020
427 Clouds 28 1010 83 10000 2.1 40 05:55 01.04.2020
428 Clouds 30 1010 79 10000 3.6 10 04:30 01.04.2020
429 Clouds 31 1012 79 10000 4.1 80 03:28 01.04.2020
430 Clouds 31 1012 79 10000 4.1 80 02:49 01.04.2020
431 Clouds 31 1012 79 10000 4.1 80 01:54 01.04.2020
432 Clouds 31 1012 79 10000 4.1 80 01:29 01.04.2020
433 Clouds 30 1013 79 10000 4.54 19 00:58 01.04.2020
434 Clouds 30 1013 79 10000 4.54 19 00:40 01.04.2020
435 Clouds 30 1013 79 10000 4.36 46 00:18 01.04.2020
436 Clouds 29 1013 83 10000 3.1 50 23:41 31.03.2020
437 Clouds 29 1013 83 10000 3.1 50 23:22 31.03.2020
438 Clear 27 1013 78 0 4.36 46 22:43 31.03.2020
439 Clear 27 1013 78 0 4.36 46 22:23 31.03.2020
440 Rain 28 1013 88 10000 5.7 40 21:59 31.03.2020
441 Rain 28 1013 88 10000 5.7 40 21:59 31.03.2020
442 Rain 28 1013 88 10000 5.7 40 21:40 31.03.2020
443 Rain 28 1013 88 10000 5.7 40 21:22 31.03.2020
444 Clouds 27 1013 88 10000 5.7 40 20:58 31.03.2020
445 Clouds 27 1013 88 10000 5.7 40 20:38 31.03.2020
446 Clouds 27 1013 88 10000 5.7 40 20:20 31.03.2020
447 Clouds 28 1013 83 10000 1.5 80 19:58 31.03.2020
448 Clouds 28 1013 83 10000 1.5 80 19:39 31.03.2020
449 Clouds 28 1013 83 10000 1.5 80 19:21 31.03.2020
450 Clouds 27 1012 83 10000 3.1 40 18:46 31.03.2020
451 Clouds 27 1012 83 10000 3.1 40 18:21 31.03.2020
452 Clouds 27 1012 83 10000 3.1 40 17:58 31.03.2020
453 Clouds 27 1012 83 10000 3.1 40 17:40 31.03.2020
454 Clouds 27 1012 83 10000 3.1 40 17:40 31.03.2020
455 Clouds 27 1012 83 10000 3.1 40 17:21 31.03.2020
456 Clouds 27 1012 83 10000 3.1 40 17:21 31.03.2020
457 Clouds 27 1012 88 10000 2.6 40 16:57 31.03.2020
458 Clouds 27 1012 88 10000 2.6 40 16:37 31.03.2020
459 Clouds 27 1012 88 10000 2.6 40 16:18 31.03.2020
460 Clouds 27 1012 88 10000 2.1 60 15:56 31.03.2020
461 Clouds 27 1012 88 10000 2.1 60 15:37 31.03.2020
462 Clouds 27 1012 88 10000 2.1 60 15:18 31.03.2020
463 Clouds 27 1012 88 10000 2.6 60 14:43 31.03.2020
464 Clouds 27 1012 88 10000 2.6 60 14:24 31.03.2020
465 Clouds 27 1013 88 10000 2.6 80 13:59 31.03.2020
466 Clouds 27 1013 88 10000 2.6 80 13:41 31.03.2020
467 Clouds 27 1013 88 10000 2.6 80 13:19 31.03.2020
468 Clouds 26 1014 88 10000 3.1 80 12:46 31.03.2020
469 Clouds 26 1014 88 10000 3.1 80 12:21 31.03.2020
470 Clouds 26 1014 88 10000 3.1 80 12:21 31.03.2020
471 Clouds 26 1014 88 10000 4.1 90 11:59 31.03.2020
472 Clouds 26 1014 88 10000 4.1 90 11:38 31.03.2020
473 Clouds 26 1014 88 10000 4.1 90 11:19 31.03.2020
474 Clouds 26 1014 94 10000 3.1 90 10:55 31.03.2020
475 Clouds 26 1014 94 10000 3.1 90 10:37 31.03.2020
476 Clouds 26 1014 94 10000 3.1 90 10:19 31.03.2020
477 Clouds 27 1013 83 10000 3.1 90 09:44 31.03.2020
478 Clouds 27 1013 83 10000 3.1 90 09:25 31.03.2020
479 Drizzle 27 1013 83 10000 3.6 80 08:58 31.03.2020
480 Drizzle 27 1013 83 10000 3.6 80 08:40 31.03.2020
481 Drizzle 27 1013 83 10000 3.6 80 08:20 31.03.2020
482 Clouds 27 1012 83 10000 6.2 80 07:57 31.03.2020
483 Clouds 27 1012 83 10000 6.2 80 07:38 31.03.2020
484 Clouds 27 1012 83 10000 6.2 80 07:38 31.03.2020
485 Clouds 27 1012 83 10000 6.2 80 07:20 31.03.2020
486 Clouds 27 1012 83 10000 6.2 80 07:20 31.03.2020
487 Clouds 28 1012 78 10000 6.2 80 06:51 31.03.2020
488 Clouds 28 1012 78 10000 6.2 80 06:31 31.03.2020
489 Clouds 29 1012 74 10000 6.2 80 05:41 31.03.2020
490 Clouds 29 1012 74 10000 6.2 80 03:57 31.03.2020
491 Clouds 30 1012 70 10000 6.7 80 02:26 31.03.2020
492 Clouds 30 1013 74 10000 5.1 80 01:46 31.03.2020
493 Clouds 29 1014 74 10000 6.2 80 00:52 31.03.2020
494 Clouds 29 1014 74 10000 6.2 80 00:25 31.03.2020
495 Clouds 29 1015 74 10000 4.6 70 23:59 30.03.2020
496 Clouds 29 1015 74 10000 4.6 70 23:38 30.03.2020
497 Clouds 29 1015 74 10000 4.6 70 23:18 30.03.2020
498 Clouds 29 1015 74 10000 4.1 110 22:56 30.03.2020
499 Clouds 29 1015 74 10000 4.1 110 22:37 30.03.2020
500 Clouds 29 1015 74 10000 4.1 110 22:18 30.03.2020
501 Clouds 28 1015 74 10000 3.6 100 21:55 30.03.2020
502 Clouds 28 1015 74 10000 3.6 100 21:36 30.03.2020
503 Clouds 28 1015 74 10000 3.6 100 21:18 30.03.2020
504 Clouds 27 1014 78 10000 3.6 90 20:42 30.03.2020
505 Clouds 27 1014 78 10000 3.6 90 20:24 30.03.2020
506 Clouds 27 1014 78 10000 3.6 90 20:24 30.03.2020
507 Clouds 27 1014 78 10000 3.6 90 20:24 30.03.2020
508 Clouds 26 1014 78 10000 3.1 100 19:59 30.03.2020
509 Clouds 26 1014 78 10000 3.1 100 19:40 30.03.2020
510 Clouds 26 1014 78 10000 3.1 100 19:21 30.03.2020
511 Clouds 26 1013 83 10000 2.1 100 18:56 30.03.2020
512 Clouds 26 1013 83 10000 2.1 100 18:37 30.03.2020
513 Clouds 26 1013 83 10000 2.1 100 18:19 30.03.2020
514 Clouds 26 1013 78 10000 3.1 90 17:55 30.03.2020
515 Clouds 26 1013 78 10000 3.1 90 17:36 30.03.2020
516 Clouds 26 1013 78 10000 3.1 90 17:18 30.03.2020
517 Clouds 26 1013 78 10000 3.1 100 16:41 30.03.2020
518 Clouds 26 1013 78 10000 3.1 100 16:22 30.03.2020
519 Clouds 26 1013 78 10000 3.1 90 15:57 30.03.2020
520 Clouds 26 1013 78 10000 3.1 90 15:57 30.03.2020
521 Clouds 26 1013 78 10000 3.1 90 15:39 30.03.2020
522 Clouds 26 1013 78 10000 3.1 90 15:21 30.03.2020
523 Clouds 26 1013 78 10000 3.6 90 14:58 30.03.2020
524 Clouds 26 1013 78 10000 3.6 90 14:38 30.03.2020
525 Clouds 27 1013 78 10000 4.1 80 14:19 30.03.2020
526 Clouds 27 1013 78 10000 4.1 80 13:58 30.03.2020
527 Clouds 27 1013 78 10000 4.1 80 13:39 30.03.2020
528 Clouds 27 1013 78 10000 4.1 80 13:19 30.03.2020
529 Clouds 27 1013 78 10000 4.1 80 12:45 30.03.2020
530 Clouds 27 1013 78 10000 4.1 80 12:21 30.03.2020
531 Clouds 27 1013 78 10000 4.1 80 12:21 30.03.2020
532 Clouds 26 1014 88 10000 3.6 80 11:58 30.03.2020
533 Clouds 26 1014 88 10000 3.6 80 11:58 30.03.2020
534 Clouds 26 1014 88 10000 3.6 80 11:40 30.03.2020
535 Clouds 26 1014 88 10000 3.6 80 11:21 30.03.2020
536 Clouds 27 1014 83 10000 3.6 80 10:55 30.03.2020
537 Clouds 27 1014 83 10000 3.6 80 10:37 30.03.2020
538 Clouds 27 1014 83 10000 3.6 80 10:18 30.03.2020
539 Clouds 28 1014 74 10000 3.1 70 09:40 30.03.2020
540 Clouds 28 1014 74 10000 3.1 70 09:19 30.03.2020
541 Clouds 27 1013 78 10000 3.6 80 08:54 30.03.2020
542 Clouds 27 1013 78 10000 3.6 80 08:36 30.03.2020
543 Clouds 27 1013 78 10000 3.6 80 08:18 30.03.2020
544 Clouds 28 1012 74 10000 4.1 60 07:41 30.03.2020
545 Clouds 28 1012 74 10000 4.1 60 07:20 30.03.2020
546 Clouds 28 1012 74 10000 4.1 60 06:39 30.03.2020
547 Clouds 28 1012 74 10000 4.1 60 06:19 30.03.2020
548 Clouds 30 1011 70 10000 4.1 60 05:39 30.03.2020
549 Clouds 30 1012 70 10000 4.1 60 04:28 30.03.2020
550 Clouds 30 1012 70 10000 3.6 60 03:52 30.03.2020
551 Clouds 30 1012 70 10000 4.6 70 02:44 30.03.2020
552 Clouds 30 1012 70 10000 4.1 60 01:54 30.03.2020
553 Clouds 30 1013 70 10000 4.1 60 00:56 30.03.2020
554 Clouds 30 1013 70 10000 4.1 60 00:25 30.03.2020
555 Clouds 30 1013 70 10000 4.1 60 00:25 30.03.2020
556 Clouds 29 1013 74 10000 5.1 70 23:55 29.03.2020
557 Clouds 29 1013 74 10000 5.1 70 23:36 29.03.2020
558 Clouds 29 1013 74 10000 5.1 70 23:18 29.03.2020
559 Clouds 29 1013 74 10000 4.1 70 22:39 29.03.2020
560 Clouds 29 1013 74 10000 4.1 70 22:39 29.03.2020
561 Clouds 29 1013 74 10000 4.1 70 22:20 29.03.2020
562 Clouds 29 1013 74 10000 4.6 80 21:58 29.03.2020
563 Clouds 29 1013 74 10000 4.6 80 21:37 29.03.2020
564 Clouds 29 1013 74 10000 4.6 80 21:18 29.03.2020
565 Clouds 27 1012 83 10000 4.1 90 20:55 29.03.2020
566 Clouds 27 1012 83 10000 4.1 90 20:55 29.03.2020
567 Clouds 27 1012 83 10000 4.1 90 20:37 29.03.2020
568 Clouds 27 1012 83 10000 4.1 90 20:37 29.03.2020
569 Clouds 27 1012 83 10000 4.1 90 20:37 29.03.2020
570 Clouds 27 1012 83 10000 4.1 90 20:18 29.03.2020
571 Clouds 27 1012 83 10000 3.1 90 19:54 29.03.2020
572 Clouds 27 1012 83 10000 3.1 90 19:36 29.03.2020
573 Clouds 27 1012 83 10000 3.1 90 19:18 29.03.2020
574 Clouds 27 1011 83 10000 3.1 80 18:54 29.03.2020
575 Clouds 27 1011 83 10000 3.1 80 18:54 29.03.2020
576 Clouds 27 1011 83 10000 3.1 80 18:36 29.03.2020
577 Clouds 27 1011 83 10000 3.1 80 18:36 29.03.2020
578 Clouds 27 1011 83 10000 3.1 80 18:18 29.03.2020
579 Clouds 27 1011 83 10000 3.1 80 18:18 29.03.2020
580 Clouds 27 1011 83 10000 4.1 80 17:42 29.03.2020
581 Clouds 27 1011 83 10000 4.1 80 17:22 29.03.2020
582 Clouds 27 1011 83 10000 3.6 80 16:58 29.03.2020
583 Clouds 27 1011 83 10000 3.6 80 16:39 29.03.2020
584 Clouds 27 1011 83 10000 3.6 80 16:21 29.03.2020
585 Clouds 27 1011 83 10000 3.6 70 15:58 29.03.2020
586 Clouds 27 1011 83 10000 3.6 70 15:39 29.03.2020
587 Clouds 27 1011 83 10000 3.6 70 15:19 29.03.2020
588 Clouds 27 1012 83 10000 4.1 70 14:55 29.03.2020
589 Clouds 27 1012 83 10000 4.1 70 14:36 29.03.2020
590 Clouds 27 1012 83 10000 4.1 70 14:36 29.03.2020
591 Clouds 27 1012 83 10000 4.1 70 14:18 29.03.2020
592 Clouds 27 1012 83 10000 5.1 60 13:42 29.03.2020
593 Clouds 27 1012 83 10000 5.1 60 13:22 29.03.2020
594 Clouds 28 1012 78 10000 5.1 60 12:58 29.03.2020
595 Clouds 28 1012 78 10000 5.1 60 12:39 29.03.2020
596 Clouds 28 1012 78 10000 5.1 60 12:19 29.03.2020
597 Clouds 27 1013 88 10000 1.5 80 11:58 29.03.2020
598 Clouds 27 1013 88 10000 1.5 80 11:37 29.03.2020
599 Clouds 27 1013 88 10000 1.5 80 11:19 29.03.2020
600 Clouds 27 1013 88 10000 3.1 80 10:39 29.03.2020
601 Clouds 27 1013 88 10000 3.1 80 10:20 29.03.2020
602 Clouds 27 1013 83 10000 3.6 90 09:56 29.03.2020
603 Clouds 27 1013 83 10000 3.6 90 09:56 29.03.2020
604 Clouds 27 1013 83 10000 3.6 90 09:37 29.03.2020
605 Clouds 27 1013 83 10000 3.6 90 09:18 29.03.2020
606 Clouds 27 1012 83 10000 2.6 80 08:43 29.03.2020
607 Clouds 28 1011 78 10000 2.1 90 08:24 29.03.2020
608 Clouds 28 1011 78 10000 2.1 90 07:47 29.03.2020
609 Clouds 28 1011 78 10000 2.1 90 07:23 29.03.2020
610 Clouds 29 1011 74 10000 4.6 90 05:59 29.03.2020
611 Clouds 30 1010 70 10000 3.1 70 04:56 29.03.2020
612 Clouds 30 1011 74 10000 3.6 50 03:41 29.03.2020
613 Clouds 30 1011 74 10000 3.6 50 01:57 29.03.2020
614 Clouds 30 1011 74 10000 3.6 50 01:39 29.03.2020
615 Clouds 30 1011 74 10000 3.6 50 01:19 29.03.2020
616 Clouds 30 1011 74 10000 3.6 50 00:39 29.03.2020
617 Clouds 30 1013 74 10000 3.6 50 23:59 28.03.2020
618 Clouds 30 1013 74 10000 3.6 50 23:40 28.03.2020
619 Clouds 30 1013 74 10000 3.6 50 23:40 28.03.2020
620 Clouds 30 1013 74 10000 3.6 50 23:22 28.03.2020
621 Clouds 30 1013 74 10000 3.6 50 22:42 28.03.2020
622 Clouds 30 1013 74 10000 3.6 50 22:22 28.03.2020
623 Clouds 30 1013 74 10000 2.6 60 21:57 28.03.2020
624 Clouds 30 1013 74 10000 2.6 60 21:39 28.03.2020
625 Clouds 30 1013 74 10000 2.6 60 21:19 28.03.2020
626 Clouds 29 1013 79 10000 2.6 70 20:54 28.03.2020
627 Clouds 29 1013 79 10000 2.6 70 20:36 28.03.2020
628 Clouds 29 1013 79 10000 2.6 70 20:36 28.03.2020
629 Clouds 29 1013 79 10000 2.6 70 20:18 28.03.2020
630 Clouds 27 1012 83 10000 2.6 70 19:54 28.03.2020
631 Clouds 27 1012 83 10000 2.6 70 19:36 28.03.2020
632 Clouds 27 1012 83 10000 2.6 70 19:18 28.03.2020
633 Clouds 26 1011 88 10000 2.1 90 18:39 28.03.2020
634 Clouds 26 1011 88 10000 2.1 90 18:20 28.03.2020
635 Clouds 26 1011 88 10000 2.1 90 17:39 28.03.2020
636 Clouds 26 1011 88 10000 2.1 90 17:39 28.03.2020
637 Clouds 26 1011 88 10000 2.1 90 17:21 28.03.2020
638 Clouds 26 1010 88 10000 2.6 80 16:57 28.03.2020
639 Clouds 26 1010 88 10000 2.6 80 16:37 28.03.2020
640 Clouds 26 1010 88 10000 2.6 80 16:37 28.03.2020
641 Clouds 26 1010 88 10000 2.6 80 16:18 28.03.2020
642 Clouds 26 1010 88 10000 2.6 80 15:39 28.03.2020
643 Clouds 26 1010 88 10000 2.6 80 15:19 28.03.2020
644 Clouds 26 1011 94 10000 3.1 80 14:56 28.03.2020
645 Clouds 26 1011 94 10000 3.1 80 14:38 28.03.2020
646 Clouds 26 1011 94 10000 3.1 80 14:20 28.03.2020
647 Clouds 26 1011 94 10000 2.6 80 13:40 28.03.2020
648 Clouds 26 1011 94 10000 2.6 80 13:21 28.03.2020
649 Clouds 25 1012 94 10000 1 130 12:40 28.03.2020
650 Clouds 25 1012 94 10000 1 130 12:22 28.03.2020
651 Clouds 25 1012 88 10000 0.5 200 11:43 28.03.2020
652 Clouds 25 1012 88 10000 0.5 200 11:23 28.03.2020
653 Clouds 25 1012 94 10000 1 110 10:57 28.03.2020
654 Clouds 25 1012 94 10000 1 110 10:38 28.03.2020
655 Clouds 25 1012 94 10000 1 110 10:18 28.03.2020
656 Clouds 25 1012 88 10000 1 180 09:42 28.03.2020
657 Clouds 25 1012 88 10000 1 180 09:23 28.03.2020
658 Clouds 25 1012 88 10000 0.5 170 08:47 28.03.2020
659 Clouds 25 1012 88 10000 0.5 170 08:28 28.03.2020
660 Clouds 26 1011 83 10000 0.5 140 07:59 28.03.2020
661 Clouds 26 1011 83 10000 0.5 140 07:41 28.03.2020
662 Clouds 27 1010 78 10000 2.1 90 06:56 28.03.2020
663 Clouds 27 1010 78 10000 2.1 90 06:33 28.03.2020
664 Clouds 28 1010 74 10000 3.6 70 05:41 28.03.2020
665 Clouds 28 1010 74 10000 3.6 70 05:19 28.03.2020
666 Clouds 28 1010 69 10000 3.1 90 04:40 28.03.2020
667 Clouds 29 1010 70 10000 4.1 50 02:55 28.03.2020
668 Clouds 29 1010 70 10000 3.1 50 01:48 28.03.2020
669 Clouds 29 1010 70 10000 3.1 50 01:24 28.03.2020
670 Clouds 29 1011 70 10000 3.6 50 00:54 28.03.2020
671 Clouds 29 1011 70 10000 3.6 50 00:33 28.03.2020
672 Clouds 27 1011 67 0 3.51 90 23:45 27.03.2020
673 Clouds 27 1011 67 0 3.51 90 23:26 27.03.2020
674 Clouds 27 1011 67 0 3.51 90 23:26 27.03.2020
675 Clouds 29 1012 70 10000 3.1 50 22:58 27.03.2020
676 Clouds 29 1012 70 10000 3.1 50 22:39 27.03.2020
677 Clouds 29 1012 70 10000 3.1 50 22:21 27.03.2020
678 Clouds 28 1012 74 10000 2.6 40 21:59 27.03.2020
679 Clouds 28 1012 74 10000 2.6 40 21:40 27.03.2020
680 Clouds 28 1012 74 10000 2.6 40 21:22 27.03.2020
681 Clouds 28 1011 74 10000 2.1 60 20:57 27.03.2020
682 Clouds 28 1011 74 10000 2.1 60 20:38 27.03.2020
683 Clouds 28 1011 74 10000 2.1 60 20:19 27.03.2020
684 Clouds 28 1011 74 10000 2.1 60 20:19 27.03.2020
685 Clouds 28 1011 74 10000 2.1 60 20:19 27.03.2020
686 Clouds 26 1011 83 10000 3.1 80 19:54 27.03.2020
687 Clouds 26 1011 83 10000 3.1 80 19:36 27.03.2020
688 Clouds 26 1011 83 10000 3.1 80 19:18 27.03.2020
689 Clouds 24 1010 88 10000 3.1 90 18:42 27.03.2020
690 Clouds 24 1010 88 10000 3.1 90 18:22 27.03.2020
691 Clouds 24 1010 88 10000 2.6 120 17:41 27.03.2020
692 Clouds 24 1010 88 10000 2.6 120 17:21 27.03.2020
693 Clouds 24 1010 88 10000 2.1 110 16:57 27.03.2020
694 Clouds 24 1010 88 10000 2.1 110 16:39 27.03.2020
695 Clouds 24 1010 88 10000 2.1 110 16:20 27.03.2020
696 Clouds 24 1010 88 10000 1.5 110 15:42 27.03.2020
697 Clouds 24 1010 88 10000 1.5 110 15:24 27.03.2020
698 Clouds 24 1010 88 10000 1.5 110 14:48 27.03.2020
699 Clouds 24 1010 88 10000 1.5 110 14:27 27.03.2020
700 Clouds 24 1010 88 10000 2.6 110 13:58 27.03.2020
701 Clouds 24 1010 88 10000 2.6 110 13:40 27.03.2020
702 Clouds 24 1010 88 10000 2.6 110 13:21 27.03.2020
703 Clouds 24 1011 88 10000 1.5 120 12:57 27.03.2020
704 Clouds 24 1011 88 10000 1.5 120 12:39 27.03.2020
705 Clouds 24 1011 88 10000 0.5 50 12:18 27.03.2020
706 Clouds 24 1011 88 10000 0.5 50 11:41 27.03.2020
707 Clouds 24 1011 88 10000 0.5 50 11:23 27.03.2020
708 Clouds 24 1011 88 10000 1.5 120 10:55 27.03.2020
709 Clouds 24 1011 88 10000 1.5 120 10:37 27.03.2020
710 Clouds 24 1011 88 10000 1.5 120 10:37 27.03.2020
711 Clouds 24 1011 88 10000 1.5 120 10:18 27.03.2020
712 Clouds 24 1011 88 10000 1.5 110 09:56 27.03.2020
713 Clouds 24 1011 88 10000 1.5 110 09:37 27.03.2020
714 Clouds 24 1011 88 10000 1.5 110 09:18 27.03.2020
715 Clouds 25 1011 83 10000 1 130 08:55 27.03.2020
716 Clouds 25 1011 83 10000 1 130 08:37 27.03.2020
717 Clouds 25 1011 83 10000 1 130 08:18 27.03.2020
718 Clouds 25 1010 83 10000 1 130 07:49 27.03.2020
719 Clouds 25 1010 83 10000 1 130 07:23 27.03.2020
720 Clouds 27 1010 78 10000 1.5 170 06:46 27.03.2020
721 Clouds 27 1010 78 10000 1.5 170 06:27 27.03.2020
722 Clouds 31 1009 66 10000 2.1 290 04:21 27.03.2020
723 Clouds 31 1009 70 10000 2.1 280 02:25 27.03.2020
724 Clouds 31 1010 70 10000 2.6 310 01:22 27.03.2020
725 Clouds 31 1011 70 10000 3.1 320 00:47 27.03.2020
726 Clouds 31 1011 70 10000 3.1 320 00:23 27.03.2020
727 Clouds 31 1011 74 10000 2.6 320 23:42 26.03.2020
728 Clouds 31 1011 74 10000 2.6 320 23:19 26.03.2020
729 Clouds 29 1011 79 10000 2.1 340 22:58 26.03.2020
730 Clouds 29 1011 79 10000 2.1 340 22:58 26.03.2020
731 Clouds 29 1011 79 10000 2.1 340 22:37 26.03.2020
732 Clouds 29 1011 79 10000 2.1 340 22:18 26.03.2020
733 Clouds 28 1011 83 10000 1.5 20 21:40 26.03.2020
734 Clouds 28 1011 83 10000 1.5 20 21:22 26.03.2020
735 Clouds 28 1011 83 10000 1.5 20 20:59 26.03.2020
736 Clouds 28 1011 83 10000 1.5 20 20:40 26.03.2020
737 Clouds 28 1011 83 10000 1.5 20 20:22 26.03.2020
738 Clouds 25 1011 94 10000 1 50 19:58 26.03.2020
739 Clouds 25 1011 94 10000 1 50 19:40 26.03.2020
740 Clouds 25 1011 94 10000 1 50 19:21 26.03.2020
741 Clouds 23 1010 94 10000 1 130 18:58 26.03.2020
742 Clouds 23 1010 94 10000 1 130 18:40 26.03.2020
743 Clouds 23 1010 94 10000 1 130 18:21 26.03.2020
744 Clouds 23 1010 94 10000 1 120 17:45 26.03.2020
745 Clouds 23 1010 94 10000 1 120 17:20 26.03.2020
746 Clouds 23 1009 94 10000 1 130 16:57 26.03.2020
747 Clouds 23 1009 94 10000 1 130 16:38 26.03.2020
748 Clouds 23 1009 94 10000 1 160 16:19 26.03.2020
749 Clouds 23 1009 94 10000 1 160 15:56 26.03.2020
750 Clouds 23 1009 94 10000 1 160 15:56 26.03.2020
751 Clouds 23 1009 94 10000 1 160 15:37 26.03.2020
752 Clouds 23 1009 94 10000 1 160 15:18 26.03.2020
753 Clouds 27 1009 73 0 2.73 265 14:43 26.03.2020
754 Clouds 27 1009 73 0 2.73 265 14:24 26.03.2020
755 Clouds 25 1010 88 10000 2.1 180 13:55 26.03.2020
756 Clouds 25 1010 88 10000 2.1 180 13:37 26.03.2020
757 Clouds 25 1010 88 10000 2.1 180 13:19 26.03.2020
758 Clouds 25 1010 88 10000 2.1 180 12:38 26.03.2020
759 Clouds 25 1010 88 10000 2.1 180 12:20 26.03.2020
760 Clouds 25 1010 88 10000 2.1 180 11:46 26.03.2020
761 Clouds 25 1010 94 10000 2.1 190 11:23 26.03.2020
762 Clouds 25 1010 94 10000 2.1 190 10:57 26.03.2020
763 Clouds 25 1010 94 10000 2.1 190 10:39 26.03.2020
764 Clouds 25 1010 94 10000 2.1 190 10:19 26.03.2020
765 Clouds 26 1010 83 10000 2.1 180 09:44 26.03.2020
766 Clouds 27 1009 78 10000 2.6 210 09:21 26.03.2020
767 Clouds 27 1009 78 10000 2.6 210 08:56 26.03.2020
768 Clouds 27 1009 78 10000 2.6 210 08:37 26.03.2020
769 Clouds 27 1009 78 10000 2.6 210 08:19 26.03.2020
770 Clouds 29 1009 74 10000 2.6 200 07:44 26.03.2020
771 Clouds 29 1009 74 10000 2.6 200 07:22 26.03.2020
772 Clouds 27 1009 78 10000 4.1 200 06:56 26.03.2020
773 Clouds 28 1008 78 10000 5.1 220 05:59 26.03.2020
774 Clouds 29 1008 74 10000 4.6 220 04:49 26.03.2020
775 Clouds 29 1008 74 10000 4.6 220 03:44 26.03.2020
776 Clouds 29 1008 74 10000 5.7 220 02:55 26.03.2020
777 Rain 29 1008 83 10000 7.7 220 01:50 26.03.2020
778 Rain 29 1008 79 10000 5.7 220 00:53 26.03.2020
779 Rain 29 1008 79 10000 5.7 220 00:20 26.03.2020
780 Rain 27 1009 94 10000 4.1 240 23:40 25.03.2020
781 Rain 27 1009 94 10000 4.1 240 23:20 25.03.2020
782 Rain 27 1009 94 10000 4.1 240 22:40 25.03.2020
783 Rain 27 1009 94 10000 4.1 240 22:21 25.03.2020
784 Drizzle 27 1009 88 10000 3.1 180 21:56 25.03.2020
785 Drizzle 27 1009 88 10000 3.1 180 21:37 25.03.2020
786 Drizzle 27 1009 88 10000 3.1 180 21:19 25.03.2020
787 Clouds 28 1009 88 10000 3.6 300 20:55 25.03.2020
788 Clouds 28 1009 88 10000 3.6 300 20:37 25.03.2020
789 Clouds 28 1009 88 10000 3.6 300 20:18 25.03.2020
790 Clouds 28 1009 88 10000 3.6 300 20:18 25.03.2020
791 Clouds 27 1008 88 10000 4.1 280 19:42 25.03.2020
792 Clouds 27 1008 88 10000 4.1 280 19:22 25.03.2020
793 Rain 27 1008 88 10000 4.1 290 18:56 25.03.2020
794 Rain 27 1008 88 10000 4.1 290 18:38 25.03.2020
795 Rain 27 1008 88 10000 4.1 290 18:19 25.03.2020
796 Clouds 27 1008 88 10000 4.6 290 17:54 25.03.2020
797 Clouds 27 1008 88 10000 4.6 290 17:36 25.03.2020
798 Clouds 27 1008 88 10000 4.6 290 17:18 25.03.2020
799 Clouds 27 1008 88 10000 5.7 310 16:41 25.03.2020
800 Clouds 27 1008 88 10000 5.7 310 16:22 25.03.2020
801 Clouds 27 1008 88 10000 5.7 310 16:21 25.03.2020
802 Rain 27 1008 88 10000 6.2 290 15:44 25.03.2020
803 Rain 27 1008 88 10000 6.2 290 15:22 25.03.2020
804 Clouds 26 1008 94 9998 6.7 310 14:59 25.03.2020
805 Clouds 26 1008 94 9998 6.7 310 14:40 25.03.2020
806 Clouds 26 1008 94 9998 6.7 310 14:20 25.03.2020
807 Clouds 27 1009 88 9998 5.7 300 13:46 25.03.2020
808 Clouds 27 1009 88 9998 5.7 300 13:25 25.03.2020
809 Clouds 27 1009 88 9998 7.2 320 12:54 25.03.2020
810 Clouds 27 1009 88 9998 7.2 320 12:36 25.03.2020
811 Clouds 27 1009 88 9998 7.2 320 12:18 25.03.2020
812 Clouds 27 1009 88 9998 6.2 300 11:41 25.03.2020
813 Clouds 27 1009 88 9998 6.2 300 11:21 25.03.2020
814 Clouds 27 1010 88 10000 6.2 310 10:58 25.03.2020
815 Clouds 27 1010 88 10000 6.2 310 10:40 25.03.2020
816 Clouds 27 1010 88 10000 6.2 310 10:40 25.03.2020
817 Clouds 27 1010 88 10000 6.2 310 10:19 25.03.2020
818 Clouds 27 1009 88 10000 6.2 310 09:56 25.03.2020
819 Clouds 27 1009 88 10000 6.2 310 09:56 25.03.2020
820 Clouds 27 1009 88 10000 6.2 310 09:38 25.03.2020
821 Clouds 27 1009 88 10000 6.2 310 09:20 25.03.2020
822 Clouds 27 1009 88 10000 5.1 310 08:42 25.03.2020
823 Clouds 27 1009 88 10000 6.2 300 08:24 25.03.2020
824 Clouds 27 1009 88 10000 6.2 300 07:56 25.03.2020
825 Clouds 27 1009 88 10000 6.2 300 07:37 25.03.2020
826 Clouds 27 1009 88 10000 6.2 300 07:18 25.03.2020
827 Clouds 28 1009 88 10000 6.2 300 06:41 25.03.2020
828 Clouds 28 1009 88 10000 6.2 300 06:23 25.03.2020
829 Clouds 28 1008 88 10000 5.1 270 05:47 25.03.2020
830 Clouds 30 1008 79 10000 6.2 300 04:42 25.03.2020
831 Clouds 30 1009 79 10000 5.7 290 03:57 25.03.2020
832 Clouds 30 1009 79 10000 5.7 290 03:32 25.03.2020
833 Clouds 31 1009 74 10000 4.1 290 01:40 25.03.2020
834 Clouds 30 1010 84 10000 3.1 290 00:50 25.03.2020
835 Clouds 30 1010 84 10000 3.1 290 00:27 25.03.2020
836 Rain 29 1010 83 10000 3.6 300 23:55 24.03.2020
837 Rain 29 1010 83 10000 3.6 300 23:28 24.03.2020
838 Rain 27 1011 88 10000 5.1 300 22:58 24.03.2020
839 Rain 27 1011 88 10000 5.1 300 22:38 24.03.2020
840 Rain 27 1011 88 10000 5.1 300 22:38 24.03.2020
841 Rain 27 1011 88 10000 5.1 300 22:20 24.03.2020
842 Rain 26 1011 94 10000 1.5 190 21:58 24.03.2020
843 Rain 26 1011 94 10000 1.5 190 21:40 24.03.2020
844 Rain 26 1011 94 10000 1.5 190 21:40 24.03.2020
845 Rain 26 1011 94 10000 1.5 190 21:18 24.03.2020
846 Rain 27 1011 88 10000 3.6 310 20:58 24.03.2020
847 Rain 27 1011 88 10000 3.6 310 20:39 24.03.2020
848 Rain 27 1011 88 10000 3.6 310 20:21 24.03.2020
849 Rain 26 1010 94 10000 4.6 310 19:46 24.03.2020
850 Rain 26 1010 94 10000 4.6 310 19:20 24.03.2020
851 Rain 28 1010 80 0 6.6 311 18:56 24.03.2020
852 Rain 28 1010 80 0 6.6 311 18:37 24.03.2020
853 Rain 28 1010 80 0 6.6 311 18:19 24.03.2020
854 Rain 28 1010 80 0 6.6 311 17:56 24.03.2020
855 Rain 28 1010 80 0 6.6 311 17:37 24.03.2020
856 Rain 28 1009 81 0 6.93 317 17:19 24.03.2020
857 Rain 25 1009 94 10000 1.5 170 16:42 24.03.2020
858 Rain 25 1009 94 10000 1.5 170 16:24 24.03.2020
859 Rain 25 1009 94 10000 1.5 170 15:59 24.03.2020
860 Rain 25 1009 94 10000 1.5 170 15:40 24.03.2020
861 Rain 25 1009 94 10000 2.1 360 15:22 24.03.2020
862 Rain 25 1009 94 7000 1.5 200 14:43 24.03.2020
863 Rain 25 1009 94 7000 1.5 200 14:43 24.03.2020
864 Rain 25 1009 94 7000 1.5 200 14:43 24.03.2020
865 Rain 25 1009 94 7000 1.5 200 14:43 24.03.2020
866 Rain 25 1010 94 5000 4.6 280 14:22 24.03.2020
867 Rain 25 1010 94 10000 6.7 300 13:55 24.03.2020
868 Rain 25 1010 94 10000 6.7 300 13:36 24.03.2020
869 Rain 27 1010 88 10000 4.6 300 13:18 24.03.2020
870 Rain 27 1010 88 10000 4.1 310 12:41 24.03.2020
871 Rain 27 1010 88 10000 4.1 310 12:23 24.03.2020
872 Rain 27 1010 83 10000 4.1 300 11:41 24.03.2020
873 Rain 26 1010 94 10000 4.1 300 11:20 24.03.2020
874 Rain 27 1011 88 10000 4.6 310 10:55 24.03.2020
875 Rain 27 1011 88 10000 4.6 310 10:36 24.03.2020
876 Rain 27 1011 83 10000 4.6 320 10:18 24.03.2020
877 Rain 26 1011 94 10000 3.1 330 09:43 24.03.2020
878 Rain 26 1011 94 10000 3.1 330 09:43 24.03.2020
879 Rain 27 1011 88 10000 2.6 340 09:24 24.03.2020
880 Rain 28 1011 83 10000 3.6 340 08:40 24.03.2020
881 Rain 27 1010 94 10000 2.6 360 08:21 24.03.2020
882 Rain 28 1010 83 10000 4.1 350 07:52 24.03.2020
883 Rain 28 1010 83 10000 4.1 350 07:26 24.03.2020
884 Rain 28 1010 83 10000 4.1 340 06:59 24.03.2020
885 Rain 28 1009 83 10000 3.6 350 06:34 24.03.2020
886 Rain 28 1009 83 10000 3.6 350 05:30 24.03.2020
887 Rain 28 1009 83 10000 3.6 340 04:49 24.03.2020
888 Rain 29 1009 79 10000 4.1 330 03:19 24.03.2020
889 Clouds 29 1009 83 10000 2.6 340 01:59 24.03.2020
890 Rain 29 1009 83 10000 1.5 30 00:52 24.03.2020
891 Rain 29 1009 83 10000 2.1 40 00:26 24.03.2020
892 Rain 29 1010 83 10000 2.6 30 23:50 23.03.2020
893 Rain 28 1010 88 10000 3.1 60 23:30 23.03.2020
894 Rain 28 1010 88 10000 3.1 50 22:59 23.03.2020
895 Rain 28 1010 88 10000 3.1 50 22:40 23.03.2020
896 Rain 28 1010 88 10000 3.6 50 22:22 23.03.2020
897 Rain 28 1010 88 10000 3.6 80 21:44 23.03.2020
898 Rain 27 1011 94 10000 5.1 80 21:21 23.03.2020
899 Rain 28 1011 88 10000 4.1 90 21:00 23.03.2020
900 Rain 28 1011 88 10000 4.1 90 20:41 23.03.2020
901 Rain 27 1011 94 10000 3.1 90 20:23 23.03.2020
902 Drizzle 26 1011 94 3700 4.6 90 19:55 23.03.2020
903 Drizzle 26 1011 94 3700 4.6 90 19:37 23.03.2020
904 Rain 26 1010 94 10000 2.6 110 19:18 23.03.2020
905 Rain 26 1009 88 10000 2.6 100 18:43 23.03.2020
906 Rain 26 1009 88 10000 2.6 100 18:24 23.03.2020
907 Rain 26 1008 88 10000 3.6 90 17:57 23.03.2020
908 Rain 26 1008 88 10000 3.6 90 17:57 23.03.2020
909 Rain 25 1008 94 10000 1.5 70 17:38 23.03.2020
910 Rain 25 1008 94 10000 1.5 70 17:19 23.03.2020
911 Rain 26 1009 88 10000 2.1 90 16:43 23.03.2020
912 Rain 26 1008 88 10000 1.5 70 16:25 23.03.2020
913 Rain 25 1009 94 10000 2.1 110 15:44 23.03.2020
914 Rain 25 1009 100 10000 1.5 90 15:21 23.03.2020
915 Rain 25 1010 94 10000 0.5 170 14:57 23.03.2020
916 Rain 25 1010 94 10000 0.5 170 14:37 23.03.2020
917 Rain 25 1010 94 10000 1 190 14:18 23.03.2020
918 Rain 26 1010 88 10000 1.5 110 13:41 23.03.2020
919 Rain 26 1010 88 10000 3.1 110 13:22 23.03.2020
920 Rain 26 1010 88 10000 2.6 110 12:58 23.03.2020
921 Rain 26 1010 88 10000 2.6 110 12:58 23.03.2020
922 Rain 26 1010 88 10000 2.6 110 12:40 23.03.2020
923 Rain 26 1010 88 10000 2.6 110 12:21 23.03.2020
924 Rain 26 1010 88 10000 2.1 110 11:42 23.03.2020
925 Rain 26 1010 88 10000 2.1 110 11:21 23.03.2020
926 Rain 26 1011 88 10000 2.1 100 10:58 23.03.2020
927 Rain 26 1011 88 10000 2.1 100 10:39 23.03.2020
928 Rain 26 1011 88 0 2.6 110 10:21 23.03.2020
929 Clouds 26 1011 88 10000 2.1 100 09:57 23.03.2020
930 Clouds 26 1011 88 10000 2.1 100 09:37 23.03.2020
931 Rain 26 1011 88 10000 1 150 09:18 23.03.2020
932 Rain 26 1011 88 10000 1 220 08:37 23.03.2020
933 Rain 26 1011 88 10000 1 160 08:19 23.03.2020
934 Drizzle 25 1011 94 10000 1.5 90 07:48 23.03.2020
935 Rain 25 1010 94 10000 1.5 130 07:29 23.03.2020
936 Rain 26 1010 88 10000 1.5 90 06:52 23.03.2020
937 Rain 26 1010 88 10000 2.6 80 06:20 23.03.2020
938 Rain 27 1010 83 10000 3.6 90 05:29 23.03.2020
939 Rain 28 1009 74 10000 3.6 100 03:41 23.03.2020
940 Rain 29 1010 70 10000 5.1 90 02:29 23.03.2020
941 Clouds 28 1010 74 10000 4.6 90 01:34 23.03.2020
942 Clouds 29 1010 66 10000 4.6 90 00:40 23.03.2020
943 Clouds 29 1011 70 10000 4.6 90 23:53 22.03.2020
944 Clouds 29 1012 70 10000 5.1 100 23:26 22.03.2020
945 Clouds 29 1012 70 10000 5.1 100 23:26 22.03.2020
946 Clouds 29 1012 70 10000 5.1 80 22:47 22.03.2020
947 Clouds 29 1012 70 10000 3.6 90 22:26 22.03.2020
948 Clouds 28 1012 69 10000 5.1 90 21:57 22.03.2020
949 Clouds 28 1012 69 10000 5.1 90 21:57 22.03.2020
950 Clouds 28 1012 69 10000 5.1 90 21:39 22.03.2020
951 Clouds 28 1012 74 10000 3.6 90 21:20 22.03.2020
952 Clouds 28 1012 74 10000 2.1 120 20:54 22.03.2020
953 Clouds 28 1012 74 10000 2.1 120 20:36 22.03.2020
954 Clouds 28 1012 69 10000 1.5 120 20:18 22.03.2020
955 Clouds 27 1012 74 10000 2.1 100 19:54 22.03.2020
956 Clouds 27 1012 74 10000 2.1 100 19:36 22.03.2020
957 Clouds 26 1012 78 10000 2.6 100 19:18 22.03.2020
958 Clouds 25 1012 83 10000 2.1 120 18:41 22.03.2020
959 Clouds 25 1011 83 10000 1.5 120 18:22 22.03.2020
960 Clouds 25 1011 83 10000 1.5 120 18:22 22.03.2020
961 Clouds 26 1011 78 10000 4.1 150 17:59 22.03.2020
962 Clouds 26 1011 78 10000 4.1 150 17:39 22.03.2020
963 Clouds 26 1011 78 10000 4.1 150 17:39 22.03.2020
964 Clouds 25 1011 78 10000 3.1 130 17:21 22.03.2020
965 Clouds 25 1011 78 10000 2.1 160 16:59 22.03.2020
966 Clouds 25 1011 78 10000 2.1 160 16:41 22.03.2020
967 Clouds 25 1011 78 10000 1 210 16:21 22.03.2020
968 Clouds 24 1011 88 10000 1 250 15:57 22.03.2020
969 Clouds 24 1011 88 10000 1 250 15:39 22.03.2020
970 Clouds 23 1012 88 10000 1 220 14:47 22.03.2020
971 Clouds 24 1012 83 10000 1 180 14:19 22.03.2020
972 Clouds 24 1012 83 10000 1 150 13:56 22.03.2020
973 Clouds 24 1012 83 10000 1 150 13:37 22.03.2020
974 Clouds 25 1013 78 10000 1.5 110 13:19 22.03.2020
975 Clouds 25 1013 78 10000 1 180 12:43 22.03.2020
976 Clouds 25 1013 78 10000 1.5 110 12:20 22.03.2020
977 Clouds 25 1013 73 10000 1.5 120 11:56 22.03.2020
978 Clouds 25 1013 73 10000 2.6 140 11:37 22.03.2020
979 Clouds 25 1013 73 10000 2.6 140 11:19 22.03.2020
980 Clouds 25 1013 78 10000 2.1 130 10:43 22.03.2020
981 Clouds 25 1014 78 10000 2.1 120 10:24 22.03.2020
982 Clouds 25 1014 78 10000 2.1 120 10:24 22.03.2020
983 Clouds 25 1014 78 10000 2.1 110 09:48 22.03.2020
984 Clouds 26 1014 74 10000 2.6 120 09:29 22.03.2020
985 Clouds 26 1013 74 10000 1.5 120 08:54 22.03.2020
986 Clouds 26 1013 74 10000 1.5 120 08:54 22.03.2020
987 Clouds 26 1013 74 10000 1.5 120 08:36 22.03.2020
988 Clouds 26 1013 74 10000 3.1 120 08:18 22.03.2020
989 Clouds 26 1013 74 10000 3.1 120 07:41 22.03.2020
990 Clouds 26 1013 78 10000 3.1 140 07:18 22.03.2020
991 Clouds 27 1012 74 10000 3.1 100 05:54 22.03.2020
992 Clouds 27 1012 78 10000 3.1 120 04:50 22.03.2020
993 Clouds 29 1012 70 10000 2.6 120 02:43 22.03.2020
994 Rain 28 1013 74 10000 3.6 90 01:19 22.03.2020
995 Rain 28 1014 74 10000 3.6 100 00:34 22.03.2020
996 Rain 28 1014 74 10000 4.1 90 23:47 21.03.2020
997 Rain 28 1014 74 10000 4.6 90 23:23 21.03.2020
998 Rain 28 1014 78 10000 2.6 90 22:59 21.03.2020
999 Rain 28 1014 78 10000 2.6 90 22:59 21.03.2020
1000 Rain 28 1014 78 10000 2.6 90 22:38 21.03.2020
1001 Rain 28 1014 78 10000 1.5 110 22:20 21.03.2020
1002 Rain 28 1015 74 10000 3.6 90 21:58 21.03.2020
1003 Rain 28 1015 74 10000 3.6 90 21:38 21.03.2020
1004 Rain 28 1015 74 10000 3.1 90 21:20 21.03.2020
1005 Rain 28 1015 74 10000 3.1 90 20:43 21.03.2020
1006 Rain 27 1015 78 10000 1.5 110 20:22 21.03.2020
1007 Rain 26 1015 83 10000 6.8 122 19:55 21.03.2020
1008 Rain 26 1015 83 10000 6.8 122 19:37 21.03.2020
1009 Rain 25 1014 94 10000 1 150 19:18 21.03.2020
1010 Rain 24 1014 94 10000 1 140 18:41 21.03.2020
1011 Rain 23 1014 100 10000 1 170 18:21 21.03.2020
1012 Rain 23 1014 100 10000 0.5 230 17:59 21.03.2020
1013 Rain 23 1013 100 10000 0.5 100 17:41 21.03.2020
1014 Rain 23 1013 100 10000 0.5 100 17:22 21.03.2020
1015 Rain 24 1013 94 10000 1 270 16:42 21.03.2020
1016 Rain 24 1014 94 10000 1 160 16:24 21.03.2020
1017 Rain 24 1014 94 10000 1 160 15:59 21.03.2020
1018 Rain 24 1014 94 10000 1 160 15:40 21.03.2020
1019 Rain 25 1014 88 10000 1 70 15:22 21.03.2020
1020 Rain 25 1014 88 10000 1 140 14:57 21.03.2020
1021 Rain 25 1014 88 10000 1 140 14:38 21.03.2020
1022 Rain 25 1014 88 10000 1 140 14:38 21.03.2020
1023 Rain 26 1014 83 10000 1.5 120 14:19 21.03.2020
1024 Rain 26 1014 83 10000 2.6 120 13:57 21.03.2020
1025 Rain 26 1014 83 10000 2.6 120 13:39 21.03.2020
1026 Rain 26 1014 83 10000 3.6 110 13:20 21.03.2020
1027 Rain 26 1015 83 10000 4.1 100 12:54 21.03.2020
1028 Rain 26 1015 83 10000 3.1 100 12:36 21.03.2020
1029 Rain 26 1015 83 10000 3.1 100 12:18 21.03.2020
1030 Rain 25 1015 88 10000 3.1 100 11:54 21.03.2020
1031 Rain 25 1015 88 10000 3.1 100 11:54 21.03.2020
1032 Rain 25 1015 88 10000 3.1 120 11:36 21.03.2020
1033 Rain 25 1015 88 10000 3.1 120 11:18 21.03.2020
1034 Rain 26 1016 83 10000 2.1 110 10:55 21.03.2020
1035 Rain 26 1016 83 10000 2.1 110 10:37 21.03.2020
1036 Rain 25 1016 88 10000 2.1 110 10:18 21.03.2020
1037 Rain 25 1016 88 10000 0.5 120 09:39 21.03.2020
1038 Rain 26 1016 83 10000 2.1 110 09:21 21.03.2020
1039 Rain 25 1015 88 10000 0.5 90 08:55 21.03.2020
1040 Rain 25 1015 88 10000 0.5 90 08:37 21.03.2020
1041 Rain 25 1015 88 10000 1 150 08:19 21.03.2020
1042 Clouds 25 1015 83 10000 0.5 60 07:37 21.03.2020
1043 Clouds 25 1015 83 10000 1 120 07:19 21.03.2020
1044 Clouds 26 1014 83 10000 2.1 120 06:44 21.03.2020
1045 Clouds 26 1014 83 10000 2.6 110 06:24 21.03.2020
1046 Clouds 26 1014 88 10000 1 120 05:40 21.03.2020
1047 Rain 26 1013 88 10000 4.6 60 03:49 21.03.2020
1048 Rain 27 1013 78 10000 4.6 90 02:37 21.03.2020
1049 Rain 27 1014 78 10000 4.1 100 01:44 21.03.2020
1050 Rain 28 1014 74 10000 4.1 110 01:23 21.03.2020
1051 Rain 28 1014 74 10000 5.1 100 00:39 21.03.2020
1052 Rain 28 1014 78 10000 4.1 90 00:21 21.03.2020
1053 Rain 27 1015 78 10000 3.1 110 23:42 20.03.2020
1054 Rain 28 1015 74 10000 1.5 110 23:22 20.03.2020
1055 Rain 27 1016 78 10000 2.6 130 22:44 20.03.2020
1056 Rain 28 1016 74 10000 3.6 80 22:25 20.03.2020
1057 Rain 28 1016 74 10000 1 80 21:58 20.03.2020
1058 Rain 28 1016 74 10000 1 80 21:40 20.03.2020
1059 Rain 28 1016 74 10000 1 120 21:20 20.03.2020
1060 Rain 27 1016 78 10000 1 80 20:57 20.03.2020
1061 Rain 27 1016 78 10000 1 80 20:39 20.03.2020
1062 Rain 27 1016 78 10000 1 110 20:19 20.03.2020
1063 Rain 25 1016 88 10000 0.5 160 19:46 20.03.2020
1064 Rain 25 1015 88 10000 1 200 19:19 20.03.2020
1065 Drizzle 25 1015 88 10000 2.1 100 18:57 20.03.2020
1066 Drizzle 25 1015 88 10000 2.1 100 18:37 20.03.2020
1067 Rain 24 1015 88 10000 1 110 18:19 20.03.2020
1068 Rain 25 1014 83 10000 0.5 260 17:40 20.03.2020
1069 Rain 25 1014 83 10000 0.5 260 17:22 20.03.2020
1070 Rain 25 1014 83 10000 1 150 16:59 20.03.2020
1071 Rain 25 1014 83 10000 1 150 16:41 20.03.2020
1072 Rain 25 1014 83 10000 1 150 16:41 20.03.2020
1073 Rain 25 1014 83 10000 1 150 16:20 20.03.2020
1074 Rain 25 1014 83 10000 1 150 16:20 20.03.2020
1075 Rain 25 1014 88 10000 0.5 180 15:43 20.03.2020
1076 Rain 25 1014 83 10000 2.1 80 15:22 20.03.2020
1077 Rain 25 1014 83 10000 0.5 150 14:57 20.03.2020
1078 Rain 25 1014 83 10000 0.5 150 14:38 20.03.2020
1079 Rain 25 1014 83 10000 2.1 100 14:19 20.03.2020
1080 Rain 25 1014 83 10000 2.1 110 13:46 20.03.2020
1081 Rain 25 1015 88 10000 2.6 110 13:20 20.03.2020
1082 Rain 25 1014 83 0 2.1 130 12:54 20.03.2020
1083 Rain 25 1015 83 10000 2.6 120 12:36 20.03.2020
1084 Rain 25 1015 83 10000 2.6 120 12:18 20.03.2020
1085 Rain 25 1015 83 10000 2.1 130 11:39 20.03.2020
1086 Clouds 25 1015 83 10000 2.1 130 11:20 20.03.2020
1087 Clouds 25 1015 83 10000 1 130 10:43 20.03.2020
1088 Clouds 25 1015 88 10000 1.5 90 10:21 20.03.2020
1089 Clouds 25 1015 88 10000 1.5 90 10:21 20.03.2020
1090 Clouds 25 1015 88 10000 1.5 100 10:00 20.03.2020
1091 Clouds 25 1015 88 10000 1.5 100 09:41 20.03.2020
1092 Clouds 25 1015 88 10000 2.1 100 09:19 20.03.2020
1093 Clouds 25 1015 88 10000 2.1 110 08:43 20.03.2020
1094 Clouds 25 1015 88 10000 3.1 120 08:22 20.03.2020
1095 Rain 25 1014 88 10000 2.1 110 07:57 20.03.2020
1096 Rain 25 1014 88 10000 2.1 110 07:38 20.03.2020
1097 Rain 25 1014 88 6000 2.6 120 07:19 20.03.2020
1098 Rain 25 1014 83 10000 2.1 130 06:42 20.03.2020
1099 Clouds 26 1013 83 10000 2.1 130 04:54 20.03.2020
1100 Clouds 26 1012 83 10000 1.5 120 03:50 20.03.2020
1101 Clouds 26 1012 88 10000 2.1 100 02:21 20.03.2020
1102 Rain 25 1013 94 10000 3.6 120 01:33 20.03.2020
1103 Rain 26 1013 88 10000 1.5 120 00:33 20.03.2020
1104 Rain 25 1013 94 10000 1.5 90 23:49 19.03.2020
1105 Rain 25 1014 94 10000 1.5 270 23:30 19.03.2020
1106 Rain 25 1013 94 10000 2.1 120 22:58 19.03.2020
1107 Rain 25 1013 94 10000 2.1 120 22:38 19.03.2020
1108 Rain 25 1014 100 10000 1.5 100 22:20 19.03.2020
1109 Rain 25 1014 94 10000 2.1 180 21:55 19.03.2020
1110 Rain 25 1014 94 10000 2.1 180 21:37 19.03.2020
1111 Rain 24 1014 100 4800 2.1 210 21:18 19.03.2020
1112 Rain 25 1014 100 10000 1 170 20:42 19.03.2020
1113 Rain 24 1014 100 7000 1 170 20:23 19.03.2020
1114 Rain 24 1013 100 4400 1 200 19:56 19.03.2020
1115 Rain 24 1013 100 4400 1 200 19:37 19.03.2020
1116 Rain 24 1013 100 4800 2.1 240 19:19 19.03.2020
1117 Rain 24 1013 100 1000 4.1 250 18:55 19.03.2020
1118 Rain 24 1013 100 1200 2.6 240 18:37 19.03.2020
1119 Rain 24 1013 100 1200 2.6 240 18:37 19.03.2020
1120 Rain 24 1013 100 1200 2.6 240 18:19 19.03.2020
1121 Rain 25 1012 100 5000 8.2 280 17:41 19.03.2020
1122 Rain 25 1012 100 5000 8.2 280 17:19 19.03.2020
1123 Drizzle 25 1012 100 10000 8.7 290 16:44 19.03.2020
1124 Rain 26 1011 94 10000 2.1 230 16:24 19.03.2020
1125 Rain 25 1011 100 10000 2.1 240 15:46 19.03.2020
1126 Rain 25 1011 100 10000 1.5 200 15:28 19.03.2020
1127 Rain 25 1011 100 10000 1.5 200 14:58 19.03.2020
1128 Rain 25 1011 100 10000 1.5 200 14:40 19.03.2020
1129 Rain 25 1011 100 10000 1.5 200 14:19 19.03.2020
1130 Rain 25 1012 94 10000 1.5 200 13:40 19.03.2020
1131 Rain 25 1012 94 10000 1.5 200 13:40 19.03.2020
1132 Rain 25 1012 94 10000 1.5 210 13:19 19.03.2020
1133 Rain 25 1012 94 6000 3.1 240 12:56 19.03.2020
1134 Rain 26 1012 94 10000 1.5 220 12:37 19.03.2020
1135 Rain 26 1012 94 10000 1.5 220 12:19 19.03.2020
1136 Rain 26 1012 88 10000 3.6 250 11:41 19.03.2020
1137 Rain 26 1012 88 10000 3.6 250 11:23 19.03.2020
1138 Rain 26 1012 88 10000 3.6 250 11:23 19.03.2020
1139 Rain 25 1012 94 10000 2.1 220 10:56 19.03.2020
1140 Rain 25 1012 94 10000 2.1 220 10:36 19.03.2020
1141 Rain 25 1012 94 10000 2.1 220 10:18 19.03.2020
1142 Rain 25 1012 94 10000 2.1 230 09:44 19.03.2020
1143 Rain 25 1012 94 10000 2.6 220 09:25 19.03.2020
1144 Rain 24 1012 94 10000 2.6 210 08:48 19.03.2020
1145 Rain 24 1012 100 3300 2.6 220 08:23 19.03.2020
1146 Rain 24 1012 100 3300 2.6 220 08:23 19.03.2020
1147 Rain 25 1012 94 6000 6.2 250 07:59 19.03.2020
1148 Rain 25 1012 94 6000 6.2 250 07:38 19.03.2020
1149 Rain 25 1012 100 3100 7.2 250 07:19 19.03.2020
1150 Rain 26 1011 88 4600 4.6 230 06:27 19.03.2020
1151 Rain 29 1011 83 10000 6.7 270 05:25 19.03.2020
1152 Clouds 29 1010 79 10000 7.2 280 04:47 19.03.2020
1153 Clouds 29 1010 79 10000 8.2 280 03:55 19.03.2020
1154 Clouds 29 1011 83 10000 7.7 280 01:46 19.03.2020
1155 Clouds 30 1011 79 10000 7.2 280 00:42 19.03.2020
1156 Clouds 30 1011 79 10000 7.7 280 00:19 19.03.2020
1157 Clouds 30 1011 79 10000 8.2 280 23:42 18.03.2020
1158 Clouds 30 1011 79 10000 8.2 280 23:22 18.03.2020
1159 Clouds 29 1012 83 10000 7.2 280 22:43 18.03.2020
1160 Clouds 29 1012 83 10000 6.7 280 22:23 18.03.2020
1161 Clouds 29 1012 83 10000 6.2 290 21:55 18.03.2020
1162 Clouds 29 1012 83 10000 6.2 290 21:37 18.03.2020
1163 Clouds 29 1012 83 10000 6.7 290 21:19 18.03.2020
1164 Clouds 29 1012 83 8000 6.7 290 20:55 18.03.2020
1165 Clouds 29 1012 83 8000 6.7 290 20:37 18.03.2020
1166 Clouds 28 1011 83 10000 6.7 280 20:18 18.03.2020
1167 Clouds 28 1011 83 10000 7.2 280 19:40 18.03.2020
1168 Clouds 28 1011 83 10000 6.2 280 19:21 18.03.2020
1169 Clouds 28 1011 83 10000 7.2 280 18:56 18.03.2020
1170 Rain 28 1011 78 10000 6.2 270 18:38 18.03.2020
1171 Rain 28 1011 78 10000 6.2 270 18:19 18.03.2020
1172 Clouds 27 1011 88 10000 6.7 270 17:54 18.03.2020
1173 Clouds 27 1011 88 10000 6.7 280 17:36 18.03.2020
1174 Clouds 27 1011 88 10000 6.7 280 17:18 18.03.2020
1175 Clouds 27 1010 88 10000 6.2 290 16:42 18.03.2020
1176 Clouds 27 1010 88 10000 6.2 290 16:20 18.03.2020
1177 Clouds 27 1010 88 10000 6.2 290 16:20 18.03.2020
1178 Clouds 27 1010 88 10000 6.2 300 15:56 18.03.2020
1179 Clouds 27 1010 88 10000 6.2 300 15:37 18.03.2020
1180 Clouds 27 1010 88 10000 5.7 310 15:19 18.03.2020
1181 Clouds 27 1010 94 10000 4.1 330 14:42 18.03.2020
1182 Clouds 26 1011 83 10000 3.6 330 14:21 18.03.2020
1183 Rain 25 1011 94 10000 4.1 320 13:41 18.03.2020
1184 Rain 25 1012 94 10000 5.7 310 13:19 18.03.2020
1185 Rain 24 1012 94 10000 1.5 290 12:43 18.03.2020
1186 Rain 23 1012 94 10000 1 210 12:21 18.03.2020
1187 Rain 24 1012 94 1400 5.1 250 11:58 18.03.2020
1188 Rain 27 1011 94 8000 6.2 290 11:37 18.03.2020
1189 Rain 27 1011 94 8000 6.2 290 11:18 18.03.2020
1190 Rain 27 1012 88 8000 6.7 290 10:55 18.03.2020
1191 Rain 27 1012 88 8000 6.7 290 10:36 18.03.2020
1192 Rain 28 1012 88 10000 7.2 290 10:18 18.03.2020
1193 Rain 27 1012 94 10000 7.2 290 09:41 18.03.2020
1194 Rain 28 1012 83 10000 7.2 290 09:22 18.03.2020
1195 Rain 28 1011 83 10000 6.7 290 08:40 18.03.2020
1196 Rain 28 1011 83 10000 6.7 290 08:40 18.03.2020
1197 Rain 28 1011 83 10000 5.7 300 08:22 18.03.2020
1198 Rain 27 1011 88 10000 6.7 300 07:59 18.03.2020
1199 Rain 27 1011 88 10000 7.2 290 07:37 18.03.2020
1200 Rain 27 1011 88 10000 7.2 290 07:19 18.03.2020
1201 Rain 27 1010 88 6000 6.7 290 06:39 18.03.2020
1202 Rain 27 1010 88 10000 6.7 290 05:37 18.03.2020
1203 Rain 27 1009 88 10000 6.7 290 04:38 18.03.2020
1204 Rain 27 1010 88 8000 5.7 280 03:21 18.03.2020
1205 Rain 27 1009 88 10000 7.2 280 02:36 18.03.2020
1206 Rain 27 1010 88 10000 7.7 280 01:42 18.03.2020
1207 Rain 27 1010 88 10000 8.2 280 00:42 18.03.2020
1208 Rain 27 1010 88 10000 8.2 280 00:21 18.03.2020
1209 Rain 27 1011 88 10000 8.2 280 23:41 17.03.2020
1210 Rain 27 1011 88 10000 7.2 270 23:20 17.03.2020
1211 Rain 27 1011 88 10000 7.7 260 22:42 17.03.2020
1212 Rain 27 1011 88 10000 7.7 260 22:24 17.03.2020
1213 Rain 27 1011 94 10000 8.2 270 21:43 17.03.2020
1214 Rain 27 1011 88 10000 7.7 270 21:23 17.03.2020
1215 Rain 27 1011 83 10000 8.2 280 20:56 17.03.2020
1216 Rain 27 1011 83 10000 8.2 280 20:37 17.03.2020
1217 Rain 27 1011 88 10000 7.7 270 20:19 17.03.2020
1218 Rain 27 1010 88 10000 7.7 270 19:41 17.03.2020
1219 Rain 27 1010 83 10000 7.7 270 19:18 17.03.2020
1220 Rain 27 1010 88 10000 7.7 270 18:56 17.03.2020
1221 Rain 27 1010 88 10000 7.7 260 18:38 17.03.2020
1222 Rain 27 1010 88 10000 7.7 260 18:20 17.03.2020
1223 Rain 26 1009 94 10000 6.7 260 17:41 17.03.2020
1224 Rain 26 1009 94 10000 6.7 260 17:23 17.03.2020
1225 Rain 26 1009 94 10000 7.2 260 16:57 17.03.2020
1226 Rain 26 1009 94 10000 7.2 260 16:39 17.03.2020
1227 Rain 26 1009 94 7000 7.7 260 16:18 17.03.2020
1228 Rain 25 1009 94 3500 7.7 270 15:44 17.03.2020
1229 Rain 25 1009 100 2300 6.7 260 15:22 17.03.2020
1230 Rain 26 1009 94 5000 8.2 260 14:44 17.03.2020
1231 Rain 26 1010 94 10000 7.7 260 14:23 17.03.2020
1232 Rain 26 1010 94 10000 7.2 260 13:46 17.03.2020
1233 Rain 25 1010 94 10000 6.7 250 13:28 17.03.2020
1234 Rain 25 1010 100 7000 4.6 240 12:59 17.03.2020
1235 Rain 25 1010 100 8000 5.1 230 12:40 17.03.2020
1236 Rain 25 1010 100 8000 5.1 230 12:22 17.03.2020
1237 Rain 24 1010 100 7000 4.6 220 11:47 17.03.2020
1238 Rain 24 1011 100 1800 4.6 230 11:28 17.03.2020
1239 Rain 24 1011 100 1100 3.6 240 10:58 17.03.2020
1240 Rain 24 1011 100 1100 3.6 240 10:38 17.03.2020
1241 Rain 28 1010 88 10000 7.2 270 10:20 17.03.2020
1242 Rain 27 1010 88 10000 5.7 270 09:57 17.03.2020
1243 Rain 27 1010 88 10000 5.7 270 09:39 17.03.2020
1244 Rain 27 1010 88 10000 5.7 270 09:18 17.03.2020
1245 Rain 27 1011 88 10000 6.2 260 08:43 17.03.2020
1246 Rain 28 1010 83 10000 6.2 260 08:21 17.03.2020
1247 Rain 27 1010 88 10000 5.7 270 07:50 17.03.2020
1248 Rain 27 1010 83 10000 6.7 270 07:26 17.03.2020
1249 Drizzle 27 1009 88 10000 6.7 270 06:58 17.03.2020
1250 Rain 27 1009 88 10000 6.2 270 06:33 17.03.2020
1251 Rain 28 1009 83 10000 5.1 270 05:46 17.03.2020
1252 Rain 27 1009 94 10000 5.7 260 03:36 17.03.2020
1253 Rain 27 1010 88 9000 6.2 260 02:45 17.03.2020
1254 Rain 29 1010 79 10000 7.2 270 01:41 17.03.2020
1255 Rain 28 1010 83 10000 7.2 280 01:19 17.03.2020
1256 Clouds 29 1011 74 10000 6.7 280 00:19 17.03.2020
1257 Clouds 29 1011 74 10000 6.7 270 23:44 16.03.2020
1258 Clouds 29 1012 79 0 8.01 298 23:23 16.03.2020
1259 Clouds 29 1012 74 10000 7.2 280 22:39 16.03.2020
1260 Clouds 29 1012 79 10000 6.2 280 22:20 16.03.2020
1261 Clouds 29 1012 79 10000 6.2 280 21:45 16.03.2020
1262 Clouds 29 1013 79 10000 5.7 280 21:27 16.03.2020
1263 Clouds 29 1013 79 10000 5.7 280 20:59 16.03.2020
1264 Clouds 29 1013 79 10000 5.7 280 20:40 16.03.2020
1265 Clouds 28 1013 83 10000 5.7 280 20:21 16.03.2020
1266 Clouds 28 1013 83 10000 5.7 270 19:46 16.03.2020
1267 Clouds 28 1012 83 10000 5.7 280 19:25 16.03.2020
1268 Clouds 28 1012 83 10000 5.7 280 19:25 16.03.2020
1269 Clouds 28 1012 83 10000 5.1 260 18:59 16.03.2020
1270 Clouds 28 1012 78 10000 5.7 260 18:39 16.03.2020
1271 Clouds 28 1012 78 10000 5.7 260 18:20 16.03.2020
1272 Clouds 28 1012 83 10000 6.2 280 17:46 16.03.2020
1273 Clouds 28 1011 83 10000 6.2 280 17:25 16.03.2020
1274 Clouds 28 1011 83 10000 6.2 280 16:57 16.03.2020
1275 Clouds 28 1011 83 10000 6.2 280 16:39 16.03.2020
1276 Clouds 28 1011 83 10000 6.2 280 16:39 16.03.2020
1277 Clouds 28 1011 83 10000 5.7 280 16:20 16.03.2020
1278 Clouds 27 1011 88 10000 5.1 280 15:43 16.03.2020
1279 Clouds 28 1011 83 10000 5.1 270 15:23 16.03.2020
1280 Clouds 27 1011 88 10000 5.7 270 14:47 16.03.2020
1281 Rain 28 1012 83 10000 5.1 280 14:20 16.03.2020
1282 Rain 28 1012 83 10000 4.6 290 13:47 16.03.2020
1283 Rain 28 1012 83 10000 4.1 290 13:27 16.03.2020
1284 Rain 28 1013 83 10000 4.1 290 12:57 16.03.2020
1285 Rain 28 1013 83 10000 3.6 300 12:38 16.03.2020
1286 Rain 28 1013 83 10000 3.6 300 12:20 16.03.2020
1287 Rain 28 1013 83 10000 3.6 310 11:42 16.03.2020
1288 Rain 28 1014 83 10000 3.1 310 11:23 16.03.2020
1289 Rain 28 1014 83 10000 3.6 290 10:43 16.03.2020
1290 Rain 27 1014 88 10000 3.1 280 10:24 16.03.2020
1291 Rain 28 1014 83 10000 3.1 290 09:49 16.03.2020
1292 Rain 28 1014 83 10000 3.6 290 09:30 16.03.2020
1293 Rain 28 1014 83 10000 3.6 290 08:59 16.03.2020
1294 Rain 28 1014 83 10000 3.6 290 08:36 16.03.2020
1295 Rain 28 1014 83 10000 3.1 280 08:18 16.03.2020
1296 Rain 28 1014 83 10000 3.6 280 07:40 16.03.2020
1297 Rain 28 1014 83 10000 4.1 270 07:18 16.03.2020
1298 Rain 28 1013 83 10000 3.1 280 06:28 16.03.2020
1299 Rain 28 1013 83 10000 3.1 290 05:54 16.03.2020
1300 Clouds 29 1013 79 10000 3.1 300 03:36 16.03.2020
1301 Clouds 29 1013 79 10000 3.1 310 01:44 16.03.2020
1302 Clouds 29 1013 79 10000 3.1 340 00:43 16.03.2020
1303 Clouds 30 1014 74 10000 3.1 350 23:49 15.03.2020
1304 Clouds 29 1014 79 10000 2.6 350 23:23 15.03.2020
1305 Clouds 29 1014 79 10000 2.6 330 22:58 15.03.2020
1306 Clouds 29 1014 79 10000 2.6 330 22:38 15.03.2020
1307 Clouds 29 1015 79 10000 1 10 22:19 15.03.2020
1308 Clouds 29 1015 79 10000 1.5 360 21:39 15.03.2020
1309 Clouds 28 1015 83 10000 2.1 110 21:19 15.03.2020
1310 Clouds 28 1015 83 10000 1 30 20:43 15.03.2020
1311 Clouds 28 1014 83 10000 1.5 50 20:22 15.03.2020
1312 Clouds 28 1015 83 10000 1 40 19:59 15.03.2020
1313 Clouds 28 1015 83 10000 1 40 19:40 15.03.2020
1314 Clouds 27 1014 94 10000 0.5 110 19:22 15.03.2020
1315 Clouds 25 1014 100 10000 0.5 130 18:57 15.03.2020
1316 Clouds 25 1014 100 10000 0.5 130 18:38 15.03.2020
1317 Clouds 24 1014 100 10000 0.5 150 18:20 15.03.2020
1318 Clouds 24 1014 100 9000 1 70 17:42 15.03.2020
1319 Clouds 24 1014 100 10000 1 180 17:22 15.03.2020
1320 Rain 24 1013 94 10000 0.5 180 16:59 15.03.2020
1321 Rain 24 1013 94 10000 0.5 180 16:41 15.03.2020
1322 Rain 24 1013 94 10000 0.5 110 16:22 15.03.2020
1323 Rain 24 1013 100 10000 0.5 50 15:56 15.03.2020
1324 Rain 24 1013 100 10000 0.5 50 15:38 15.03.2020
1325 Rain 24 1013 100 10000 1 80 15:19 15.03.2020
1326 Rain 24 1013 100 10000 0.5 80 14:41 15.03.2020
1327 Rain 24 1013 100 10000 0.5 80 14:40 15.03.2020
1328 Rain 24 1014 100 10000 1 100 14:22 15.03.2020
1329 Clouds 24 1014 100 10000 1 70 13:56 15.03.2020
1330 Clouds 24 1014 100 10000 1 70 13:38 15.03.2020
1331 Clouds 24 1014 100 10000 0.5 130 13:18 15.03.2020
1332 Clouds 24 1014 100 10000 1 70 12:40 15.03.2020
1333 Clouds 24 1014 100 10000 0.5 80 12:22 15.03.2020
1334 Clouds 24 1015 100 10000 0.5 180 11:45 15.03.2020
1335 Clouds 25 1015 94 10000 1 120 11:26 15.03.2020
1336 Clouds 25 1015 88 10000 1.5 110 10:59 15.03.2020
1337 Clouds 25 1015 88 10000 1.5 110 10:40 15.03.2020
1338 Clouds 25 1015 88 10000 1 100 10:22 15.03.2020
1339 Clouds 25 1016 88 10000 1 90 09:59 15.03.2020
1340 Clouds 25 1016 88 10000 1 90 09:38 15.03.2020
1341 Clouds 25 1016 94 10000 0.5 90 09:20 15.03.2020
1342 Clouds 25 1015 88 10000 1 90 08:41 15.03.2020
1343 Clouds 25 1015 94 10000 1 80 08:19 15.03.2020
1344 Clouds 26 1015 88 10000 1 130 07:48 15.03.2020
1345 Clouds 26 1015 88 10000 1.5 100 07:22 15.03.2020
1346 Clouds 26 1014 88 10000 1.5 110 06:43 15.03.2020
1347 Clouds 28 1014 74 10000 3.6 60 05:48 15.03.2020
1348 Clear 28 1014 78 10000 3.6 60 04:56 15.03.2020
1349 Clear 28 1014 78 10000 3.6 60 04:37 15.03.2020
1350 Clear 29 1014 74 10000 3.6 60 04:18 15.03.2020
1351 Clear 29 1014 74 10000 3.6 50 02:54 15.03.2020
1352 Clouds 29 1014 70 10000 3.1 40 02:21 15.03.2020
1353 Clouds 29 1014 74 10000 3.1 40 00:57 15.03.2020
1354 Clouds 29 1014 74 10000 3.1 40 00:39 15.03.2020
1355 Clouds 29 1015 74 10000 3.1 50 00:18 15.03.2020
1356 Clouds 29 1015 74 10000 3.1 40 23:38 14.03.2020
1357 Clouds 29 1015 74 10000 3.1 40 23:19 14.03.2020
1358 Clouds 29 1015 74 10000 3.6 50 22:55 14.03.2020
1359 Clouds 29 1015 74 10000 3.6 50 22:55 14.03.2020
1360 Clouds 29 1015 74 10000 3.6 50 22:37 14.03.2020
1361 Clouds 29 1016 74 10000 3.1 50 22:19 14.03.2020
1362 Clouds 29 1016 74 10000 2.6 50 21:54 14.03.2020
1363 Clouds 29 1016 74 10000 2.6 50 21:36 14.03.2020
1364 Clouds 29 1016 74 10000 3.1 50 21:18 14.03.2020
1365 Clouds 29 1016 74 10000 2.6 50 20:55 14.03.2020
1366 Clouds 29 1016 74 10000 2.6 50 20:36 14.03.2020
1367 Clouds 28 1016 78 10000 2.6 60 20:18 14.03.2020
1368 Clouds 27 1015 83 10000 2.1 80 19:40 14.03.2020
1369 Clouds 26 1015 88 10000 1.5 90 19:20 14.03.2020
1370 Clouds 23 1015 100 10000 1 80 18:39 14.03.2020
1371 Clouds 23 1015 100 10000 1 80 18:20 14.03.2020
1372 Clouds 23 1014 100 10000 0.5 90 17:41 14.03.2020
1373 Clouds 23 1014 100 10000 0.5 90 17:21 14.03.2020
1374 Clouds 23 1014 100 10000 0.5 120 16:57 14.03.2020
1375 Clouds 23 1014 100 10000 0.5 120 16:38 14.03.2020
1376 Clouds 23 1013 100 10000 0.5 110 16:18 14.03.2020
1377 Clouds 23 1013 100 10000 0.5 120 15:28 14.03.2020
1378 Clouds 23 1013 100 10000 0.5 180 14:59 14.03.2020
1379 Clouds 23 1013 100 10000 0.5 180 14:38 14.03.2020
1380 Clouds 23 1014 100 10000 0.5 140 14:20 14.03.2020
1381 Clouds 23 1014 100 10000 1 190 13:56 14.03.2020
1382 Clouds 23 1014 100 10000 1 190 13:38 14.03.2020
1383 Clear 23 1014 100 10000 0.5 160 13:18 14.03.2020
1384 Clear 24 1014 94 10000 1 180 12:43 14.03.2020
1385 Clear 24 1014 94 10000 1 180 12:43 14.03.2020
1386 Clear 24 1014 100 10000 1 90 12:24 14.03.2020
1387 Clear 24 1015 100 10000 0.5 180 11:43 14.03.2020
1388 Clear 24 1015 100 10000 0.5 180 11:43 14.03.2020
1389 Clear 24 1015 100 10000 0.5 180 11:25 14.03.2020
1390 Clear 24 1015 100 10000 0.5 170 10:47 14.03.2020
1391 Clear 24 1015 100 10000 0.5 170 10:47 14.03.2020
1392 Clear 24 1015 100 10000 0.5 170 10:28 14.03.2020
1393 Clear 24 1015 100 10000 1 180 09:59 14.03.2020
1394 Clear 24 1015 100 10000 1 180 09:40 14.03.2020
1395 Clear 25 1015 94 10000 0.5 170 09:21 14.03.2020
1396 Clear 25 1015 94 10000 1 180 08:46 14.03.2020
1397 Clear 25 1015 94 10000 1 180 08:26 14.03.2020
1398 Clear 25 1015 94 10000 0.5 180 07:40 14.03.2020
1399 Clear 26 1014 88 10000 1 170 07:21 14.03.2020
1400 Clear 26 1014 88 10000 1 190 06:45 14.03.2020
1401 Clear 28 1013 74 10000 1 310 06:26 14.03.2020
1402 Clear 29 1013 70 10000 1.5 310 04:53 14.03.2020
1403 Clear 30 1013 70 10000 2.1 330 03:34 14.03.2020
1404 Clear 30 1013 66 10000 2.1 330 02:43 14.03.2020
1405 Clouds 30 1013 70 10000 2.6 360 01:39 14.03.2020
1406 Clouds 29 1014 74 10000 2.1 350 00:22 14.03.2020
1407 Clouds 29 1014 74 10000 2.1 350 23:38 13.03.2020
1408 Clouds 29 1014 74 10000 2.1 350 23:38 13.03.2020
1409 Clouds 29 1014 74 10000 2.1 350 23:18 13.03.2020
1410 Clouds 29 1014 70 10000 2.6 350 22:41 13.03.2020
1411 Clouds 29 1014 70 10000 2.6 10 22:20 13.03.2020
1412 Clouds 29 1015 74 10000 2.6 360 21:40 13.03.2020
1413 Clouds 29 1015 70 10000 2.6 10 21:18 13.03.2020
1414 Clouds 29 1015 74 10000 2.6 360 20:41 13.03.2020
1415 Clouds 28 1015 78 10000 2.1 340 20:22 13.03.2020
1416 Clouds 28 1014 78 10000 2.1 340 19:51 13.03.2020
1417 Clouds 28 1014 74 10000 2.1 350 19:31 13.03.2020
1418 Clouds 26 1014 88 10000 1 70 18:59 13.03.2020
1419 Clouds 26 1014 88 10000 1 70 18:39 13.03.2020
1420 Clouds 25 1013 94 10000 0.5 100 18:21 13.03.2020
1421 Clouds 27 1013 78 10000 2.1 330 17:42 13.03.2020
1422 Clouds 27 1013 78 10000 2.1 330 17:21 13.03.2020
1423 Clouds 27 1012 78 10000 1.5 340 16:56 13.03.2020
1424 Clouds 26 1012 83 10000 1.5 60 16:37 13.03.2020
1425 Clouds 26 1012 83 10000 1.5 60 16:19 13.03.2020
1426 Clouds 27 1012 83 10000 1.5 20 15:41 13.03.2020
1427 Clouds 27 1012 83 10000 2.1 340 15:21 13.03.2020
1428 Clouds 27 1013 83 10000 2.6 310 14:44 13.03.2020
1429 Clouds 27 1013 83 10000 2.6 320 14:23 13.03.2020
1430 Rain 27 1013 83 10000 2.1 300 13:58 13.03.2020
1431 Rain 27 1013 83 10000 2.1 300 13:40 13.03.2020
1432 Rain 26 1013 88 10000 2.1 290 13:20 13.03.2020
1433 Rain 27 1013 88 10000 2.6 290 12:55 13.03.2020
1434 Rain 27 1013 83 10000 3.1 290 12:37 13.03.2020
1435 Rain 27 1013 83 10000 3.1 290 12:18 13.03.2020
1436 Rain 27 1014 83 10000 3.1 310 11:43 13.03.2020
1437 Rain 27 1014 83 10000 3.1 310 11:25 13.03.2020
1438 Rain 27 1014 83 10000 3.1 310 10:57 13.03.2020
1439 Rain 27 1014 83 10000 3.1 310 10:39 13.03.2020
1440 Rain 27 1014 83 10000 3.6 310 10:21 13.03.2020
1441 Rain 27 1014 83 10000 3.6 320 09:44 13.03.2020
1442 Rain 26 1014 94 10000 1.5 290 09:25 13.03.2020
1443 Rain 25 1014 94 10000 0.5 210 08:48 13.03.2020
1444 Rain 25 1014 94 10000 1 90 08:23 13.03.2020
1445 Rain 27 1013 83 10000 2.1 30 07:58 13.03.2020
1446 Rain 27 1013 83 10000 2.1 30 07:38 13.03.2020
1447 Rain 25 1013 94 10000 1 210 07:18 13.03.2020
1448 Rain 26 1013 88 10000 1 240 06:43 13.03.2020
1449 Rain 26 1012 83 10000 3.6 360 05:56 13.03.2020
1450 Rain 26 1013 88 10000 2.6 350 05:37 13.03.2020
1451 Rain 26 1013 83 10000 3.1 320 04:38 13.03.2020
1452 Rain 24 1013 100 3500 5.1 330 03:43 13.03.2020
1453 Rain 28 1012 83 10000 2.6 290 01:47 13.03.2020
1454 Rain 27 1013 94 10000 2.1 330 01:19 13.03.2020
1455 Rain 27 1013 88 10000 1.5 220 00:54 13.03.2020
1456 Rain 27 1013 88 10000 2.6 290 00:27 13.03.2020
1457 Rain 26 1014 94 10000 3.6 330 23:55 12.03.2020
1458 Rain 27 1014 83 10000 3.6 20 23:28 12.03.2020
1459 Rain 26 1014 88 10000 3.6 30 22:57 12.03.2020
1460 Rain 26 1014 88 10000 3.6 30 22:39 12.03.2020
1461 Rain 26 1014 88 10000 4.1 80 22:21 12.03.2020
1462 Rain 26 1014 94 10000 2.1 100 21:44 12.03.2020
1463 Rain 26 1014 88 10000 2.1 70 21:26 12.03.2020
1464 Rain 25 1014 94 10000 3.1 110 20:57 12.03.2020
1465 Rain 25 1014 94 10000 3.1 110 20:38 12.03.2020
1466 Rain 25 1014 94 10000 3.6 90 20:19 12.03.2020
1467 Rain 25 1014 94 10000 3.1 90 19:40 12.03.2020
1468 Rain 25 1014 94 10000 2.6 100 19:20 12.03.2020
1469 Rain 25 1013 94 10000 1.5 100 18:44 12.03.2020
1470 Rain 25 1013 88 10000 3.6 320 18:24 12.03.2020
1471 Rain 26 1012 88 10000 1.5 60 17:57 12.03.2020
1472 Rain 26 1012 88 10000 1.5 50 17:38 12.03.2020
1473 Rain 26 1012 88 10000 1.5 50 17:38 12.03.2020
1474 Rain 26 1012 88 10000 1.5 50 17:19 12.03.2020
1475 Rain 26 1012 88 10000 2.6 20 16:54 12.03.2020
1476 Rain 25 1012 94 10000 1 100 16:36 12.03.2020
1477 Rain 25 1012 94 10000 1 100 16:18 12.03.2020
1478 Rain 25 1012 94 10000 1.5 110 15:43 12.03.2020
1479 Rain 24 1012 100 10000 1.5 100 15:24 12.03.2020
1480 Rain 25 1012 94 10000 1.5 100 14:39 12.03.2020
1481 Rain 25 1012 94 10000 2.1 70 14:19 12.03.2020
1482 Rain 24 1013 100 10000 2.1 90 13:41 12.03.2020
1483 Rain 24 1013 94 10000 2.1 100 13:22 12.03.2020
1484 Rain 24 1013 94 10000 2.6 80 12:56 12.03.2020
1485 Rain 24 1013 94 10000 2.1 90 12:38 12.03.2020
1486 Rain 24 1013 94 10000 2.1 90 12:19 12.03.2020
1487 Rain 24 1013 94 10000 1 200 11:56 12.03.2020
1488 Rain 24 1013 94 10000 1 220 11:37 12.03.2020
1489 Rain 24 1013 94 10000 1 220 11:19 12.03.2020
1490 Rain 23 1014 100 10000 1.5 140 10:56 12.03.2020
1491 Rain 23 1014 100 10000 1.5 140 10:38 12.03.2020
1492 Rain 24 1014 100 3000 3.1 240 10:19 12.03.2020
1493 Rain 25 1014 94 10000 2.1 200 09:43 12.03.2020
1494 Rain 25 1014 94 10000 1.5 170 09:25 12.03.2020
1495 Rain 25 1013 94 10000 1.5 140 08:41 12.03.2020
1496 Rain 25 1013 94 10000 2.1 110 08:19 12.03.2020
1497 Rain 25 1013 94 10000 2.1 90 07:53 12.03.2020
1498 Rain 25 1013 94 10000 3.1 100 07:23 12.03.2020
1499 Rain 25 1013 94 10000 3.1 90 06:44 12.03.2020
1500 Rain 26 1012 94 8000 4.6 70 05:40 12.03.2020
1501 Rain 28 1012 78 10000 5.1 80 04:29 12.03.2020
1502 Rain 28 1012 83 10000 4.1 60 02:36 12.03.2020
1503 Rain 29 1013 74 10000 4.6 60 01:30 12.03.2020
1504 Rain 30 1013 70 10000 4.6 60 00:42 12.03.2020
1505 Rain 29 1014 74 10000 4.6 70 23:59 11.03.2020
1506 Rain 29 1014 74 10000 4.6 70 23:59 11.03.2020
1507 Rain 29 1014 74 10000 4.6 70 23:59 11.03.2020
1508 Rain 29 1014 74 10000 4.6 60 23:40 11.03.2020
1509 Rain 29 1014 74 10000 4.6 60 23:22 11.03.2020
1510 Rain 29 1014 74 10000 4.1 60 22:45 11.03.2020
1511 Rain 29 1014 70 10000 4.1 60 22:25 11.03.2020
1512 Rain 28 1014 74 10000 4.6 70 21:58 11.03.2020
1513 Rain 28 1014 74 10000 4.6 70 21:40 11.03.2020
1514 Rain 29 1014 74 10000 4.1 80 21:22 11.03.2020
1515 Rain 28 1014 74 10000 5.1 70 20:57 11.03.2020
1516 Rain 28 1014 74 10000 5.1 70 20:37 11.03.2020
1517 Rain 28 1014 74 10000 5.1 70 20:19 11.03.2020
1518 Rain 28 1014 78 10000 3.1 90 19:42 11.03.2020
1519 Rain 26 1014 83 10000 2.1 100 19:24 11.03.2020
1520 Rain 25 1014 88 10000 2.6 90 18:57 11.03.2020
1521 Rain 25 1014 88 10000 2.6 90 18:38 11.03.2020
1522 Rain 25 1014 83 10000 2.6 90 18:19 11.03.2020
1523 Rain 25 1013 83 10000 2.1 110 17:55 11.03.2020
1524 Rain 25 1013 83 10000 2.1 100 17:37 11.03.2020
1525 Clear 25 1013 83 10000 2.1 100 17:18 11.03.2020
1526 Clear 25 1013 83 10000 2.1 100 16:43 11.03.2020
1527 Clear 25 1013 83 10000 2.6 100 16:20 11.03.2020
1528 Clear 25 1012 83 10000 3.1 90 15:43 11.03.2020
1529 Clear 25 1013 88 10000 2.6 100 15:23 11.03.2020
1530 Clear 25 1013 83 10000 2.6 90 14:54 11.03.2020
1531 Clear 25 1013 83 10000 2.6 90 14:36 11.03.2020
1532 Clear 25 1013 83 10000 2.6 90 14:36 11.03.2020
1533 Clear 26 1013 78 10000 2.6 100 14:18 11.03.2020
1534 Clear 26 1013 83 10000 1.5 100 13:41 11.03.2020
1535 Clear 26 1013 78 10000 1.5 100 13:22 11.03.2020
1536 Clear 26 1013 78 10000 3.1 100 12:56 11.03.2020
1537 Clear 26 1013 78 10000 3.1 100 12:38 11.03.2020
1538 Clear 25 1014 83 10000 1.5 100 12:19 11.03.2020
1539 Clear 26 1014 78 10000 2.1 100 11:41 11.03.2020
1540 Clear 26 1014 78 10000 1.5 110 11:20 11.03.2020
1541 Clear 25 1014 83 10000 1 130 10:47 11.03.2020
1542 Clear 26 1014 78 10000 1 100 10:20 11.03.2020
1543 Clear 26 1014 78 10000 1 120 09:58 11.03.2020
1544 Clear 26 1014 78 10000 1 120 09:38 11.03.2020
1545 Clear 26 1014 78 10000 1.5 110 09:19 11.03.2020
1546 Clear 26 1014 78 10000 1.5 110 08:42 11.03.2020
1547 Clear 26 1014 78 10000 2.1 100 08:23 11.03.2020
1548 Clouds 26 1013 78 10000 1.5 100 07:47 11.03.2020
1549 Clouds 26 1013 78 10000 1 130 07:20 11.03.2020
1550 Clouds 25 1013 88 10000 0.5 120 06:49 11.03.2020
1551 Clouds 26 1012 78 10000 1 110 06:20 11.03.2020
1552 Clouds 28 1012 74 10000 2.1 90 05:23 11.03.2020
1553 Clouds 28 1012 69 10000 4.6 60 02:36 11.03.2020
1554 Clouds 28 1012 69 10000 3.1 70 01:44 11.03.2020
1555 Clear 28 1013 74 10000 3.6 80 00:53 11.03.2020
1556 Clear 28 1013 74 10000 5.1 80 00:21 11.03.2020
1557 Clear 28 1013 74 10000 5.7 70 23:45 10.03.2020
1558 Clear 28 1014 74 10000 3.6 40 23:22 10.03.2020
1559 Clear 29 1014 66 10000 1.5 350 22:41 10.03.2020
1560 Rain 28 1014 74 10000 2.1 350 22:21 10.03.2020
1561 Clear 27 1014 74 10000 1.5 100 21:57 10.03.2020
1562 Clear 27 1014 74 10000 1.5 100 21:39 10.03.2020
1563 Clear 27 1014 78 10000 0.5 110 21:20 10.03.2020
1564 Clear 26 1014 83 10000 0.5 190 20:59 10.03.2020
1565 Clear 26 1014 83 10000 0.5 190 20:41 10.03.2020
1566 Clouds 26 1014 83 10000 0.5 190 20:19 10.03.2020
1567 Clouds 25 1014 88 10000 0.5 90 19:57 10.03.2020
1568 Clouds 25 1014 88 10000 0.5 90 19:57 10.03.2020
1569 Clouds 25 1014 88 10000 0.5 90 19:38 10.03.2020
1570 Clouds 25 1014 88 10000 0.5 90 19:38 10.03.2020
1571 Clouds 25 1014 88 10000 0.5 90 19:38 10.03.2020
1572 Clouds 24 1013 94 10000 0.5 120 19:20 10.03.2020
1573 Clouds 23 1013 94 10000 1 150 18:45 10.03.2020
1574 Clouds 23 1013 94 10000 0.5 210 18:26 10.03.2020
1575 Clouds 23 1012 94 10000 1.5 110 17:58 10.03.2020
1576 Clouds 23 1012 94 10000 1.5 120 17:40 10.03.2020
1577 Clouds 23 1012 94 10000 1.5 120 17:21 10.03.2020
1578 Clouds 23 1012 94 10000 1 140 16:39 10.03.2020
1579 Clouds 23 1012 94 10000 0.5 80 16:19 10.03.2020
1580 Clouds 23 1012 94 10000 2.6 70 15:56 10.03.2020
1581 Clouds 23 1012 94 10000 2.6 70 15:56 10.03.2020
1582 Clouds 23 1012 94 10000 2.6 70 15:37 10.03.2020
1583 Clouds 23 1012 94 10000 0.5 10 15:19 10.03.2020
1584 Clouds 23 1012 94 10000 1 70 14:41 10.03.2020
1585 Clouds 23 1012 94 10000 0.5 180 14:20 10.03.2020
1586 Clouds 23 1012 94 10000 0.5 170 13:58 10.03.2020
1587 Clouds 23 1012 94 10000 0.5 170 13:38 10.03.2020
1588 Clouds 23 1013 94 10000 0.5 100 13:20 10.03.2020
1589 Clouds 23 1013 94 10000 0.5 170 12:42 10.03.2020
1590 Clouds 23 1013 94 10000 0.5 190 12:19 10.03.2020
1591 Clouds 23 1013 94 10000 1 160 11:58 10.03.2020
1592 Clouds 23 1013 94 10000 1 160 11:40 10.03.2020
1593 Clouds 23 1013 100 10000 0.5 130 11:22 10.03.2020
1594 Clouds 23 1013 100 10000 1 170 10:42 10.03.2020
1595 Clouds 23 1013 100 10000 1.5 190 10:23 10.03.2020
1596 Clouds 24 1013 94 10000 1 160 09:57 10.03.2020
1597 Clouds 24 1013 94 10000 1 160 09:39 10.03.2020
1598 Clouds 24 1013 94 10000 1 140 09:19 10.03.2020
1599 Clouds 24 1013 94 10000 0.5 160 08:46 10.03.2020
1600 Clouds 24 1012 94 10000 1 200 08:28 10.03.2020
1601 Clouds 25 1012 88 10000 1 50 07:50 10.03.2020
1602 Clouds 25 1012 88 10000 1 120 07:31 10.03.2020
1603 Clouds 25 1012 88 10000 1.5 90 06:44 10.03.2020
1604 Clouds 26 1012 83 10000 1 80 06:25 10.03.2020
1605 Clouds 27 1011 78 10000 2.1 120 05:41 10.03.2020
1606 Clouds 27 1011 78 10000 2.1 100 04:40 10.03.2020
1607 Clouds 28 1011 74 10000 3.1 70 03:37 10.03.2020
1608 Clouds 29 1011 70 10000 2.1 300 02:26 10.03.2020
1609 Clouds 29 1011 74 10000 2.1 10 01:20 10.03.2020
1610 Clouds 29 1011 70 10000 2.1 350 00:41 10.03.2020
1611 Clouds 29 1011 70 10000 2.1 350 00:22 10.03.2020
1612 Clouds 29 1011 70 10000 1.5 50 23:40 09.03.2020
1613 Clouds 29 1011 70 10000 1.5 50 23:21 09.03.2020
1614 Clouds 29 1012 70 10000 0.5 120 22:41 09.03.2020
1615 Clouds 28 1012 74 10000 1.5 180 22:22 09.03.2020
1616 Clouds 28 1012 74 10000 1.5 160 21:57 09.03.2020
1617 Clouds 28 1012 74 10000 1.5 160 21:39 09.03.2020
1618 Clouds 29 1012 74 10000 2.6 130 21:20 09.03.2020
1619 Clouds 28 1012 78 10000 2.1 150 20:56 09.03.2020
1620 Clouds 28 1012 78 10000 2.1 150 20:37 09.03.2020
1621 Rain 28 1012 78 10000 1.5 130 20:18 09.03.2020
1622 Rain 27 1011 78 10000 2.1 150 19:44 09.03.2020
1623 Rain 27 1011 83 10000 1.5 160 19:21 09.03.2020
1624 Rain 26 1011 83 10000 1 150 18:57 09.03.2020
1625 Rain 26 1011 83 10000 1 150 18:38 09.03.2020
1626 Rain 26 1010 83 10000 1.5 170 18:19 09.03.2020
1627 Rain 26 1010 83 10000 1.5 190 17:57 09.03.2020
1628 Rain 26 1010 83 10000 2.1 180 17:38 09.03.2020
1629 Rain 26 1010 83 10000 2.1 180 17:20 09.03.2020
1630 Rain 26 1010 83 10000 1.5 190 16:57 09.03.2020
1631 Rain 26 1009 88 10000 2.1 190 16:39 09.03.2020
1632 Rain 26 1009 88 10000 2.1 190 16:20 09.03.2020
1633 Rain 26 1009 88 10000 2.1 190 15:57 09.03.2020
1634 Rain 26 1009 88 10000 1.5 210 15:38 09.03.2020
1635 Rain 26 1009 88 10000 1.5 210 15:19 09.03.2020
1636 Rain 26 1010 88 10000 2.1 190 14:41 09.03.2020
1637 Rain 26 1010 88 10000 2.1 200 14:41 09.03.2020
1638 Rain 26 1010 88 10000 2.1 190 14:23 09.03.2020
1639 Rain 25 1010 94 10000 1.5 180 13:59 09.03.2020
1640 Rain 25 1010 94 10000 1.5 180 13:59 09.03.2020
1641 Rain 26 1010 94 10000 2.6 240 13:40 09.03.2020
1642 Rain 25 1010 94 10000 1.5 180 13:40 09.03.2020
1643 Rain 26 1010 94 10000 2.6 240 13:21 09.03.2020
1644 Rain 26 1010 94 10000 1.5 180 12:59 09.03.2020
1645 Rain 26 1010 94 10000 1.5 180 12:40 09.03.2020
1646 Rain 25 1010 94 10000 1 200 12:19 09.03.2020
1647 Rain 25 1011 100 10000 1 200 11:40 09.03.2020
1648 Rain 25 1011 100 10000 1 200 11:20 09.03.2020
1649 Rain 26 1011 94 10000 1 210 10:57 09.03.2020
1650 Rain 26 1011 94 10000 1 210 10:39 09.03.2020
1651 Rain 26 1011 94 10000 2.1 240 10:19 09.03.2020
1652 Rain 27 1011 88 10000 3.1 280 09:42 09.03.2020
1653 Rain 26 1011 94 10000 1 220 09:24 09.03.2020
1654 Rain 25 1010 100 10000 1.5 210 08:47 09.03.2020
1655 Rain 26 1010 94 10000 2.6 280 08:29 09.03.2020
1656 Rain 26 1010 94 10000 3.6 280 07:57 09.03.2020
1657 Rain 26 1010 94 10000 3.6 270 07:37 09.03.2020
1658 Rain 26 1010 94 10000 3.6 270 07:18 09.03.2020
1659 Rain 25 1010 100 10000 4.1 290 06:39 09.03.2020
1660 Rain 25 1010 100 10000 4.1 290 06:21 09.03.2020
1661 Rain 27 1009 88 10000 4.1 300 05:42 09.03.2020
1662 Rain 27 1009 88 10000 6.2 270 04:57 09.03.2020
1663 Rain 27 1009 88 10000 5.7 280 04:39 09.03.2020
1664 Rain 27 1009 88 10000 5.7 280 04:19 09.03.2020
1665 Rain 29 1009 79 10000 5.7 270 02:51 09.03.2020
1666 Rain 28 1010 83 10000 3.1 260 00:44 09.03.2020
1667 Rain 28 1010 88 10000 2.6 260 00:25 09.03.2020
1668 Rain 27 1011 94 10000 2.6 270 23:58 08.03.2020
1669 Rain 27 1011 94 10000 1.5 310 23:38 08.03.2020
1670 Rain 27 1011 94 10000 1.5 310 23:18 08.03.2020
1671 Rain 26 1011 94 8000 5.1 290 22:40 08.03.2020
1672 Rain 26 1011 100 10000 4.1 290 22:22 08.03.2020
1673 Rain 26 1012 94 10000 3.6 310 21:59 08.03.2020
1674 Rain 26 1012 94 10000 3.6 310 21:40 08.03.2020
1675 Rain 26 1012 94 10000 1.5 30 21:20 08.03.2020
1676 Rain 25 1012 94 10000 1.5 30 20:56 08.03.2020
1677 Rain 25 1011 94 10000 2.6 320 20:37 08.03.2020
1678 Rain 25 1011 94 10000 2.6 320 20:19 08.03.2020
1679 Rain 24 1011 100 2400 1 230 19:38 08.03.2020
1680 Rain 24 1011 100 10000 1 230 19:19 08.03.2020
1681 Rain 24 1011 100 10000 1 230 18:43 08.03.2020
1682 Rain 24 1011 100 1300 2.1 210 18:24 08.03.2020
1683 Rain 24 1011 100 1300 2.1 210 18:24 08.03.2020
1684 Rain 24 1010 100 5000 2.1 240 17:58 08.03.2020
1685 Rain 24 1010 100 5000 2.1 240 17:39 08.03.2020
1686 Rain 24 1010 100 5000 2.1 240 17:20 08.03.2020
1687 Rain 24 1010 100 5000 2.1 240 16:47 08.03.2020
1688 Rain 25 1010 94 10000 2.1 240 16:28 08.03.2020
1689 Rain 25 1010 94 10000 2.1 240 15:59 08.03.2020
1690 Rain 24 1010 100 2600 2.6 230 15:41 08.03.2020
1691 Rain 24 1010 100 2600 2.6 230 15:21 08.03.2020
1692 Rain 24 1011 100 2600 2.6 230 14:55 08.03.2020
1693 Rain 24 1011 100 2600 2.6 230 14:37 08.03.2020
1694 Rain 24 1011 100 2600 2.6 230 14:18 08.03.2020
1695 Rain 25 1011 100 4200 3.6 260 13:40 08.03.2020
1696 Rain 25 1011 94 1900 3.6 300 13:20 08.03.2020
1697 Rain 26 1011 100 2900 2.6 320 12:43 08.03.2020
1698 Rain 27 1011 88 9000 3.6 340 12:25 08.03.2020
1699 Rain 27 1011 88 10000 3.6 340 11:57 08.03.2020
1700 Rain 27 1011 88 10000 3.6 340 11:57 08.03.2020
1701 Rain 27 1011 88 10000 3.6 340 11:39 08.03.2020
1702 Rain 28 1012 83 10000 2.1 340 11:20 08.03.2020
1703 Rain 28 1012 83 10000 2.1 340 10:41 08.03.2020
1704 Rain 28 1012 83 10000 2.1 340 10:23 08.03.2020
1705 Rain 28 1012 83 10000 2.6 340 09:43 08.03.2020
1706 Rain 28 1012 83 10000 1.5 340 09:25 08.03.2020
1707 Rain 28 1012 83 10000 2.6 320 08:57 08.03.2020
1708 Rain 28 1012 83 10000 3.1 320 08:39 08.03.2020
1709 Rain 28 1012 83 10000 3.1 320 08:19 08.03.2020
1710 Rain 28 1012 83 10000 2.6 330 07:42 08.03.2020
1711 Rain 27 1011 88 10000 2.1 340 07:23 08.03.2020
1712 Rain 28 1011 83 10000 2.6 340 06:42 08.03.2020
1713 Rain 27 1011 88 10000 3.1 350 06:22 08.03.2020
1714 Rain 27 1012 77 0 3.02 25 05:35 08.03.2020
1715 Rain 27 1010 83 10000 4.1 50 03:51 08.03.2020
1716 Rain 27 1010 83 10000 3.6 40 02:29 08.03.2020
1717 Rain 27 1012 83 10000 6.7 50 01:23 08.03.2020
1718 Rain 27 1012 83 10000 6.7 50 01:23 08.03.2020
1719 Rain 27 1012 83 10000 6.7 50 01:23 08.03.2020
1720 Rain 27 1012 83 10000 6.7 50 00:44 08.03.2020
1721 Rain 26 1013 94 10000 7.2 70 00:25 08.03.2020
1722 Rain 26 1013 94 10000 7.2 70 23:44 07.03.2020
1723 Rain 25 1014 100 10000 5.1 90 23:23 07.03.2020
1724 Rain 25 1014 94 10000 3.6 90 22:41 07.03.2020
1725 Rain 25 1014 94 10000 3.6 90 22:22 07.03.2020
1726 Rain 25 1014 94 10000 3.1 70 21:49 07.03.2020
1727 Rain 25 1015 94 10000 2.1 20 21:26 07.03.2020
1728 Rain 25 1015 94 10000 2.1 40 20:57 07.03.2020
1729 Rain 25 1015 94 10000 2.1 350 20:38 07.03.2020
1730 Rain 25 1015 94 10000 2.1 350 20:19 07.03.2020
1731 Rain 25 1014 94 10000 1 240 19:41 07.03.2020
1732 Rain 25 1013 100 10000 3.6 260 19:21 07.03.2020
1733 Rain 25 1013 100 10000 5.7 270 18:43 07.03.2020
1734 Rain 25 1013 94 10000 4.6 250 18:25 07.03.2020
1735 Rain 25 1013 94 10000 5.1 250 17:56 07.03.2020
1736 Rain 25 1012 94 8000 1.5 180 17:38 07.03.2020
1737 Rain 25 1012 94 8000 1.5 180 17:18 07.03.2020
1738 Rain 25 1012 94 8000 1.5 300 16:43 07.03.2020
1739 Rain 25 1012 100 2700 3.1 50 16:23 07.03.2020
1740 Rain 25 1012 100 10000 2.1 80 15:58 07.03.2020
1741 Rain 25 1012 100 10000 1.5 90 15:40 07.03.2020
1742 Rain 25 1012 100 10000 1.5 90 15:21 07.03.2020
1743 Rain 25 1012 100 10000 1.5 90 15:21 07.03.2020
1744 Rain 25 1012 100 10000 2.1 110 14:57 07.03.2020
1745 Rain 25 1012 100 10000 1.5 70 14:38 07.03.2020
1746 Rain 25 1012 100 10000 1.5 70 14:19 07.03.2020
1747 Rain 25 1012 100 10000 1.5 90 13:40 07.03.2020
1748 Rain 25 1012 100 10000 1 100 13:20 07.03.2020
1749 Rain 25 1012 100 10000 0.5 200 12:43 07.03.2020
1750 Rain 25 1013 100 10000 1 180 12:21 07.03.2020
1751 Rain 25 1013 100 10000 1 190 11:58 07.03.2020
1752 Rain 25 1013 100 10000 1 190 11:58 07.03.2020
1753 Rain 25 1014 100 10000 1 180 11:39 07.03.2020
1754 Rain 25 1014 100 10000 1 180 11:21 07.03.2020
1755 Rain 25 1014 100 8000 1 130 10:41 07.03.2020
1756 Rain 25 1014 100 7000 0.5 140 10:21 07.03.2020
1757 Rain 25 1014 100 10000 1 130 09:57 07.03.2020
1758 Rain 25 1014 100 9000 1.5 120 09:38 07.03.2020
1759 Rain 25 1014 100 9000 1.5 120 09:18 07.03.2020
1760 Rain 25 1013 100 8000 2.1 100 08:44 07.03.2020
1761 Rain 25 1013 100 2800 2.6 90 08:21 07.03.2020
1762 Rain 25 1013 100 2800 2.6 90 08:21 07.03.2020
1763 Rain 26 1012 94 6000 4.1 30 07:49 07.03.2020
1764 Rain 28 1012 76 0 3.92 7 07:22 07.03.2020
1765 Rain 28 1012 76 0 3.92 7 06:55 07.03.2020
1766 Rain 28 1012 76 0 3.92 7 06:29 07.03.2020
1767 Rain 28 1010 83 10000 3.1 10 05:50 07.03.2020
1768 Drizzle 28 1010 83 10000 3.1 10 04:40 07.03.2020
1769 Rain 29 1011 79 10000 3.6 10 02:46 07.03.2020
1770 Rain 29 1011 79 10000 3.6 10 02:24 07.03.2020
1771 Rain 29 1011 79 10000 3.1 10 01:23 07.03.2020
1772 Rain 29 1012 79 10000 3.6 10 00:38 07.03.2020
1773 Rain 29 1012 79 10000 3.6 10 00:19 07.03.2020
1774 Rain 30 1012 79 10000 3.6 30 23:43 06.03.2020
1775 Rain 29 1012 79 10000 3.1 10 23:24 06.03.2020
1776 Rain 29 1013 79 10000 2.6 10 22:47 06.03.2020
1777 Rain 29 1013 74 10000 2.6 10 22:21 06.03.2020
1778 Rain 29 1013 79 10000 2.1 20 21:50 06.03.2020
1779 Rain 29 1012 79 10000 2.6 50 21:21 06.03.2020
1780 Rain 28 1012 83 10000 2.6 40 20:56 06.03.2020
1781 Rain 28 1012 83 10000 2.6 70 20:36 06.03.2020
1782 Rain 28 1012 83 10000 2.6 70 20:18 06.03.2020
1783 Rain 27 1012 88 10000 2.1 100 19:43 06.03.2020
1784 Rain 27 1012 88 10000 2.1 100 19:24 06.03.2020
1785 Rain 25 1011 100 10000 1.5 80 18:43 06.03.2020
1786 Rain 25 1011 94 10000 2.1 100 18:21 06.03.2020
1787 Rain 25 1011 94 10000 2.1 110 17:57 06.03.2020
1788 Rain 24 1011 100 10000 1.5 100 17:39 06.03.2020
1789 Clouds 24 1010 100 10000 1 160 17:21 06.03.2020
1790 Clouds 24 1010 100 10000 1 160 16:56 06.03.2020
1791 Clouds 24 1010 100 10000 1 160 16:37 06.03.2020
1792 Clouds 24 1010 100 10000 1 160 16:18 06.03.2020
1793 Clouds 25 1010 94 10000 1 110 15:42 06.03.2020
1794 Clouds 25 1010 100 10000 1 170 15:23 06.03.2020
1795 Clouds 25 1010 100 10000 1.5 180 14:41 06.03.2020
1796 Rain 26 1011 94 10000 1.5 270 14:22 06.03.2020
1797 Rain 25 1011 94 7000 4.6 310 13:55 06.03.2020
1798 Rain 26 1011 94 10000 6.7 330 13:37 06.03.2020
1799 Rain 26 1011 94 10000 6.7 330 13:18 06.03.2020
1800 Rain 26 1011 94 10000 2.85 144 12:41 06.03.2020
1801 Rain 26 1011 94 10000 0.5 180 12:21 06.03.2020
1802 Rain 26 1011 94 10000 1 190 11:59 06.03.2020
1803 Rain 26 1011 94 10000 1 190 11:41 06.03.2020
1804 Rain 26 1011 94 10000 0.5 200 11:20 06.03.2020
1805 Rain 26 1011 94 10000 0.5 160 10:42 06.03.2020
1806 Rain 26 1011 94 10000 0.5 150 10:21 06.03.2020
1807 Rain 26 1012 94 10000 0.5 170 09:59 06.03.2020
1808 Rain 26 1012 94 10000 0.5 170 09:40 06.03.2020
1809 Rain 26 1012 94 10000 0.5 170 09:40 06.03.2020
1810 Rain 26 1011 94 10000 1.52 174 09:22 06.03.2020
1811 Rain 27 1011 88 10000 0.5 170 08:48 06.03.2020
1812 Clouds 27 1011 88 10000 1 110 08:30 06.03.2020
1813 Clouds 27 1011 88 10000 0.5 100 07:59 06.03.2020
1814 Clouds 27 1011 88 10000 0.5 100 07:40 06.03.2020
1815 Clouds 27 1011 88 7000 0.5 170 07:20 06.03.2020
1816 Clouds 27 1011 83 10000 1 130 06:41 06.03.2020
1817 Clouds 29 1010 70 10000 1.5 10 05:52 06.03.2020
1818 Clouds 29 1010 74 10000 2.1 350 05:31 06.03.2020
1819 Clouds 30 1010 70 10000 1.5 360 04:59 06.03.2020
1820 Clouds 31 1009 70 10000 1.5 350 03:46 06.03.2020
1821 Clouds 30 1010 70 10000 2.1 320 01:42 06.03.2020
1822 Clouds 29 1010 74 10000 2.1 320 01:23 06.03.2020
1823 Clouds 30 1010 70 10000 2.1 320 00:39 06.03.2020
1824 Clouds 30 1010 70 10000 2.1 320 00:19 06.03.2020
1825 Clouds 29 1010 79 10000 1.5 310 23:42 05.03.2020
1826 Clouds 29 1010 79 10000 1.5 350 23:22 05.03.2020
1827 Clouds 29 1011 74 10000 1.5 310 22:40 05.03.2020
1828 Clouds 29 1011 79 10000 2.1 310 22:22 05.03.2020
1829 Clouds 29 1011 79 10000 2.1 310 22:22 05.03.2020
1830 Clouds 29 1011 74 10000 1.5 300 21:58 05.03.2020
1831 Clouds 29 1011 74 10000 1.5 310 21:38 05.03.2020
1832 Clouds 29 1011 74 10000 1.5 310 21:20 05.03.2020
1833 Clouds 29 1011 74 10000 1.5 280 20:59 05.03.2020
1834 Clouds 29 1011 74 10000 1.5 280 20:40 05.03.2020
1835 Clouds 28 1011 78 10000 1.5 280 20:20 05.03.2020
1836 Clear 28 1011 78 10000 1 260 19:58 05.03.2020
1837 Clear 27 1010 88 10000 1 180 19:39 05.03.2020
1838 Clear 27 1010 88 10000 1 180 19:19 05.03.2020
1839 Clear 25 1010 94 10000 1 200 18:55 05.03.2020
1840 Clear 24 1010 100 10000 0.5 120 18:36 05.03.2020
1841 Clear 24 1010 100 10000 0.5 120 18:18 05.03.2020
1842 Clear 24 1010 100 10000 1 190 17:41 05.03.2020
1843 Clear 24 1010 100 10000 1 170 17:22 05.03.2020
1844 Clear 24 1009 100 10000 1.5 180 16:55 05.03.2020
1845 Clear 24 1009 100 10000 1 180 16:37 05.03.2020
1846 Clear 24 1009 100 10000 1 180 16:19 05.03.2020
1847 Clear 25 1009 94 10000 1 190 15:44 05.03.2020
1848 Clear 25 1009 94 10000 1.5 190 15:22 05.03.2020
1849 Clear 25 1010 94 10000 1.5 200 14:58 05.03.2020
1850 Clear 25 1010 94 10000 1.5 200 14:39 05.03.2020
1851 Clear 25 1010 94 10000 1.5 200 14:21 05.03.2020
1852 Clear 26 1010 88 10000 1.5 200 13:55 05.03.2020
1853 Clear 26 1010 88 10000 1.5 200 13:36 05.03.2020
1854 Clear 26 1010 88 10000 1.5 200 13:36 05.03.2020
1855 Clear 26 1010 88 10000 1.5 200 13:18 05.03.2020
1856 Clear 26 1010 88 10000 2.1 280 12:40 05.03.2020
1857 Clear 26 1010 88 10000 2.1 280 12:40 05.03.2020
1858 Clear 27 1010 88 10000 3.1 290 12:20 05.03.2020
1859 Clear 27 1010 88 10000 2.6 290 11:57 05.03.2020
1860 Clear 26 1011 88 10000 1 270 11:37 05.03.2020
1861 Clear 26 1011 88 10000 1 270 11:19 05.03.2020
1862 Clear 27 1011 88 10000 3.1 290 10:57 05.03.2020
1863 Clear 27 1011 88 10000 2.6 290 10:39 05.03.2020
1864 Clear 27 1011 88 10000 2.6 290 10:20 05.03.2020
1865 Rain 28 1011 78 10000 3.6 280 09:45 05.03.2020
1866 Clear 28 1011 83 10000 3.6 280 09:26 05.03.2020
1867 Clear 27 1010 88 10000 3.1 270 08:47 05.03.2020
1868 Clear 27 1010 88 10000 1.5 250 08:29 05.03.2020
1869 Rain 28 1010 78 10000 2.6 260 07:49 05.03.2020
1870 Rain 28 1009 83 10000 2.6 250 07:22 05.03.2020
1871 Haze 28 1009 83 5000 3.1 280 06:50 05.03.2020
1872 Rain 28 1009 83 10000 3.1 280 06:23 05.03.2020
1873 Rain 29 1009 74 10000 3.6 280 05:57 05.03.2020
1874 Rain 29 1008 79 10000 3.1 290 05:31 05.03.2020
1875 Clear 29 1008 79 10000 3.6 270 04:23 05.03.2020
1876 Clear 30 1008 74 10000 3.6 270 03:56 05.03.2020
1877 Clear 30 1008 74 10000 3.6 280 02:21 05.03.2020
1878 Clear 30 1009 74 10000 3.1 300 01:22 05.03.2020
1879 Clear 30 1009 79 10000 3.1 290 00:26 05.03.2020
1880 Clear 29 1010 79 10000 3.1 300 23:43 04.03.2020
1881 Rain 29 1010 79 10000 2.6 310 23:24 04.03.2020
1882 Clear 29 1010 79 10000 2.6 310 22:59 04.03.2020
1883 Clear 29 1010 83 10000 2.6 320 22:39 04.03.2020
1884 Clear 29 1010 83 10000 2.6 320 22:19 04.03.2020
1885 Clear 29 1011 83 10000 2.6 320 21:58 04.03.2020
1886 Clear 29 1011 83 10000 2.6 320 21:40 04.03.2020
1887 Clear 29 1011 83 10000 2.6 320 21:20 04.03.2020
1888 Clear 28 1010 83 10000 2.1 330 20:54 04.03.2020
1889 Clear 28 1010 83 10000 1 40 20:36 04.03.2020
1890 Clear 28 1010 83 10000 1 40 20:18 04.03.2020
1891 Clear 28 1010 83 10000 1.5 70 19:42 04.03.2020
1892 Clear 27 1010 88 10000 1 100 19:23 04.03.2020
1893 Clear 25 1009 100 10000 1 100 18:54 04.03.2020
1894 Clear 25 1009 94 10000 1 120 18:36 04.03.2020
1895 Clear 25 1009 94 10000 1 120 18:18 04.03.2020
1896 Clear 25 1009 94 10000 1.5 100 17:40 04.03.2020
1897 Clear 25 1009 94 10000 1.5 100 17:40 04.03.2020
1898 Clear 25 1008 94 10000 1.5 90 17:21 04.03.2020
1899 Clear 25 1008 94 10000 2.1 70 16:59 04.03.2020
1900 Clear 25 1008 94 10000 2.1 70 16:40 04.03.2020
1901 Clear 25 1008 100 10000 2.6 110 16:22 04.03.2020
1902 Clear 26 1008 94 10000 3.1 90 15:55 04.03.2020
1903 Clear 25 1008 100 10000 2.6 90 15:36 04.03.2020
1904 Clear 25 1008 100 10000 2.6 90 15:18 04.03.2020
1905 Clear 25 1008 94 10000 2.1 80 14:41 04.03.2020
1906 Clear 24 1009 100 10000 1.5 80 14:21 04.03.2020
1907 Clear 24 1009 100 10000 0.5 120 13:59 04.03.2020
1908 Clear 24 1009 100 10000 0.5 120 13:39 04.03.2020
1909 Rain 25 1009 94 10000 1 100 13:21 04.03.2020
1910 Rain 25 1009 100 10000 0.5 90 12:56 04.03.2020
1911 Rain 25 1009 100 10000 1 190 12:38 04.03.2020
1912 Rain 25 1009 100 10000 1 190 12:20 04.03.2020
1913 Rain 25 1010 100 10000 0.5 210 11:54 04.03.2020
1914 Rain 25 1010 100 10000 1 190 11:36 04.03.2020
1915 Rain 25 1010 100 10000 1 190 11:18 04.03.2020
1916 Rain 25 1010 100 10000 1 190 10:41 04.03.2020
1917 Rain 25 1009 100 10000 1 160 10:22 04.03.2020
1918 Rain 25 1009 100 10000 1 190 09:44 04.03.2020
1919 Rain 26 1009 94 10000 1 150 09:22 04.03.2020
1920 Rain 26 1009 94 10000 3.11 339 08:58 04.03.2020
1921 Rain 26 1009 94 10000 3.11 339 08:40 04.03.2020
1922 Rain 26 1009 94 10000 0.5 160 08:21 04.03.2020
1923 Rain 26 1008 94 10000 1 190 07:41 04.03.2020
1924 Rain 27 1008 94 10000 0.5 170 07:23 04.03.2020
1925 Rain 27 1008 88 10000 1 320 06:47 04.03.2020
1926 Rain 28 1007 83 10000 1.5 350 06:25 04.03.2020
1927 Rain 28 1007 83 10000 1.5 10 05:54 04.03.2020
1928 Rain 29 1006 83 10000 1.5 340 04:40 04.03.2020
1929 Rain 28 1006 83 10000 1 350 03:46 04.03.2020
1930 Rain 28 1006 88 10000 1 360 03:28 04.03.2020
1931 Rain 28 1007 83 10000 1 360 02:58 04.03.2020
1932 Rain 29 1007 79 10000 1.5 40 02:22 04.03.2020
1933 Rain 29 1007 83 10000 1.5 20 01:56 04.03.2020
1934 Rain 28 1007 83 10000 2.1 30 01:22 04.03.2020
1935 Rain 28 1008 83 10000 3.1 340 00:27 04.03.2020
1936 Rain 29 1008 83 10000 2.6 340 23:59 03.03.2020
1937 Rain 29 1008 83 10000 2.6 340 23:40 03.03.2020
1938 Rain 30 1009 79 10000 2.6 330 23:22 03.03.2020
1939 Rain 29 1009 83 10000 2.6 340 22:41 03.03.2020
1940 Rain 30 1009 79 10000 3.6 350 22:20 03.03.2020
1941 Rain 29 1009 83 10000 2.6 340 21:58 03.03.2020
1942 Rain 29 1009 83 10000 2.6 340 21:39 03.03.2020
1943 Rain 29 1009 83 10000 3.1 360 21:20 03.03.2020
1944 Rain 29 1009 83 10000 3.1 340 20:55 03.03.2020
1945 Rain 29 1009 83 10000 3.1 340 20:55 03.03.2020
1946 Rain 29 1009 83 10000 2.6 350 20:36 03.03.2020
1947 Rain 29 1009 83 10000 2.6 350 20:18 03.03.2020
1948 Rain 29 1009 83 10000 2.6 350 20:18 03.03.2020
1949 Rain 29 1009 83 10000 2.6 350 20:18 03.03.2020
1950 Rain 29 1009 79 10000 3.1 350 19:54 03.03.2020
1951 Rain 28 1008 88 10000 2.1 50 19:36 03.03.2020
1952 Rain 28 1008 88 10000 2.1 50 19:18 03.03.2020
1953 Rain 27 1008 94 10000 2.6 20 18:42 03.03.2020
1954 Rain 28 1007 83 10000 3.1 20 18:22 03.03.2020
1955 Rain 27 1007 94 10000 2.6 50 17:59 03.03.2020
1956 Rain 27 1007 94 10000 2.6 50 17:59 03.03.2020
1957 Rain 27 1007 94 10000 2.6 50 17:40 03.03.2020
1958 Rain 27 1007 88 10000 3.6 20 17:21 03.03.2020
1959 Rain 28 1007 83 10000 2.6 20 16:57 03.03.2020
1960 Rain 28 1006 83 10000 2.6 20 16:38 03.03.2020
1961 Rain 28 1006 83 10000 2.6 20 16:19 03.03.2020
1962 Rain 28 1006 83 10000 3.1 20 15:45 03.03.2020
1963 Rain 28 1006 83 10000 3.1 10 15:23 03.03.2020
1964 Rain 27 1006 88 10000 2.6 10 14:58 03.03.2020
1965 Rain 27 1006 88 10000 2.6 10 14:58 03.03.2020
1966 Rain 27 1006 88 10000 2.6 10 14:40 03.03.2020
1967 Clear 27 1006 88 10000 2.6 10 14:19 03.03.2020
1968 Clear 27 1006 88 10000 2.6 10 14:19 03.03.2020
1969 Rain 28 1007 83 10000 2.6 20 13:57 03.03.2020
1970 Clear 28 1007 83 10000 3.1 20 13:39 03.03.2020
1971 Clear 28 1007 83 10000 3.1 20 13:19 03.03.2020
1972 Clear 27 1007 88 10000 3.1 30 12:43 03.03.2020
1973 Clear 27 1007 94 10000 2.1 20 12:24 03.03.2020
1974 Clear 26 1007 94 10000 1.5 80 11:56 03.03.2020
1975 Clear 26 1008 94 10000 1 110 11:37 03.03.2020
1976 Clouds 26 1008 94 10000 1 110 11:18 03.03.2020
1977 Clouds 26 1008 94 10000 1 110 11:18 03.03.2020
1978 Clouds 25 1008 100 10000 1.5 80 10:55 03.03.2020
1979 Clouds 26 1008 94 10000 1.5 90 10:37 03.03.2020
1980 Clouds 26 1008 94 10000 1.5 90 10:18 03.03.2020
1981 Clouds 26 1008 94 10000 1.5 90 10:18 03.03.2020
1982 Clouds 26 1008 94 10000 1 80 09:43 03.03.2020
1983 Clouds 26 1008 94 10000 1 80 09:21 03.03.2020
1984 Clouds 26 1008 94 10000 0.5 130 08:42 03.03.2020
1985 Clear 26 1008 94 10000 0.5 130 08:24 03.03.2020
1986 Clouds 27 1007 88 10000 0.5 160 07:57 03.03.2020
1987 Clouds 27 1007 88 10000 0.5 30 07:38 03.03.2020
1988 Clouds 27 1007 88 10000 0.5 30 07:19 03.03.2020
1989 Clouds 27 1007 88 10000 0.5 30 07:19 03.03.2020
1990 Clouds 28 1007 83 10000 2.1 280 06:40 03.03.2020
1991 Clouds 28 1006 83 10000 2.1 270 06:21 03.03.2020
1992 Clouds 28 1006 83 10000 2.6 270 05:43 03.03.2020
1993 Clouds 30 1006 74 10000 3.1 270 04:56 03.03.2020
1994 Clouds 29 1006 79 10000 3.1 290 03:21 03.03.2020
1995 Rain 29 1006 79 10000 3.1 310 01:32 03.03.2020
1996 Rain 29 1006 83 10000 2.1 310 00:42 03.03.2020
1997 Rain 29 1007 79 10000 2.6 310 00:23 03.03.2020
1998 Rain 29 1007 79 10000 2.6 310 23:51 02.03.2020
1999 Rain 29 1007 83 10000 3.1 290 23:23 02.03.2020
2000 Clear 29 1007 83 10000 3.1 300 22:58 02.03.2020
2001 Clear 28 1008 83 10000 2.6 270 22:38 02.03.2020
2002 Clear 28 1008 83 10000 2.6 270 22:20 02.03.2020
2003 Clear 29 1008 83 10000 3.1 260 21:56 02.03.2020
2004 Clear 28 1008 88 10000 2.1 270 21:37 02.03.2020
2005 Clear 28 1008 88 10000 2.1 270 21:19 02.03.2020
2006 Clear 28 1008 88 10000 2.1 270 20:54 02.03.2020
2007 Clear 28 1007 88 10000 2.6 290 20:36 02.03.2020
2008 Clouds 28 1007 88 10000 2.6 290 20:18 02.03.2020
2009 Clouds 27 1007 94 10000 2.1 270 19:39 02.03.2020
2010 Clouds 27 1007 94 10000 2.1 270 19:21 02.03.2020
2011 Clouds 26 1006 100 10000 0.5 110 18:56 02.03.2020
2012 Clouds 25 1006 100 10000 1 180 18:38 02.03.2020
2013 Clouds 25 1006 100 10000 1 180 18:18 02.03.2020
2014 Clouds 25 1006 100 10000 0.5 200 17:56 02.03.2020
2015 Clouds 25 1006 100 10000 0.5 110 17:38 02.03.2020
2016 Rain 25 1006 100 10000 0.5 110 17:20 02.03.2020
2017 Rain 25 1005 100 10000 0.5 90 16:42 02.03.2020
2018 Rain 25 1005 100 10000 0.5 110 16:23 02.03.2020
2019 Rain 26 1005 94 10000 1 100 15:56 02.03.2020
2020 Rain 26 1005 94 10000 1 100 15:56 02.03.2020
2021 Rain 25 1005 100 10000 2.1 90 15:38 02.03.2020
2022 Rain 25 1005 100 10000 2.1 90 15:18 02.03.2020
2023 Rain 25 1005 100 10000 1.5 100 14:37 02.03.2020
2024 Clouds 25 1005 100 10000 1.5 100 14:19 02.03.2020
2025 Clouds 25 1005 100 10000 1.5 100 14:19 02.03.2020
2026 Clouds 25 1006 100 10000 1 100 13:45 02.03.2020
2027 Clouds 25 1006 100 10000 1.5 70 13:20 02.03.2020
2028 Clouds 25 1006 100 10000 1.5 80 12:59 02.03.2020
2029 Clouds 25 1006 100 10000 1.5 80 12:41 02.03.2020
2030 Clouds 25 1006 100 10000 1 90 12:19 02.03.2020
2031 Clouds 25 1007 100 10000 0.5 250 11:39 02.03.2020
2032 Clouds 25 1007 100 10000 0.5 250 11:20 02.03.2020
2033 Clouds 25 1007 100 10000 0.5 100 10:56 02.03.2020
2034 Clouds 25 1007 100 10000 1 90 10:37 02.03.2020
2035 Clouds 25 1007 100 10000 1 90 10:18 02.03.2020
2036 Clouds 26 1007 94 10000 1 180 09:49 02.03.2020
2037 Clouds 26 1007 94 10000 1 180 09:49 02.03.2020
2038 Clouds 25 1007 100 10000 1 200 09:30 02.03.2020
2039 Clouds 25 1006 100 10000 1 200 08:49 02.03.2020
2040 Clouds 26 1006 94 10000 1.5 160 08:23 02.03.2020
2041 Clouds 26 1006 94 10000 1.5 190 07:51 02.03.2020
2042 Clouds 26 1006 94 10000 1 160 07:31 02.03.2020
2043 Clouds 26 1005 94 10000 0.5 140 06:50 02.03.2020
2044 Clouds 27 1005 94 10000 0.5 130 06:25 02.03.2020
2045 Rain 27 1005 94 10000 2.6 80 05:24 02.03.2020
2046 Rain 28 1005 83 10000 1 150 03:27 02.03.2020
2047 Clouds 29 1005 89 10000 3.6 50 02:55 02.03.2020
2048 Clouds 29 1005 79 10000 3.6 40 02:30 02.03.2020
2049 Rain 29 1005 83 10000 4.6 60 01:36 02.03.2020
2050 Rain 29 1005 83 10000 4.6 60 01:18 02.03.2020
2051 Rain 28 1006 88 10000 5.1 70 00:22 02.03.2020
2052 Rain 27 1006 94 10000 3.6 80 23:42 01.03.2020
2053 Rain 26 1006 94 10000 6.7 80 23:22 01.03.2020
2054 Rain 26 1007 94 4900 5.1 90 22:44 01.03.2020
2055 Rain 28 1007 83 10000 5.7 80 22:21 01.03.2020
2056 Rain 28 1007 88 10000 4.1 80 21:58 01.03.2020
2057 Rain 28 1007 88 10000 4.1 80 21:39 01.03.2020
2058 Rain 28 1007 83 10000 6.2 80 21:20 01.03.2020
2059 Rain 28 1007 83 10000 5.7 80 20:45 01.03.2020
2060 Rain 28 1007 88 10000 3.1 90 20:26 01.03.2020
2061 Rain 28 1007 83 10000 3.1 100 19:59 01.03.2020
2062 Rain 28 1007 83 10000 3.1 100 19:40 01.03.2020
2063 Rain 27 1006 88 10000 2.1 90 19:21 01.03.2020
2064 Rain 27 1006 88 10000 2.1 100 18:54 01.03.2020
2065 Rain 26 1006 88 10000 2.1 100 18:36 01.03.2020
2066 Rain 26 1006 88 10000 2.1 100 18:18 01.03.2020
2067 Rain 26 1006 88 10000 3.1 90 17:54 01.03.2020
2068 Rain 26 1006 88 10000 2.6 110 17:36 01.03.2020
2069 Rain 26 1006 88 10000 2.6 110 17:18 01.03.2020
2070 Rain 26 1006 88 10000 2.6 100 16:40 01.03.2020
2071 Rain 26 1005 88 10000 2.1 110 16:19 01.03.2020
2072 Rain 26 1005 94 10000 2.1 110 15:59 01.03.2020
2073 Rain 25 1005 94 10000 1 120 15:40 01.03.2020
2074 Rain 25 1005 94 10000 1 120 15:22 01.03.2020
2075 Rain 26 1006 88 10000 1 130 14:58 01.03.2020
2076 Rain 26 1006 88 10000 1 110 14:39 01.03.2020
2077 Rain 26 1006 88 10000 1 110 14:21 01.03.2020
2078 Rain 26 1006 88 10000 1.5 100 13:57 01.03.2020
2079 Rain 26 1006 88 10000 2.1 100 13:38 01.03.2020
2080 Rain 26 1006 88 10000 2.1 100 13:38 01.03.2020
2081 Rain 26 1006 88 10000 2.1 100 13:19 01.03.2020
2082 Rain 26 1006 88 10000 2.1 100 13:19 01.03.2020
2083 Rain 26 1007 94 10000 4.1 80 12:44 01.03.2020
2084 Rain 26 1007 88 10000 3.6 90 12:23 01.03.2020
2085 Rain 26 1007 88 10000 3.6 90 12:23 01.03.2020
2086 Rain 26 1007 88 10000 5.7 80 11:58 01.03.2020
2087 Rain 26 1007 94 10000 5.7 90 11:39 01.03.2020
2088 Rain 26 1007 94 10000 5.7 90 11:19 01.03.2020
2089 Clear 27 1007 88 10000 6.7 80 10:56 01.03.2020
2090 Clear 27 1008 83 10000 5.7 80 10:36 01.03.2020
2091 Clear 27 1008 83 10000 5.7 80 10:36 01.03.2020
2092 Rain 27 1008 83 10000 5.7 80 10:18 01.03.2020
2093 Rain 27 1008 88 10000 5.1 80 09:41 01.03.2020
2094 Clear 27 1007 83 10000 3.1 90 09:22 01.03.2020
2095 Rain 27 1008 83 10000 4.6 100 08:46 01.03.2020
2096 Clear 26 1008 88 10000 2.6 110 08:27 01.03.2020
2097 Rain 26 1007 88 10000 2.1 140 07:47 01.03.2020
2098 Rain 26 1007 88 10000 3.1 100 07:28 01.03.2020
2099 Rain 25 1007 94 10000 2.6 100 06:58 01.03.2020
2100 Rain 25 1007 94 10000 2.6 100 06:40 01.03.2020
2101 Rain 28 1007 78 10000 3.1 100 04:47 01.03.2020
2102 Rain 29 1006 79 10000 3.6 100 02:58 01.03.2020
2103 Rain 28 1006 83 10000 3.1 80 02:18 01.03.2020
2104 Rain 29 1007 74 10000 3.6 100 01:36 01.03.2020
2105 Clear 29 1007 70 10000 4.1 100 00:48 01.03.2020
2106 Clear 29 1007 79 10000 4.6 100 00:25 01.03.2020
2107 Clear 28 1007 83 10000 4.6 80 23:54 29.02.2020
2108 Clear 27 1007 88 10000 3.1 100 23:35 29.02.2020
2109 Rain 26 1008 94 10000 2.1 100 22:46 29.02.2020
2110 Rain 26 1008 94 10000 2.1 90 22:26 29.02.2020
2111 Rain 28 1008 78 10000 4.6 100 21:57 29.02.2020
2112 Rain 27 1008 83 10000 3.1 110 21:38 29.02.2020
2113 Rain 27 1008 83 10000 3.1 110 21:19 29.02.2020
2114 Rain 26 1008 88 10000 2.6 90 20:41 29.02.2020
2115 Rain 26 1008 88 10000 4.6 90 20:20 29.02.2020
2116 Rain 25 1008 94 10000 2.6 120 19:45 29.02.2020
2117 Rain 25 1008 94 3800 2.6 110 19:22 29.02.2020
2118 Rain 26 1008 88 10000 1.5 120 18:59 29.02.2020
2119 Rain 26 1007 88 10000 1 100 18:39 29.02.2020
2120 Rain 26 1007 88 10000 1 100 18:19 29.02.2020
2121 Rain 26 1007 88 10000 2.1 110 17:55 29.02.2020
2122 Rain 26 1007 88 10000 2.6 90 17:37 29.02.2020
2123 Rain 26 1007 88 10000 2.6 90 17:18 29.02.2020
2124 Rain 25 1006 94 10000 1.5 110 16:43 29.02.2020
2125 Rain 25 1006 94 10000 1.5 110 16:19 29.02.2020
2126 Rain 26 1006 88 10000 2.6 100 15:54 29.02.2020
2127 Rain 25 1006 94 10000 1.5 110 15:36 29.02.2020
2128 Rain 25 1006 94 10000 1.5 110 15:18 29.02.2020
2129 Rain 26 1007 94 10000 3.1 90 14:39 29.02.2020
2130 Rain 26 1007 94 10000 3.1 90 14:21 29.02.2020
2131 Rain 26 1007 88 10000 2.1 100 13:44 29.02.2020
2132 Rain 27 1007 83 10000 3.1 100 13:26 29.02.2020
2133 Rain 27 1007 83 10000 4.6 90 12:55 29.02.2020
2134 Rain 27 1007 83 10000 4.1 90 12:36 29.02.2020
2135 Rain 27 1007 83 10000 4.1 90 12:18 29.02.2020
2136 Rain 27 1007 83 10000 3.6 90 11:44 29.02.2020
2137 Rain 27 1007 83 10000 5.1 100 11:25 29.02.2020
2138 Rain 27 1007 83 10000 5.7 100 10:50 29.02.2020
2139 Rain 27 1007 83 10000 4.6 100 10:29 29.02.2020
2140 Rain 27 1007 83 10000 4.6 100 09:52 29.02.2020
2141 Rain 27 1007 83 10000 3.6 100 09:27 29.02.2020
2142 Rain 27 1007 83 10000 3.6 110 08:58 29.02.2020
2143 Rain 26 1007 88 10000 4.1 110 08:38 29.02.2020
2144 Rain 26 1007 88 10000 4.1 110 08:19 29.02.2020
2145 Rain 27 1007 83 10000 2.6 120 07:45 29.02.2020
2146 Rain 27 1007 83 10000 4.1 100 07:19 29.02.2020
2147 Rain 27 1007 83 10000 3.1 100 06:53 29.02.2020
2148 Rain 27 1006 83 10000 4.1 100 06:27 29.02.2020
2149 Rain 27 1006 83 10000 3.6 90 05:49 29.02.2020
2150 Clouds 28 1006 78 10000 3.1 110 05:21 29.02.2020
2151 Clouds 28 1006 83 10000 3.1 110 03:44 29.02.2020
2152 Clouds 28 1005 78 10000 5.7 90 03:23 29.02.2020
2153 Clouds 29 1006 74 10000 4.1 100 02:42 29.02.2020
2154 Clouds 29 1006 79 10000 4.1 100 01:31 29.02.2020
2155 Clouds 29 1007 79 10000 4.6 100 00:38 29.02.2020
2156 Clouds 29 1007 74 10000 4.6 100 23:58 28.02.2020
2157 Clouds 29 1007 74 10000 4.6 100 23:37 28.02.2020
2158 Rain 29 1007 74 10000 4.6 100 23:19 28.02.2020
2159 Rain 29 1008 79 10000 2.6 120 22:41 28.02.2020
2160 Rain 28 1008 83 10000 2.1 120 22:19 28.02.2020
2161 Rain 29 1008 74 10000 2.6 110 21:41 28.02.2020
2162 Rain 27 1008 83 10000 2.6 130 21:21 28.02.2020
2163 Rain 28 1008 83 10000 1.5 130 20:54 28.02.2020
2164 Rain 27 1009 83 10000 2.1 130 20:36 28.02.2020
2165 Rain 27 1009 83 10000 2.1 130 20:18 28.02.2020
2166 Rain 27 1009 83 10000 1 120 19:55 28.02.2020
2167 Rain 27 1008 83 10000 2.1 120 19:37 28.02.2020
2168 Rain 27 1008 83 10000 2.1 120 19:18 28.02.2020
2169 Rain 26 1008 88 10000 2.1 170 18:43 28.02.2020
2170 Rain 25 1008 94 10000 1 90 18:22 28.02.2020
2171 Rain 26 1008 83 10000 1.5 130 17:41 28.02.2020
2172 Drizzle 25 1008 94 10000 1.5 160 17:23 28.02.2020
2173 Rain 26 1007 83 10000 1.5 140 16:55 28.02.2020
2174 Rain 26 1007 83 10000 1.5 130 16:36 28.02.2020
2175 Rain 26 1007 83 10000 1.5 130 16:18 28.02.2020
2176 Rain 26 1007 83 10000 2.6 130 15:42 28.02.2020
2177 Rain 26 1008 83 10000 2.6 140 15:20 28.02.2020
2178 Rain 26 1008 83 10000 2.6 120 14:58 28.02.2020
2179 Rain 26 1008 83 10000 2.1 120 14:39 28.02.2020
2180 Rain 26 1008 83 10000 2.1 120 14:19 28.02.2020
2181 Rain 26 1008 83 10000 1.5 130 13:57 28.02.2020
2182 Rain 26 1009 83 10000 2.6 120 13:39 28.02.2020
2183 Clouds 26 1009 83 10000 2.6 120 13:19 28.02.2020
2184 Clouds 26 1009 83 10000 1.5 140 12:41 28.02.2020
2185 Clouds 26 1009 78 10000 1 130 12:22 28.02.2020
2186 Clouds 26 1009 78 10000 1 130 12:22 28.02.2020
2187 Clouds 26 1009 83 10000 1.5 100 11:42 28.02.2020
2188 Clouds 26 1010 83 10000 2.6 110 11:24 28.02.2020
2189 Rain 27 1010 78 10000 3.6 100 10:58 28.02.2020
2190 Rain 27 1010 78 10000 4.6 100 10:39 28.02.2020
2191 Rain 27 1010 78 10000 4.6 100 10:20 28.02.2020
2192 Rain 26 1010 83 10000 2.6 100 09:44 28.02.2020
2193 Rain 27 1010 78 10000 3.6 110 09:21 28.02.2020
2194 Rain 26 1010 83 10000 4.6 100 08:56 28.02.2020
2195 Rain 26 1009 83 10000 4.1 90 08:36 28.02.2020
2196 Rain 26 1009 83 10000 4.1 90 08:18 28.02.2020
2197 Rain 26 1009 88 10000 4.6 90 07:39 28.02.2020
2198 Rain 26 1009 88 10000 4.6 90 07:19 28.02.2020
2199 Rain 26 1009 88 10000 4.1 90 06:41 28.02.2020
2200 Rain 27 1008 83 10000 5.7 80 05:50 28.02.2020
2201 Rain 27 1008 83 10000 7.2 80 04:34 28.02.2020
2202 Rain 27 1008 88 10000 4.6 90 03:43 28.02.2020
2203 Rain 27 1008 88 10000 5.1 90 02:45 28.02.2020
2204 Rain 27 1008 88 10000 3.1 100 02:20 28.02.2020
2205 Rain 27 1009 83 6000 3.6 100 00:36 28.02.2020
2206 Rain 29 1009 74 10000 1.5 250 23:58 27.02.2020
2207 Rain 30 1009 74 10000 1.5 110 23:38 27.02.2020
2208 Rain 30 1009 74 10000 1.5 110 23:18 27.02.2020
2209 Rain 28 1010 78 10000 2.6 110 22:40 27.02.2020
2210 Rain 29 1010 74 10000 3.1 110 22:22 27.02.2020
2211 Rain 28 1010 83 10000 3.6 90 21:55 27.02.2020
2212 Rain 28 1010 83 10000 2.1 50 21:37 27.02.2020
2213 Rain 28 1010 83 10000 2.1 50 21:18 27.02.2020
2214 Rain 28 1010 83 10000 2.1 70 20:43 27.02.2020
2215 Rain 27 1010 83 10000 1.5 90 20:23 27.02.2020
2216 Rain 26 1010 94 10000 0.5 180 19:59 27.02.2020
2217 Rain 26 1010 94 10000 0.5 180 19:41 27.02.2020
2218 Rain 25 1010 94 10000 0.5 80 19:23 27.02.2020
2219 Rain 24 1009 100 10000 0.5 160 18:58 27.02.2020
2220 Rain 23 1009 100 10000 6.48 112 18:39 27.02.2020
2221 Rain 23 1009 100 10000 6.48 112 18:20 27.02.2020
2222 Rain 22 1009 100 10000 1 120 17:56 27.02.2020
2223 Rain 22 1009 100 10000 0.5 80 17:37 27.02.2020
2224 Clear 22 1009 100 10000 0.5 80 17:18 27.02.2020
2225 Clear 23 1009 100 10000 0.5 130 16:42 27.02.2020
2226 Clear 23 1009 100 10000 0.5 110 16:20 27.02.2020
2227 Clear 23 1008 100 10000 0.5 140 15:59 27.02.2020
2228 Clear 23 1008 100 10000 0.5 140 15:38 27.02.2020
2229 Clear 23 1008 100 10000 0.5 140 15:20 27.02.2020
2230 Clear 23 1008 100 10000 0.5 180 14:59 27.02.2020
2231 Clear 23 1009 100 6000 0.5 120 14:38 27.02.2020
2232 Clear 23 1009 100 6000 0.5 120 14:20 27.02.2020
2233 Fog 23 1009 100 2100 1 90 13:42 27.02.2020
2234 Rain 24 1009 100 10000 0.5 180 13:21 27.02.2020
2235 Rain 24 1009 100 10000 1 190 12:56 27.02.2020
2236 Rain 24 1009 100 10000 0.5 200 12:38 27.02.2020
2237 Rain 24 1009 100 10000 0.5 200 12:18 27.02.2020
2238 Rain 24 1010 100 10000 0.5 210 11:41 27.02.2020
2239 Rain 24 1010 100 8000 1 180 11:21 27.02.2020
2240 Rain 24 1010 100 10000 1 120 10:44 27.02.2020
2241 Rain 24 1010 100 10000 1 120 10:44 27.02.2020
2242 Rain 25 1010 94 2800 2.1 140 10:23 27.02.2020
2243 Rain 25 1010 100 10000 0.5 40 09:49 27.02.2020
2244 Rain 25 1010 100 10000 2.1 100 09:29 27.02.2020
2245 Rain 25 1010 100 10000 1.5 110 08:58 27.02.2020
2246 Rain 25 1010 100 10000 1.5 110 08:58 27.02.2020
2247 Rain 25 1010 100 10000 1.5 110 08:40 27.02.2020
2248 Clear 25 1009 100 10000 1 100 08:22 27.02.2020
2249 Rain 26 1009 94 10000 0.5 120 07:44 27.02.2020
2250 Rain 26 1009 94 10000 1 180 07:25 27.02.2020
2251 Rain 26 1009 94 10000 1 170 06:46 27.02.2020
2252 Rain 28 1008 83 10000 2.1 220 05:35 27.02.2020
2253 Rain 26 1008 94 10000 1.5 220 03:38 27.02.2020
2254 Rain 25 1009 94 10000 1.5 250 02:21 27.02.2020
2255 Rain 24 1010 100 0 4.21 249 00:45 27.02.2020
2256 Rain 25 1010 100 10000 3.6 80 00:25 27.02.2020
2257 Rain 27 1010 88 10000 2.1 180 23:39 26.02.2020
2258 Rain 27 1010 88 10000 2.1 180 23:19 26.02.2020
2259 Rain 28 1011 83 10000 2.6 190 22:57 26.02.2020
2260 Rain 27 1011 88 10000 2.1 190 22:38 26.02.2020
2261 Rain 27 1011 88 10000 2.1 190 22:19 26.02.2020
2262 Rain 27 1011 88 10000 1.5 200 21:55 26.02.2020
2263 Rain 27 1011 88 10000 2.1 200 21:36 26.02.2020
2264 Rain 27 1011 88 10000 2.1 200 21:18 26.02.2020
2265 Rain 26 1011 94 10000 1.5 180 20:54 26.02.2020
2266 Rain 26 1011 94 10000 1.5 180 20:54 26.02.2020
2267 Rain 26 1011 94 10000 2.1 190 20:36 26.02.2020
2268 Rain 26 1011 94 10000 2.1 190 20:36 26.02.2020
2269 Rain 26 1011 94 10000 2.1 190 20:18 26.02.2020
2270 Rain 25 1011 100 10000 6 237 19:44 26.02.2020
2271 Rain 25 1011 100 10000 1 220 19:20 26.02.2020
2272 Rain 25 1011 100 6000 1.5 220 18:57 26.02.2020
2273 Rain 24 1010 100 8000 1 210 18:39 26.02.2020
2274 Rain 24 1010 100 8000 1 210 18:20 26.02.2020
2275 Rain 24 1010 100 3500 1.5 230 17:42 26.02.2020
2276 Rain 24 1010 100 2100 3.1 240 17:21 26.02.2020
2277 Rain 24 1010 100 4000 3.6 230 16:57 26.02.2020
2278 Rain 26 1010 88 10000 5.7 280 16:39 26.02.2020
2279 Rain 26 1010 88 10000 5.7 280 16:20 26.02.2020
2280 Rain 26 1010 88 10000 4.1 270 15:46 26.02.2020
2281 Rain 26 1010 94 10000 4.1 250 15:28 26.02.2020
2282 Rain 26 1010 88 10000 2.1 240 14:55 26.02.2020
2283 Rain 26 1010 88 10000 3.1 250 14:37 26.02.2020
2284 Clouds 26 1010 88 10000 3.1 250 14:18 26.02.2020
2285 Clouds 26 1011 88 10000 3.1 250 13:42 26.02.2020
2286 Clouds 26 1011 88 10000 3.6 250 13:20 26.02.2020
2287 Clouds 26 1011 88 10000 2.1 240 12:39 26.02.2020
2288 Clouds 26 1011 88 10000 2.1 240 12:19 26.02.2020
2289 Clouds 26 1012 88 10000 2.1 250 11:56 26.02.2020
2290 Clouds 25 1012 94 10000 1.5 200 11:37 26.02.2020
2291 Rain 25 1012 94 10000 1.5 200 11:19 26.02.2020
2292 Rain 25 1012 94 10000 1.5 200 10:41 26.02.2020
2293 Rain 25 1012 94 10000 1.5 200 10:22 26.02.2020
2294 Rain 25 1012 94 10000 1.5 200 09:55 26.02.2020
2295 Rain 25 1012 94 10000 1.5 200 09:37 26.02.2020
2296 Rain 25 1012 94 10000 1.5 200 09:18 26.02.2020
2297 Rain 25 1012 94 10000 1 190 08:38 26.02.2020
2298 Clouds 25 1012 94 10000 1 190 08:19 26.02.2020
2299 Rain 25 1012 94 10000 1 240 07:48 26.02.2020
2300 Rain 26 1011 88 10000 1 190 07:29 26.02.2020
2301 Rain 26 1011 88 10000 2.1 280 06:53 26.02.2020
2302 Rain 27 1011 83 10000 2.1 280 06:35 26.02.2020
2303 Clouds 27 1011 83 10000 2.6 290 05:54 26.02.2020
2304 Clouds 27 1011 83 10000 2.1 290 05:28 26.02.2020
2305 Clouds 27 1011 83 10000 2.6 270 04:36 26.02.2020
2306 Rain 26 1011 88 10000 4.1 260 02:33 26.02.2020
2307 Rain 26 1012 94 10000 1.5 230 01:48 26.02.2020
2308 Rain 26 1012 94 10000 1.5 230 00:50 26.02.2020
2309 Rain 26 1013 94 9000 1.5 210 00:25 26.02.2020
2310 Rain 25 1013 100 8000 2.1 230 23:45 25.02.2020
2311 Rain 25 1013 94 9000 3.6 240 23:27 25.02.2020
2312 Rain 25 1013 94 5000 4.1 250 22:59 25.02.2020
2313 Rain 25 1013 94 5000 4.1 250 22:41 25.02.2020
2314 Rain 26 1013 94 10000 6.7 250 22:19 25.02.2020
2315 Rain 27 1013 88 10000 3.1 260 21:55 25.02.2020
2316 Rain 27 1013 88 10000 3.1 260 21:36 25.02.2020
2317 Rain 27 1013 88 10000 3.1 260 21:18 25.02.2020
2318 Rain 27 1013 88 10000 3.1 260 20:54 25.02.2020
2319 Rain 26 1013 94 10000 1.5 240 20:36 25.02.2020
2320 Rain 26 1013 94 10000 1.5 240 20:18 25.02.2020
2321 Rain 26 1013 94 10000 1.5 210 19:40 25.02.2020
2322 Rain 25 1013 100 10000 1 210 19:19 25.02.2020
2323 Drizzle 25 1013 100 10000 1.5 220 18:42 25.02.2020
2324 Rain 25 1012 100 10000 1.5 190 18:22 25.02.2020
2325 Rain 26 1012 94 10000 3.1 240 17:59 25.02.2020
2326 Rain 25 1012 100 3800 1 220 17:38 25.02.2020
2327 Rain 25 1012 100 3800 1 220 17:20 25.02.2020
2328 Clouds 25 1011 100 10000 0.5 180 16:58 25.02.2020
2329 Clouds 25 1011 100 10000 0.5 180 16:40 25.02.2020
2330 Clouds 25 1011 100 10000 1 180 16:22 25.02.2020
2331 Clouds 25 1011 100 10000 1.5 190 15:56 25.02.2020
2332 Clouds 25 1011 100 10000 1.5 190 15:38 25.02.2020
2333 Clouds 25 1011 100 10000 1.5 190 15:18 25.02.2020
2334 Clouds 25 1011 100 10000 1.5 190 14:56 25.02.2020
2335 Clouds 25 1011 100 10000 1 180 14:37 25.02.2020
2336 Clouds 25 1011 100 10000 1 180 14:37 25.02.2020
2337 Rain 25 1011 100 10000 1 180 14:18 25.02.2020
2338 Rain 25 1011 100 10000 1 180 14:18 25.02.2020
2339 Rain 24 1012 100 10000 1.5 180 13:55 25.02.2020
2340 Rain 24 1012 100 10000 1.5 180 13:55 25.02.2020
2341 Rain 24 1012 100 10000 1.5 190 13:36 25.02.2020
2342 Rain 24 1012 100 10000 1.5 190 13:18 25.02.2020
2343 Rain 24 1012 100 10000 1 180 12:40 25.02.2020
2344 Rain 24 1013 100 10000 1 180 12:20 25.02.2020
2345 Rain 24 1013 100 10000 1.5 180 11:56 25.02.2020
2346 Rain 24 1013 100 10000 0.5 190 11:38 25.02.2020
2347 Rain 24 1013 100 10000 0.5 190 11:19 25.02.2020
2348 Rain 24 1013 100 10000 0.5 190 11:19 25.02.2020
2349 Rain 24 1013 100 10000 0.5 190 11:19 25.02.2020
2350 Rain 24 1013 94 10000 1 190 10:56 25.02.2020
2351 Rain 24 1013 94 10000 1 170 10:38 25.02.2020
2352 Rain 24 1013 94 10000 1 170 10:19 25.02.2020
2353 Rain 24 1013 94 10000 2.1 210 09:40 25.02.2020
2354 Rain 24 1013 94 10000 2.1 210 09:19 25.02.2020
2355 Rain 24 1014 94 6000 2.1 170 08:44 25.02.2020
2356 Rain 24 1014 100 1100 5.1 280 08:25 25.02.2020
2357 Rain 26 1013 88 10000 4.6 250 07:51 25.02.2020
2358 Rain 27 1013 94 10000 0.5 210 07:25 25.02.2020
2359 Rain 27 1012 88 10000 1 200 06:59 25.02.2020
2360 Rain 27 1012 88 10000 1 210 06:26 25.02.2020
2361 Rain 28 1012 83 10000 1.5 240 05:23 25.02.2020
2362 Rain 26 1012 94 4600 5.7 320 02:38 25.02.2020
2363 Rain 30 1012 84 10000 3.1 350 00:59 25.02.2020
2364 Rain 29 1013 83 10000 3.1 360 00:34 25.02.2020
2365 Rain 30 1013 84 10000 2.6 10 23:56 24.02.2020
2366 Rain 29 1013 83 10000 3.1 40 23:37 24.02.2020
2367 Rain 29 1013 83 10000 3.1 40 23:37 24.02.2020
2368 Clouds 29 1013 83 10000 3.1 40 23:18 24.02.2020
2369 Clouds 29 1013 83 10000 2.6 20 22:37 24.02.2020
2370 Clouds 29 1013 83 10000 2.6 20 22:18 24.02.2020
2371 Clouds 29 1014 83 10000 2.6 20 21:55 24.02.2020
2372 Clouds 28 1014 78 10000 2.1 10 21:36 24.02.2020
2373 Clouds 28 1014 78 10000 2.1 10 21:18 24.02.2020
2374 Clouds 28 1013 78 10000 3.6 30 20:41 24.02.2020
2375 Rain 28 1013 88 10000 4.1 40 20:21 24.02.2020
2376 Rain 28 1013 88 10000 3.1 50 19:59 24.02.2020
2377 Rain 28 1013 88 10000 3.1 50 19:41 24.02.2020
2378 Rain 28 1013 88 10000 2.6 50 19:22 24.02.2020
2379 Rain 28 1013 88 10000 2.6 50 19:22 24.02.2020
2380 Rain 27 1013 94 10000 2.1 80 18:58 24.02.2020
2381 Rain 26 1013 100 10000 2.1 90 18:39 24.02.2020
2382 Rain 26 1013 100 10000 2.1 90 18:21 24.02.2020
2383 Rain 26 1012 100 10000 2.6 100 17:42 24.02.2020
2384 Rain 26 1012 100 10000 2.6 100 17:21 24.02.2020
2385 Rain 26 1012 100 10000 2.1 100 16:59 24.02.2020
2386 -273 0 0 0 0 0 16:40 24.02.2020
2387 Rain 26 1012 100 10000 2.6 100 16:21 24.02.2020
2388 Rain 26 1012 100 10000 2.6 100 16:21 24.02.2020
2389 Rain 26 1012 94 10000 2.1 100 15:59 24.02.2020
2390 Rain 26 1012 94 10000 2.1 100 15:40 24.02.2020
2391 Rain 26 1012 100 10000 2.6 90 15:21 24.02.2020
2392 Rain 26 1012 100 10000 2.6 90 14:58 24.02.2020
2393 Rain 26 1012 94 10000 2.6 80 14:40 24.02.2020
2394 Clouds 26 1012 94 10000 2.6 80 14:19 24.02.2020
2395 Clouds 26 1013 94 10000 2.1 90 13:56 24.02.2020
2396 Clouds 26 1013 100 10000 2.1 100 13:37 24.02.2020
2397 Rain 26 1013 100 10000 2.1 100 13:19 24.02.2020
2398 Rain 26 1013 94 10000 2.6 90 12:55 24.02.2020
2399 Rain 26 1014 94 10000 2.6 90 12:37 24.02.2020
2400 Rain 26 1014 94 10000 2.6 90 12:18 24.02.2020
2401 Rain 26 1014 94 10000 2.6 90 11:41 24.02.2020
2402 Rain 26 1014 94 10000 2.6 90 11:41 24.02.2020
2403 Rain 25 1014 100 10000 2.1 70 11:23 24.02.2020
2404 Clouds 25 1014 100 10000 0.5 170 10:44 24.02.2020
2405 Clouds 25 1014 100 10000 1 80 10:24 24.02.2020
2406 Clouds 25 1014 100 10000 1 90 09:41 24.02.2020
2407 Clouds 25 1014 100 10000 1.5 70 09:19 24.02.2020
2408 Clouds 25 1014 100 10000 0.5 180 08:55 24.02.2020
2409 Clouds 25 1013 100 10000 0.5 130 08:30 24.02.2020
2410 Rain 25 1013 100 10000 0.5 200 07:59 24.02.2020
2411 Rain 25 1013 100 10000 1 190 07:40 24.02.2020
2412 Rain 25 1013 100 10000 1 190 07:22 24.02.2020
2413 Rain 26 1013 94 10000 1.5 200 06:33 24.02.2020
2414 Rain 26 1013 94 10000 1.5 220 05:47 24.02.2020
2415 Drizzle 26 1012 94 10000 1.5 210 05:27 24.02.2020
2416 Rain 26 1012 94 10000 2.6 250 02:58 24.02.2020
2417 Rain 26 1012 94 10000 2.6 260 02:31 24.02.2020
2418 Rain 26 1012 94 10000 3.6 260 01:40 24.02.2020
2419 Rain 25 1013 100 2600 5.1 250 00:50 24.02.2020
2420 Rain 26 1013 100 4800 2.1 230 00:21 24.02.2020
2421 Rain 27 1013 88 10000 2.1 230 23:55 23.02.2020
2422 Rain 27 1013 88 10000 2.1 260 23:36 23.02.2020
2423 Rain 27 1013 88 10000 2.1 260 23:18 23.02.2020
2424 Rain 27 1013 88 10000 2.1 260 23:18 23.02.2020
2425 Rain 27 1013 94 10000 1.5 260 22:42 23.02.2020
2426 Rain 26 1013 94 6000 2.1 250 22:22 23.02.2020
2427 Rain 27 1013 88 10000 1.5 220 21:55 23.02.2020
2428 Rain 27 1013 88 10000 1 220 21:36 23.02.2020
2429 Rain 27 1013 88 10000 1 220 21:18 23.02.2020
2430 Rain 26 1013 94 10000 0.5 80 20:55 23.02.2020
2431 Rain 26 1013 94 10000 0.5 190 20:36 23.02.2020
2432 Rain 26 1013 94 10000 0.5 190 20:18 23.02.2020
2433 Rain 26 1013 94 7000 4.1 310 19:41 23.02.2020
2434 Rain 27 1013 94 10000 2.6 10 19:20 23.02.2020
2435 Rain 27 1012 94 10000 3.1 20 18:59 23.02.2020
2436 Rain 27 1012 94 10000 3.1 20 18:40 23.02.2020
2437 Rain 26 1012 100 10000 1.5 80 18:20 23.02.2020
2438 Rain 25 1012 100 10000 1.5 100 17:58 23.02.2020
2439 Rain 25 1012 88 10000 2.6 50 17:39 23.02.2020
2440 Rain 25 1012 88 10000 2.6 50 17:21 23.02.2020
2441 Drizzle 26 1011 94 10000 1 210 16:56 23.02.2020
2442 Rain 26 1011 94 10000 1.5 180 16:36 23.02.2020
2443 Rain 26 1011 94 10000 1.5 180 16:18 23.02.2020
2444 Rain 26 1011 94 10000 1.5 10 15:40 23.02.2020
2445 Rain 26 1011 94 10000 1.5 180 15:21 23.02.2020
2446 Rain 26 1011 100 10000 1 230 14:59 23.02.2020
2447 Rain 26 1011 100 10000 1 230 14:59 23.02.2020
2448 Rain 26 1011 100 10000 1 230 14:41 23.02.2020
2449 Rain 28 1012 88 10000 2.1 10 14:22 23.02.2020
2450 Rain 28 1012 88 10000 2.1 10 14:22 23.02.2020
2451 Rain 28 1012 88 10000 2.1 20 13:57 23.02.2020
2452 Rain 28 1012 88 10000 2.6 20 13:39 23.02.2020
2453 Rain 28 1012 88 10000 2.6 20 13:20 23.02.2020
2454 Rain 28 1012 88 10000 2.1 360 12:43 23.02.2020
2455 Rain 28 1012 88 10000 2.1 360 12:43 23.02.2020
2456 Rain 28 1012 88 10000 2.6 350 12:22 23.02.2020
2457 Rain 28 1013 88 10000 1.5 360 11:57 23.02.2020
2458 Rain 28 1013 88 10000 1.5 10 11:37 23.02.2020
2459 Rain 28 1013 88 10000 1.5 10 11:37 23.02.2020
2460 Rain 28 1013 88 10000 1.5 10 11:18 23.02.2020
2461 Rain 28 1013 88 10000 2.1 360 10:54 23.02.2020
2462 Rain 28 1013 88 10000 1.5 20 10:36 23.02.2020
2463 Rain 28 1013 88 10000 1.5 20 10:18 23.02.2020
2464 Rain 28 1012 88 10000 2.1 30 09:40 23.02.2020
2465 Rain 28 1012 88 10000 2.1 30 09:21 23.02.2020
2466 Rain 28 1012 88 10000 1.5 20 08:51 23.02.2020
2467 Rain 28 1012 88 10000 2.1 20 08:30 23.02.2020
2468 Rain 28 1012 88 10000 1.5 20 07:58 23.02.2020
2469 Rain 28 1012 88 10000 1 20 07:39 23.02.2020
2470 Rain 28 1011 83 10000 1.5 360 06:39 23.02.2020
2471 Rain 28 1011 83 10000 1.5 360 05:47 23.02.2020
2472 Rain 29 1011 83 10000 2.6 340 04:35 23.02.2020
2473 Rain 29 1011 83 10000 3.1 350 02:59 23.02.2020
2474 Rain 29 1011 83 10000 3.1 350 02:59 23.02.2020
2475 Rain 29 1011 83 10000 3.1 360 02:25 23.02.2020
2476 Rain 29 1011 83 10000 3.1 360 01:23 23.02.2020
2477 Rain 29 1012 83 10000 3.1 360 00:45 23.02.2020
2478 Rain 29 1012 83 10000 3.1 360 00:24 23.02.2020
2479 Rain 29 1012 83 10000 4.1 360 23:44 22.02.2020
2480 Rain 29 1012 83 10000 3.6 20 23:25 22.02.2020
2481 Rain 29 1013 83 10000 2.6 20 22:46 22.02.2020
2482 Rain 27 1013 78 10000 3.6 30 22:22 22.02.2020
2483 Rain 29 1013 83 10000 4.1 20 21:59 22.02.2020
2484 Rain 29 1013 83 10000 4.1 20 21:59 22.02.2020
2485 Rain 29 1013 83 10000 4.1 20 21:40 22.02.2020
2486 Rain 29 1013 83 10000 4.1 20 21:21 22.02.2020
2487 Rain 28 1013 88 10000 3.6 20 20:41 22.02.2020
2488 Rain 28 1013 83 10000 3.6 10 20:23 22.02.2020
2489 Rain 28 1012 83 10000 4.6 20 19:43 22.02.2020
2490 Rain 28 1012 88 10000 3.6 40 19:25 22.02.2020
2491 Rain 28 1012 83 10000 3.6 30 18:59 22.02.2020
2492 Rain 27 1012 88 10000 3.6 40 18:38 22.02.2020
2493 Rain 27 1012 88 10000 3.6 40 18:20 22.02.2020
2494 Rain 27 1011 94 10000 3.1 40 17:54 22.02.2020
2495 Rain 27 1011 94 10000 4.1 40 17:36 22.02.2020
2496 Rain 27 1011 94 10000 4.1 40 17:18 22.02.2020
2497 Rain 27 1011 94 10000 4.6 50 16:40 22.02.2020
2498 Rain 27 1011 88 10000 4.6 40 16:20 22.02.2020
2499 Rain 27 1011 88 10000 4.1 50 15:57 22.02.2020
2500 Rain 27 1011 88 10000 4.1 40 15:39 22.02.2020
2501 Rain 27 1011 88 10000 4.1 40 15:21 22.02.2020
2502 Rain 27 1012 94 10000 4.1 40 14:42 22.02.2020
2503 Rain 27 1012 94 10000 3.6 40 14:22 22.02.2020
2504 Rain 27 1012 94 10000 4.1 50 13:44 22.02.2020
2505 Rain 27 1012 94 10000 4.1 50 13:20 22.02.2020
2506 Rain 27 1012 94 10000 4.1 50 13:20 22.02.2020
2507 Rain 27 1013 94 10000 4.1 50 12:59 22.02.2020
2508 Rain 27 1013 94 10000 4.6 50 12:39 22.02.2020
2509 Rain 27 1013 94 10000 4.6 50 12:20 22.02.2020
2510 Rain 27 1013 94 10000 4.6 50 12:20 22.02.2020
2511 Rain 28 1013 88 10000 4.6 50 11:43 22.02.2020
2512 Rain 28 1013 88 10000 4.1 50 11:25 22.02.2020
2513 Clouds 28 1013 88 10000 4.1 50 10:55 22.02.2020
2514 Clouds 28 1013 83 10000 4.6 60 10:36 22.02.2020
2515 Clouds 28 1013 83 10000 4.6 60 10:18 22.02.2020
2516 Clouds 28 1013 88 10000 4.6 50 09:42 22.02.2020
2517 Clouds 28 1013 88 10000 4.1 50 09:22 22.02.2020
2518 Clouds 28 1013 88 10000 4.1 50 08:57 22.02.2020
2519 Clouds 28 1012 83 10000 4.1 60 08:29 22.02.2020
2520 Rain 28 1012 88 10000 4.1 50 07:59 22.02.2020
2521 Rain 28 1012 83 10000 4.1 50 07:38 22.02.2020
2522 Rain 28 1012 83 10000 4.1 50 07:38 22.02.2020
2523 Rain 28 1012 83 10000 4.1 50 07:18 22.02.2020
2524 Rain 28 1012 83 10000 3.6 60 06:41 22.02.2020
2525 Clear 29 1011 79 10000 3.1 40 04:45 22.02.2020
2526 Clear 29 1011 83 10000 3.6 50 03:47 22.02.2020
2527 Clear 29 1011 83 10000 4.6 40 02:34 22.02.2020
2528 Clouds 29 1011 83 10000 4.6 40 01:47 22.02.2020
2529 Clouds 29 1012 83 10000 4.1 40 01:28 22.02.2020
2530 Clouds 29 1012 83 10000 4.6 40 00:46 22.02.2020
2531 Clouds 29 1012 83 10000 4.1 40 00:28 22.02.2020
2532 Clouds 29 1013 79 10000 4.6 40 23:52 21.02.2020
2533 Clouds 29 1013 83 10000 4.6 40 23:24 21.02.2020
2534 Clouds 27 1012 83 0 6.6 35 22:57 21.02.2020
2535 Clouds 27 1012 83 0 6.6 35 22:39 21.02.2020
2536 Haze 29 1013 83 1600 4.1 50 22:20 21.02.2020
2537 Haze 29 1013 83 1600 4.1 50 21:42 21.02.2020
2538 Haze 29 1013 83 1600 4.1 50 21:24 21.02.2020
2539 Clouds 28 1013 88 10000 4.1 40 20:50 21.02.2020
2540 Clouds 28 1013 88 10000 4.1 40 20:50 21.02.2020
2541 Clouds 28 1013 88 10000 5.1 50 20:32 21.02.2020
2542 Rain 28 1013 83 10000 4.6 50 19:59 21.02.2020
2543 Rain 28 1013 83 10000 4.6 50 19:59 21.02.2020
2544 Rain 28 1013 83 10000 5.7 50 19:38 21.02.2020
2545 Rain 28 1013 83 10000 5.7 50 19:18 21.02.2020
2546 Rain 27 1012 94 10000 5.1 60 18:40 21.02.2020
2547 Rain 27 1012 88 10000 5.1 60 18:22 21.02.2020
2548 Rain 27 1012 88 10000 4.1 50 17:42 21.02.2020
2549 Rain 27 1012 88 10000 4.6 50 17:24 21.02.2020
2550 Rain 27 1012 88 10000 4.1 50 16:58 21.02.2020
2551 Rain 27 1012 88 10000 4.1 50 16:40 21.02.2020
2552 Rain 27 1012 88 10000 4.6 50 16:21 21.02.2020
2553 Rain 27 1012 88 10000 4.6 50 15:56 21.02.2020
2554 Rain 27 1012 88 10000 4.1 50 15:38 21.02.2020
2555 Rain 27 1012 88 10000 4.1 50 15:18 21.02.2020
2556 Rain 27 1012 88 10000 4.6 50 14:42 21.02.2020
2557 Clouds 27 1012 88 10000 4.6 50 14:19 21.02.2020
2558 Clouds 27 1013 88 10000 5.1 50 13:44 21.02.2020
2559 Rain 27 1013 94 10000 5.1 50 13:24 21.02.2020
2560 Rain 27 1013 94 10000 5.1 50 12:55 21.02.2020
2561 Rain 27 1013 94 10000 4.6 50 12:37 21.02.2020
2562 Rain 27 1013 94 10000 4.6 50 12:18 21.02.2020
2563 Rain 27 1014 94 10000 5.1 50 11:42 21.02.2020
2564 Clouds 27 1014 94 10000 5.1 50 11:21 21.02.2020
2565 Clouds 27 1014 88 10000 5.7 60 10:57 21.02.2020
2566 Clouds 27 1014 94 10000 5.7 60 10:38 21.02.2020
2567 Clouds 27 1014 94 10000 5.7 60 10:19 21.02.2020
2568 Clouds 27 1014 94 10000 5.1 60 09:57 21.02.2020
2569 Clouds 27 1014 94 10000 4.6 60 09:37 21.02.2020
2570 Clouds 27 1014 94 10000 4.6 60 09:19 21.02.2020
2571 Clouds 27 1014 94 10000 4.6 50 08:42 21.02.2020
2572 Clouds 28 1014 88 10000 5.1 50 08:22 21.02.2020
2573 Rain 28 1014 88 10000 4.6 50 07:59 21.02.2020
2574 Rain 28 1014 88 10000 4.6 50 07:40 21.02.2020
2575 Rain 28 1013 88 10000 4.6 50 07:18 21.02.2020
2576 Rain 28 1013 88 10000 4.6 50 06:47 21.02.2020
2577 Rain 28 1013 88 10000 4.6 50 06:47 21.02.2020
2578 Rain 28 1013 83 10000 4.6 50 06:28 21.02.2020
2579 Rain 28 1012 88 10000 4.6 50 05:42 21.02.2020
2580 Rain 28 1012 88 10000 4.6 40 04:33 21.02.2020
2581 Rain 29 1012 83 10000 4.1 40 03:58 21.02.2020
2582 Rain 29 1012 83 0 4.1 40 03:24 21.02.2020
2583 Rain 29 1013 83 0 3.6 40 01:51 21.02.2020
2584 Rain 29 1013 83 10000 4.1 40 01:23 21.02.2020
2585 Clouds 29 1014 83 10000 3.1 30 00:41 21.02.2020
2586 Clouds 28 1014 88 10000 3.6 20 00:21 21.02.2020
2587 Clouds 28 1014 83 10000 3.1 20 23:43 20.02.2020
2588 Clouds 28 1014 83 10000 3.1 20 23:43 20.02.2020
2589 Clouds 28 1014 83 10000 3.1 10 23:22 20.02.2020
2590 Clouds 28 1014 83 10000 3.1 10 23:22 20.02.2020
2591 Rain 28 1014 88 10000 3.1 20 22:55 20.02.2020
2592 Rain 27 1014 88 10000 3.1 30 22:37 20.02.2020
2593 Rain 27 1014 88 10000 3.1 30 22:18 20.02.2020
2594 Rain 27 1014 88 10000 2.6 30 21:54 20.02.2020
2595 Rain 27 1015 88 10000 3.6 20 21:36 20.02.2020
2596 Rain 27 1015 88 10000 3.6 20 21:18 20.02.2020
2597 Rain 26 1014 94 10000 3.1 20 20:54 20.02.2020
2598 Rain 25 1014 94 10000 2.1 20 20:36 20.02.2020
2599 Rain 25 1014 94 10000 2.1 20 20:18 20.02.2020
2600 Rain 25 1014 94 8000 3.1 360 19:41 20.02.2020
2601 Rain 24 1014 100 3700 6.2 20 19:23 20.02.2020
2602 Rain 26 1013 94 9000 2.1 340 18:58 20.02.2020
2603 Rain 26 1013 94 10000 2.6 360 18:37 20.02.2020
2604 Rain 26 1013 94 10000 2.6 360 18:19 20.02.2020
2605 Rain 25 1013 94 10000 3.6 350 17:39 20.02.2020
2606 Rain 25 1013 94 10000 3.6 350 17:20 20.02.2020
2607 Rain 25 1013 94 8000 4.6 350 16:58 20.02.2020
2608 Rain 26 1012 88 8000 4.1 360 16:39 20.02.2020
2609 Rain 26 1012 88 8000 4.1 360 16:39 20.02.2020
2610 Rain 26 1012 88 8000 4.1 360 16:19 20.02.2020
2611 Rain 26 1012 94 5000 4.6 20 15:56 20.02.2020
2612 Rain 26 1012 94 10000 4.6 30 15:37 20.02.2020
2613 Rain 26 1012 94 10000 4.6 30 15:19 20.02.2020
2614 Rain 26 1012 94 6000 4.6 40 14:43 20.02.2020
2615 Rain 27 1012 88 10000 3.1 40 14:25 20.02.2020
2616 Rain 26 1012 94 10000 3.6 50 13:58 20.02.2020
2617 Rain 26 1012 94 10000 3.6 50 13:40 20.02.2020
2618 Rain 27 1013 83 10000 4.1 10 13:19 20.02.2020
2619 Rain 26 1012 88 10000 2.6 20 12:43 20.02.2020
2620 Rain 26 1013 94 4000 4.1 30 12:21 20.02.2020
2621 Rain 27 1013 88 10000 3.1 30 11:59 20.02.2020
2622 Rain 27 1013 88 10000 3.1 30 11:41 20.02.2020
2623 Rain 27 1013 88 10000 3.1 30 11:41 20.02.2020
2624 Rain 27 1013 88 10000 3.1 40 11:22 20.02.2020
2625 Rain 27 1013 88 10000 3.1 50 10:56 20.02.2020
2626 Rain 27 1013 88 10000 2.6 20 10:38 20.02.2020
2627 Rain 27 1013 88 10000 2.6 20 10:19 20.02.2020
2628 Rain 27 1012 88 10000 2.1 20 09:39 20.02.2020
2629 Rain 27 1012 88 10000 2.1 20 09:21 20.02.2020
2630 Rain 27 1012 88 10000 2.6 20 08:44 20.02.2020
2631 Rain 27 1012 88 10000 3.1 20 08:24 20.02.2020
2632 Rain 27 1011 88 10000 2.1 20 07:48 20.02.2020
2633 Haze 26 1011 88 5000 2.1 40 07:28 20.02.2020
2634 Rain 26 1010 88 10000 2.1 10 06:59 20.02.2020
2635 Rain 26 1010 88 10000 2.1 10 06:40 20.02.2020
2636 Rain 26 1010 94 9000 2.6 320 05:47 20.02.2020
2637 Rain 26 1010 94 7000 3.6 330 05:25 20.02.2020
2638 Rain 26 1009 94 6000 4.1 310 04:48 20.02.2020
2639 Mist 26 1009 94 3400 4.6 310 03:46 20.02.2020
2640 Rain 27 1009 88 7000 4.1 330 02:47 20.02.2020
2641 Rain 27 1009 88 10000 4.6 20 01:25 20.02.2020
2642 Rain 26 1009 94 10000 4.6 10 00:45 20.02.2020
2643 Rain 26 1009 94 10000 5.1 10 00:24 20.02.2020
2644 Rain 27 1009 88 10000 6.2 20 23:46 19.02.2020
2645 Rain 27 1010 88 10000 7.2 20 23:18 19.02.2020
2646 Rain 27 1009 88 10000 6.2 20 22:42 19.02.2020
2647 Rain 28 1009 83 10000 5.1 20 22:23 19.02.2020
2648 Rain 27 1009 88 10000 6.2 20 21:58 19.02.2020
2649 Rain 27 1009 88 10000 4.1 10 21:39 19.02.2020
2650 Rain 27 1009 88 10000 4.1 10 21:19 19.02.2020
2651 Rain 27 1010 88 10000 5.1 20 20:57 19.02.2020
2652 Rain 27 1009 88 10000 4.6 10 20:37 19.02.2020
2653 Rain 27 1009 88 10000 4.6 10 20:19 19.02.2020
2654 Rain 26 1009 94 10000 4.1 360 19:56 19.02.2020
2655 Haze 26 1009 94 5000 5.1 340 19:37 19.02.2020
2656 Haze 26 1009 94 5000 5.1 340 19:18 19.02.2020
2657 Rain 27 1008 88 10000 4.1 30 18:57 19.02.2020
2658 Rain 27 1008 88 9000 4.1 30 18:39 19.02.2020
2659 Rain 27 1008 88 9000 4.1 30 18:20 19.02.2020
2660 Rain 27 1007 88 10000 4.6 30 17:43 19.02.2020
2661 Rain 27 1007 88 10000 4.1 30 17:20 19.02.2020
2662 Rain 27 1007 88 10000 5.1 20 16:45 19.02.2020
2663 Rain 27 1007 88 10000 4.1 10 16:20 19.02.2020
2664 Rain 27 1006 88 10000 3.1 20 15:59 19.02.2020
2665 Rain 27 1006 88 10000 3.1 20 15:41 19.02.2020
2666 Rain 27 1006 88 10000 3.6 350 15:23 19.02.2020
2667 Rain 27 1006 88 9000 3.6 340 14:55 19.02.2020
2668 Rain 27 1006 88 9000 4.1 340 14:37 19.02.2020
2669 Rain 27 1006 88 9000 4.1 340 14:18 19.02.2020
2670 Rain 27 1006 88 7000 4.1 320 13:41 19.02.2020
2671 Rain 27 1007 88 7000 4.1 340 13:21 19.02.2020
2672 Rain 27 1007 88 9000 4.1 340 12:42 19.02.2020
2673 Rain 27 1007 88 10000 4.6 340 12:19 19.02.2020
2674 Rain 27 1007 88 10000 4.1 350 11:59 19.02.2020
2675 Rain 27 1007 83 10000 4.6 320 11:37 19.02.2020
2676 Rain 27 1007 83 10000 4.6 320 11:19 19.02.2020
2677 Rain 27 1007 88 10000 4.1 10 10:57 19.02.2020
2678 Rain 27 1007 83 10000 3.1 10 10:38 19.02.2020
2679 Rain 27 1007 83 10000 3.1 10 10:19 19.02.2020
2680 Rain 27 1007 83 10000 4.1 10 09:57 19.02.2020
2681 Rain 27 1007 88 10000 5.1 10 09:37 19.02.2020
2682 Rain 27 1007 88 10000 5.1 10 09:18 19.02.2020
2683 Rain 28 1007 83 10000 4.6 20 08:44 19.02.2020
2684 Rain 28 1007 83 10000 4.6 30 08:23 19.02.2020
2685 Rain 27 1006 83 10000 3.1 30 07:41 19.02.2020
2686 Rain 27 1006 83 10000 3.6 10 07:20 19.02.2020
2687 Rain 27 1005 83 10000 3.6 10 06:47 19.02.2020
2688 Rain 28 1005 78 10000 3.1 360 06:19 19.02.2020
2689 Rain 28 1004 78 8000 4.6 340 04:18 19.02.2020
2690 Rain 27 1005 83 8000 5.1 330 02:52 19.02.2020
2691 Rain 28 1005 83 8000 6.7 320 02:29 19.02.2020
2692 Rain 27 1005 88 6000 5.7 340 01:23 19.02.2020
2693 Rain 27 1005 83 8000 7.2 340 00:45 19.02.2020
2694 Rain 26 1006 94 6000 7.2 320 00:24 19.02.2020
2695 Rain 26 1006 94 6000 8.2 310 23:41 18.02.2020
2696 Rain 26 1006 94 4900 6.7 320 23:20 18.02.2020
2697 Rain 25 1006 94 4500 10.3 320 22:56 18.02.2020
2698 Drizzle 28 1005 83 7000 5.1 10 22:37 18.02.2020
2699 Drizzle 28 1005 83 7000 5.1 10 22:19 18.02.2020
2700 Rain 27 1005 88 7000 5.1 20 21:55 18.02.2020
2701 Rain 26 1006 88 7000 8.7 350 21:36 18.02.2020
2702 Rain 26 1006 88 7000 8.7 350 21:18 18.02.2020
2703 Rain 25 1006 94 4700 6.7 350 20:55 18.02.2020
2704 Rain 25 1006 94 1500 8.7 330 20:36 18.02.2020
2705 Rain 25 1006 94 1500 8.7 330 20:18 18.02.2020
2706 Rain 27 1005 94 3500 6.7 30 19:42 18.02.2020
2707 Rain 27 1005 88 5000 6.7 20 19:20 18.02.2020
2708 Rain 28 1004 83 8000 7.7 10 18:58 18.02.2020
2709 Rain 27 1004 83 10000 7.7 10 18:40 18.02.2020
2710 Rain 27 1004 83 10000 7.7 10 18:19 18.02.2020
2711 Rain 27 1003 94 6000 6.7 10 17:42 18.02.2020
2712 Rain 26 1003 94 3500 5.1 30 17:20 18.02.2020
2713 Rain 26 1003 94 3500 5.1 30 17:19 18.02.2020
2714 Rain 27 1002 88 4200 7.2 40 16:40 18.02.2020
2715 Rain 26 1002 88 10000 6.7 40 16:22 18.02.2020
2716 Rain 26 1002 88 9000 6.2 40 15:56 18.02.2020
2717 Rain 26 1002 83 10000 5.1 30 15:37 18.02.2020
2718 Rain 26 1002 83 10000 5.1 30 15:18 18.02.2020
2719 Rain 26 1002 88 10000 7.7 40 14:55 18.02.2020
2720 Rain 25 1002 94 8000 7.7 40 14:37 18.02.2020
2721 Rain 25 1002 94 8000 7.7 40 14:19 18.02.2020
2722 Rain 25 1003 88 6000 9.8 20 13:41 18.02.2020
2723 Rain 25 1003 88 6000 9.8 20 13:41 18.02.2020
2724 Rain 27 1003 83 8000 7.7 10 13:21 18.02.2020
2725 Rain 27 1004 78 5000 7.2 360 12:50 18.02.2020
2726 Rain 27 1003 88 5000 5.7 30 12:31 18.02.2020
2727 Rain 28 1004 88 8000 7.2 40 11:59 18.02.2020
2728 Rain 28 1004 88 8000 7.2 40 11:59 18.02.2020
2729 Rain 28 1004 88 8000 7.2 40 11:41 18.02.2020
2730 Rain 28 1003 88 10000 8.7 50 11:23 18.02.2020
2731 Rain 28 1003 83 10000 9.8 60 10:46 18.02.2020
2732 Rain 28 1002 83 10000 9.8 60 10:24 18.02.2020
2733 Rain 28 1002 83 10000 9.8 60 10:24 18.02.2020
2734 Rain 28 1002 83 10000 10.8 60 09:57 18.02.2020
2735 Rain 28 1002 83 10000 10.3 60 09:39 18.02.2020
2736 Rain 28 1002 83 10000 10.3 60 09:39 18.02.2020
2737 Rain 28 1002 83 10000 10.3 60 09:39 18.02.2020
2738 Rain 28 1002 83 10000 10.3 60 09:20 18.02.2020
2739 Rain 28 1002 83 10000 9.8 60 08:58 18.02.2020
2740 Rain 28 1002 83 10000 9.8 60 08:40 18.02.2020
2741 Rain 28 1002 83 10000 10.3 60 08:19 18.02.2020
2742 Rain 28 1002 83 10000 10.3 60 07:51 18.02.2020
2743 Rain 28 1002 83 10000 9.8 60 07:26 18.02.2020
2744 Rain 27 1003 88 10000 8.2 50 06:55 18.02.2020
2745 Rain 27 1003 88 10000 7.7 50 06:29 18.02.2020
2746 Rain 27 1002 88 10000 8.7 50 05:49 18.02.2020
2747 Rain 27 1002 88 10000 8.7 50 05:22 18.02.2020
2748 Rain 27 1003 78 10000 5.7 30 03:54 18.02.2020
2749 Drizzle 28 1004 78 10000 6.7 30 02:58 18.02.2020
2750 Rain 27 1005 88 10000 6.7 40 01:27 18.02.2020
2751 Rain 27 1005 83 10000 6.7 50 00:43 18.02.2020
2752 Rain 26 1005 88 10000 7.2 60 00:18 18.02.2020
2753 Rain 26 1006 88 10000 7.7 50 23:39 17.02.2020
2754 Rain 26 1006 88 10000 7.7 50 23:19 17.02.2020
2755 Rain 26 1006 88 10000 8.2 50 22:58 17.02.2020
2756 Rain 25 1006 94 8000 4.6 50 22:39 17.02.2020
2757 Rain 25 1006 94 8000 4.6 50 22:18 17.02.2020
2758 Rain 26 1006 83 10000 4.6 350 21:39 17.02.2020
2759 Rain 26 1006 83 10000 4.6 350 21:19 17.02.2020
2760 Rain 27 1006 88 10000 6.2 50 20:55 17.02.2020
2761 Rain 27 1006 94 10000 6.2 50 20:37 17.02.2020
2762 Rain 27 1006 94 10000 6.2 50 20:18 17.02.2020
2763 Rain 27 1006 94 10000 6.2 50 20:18 17.02.2020
2764 Rain 27 1006 88 10000 6.2 50 19:42 17.02.2020
2765 Rain 27 1006 88 10000 6.2 50 19:21 17.02.2020
2766 Rain 27 1006 88 10000 6.2 50 18:55 17.02.2020
2767 Rain 27 1006 88 10000 6.2 60 18:36 17.02.2020
2768 Rain 27 1006 88 10000 6.2 60 18:36 17.02.2020
2769 Rain 27 1006 88 10000 6.2 60 18:36 17.02.2020
2770 Rain 27 1006 88 10000 6.2 60 18:18 17.02.2020
2771 Rain 27 1005 88 10000 6.2 50 17:38 17.02.2020
2772 Rain 27 1005 88 10000 6.2 50 17:19 17.02.2020
2773 Rain 27 1005 88 10000 5.7 60 16:58 17.02.2020
2774 Rain 27 1005 88 10000 6.2 60 16:40 17.02.2020
2775 Rain 27 1005 88 10000 6.2 60 16:21 17.02.2020
2776 Rain 27 1005 88 10000 5.1 60 15:46 17.02.2020
2777 Rain 27 1005 88 10000 5.7 60 15:27 17.02.2020
2778 Rain 27 1005 88 10000 5.7 60 14:57 17.02.2020
2779 Rain 27 1005 88 10000 5.1 60 14:39 17.02.2020
2780 Rain 27 1005 88 10000 5.1 60 14:20 17.02.2020
2781 Rain 27 1006 88 10000 4.6 50 13:41 17.02.2020
2782 Rain 27 1006 88 10000 4.6 60 13:22 17.02.2020
2783 Rain 27 1006 88 10000 4.6 60 12:59 17.02.2020
2784 Rain 27 1006 88 10000 4.6 60 12:41 17.02.2020
2785 Rain 27 1007 88 10000 5.1 60 12:22 17.02.2020
2786 Rain 27 1007 88 10000 5.7 60 11:47 17.02.2020
2787 Rain 27 1007 88 10000 5.1 60 11:27 17.02.2020
2788 Clouds 27 1007 88 10000 5.1 60 10:58 17.02.2020
2789 Clouds 27 1008 88 10000 5.7 60 10:39 17.02.2020
2790 Clouds 27 1008 88 10000 5.7 60 10:20 17.02.2020
2791 Clouds 27 1007 88 10000 6.2 60 09:58 17.02.2020
2792 Clouds 27 1007 88 10000 5.7 60 09:39 17.02.2020
2793 Clouds 27 1007 88 10000 5.7 60 09:19 17.02.2020
2794 Clouds 27 1007 88 10000 5.1 60 08:45 17.02.2020
2795 Clouds 27 1007 83 10000 5.1 80 08:23 17.02.2020
2796 Rain 27 1007 88 10000 4.1 50 07:59 17.02.2020
2797 Rain 27 1007 88 10000 4.1 50 07:38 17.02.2020
2798 Rain 27 1007 88 10000 4.1 50 07:19 17.02.2020
2799 Rain 27 1007 88 10000 3.6 70 06:43 17.02.2020
2800 Rain 27 1007 88 10000 3.6 70 06:24 17.02.2020
2801 Rain 27 1006 88 10000 4.1 70 05:40 17.02.2020
2802 Rain 27 1006 83 10000 4.1 60 04:25 17.02.2020
2803 Rain 27 1006 83 10000 3.1 60 02:49 17.02.2020
2804 Rain 27 1007 83 10000 1.5 20 01:22 17.02.2020
2805 Rain 27 1008 83 10000 3.1 330 00:37 17.02.2020
2806 Rain 27 1008 83 10000 3.1 330 00:18 17.02.2020
2807 Rain 27 1008 83 10000 3.1 350 23:41 16.02.2020
2808 Rain 27 1008 83 10000 3.6 350 23:22 16.02.2020
2809 Rain 26 1008 88 10000 3.6 350 22:55 16.02.2020
2810 -273 0 0 0 0 0 22:37 16.02.2020
2811 Rain 26 1009 88 10000 3.1 330 22:18 16.02.2020
2812 Rain 25 1009 88 10000 5.7 310 21:43 16.02.2020
2813 Rain 25 1010 94 9000 6.7 310 21:24 16.02.2020
2814 Rain 26 1009 88 10000 3.1 360 20:58 16.02.2020
2815 Rain 26 1009 88 10000 3.1 360 20:40 16.02.2020
2816 Rain 27 1009 83 10000 1.5 320 20:22 16.02.2020
2817 Rain 26 1008 83 10000 3.6 280 19:59 16.02.2020
2818 Rain 27 1008 83 10000 3.1 40 19:40 16.02.2020
2819 Rain 27 1008 83 10000 3.1 40 19:19 16.02.2020
2820 Rain 27 1008 88 10000 5.7 50 18:58 16.02.2020
2821 Rain 27 1007 88 10000 6.2 40 18:40 16.02.2020
2822 Rain 27 1007 88 10000 6.2 40 18:21 16.02.2020
2823 Rain 27 1007 88 10000 5.1 50 17:43 16.02.2020
2824 Clouds 27 1007 88 10000 5.7 40 17:20 16.02.2020
2825 Clouds 27 1007 88 10000 5.1 40 16:56 16.02.2020
2826 Clouds 27 1006 88 10000 5.7 50 16:38 16.02.2020
2827 Clouds 27 1006 88 10000 5.7 50 16:20 16.02.2020
2828 Clouds 27 1007 88 10000 5.7 60 15:42 16.02.2020
2829 Clouds 27 1007 88 10000 6.2 50 15:23 16.02.2020
2830 Clouds 27 1007 88 10000 5.7 60 14:59 16.02.2020
2831 Clouds 27 1007 88 10000 5.1 60 14:38 16.02.2020
2832 Rain 27 1007 88 10000 5.1 60 14:19 16.02.2020
2833 Rain 27 1007 88 10000 5.1 60 13:45 16.02.2020
2834 Rain 27 1008 88 10000 4.6 50 13:24 16.02.2020
2835 Rain 27 1008 88 10000 4.6 50 13:24 16.02.2020
2836 Rain 27 1008 88 10000 4.6 50 12:54 16.02.2020
2837 Rain 27 1008 88 10000 4.6 60 12:36 16.02.2020
2838 Rain 27 1008 88 10000 4.6 60 12:18 16.02.2020
2839 Rain 26 1008 88 10000 2.6 90 11:38 16.02.2020
2840 Rain 26 1008 88 10000 2.6 90 11:18 16.02.2020
2841 Rain 27 1009 78 10000 3.1 70 10:56 16.02.2020
2842 Rain 27 1009 78 10000 3.6 50 10:37 16.02.2020
2843 Rain 27 1009 78 10000 3.6 50 10:19 16.02.2020
2844 Rain 27 1009 83 10000 3.1 60 09:54 16.02.2020
2845 Rain 27 1008 83 10000 3.1 50 09:36 16.02.2020
2846 Rain 27 1008 83 10000 3.1 50 09:18 16.02.2020
2847 Rain 27 1008 83 10000 2.6 90 08:41 16.02.2020
2848 Rain 27 1008 83 10000 2.6 90 08:21 16.02.2020
2849 Rain 26 1008 94 10000 1 100 07:49 16.02.2020
2850 Rain 27 1008 83 10000 1.5 100 07:26 16.02.2020
2851 Rain 27 1007 83 10000 1.5 50 06:33 16.02.2020
2852 Clouds 28 1007 78 10000 1.5 320 04:42 16.02.2020
2853 Clouds 29 1006 79 10000 2.6 320 03:25 16.02.2020
2854 Clouds 28 1006 83 10000 2.1 300 02:31 16.02.2020
2855 Rain 28 1007 78 10000 4.1 270 01:42 16.02.2020
2856 Clouds 28 1007 83 10000 3.6 330 01:21 16.02.2020
2857 Clouds 29 1007 79 10000 4.6 340 00:51 16.02.2020
2858 Clouds 28 1007 83 10000 3.6 300 00:28 16.02.2020
2859 Clouds 28 1008 83 10000 4.6 290 23:46 15.02.2020
2860 Clouds 28 1008 83 10000 4.1 300 23:26 15.02.2020
2861 Clouds 28 1008 83 10000 4.1 330 22:59 15.02.2020
2862 Clouds 28 1008 83 10000 4.1 330 22:41 15.02.2020
2863 Clouds 28 1008 83 10000 4.6 310 22:21 15.02.2020
2864 Clouds 28 1008 83 10000 5.1 310 21:58 15.02.2020
2865 Clouds 28 1008 83 10000 2.6 330 21:39 15.02.2020
2866 Clouds 28 1008 83 10000 2.6 330 21:20 15.02.2020
2867 Clouds 27 1008 83 10000 3.6 330 20:39 15.02.2020
2868 Rain 27 1008 83 10000 3.6 330 20:21 15.02.2020
2869 Rain 27 1008 83 10000 3.6 330 20:21 15.02.2020
2870 Rain 26 1007 88 10000 3.1 360 19:44 15.02.2020
2871 Rain 27 1007 88 10000 3.1 30 19:22 15.02.2020
2872 Rain 27 1007 88 10000 3.1 10 18:44 15.02.2020
2873 Rain 27 1006 88 10000 2.1 30 18:23 15.02.2020
2874 Rain 27 1006 88 10000 2.6 360 17:58 15.02.2020
2875 Rain 27 1006 88 10000 2.1 330 17:38 15.02.2020
2876 Rain 27 1006 88 10000 2.1 330 17:20 15.02.2020
2877 Rain 27 1006 88 10000 2.1 340 16:43 15.02.2020
2878 Rain 27 1006 88 10000 2.1 10 16:24 15.02.2020
2879 Rain 27 1006 88 10000 1.5 340 15:58 15.02.2020
2880 Rain 27 1006 88 10000 1.5 340 15:58 15.02.2020
2881 Rain 26 1006 94 10000 2.6 320 15:40 15.02.2020
2882 Rain 26 1006 94 10000 2.6 320 15:21 15.02.2020
2883 Rain 27 1006 83 10000 2.1 350 14:44 15.02.2020
2884 Rain 27 1006 88 10000 2.6 340 14:19 15.02.2020
2885 Rain 27 1006 88 10000 2.1 10 13:54 15.02.2020
2886 Rain 27 1007 88 10000 2.1 350 13:36 15.02.2020
2887 Rain 27 1007 88 10000 2.1 350 13:18 15.02.2020
2888 Rain 27 1007 88 10000 2.6 340 12:42 15.02.2020
2889 Rain 26 1007 94 10000 2.6 10 12:22 15.02.2020
2890 Rain 26 1007 88 10000 2.6 20 11:49 15.02.2020
2891 Rain 26 1007 88 10000 2.6 20 11:49 15.02.2020
2892 Rain 27 1007 83 10000 4.1 350 11:30 15.02.2020
2893 Clouds 27 1008 83 10000 2.6 20 10:52 15.02.2020
2894 Clouds 26 1008 88 10000 3.1 30 10:30 15.02.2020
2895 Rain 26 1008 88 10000 4.6 50 09:59 15.02.2020
2896 Rain 26 1008 88 10000 4.6 50 09:41 15.02.2020
2897 Rain 26 1007 88 10000 3.6 60 09:23 15.02.2020
2898 Rain 26 1007 88 10000 2.6 100 08:43 15.02.2020
2899 Rain 26 1007 88 10000 2.1 100 08:25 15.02.2020
2900 Rain 26 1007 88 10000 1 90 07:56 15.02.2020
2901 Rain 26 1006 88 10000 0.5 150 07:34 15.02.2020
2902 Rain 26 1006 88 10000 1.5 100 06:54 15.02.2020
2903 Rain 27 1006 83 10000 1 40 06:36 15.02.2020
2904 Rain 28 1006 78 10000 0.5 50 05:41 15.02.2020
2905 Rain 28 1006 78 10000 1 300 04:46 15.02.2020
2906 Rain 28 1005 78 10000 1.5 260 03:43 15.02.2020
2907 Rain 28 1006 78 10000 1.5 260 02:51 15.02.2020
2908 Rain 27 1005 83 10000 3.1 240 02:22 15.02.2020
2909 Rain 27 1006 83 10000 1.5 240 01:40 15.02.2020
2910 Rain 27 1006 78 10000 5.1 250 00:42 15.02.2020
2911 Rain 28 1006 88 10000 4.1 290 00:21 15.02.2020
2912 Rain 27 1007 88 10000 1.5 350 23:40 14.02.2020
2913 Rain 27 1007 88 10000 1.5 350 23:19 14.02.2020
2914 Rain 27 1007 83 10000 2.1 320 22:44 14.02.2020
2915 Rain 26 1007 88 10000 1.5 350 22:23 14.02.2020
2916 Rain 25 1007 88 6000 5.7 310 21:52 14.02.2020
2917 Rain 27 1007 88 10000 3.6 360 21:34 14.02.2020
2918 Rain 28 1007 88 10000 3.1 20 20:59 14.02.2020
2919 Rain 27 1007 88 10000 3.6 20 20:39 14.02.2020
2920 Rain 27 1007 88 10000 3.6 20 20:19 14.02.2020
2921 Rain 27 1007 88 10000 3.6 20 19:42 14.02.2020
2922 Rain 27 1007 88 10000 4.6 20 19:24 14.02.2020
2923 Rain 27 1006 88 10000 4.1 30 18:59 14.02.2020
2924 Rain 27 1006 88 10000 4.1 30 18:40 14.02.2020
2925 Rain 27 1006 88 10000 3.6 20 18:21 14.02.2020
2926 Rain 27 1006 83 10000 4.1 10 17:56 14.02.2020
2927 Rain 27 1006 88 10000 4.1 20 17:38 14.02.2020
2928 Rain 27 1006 88 10000 4.1 20 17:18 14.02.2020
2929 Rain 27 1006 88 10000 3.6 20 16:41 14.02.2020
2930 Rain 27 1006 83 10000 3.6 20 16:23 14.02.2020
2931 Rain 27 1005 83 10000 4.6 20 15:56 14.02.2020
2932 Clouds 27 1005 88 10000 3.6 30 15:38 14.02.2020
2933 Clouds 27 1005 88 10000 3.6 30 15:38 14.02.2020
2934 Clouds 27 1005 88 10000 3.6 30 15:20 14.02.2020
2935 Clouds 27 1005 88 10000 3.6 30 14:59 14.02.2020
2936 Clouds 27 1005 88 10000 3.6 30 14:40 14.02.2020
2937 Clouds 27 1006 83 10000 5.1 20 14:22 14.02.2020
2938 Clouds 27 1006 88 10000 4.6 40 13:55 14.02.2020
2939 Clouds 27 1006 88 10000 4.6 40 13:55 14.02.2020
2940 Clouds 27 1006 83 10000 4.1 30 13:37 14.02.2020
2941 Clouds 27 1006 83 10000 4.1 30 13:19 14.02.2020
2942 Clouds 26 1006 88 10000 4.6 50 12:56 14.02.2020
2943 Clouds 26 1006 88 10000 5.7 50 12:38 14.02.2020
2944 Clouds 26 1006 88 10000 5.7 50 12:38 14.02.2020
2945 Clouds 26 1006 88 10000 5.7 50 12:19 14.02.2020
2946 Clouds 26 1007 88 10000 6.2 50 11:55 14.02.2020
2947 Clouds 26 1007 88 10000 5.7 50 11:36 14.02.2020
2948 Rain 26 1007 88 10000 5.7 50 11:18 14.02.2020
2949 Rain 26 1007 88 10000 4.6 50 10:41 14.02.2020
2950 Rain 26 1008 88 10000 4.1 70 10:22 14.02.2020
2951 Rain 24 1008 94 10000 3.6 80 09:44 14.02.2020
2952 Rain 24 1007 94 10000 3.6 80 09:23 14.02.2020
2953 Rain 24 1007 94 10000 3.6 80 09:23 14.02.2020
2954 Rain 24 1007 94 10000 3.1 80 08:57 14.02.2020
2955 Rain 24 1007 94 10000 2.6 100 08:38 14.02.2020
2956 Rain 24 1007 94 10000 2.6 100 08:20 14.02.2020
2957 Rain 24 1007 88 10000 2.1 100 07:49 14.02.2020
2958 Rain 24 1007 88 10000 2.1 100 07:49 14.02.2020
2959 Rain 23 1007 94 10000 2.1 100 07:29 14.02.2020
2960 Rain 23 1006 94 10000 2.1 80 06:38 14.02.2020
2961 Rain 23 1006 94 10000 2.1 80 06:18 14.02.2020
2962 Rain 23 1006 94 10000 2.1 90 05:28 14.02.2020
2963 Rain 25 1007 94 3800 8.2 280 03:46 14.02.2020
2964 Rain 28 1006 83 10000 3.6 360 02:53 14.02.2020
2965 Rain 28 1007 83 10000 3.6 30 01:55 14.02.2020
2966 Rain 28 1007 83 10000 4.6 20 00:44 14.02.2020
2967 Rain 28 1007 83 10000 4.6 20 00:44 14.02.2020
2968 Rain 29 1008 79 10000 4.1 20 00:25 14.02.2020
2969 Rain 28 1008 78 10000 4.6 60 23:52 13.02.2020
2970 Rain 27 1008 88 10000 5.1 60 23:23 13.02.2020
2971 Rain 28 1008 83 10000 4.6 50 22:56 13.02.2020
2972 Rain 28 1008 83 10000 4.6 50 22:38 13.02.2020
2973 Rain 28 1008 83 10000 4.6 50 22:18 13.02.2020
2974 Rain 28 1008 83 10000 5.7 60 21:42 13.02.2020
2975 Rain 28 1008 83 10000 5.7 60 21:23 13.02.2020
2976 Rain 27 1008 88 10000 6.7 60 20:58 13.02.2020
2977 Rain 27 1008 88 10000 6.7 60 20:40 13.02.2020
2978 Rain 27 1008 88 10000 6.2 70 20:22 13.02.2020
2979 Rain 27 1008 88 10000 5.7 70 19:56 13.02.2020
2980 Rain 27 1008 88 10000 6.2 70 19:37 13.02.2020
2981 Rain 27 1008 88 10000 6.2 70 19:37 13.02.2020
2982 Rain 27 1008 88 10000 6.2 70 19:19 13.02.2020
2983 Rain 26 1007 88 10000 6.2 80 18:45 13.02.2020
2984 Rain 25 1007 94 10000 5.1 80 18:25 13.02.2020
2985 Rain 25 1007 94 10000 3.6 90 17:59 13.02.2020
2986 Rain 25 1007 94 10000 3.6 90 17:40 13.02.2020
2987 Rain 25 1007 88 10000 3.1 90 17:21 13.02.2020
2988 Rain 25 1006 94 10000 4.6 90 16:58 13.02.2020
2989 Rain 25 1007 94 10000 2.6 90 16:40 13.02.2020
2990 Rain 25 1007 94 10000 2.6 90 16:19 13.02.2020
2991 Rain 25 1007 94 10000 2.6 90 15:56 13.02.2020
2992 Rain 24 1007 100 6000 2.1 90 15:38 13.02.2020
2993 Rain 24 1007 100 6000 2.1 90 15:19 13.02.2020
2994 Rain 24 1007 100 10000 1.5 100 14:57 13.02.2020
2995 Rain 24 1008 100 10000 1 100 14:38 13.02.2020
2996 Rain 24 1008 100 10000 1 100 14:20 13.02.2020
2997 Rain 24 1008 100 10000 1.5 190 13:46 13.02.2020
2998 Rain 24 1008 100 10000 2.1 190 13:18 13.02.2020
2999 Rain 24 1008 100 10000 2.1 190 13:18 13.02.2020
3000 Rain 24 1009 100 10000 0.5 200 12:56 13.02.2020
3001 Rain 24 1009 94 10000 1 130 12:37 13.02.2020
3002 Rain 24 1009 94 10000 1 130 12:19 13.02.2020
3003 Rain 24 1010 100 10000 0.5 150 11:43 13.02.2020
3004 Rain 24 1010 100 10000 0.5 150 11:43 13.02.2020
3005 Rain 24 1010 100 10000 0.5 160 11:20 13.02.2020
3006 Rain 24 1010 94 10000 1 200 10:48 13.02.2020
3007 Rain 24 1010 100 0 3.38 19 10:28 13.02.2020
3008 Rain 24 1010 100 10000 1 200 09:55 13.02.2020
3009 Rain 24 1010 100 10000 1 200 09:55 13.02.2020
3010 Rain 24 1010 100 10000 1 180 09:36 13.02.2020
3011 Rain 24 1010 100 10000 1 180 09:18 13.02.2020
3012 -273 0 0 0 0 0 09:18 13.02.2020
3013 Rain 24 1010 94 0 3.38 19 08:37 13.02.2020
3014 Rain 24 1010 94 0 5.37 7 08:19 13.02.2020
3015 Rain 24 1009 94 10000 1 150 07:39 13.02.2020
3016 Rain 24 1009 94 10000 1 150 07:21 13.02.2020
3017 Rain 24 1009 94 10000 1 90 06:44 13.02.2020
3018 Rain 24 1009 94 0 6.3 11 06:19 13.02.2020
3019 Rain 25 1008 94 10000 1 160 05:33 13.02.2020
3020 Rain 25 1008 94 0 6.54 23 04:26 13.02.2020
3021 Rain 24 1008 94 10000 2.1 100 03:51 13.02.2020
3022 Rain 24 1009 88 10000 2.6 100 03:20 13.02.2020
3023 Rain 26 1009 83 10000 4.1 350 02:50 13.02.2020
3024 Rain 26 1009 88 0 7.22 29 02:19 13.02.2020
3025 Rain 26 1009 88 10000 2.6 50 01:32 13.02.2020
3026 Rain 28 1009 78 0 6.45 33 00:33 13.02.2020
3027 Rain 28 1010 78 10000 5.1 70 23:59 12.02.2020
3028 Rain 28 1010 74 10000 5.7 70 23:38 12.02.2020
3029 Rain 28 1010 74 10000 5.7 70 23:20 12.02.2020
3030 Rain 28 1010 78 10000 5.7 70 22:44 12.02.2020
3031 Rain 28 1010 78 10000 5.7 70 22:24 12.02.2020
3032 Rain 29 1010 74 10000 4.6 60 21:58 12.02.2020
3033 Rain 28 1010 74 0 5.55 28 21:39 12.02.2020
3034 Rain 28 1010 74 0 5.55 28 21:19 12.02.2020
3035 Rain 28 1010 74 10000 4.6 50 20:56 12.02.2020
3036 Rain 28 1010 74 10000 4.6 50 20:56 12.02.2020
3037 Rain 28 1011 74 0 5.55 28 20:37 12.02.2020
3038 Rain 28 1011 74 0 2.04 29 20:18 12.02.2020
3039 Rain 28 1011 74 0 2.04 29 20:18 12.02.2020
3040 Rain 27 1010 78 10000 4.1 50 19:44 12.02.2020
3041 Rain 27 1010 78 0 2.04 29 19:23 12.02.2020
3042 Rain 27 1010 78 10000 3.6 50 18:55 12.02.2020
3043 Rain 27 1009 78 10000 3.6 50 18:37 12.02.2020
3044 Rain 27 1009 78 10000 3.6 50 18:18 12.02.2020
3045 Rain 27 1009 78 10000 4.1 50 17:42 12.02.2020
3046 Rain 27 1009 78 10000 4.1 50 17:20 12.02.2020
3047 Rain 27 1008 83 10000 3.6 40 16:58 12.02.2020
3048 Rain 27 1008 78 10000 4.1 40 16:37 12.02.2020
3049 Rain 27 1008 78 10000 4.1 40 16:18 12.02.2020
3050 Rain 27 1008 78 0 3.27 340 15:40 12.02.2020
3051 Rain 27 1008 78 10000 3.6 30 15:20 12.02.2020
3052 Rain 27 1009 78 10000 3.6 20 14:54 12.02.2020
3053 Rain 27 1009 83 10000 3.1 360 14:36 12.02.2020
3054 Rain 27 1009 83 10000 3.1 360 14:18 12.02.2020
3055 Rain 27 1009 83 10000 3.1 350 13:55 12.02.2020
3056 Rain 27 1009 83 10000 2.6 340 13:37 12.02.2020
3057 Rain 27 1009 83 10000 2.6 340 13:18 12.02.2020
3058 Rain 27 1010 83 0 3.27 34 12:55 12.02.2020
3059 Rain 27 1010 83 10000 4.6 20 12:36 12.02.2020
3060 Rain 27 1010 83 10000 4.6 20 12:18 12.02.2020
3061 Rain 27 1011 83 10000 4.6 30 11:42 12.02.2020
3062 Rain 27 1011 83 10000 4.6 30 11:21 12.02.2020
3063 Clouds 27 1011 83 0 2.64 37 10:59 12.02.2020
3064 Clouds 27 1011 83 0 2.64 37 10:40 12.02.2020
3065 Clouds 27 1011 83 10000 5.7 50 10:21 12.02.2020
3066 Clouds 27 1011 83 10000 5.7 50 10:21 12.02.2020
3067 Clouds 27 1011 83 10000 6.2 50 09:56 12.02.2020
3068 Clouds 27 1011 83 10000 6.2 50 09:56 12.02.2020
3069 Clouds 27 1011 83 10000 5.7 50 09:38 12.02.2020
3070 Clouds 27 1011 83 10000 5.7 50 09:19 12.02.2020
3071 Clouds 27 1011 83 0 2.64 37 08:55 12.02.2020
3072 Clouds 27 1011 83 10000 6.7 50 08:36 12.02.2020
3073 Clouds 27 1011 83 10000 6.7 50 08:18 12.02.2020
3074 Clouds 27 1011 83 10000 6.2 50 07:41 12.02.2020
3075 Clouds 27 1011 83 10000 5.7 60 07:21 12.02.2020
3076 Clouds 27 1011 88 0 1.59 31 06:47 12.02.2020
3077 Clouds 27 1011 83 10000 5.7 50 06:20 12.02.2020
3078 Clouds 27 1010 83 10000 6.7 60 05:32 12.02.2020
3079 Rain 28 1010 83 0 2.11 29 04:43 12.02.2020
3080 Rain 28 1010 78 10000 5.7 60 03:59 12.02.2020
3081 Rain 28 1010 78 10000 6.7 70 03:30 12.02.2020
3082 Rain 28 1011 83 0 2.11 29 02:46 12.02.2020
3083 Rain 28 1011 83 10000 4.6 60 02:27 12.02.2020
3084 Rain 28 1011 78 10000 4.1 60 01:34 12.02.2020
3085 Rain 28 1012 83 0 3.03 10 00:41 12.02.2020
3086 Rain 27 1012 88 10000 5.7 40 00:22 12.02.2020
3087 Rain 29 1012 83 10000 4.6 60 23:49 11.02.2020
3088 Rain 29 1012 83 10000 5.1 60 23:31 11.02.2020
3089 Rain 28 1013 83 0 3.35 16 22:58 11.02.2020
3090 Rain 28 1013 83 10000 4.6 70 22:39 11.02.2020
3091 Rain 28 1013 83 10000 4.6 70 22:20 11.02.2020
3092 Rain 28 1013 83 10000 4.6 70 22:20 11.02.2020
3093 Rain 28 1013 83 10000 2.6 50 21:57 11.02.2020
3094 Rain 28 1013 83 10000 2.6 80 21:38 11.02.2020
3095 Rain 28 1013 83 10000 2.6 80 21:18 11.02.2020
3096 Rain 28 1013 83 0 3.35 16 20:57 11.02.2020
3097 Rain 27 1013 88 10000 2.1 90 20:38 11.02.2020
3098 Rain 27 1013 88 10000 2.1 90 20:19 11.02.2020
3099 Rain 27 1013 88 10000 2.1 90 20:19 11.02.2020
3100 Rain 27 1013 88 0 4.3 53 19:54 11.02.2020
3101 Rain 26 1013 94 10000 2.6 80 19:36 11.02.2020
3102 Rain 26 1013 94 10000 2.6 80 19:18 11.02.2020
3103 Rain 25 1013 100 0 4.3 53 18:43 11.02.2020
3104 Rain 25 1012 94 10000 1 80 18:25 11.02.2020
3105 Rain 25 1012 94 0 4.3 53 17:55 11.02.2020
3106 Rain 25 1012 94 10000 2.1 100 17:37 11.02.2020
3107 Clouds 25 1012 94 10000 2.1 100 17:18 11.02.2020
3108 Clouds 25 1012 94 10000 2.1 100 17:18 11.02.2020
3109 Clouds 25 1011 94 0 4.47 67 16:57 11.02.2020
3110 Clouds 25 1011 94 10000 2.1 110 16:38 11.02.2020
3111 Clouds 25 1011 94 10000 2.1 110 16:19 11.02.2020
3112 Clouds 25 1011 94 0 4.47 67 15:45 11.02.2020
3113 Clouds 25 1011 94 10000 1.5 90 15:26 11.02.2020
3114 Clouds 25 1011 94 10000 1.5 110 14:58 11.02.2020
3115 Clouds 25 1011 94 0 4.47 67 14:39 11.02.2020
3116 Clouds 25 1011 94 0 5.56 79 14:18 11.02.2020
3117 Clouds 25 1011 94 10000 4.1 80 13:42 11.02.2020
3118 Clouds 25 1012 88 10000 4.1 90 13:22 11.02.2020
3119 Clouds 24 1012 94 10000 3.6 90 12:59 11.02.2020
3120 Clouds 24 1012 94 0 5.14 68 12:40 11.02.2020
3121 Clouds 24 1012 94 0 5.14 68 12:21 11.02.2020
3122 Rain 24 1012 94 10000 2.1 80 11:55 11.02.2020
3123 Rain 24 1013 94 10000 2.1 90 11:36 11.02.2020
3124 Rain 24 1013 94 10000 2.1 90 11:18 11.02.2020
3125 Rain 24 1013 94 0 2.47 106 10:39 11.02.2020
3126 Rain 24 1013 94 0 2.47 106 10:20 11.02.2020
3127 Rain 24 1014 94 10000 3.6 190 09:57 11.02.2020
3128 Rain 24 1014 100 9000 3.6 220 09:38 11.02.2020
3129 Rain 24 1014 100 9000 3.6 220 09:20 11.02.2020
3130 Rain 24 1015 100 1200 4.1 230 08:46 11.02.2020
3131 Rain 27 1014 94 0 1.97 83 08:24 11.02.2020
3132 Rain 27 1013 94 10000 0.5 140 07:48 11.02.2020
3133 Rain 27 1013 88 10000 0.5 100 07:27 11.02.2020
3134 Rain 27 1013 88 10000 1.5 100 06:45 11.02.2020
3135 Rain 27 1012 88 10000 2.1 90 06:23 11.02.2020
3136 Rain 26 1012 94 10000 2.1 120 05:58 11.02.2020
3137 Rain 27 1012 88 0 0.52 231 05:26 11.02.2020
3138 Rain 28 1012 88 10000 2.6 30 04:52 11.02.2020
3139 Rain 27 1012 94 0 4.09 290 03:26 11.02.2020
3140 Rain 29 1012 83 10000 4.6 50 02:33 11.02.2020
3141 Rain 29 1013 83 0 6.25 6 01:39 11.02.2020
3142 Rain 30 1013 79 10000 5.1 40 00:43 11.02.2020
3143 Rain 30 1013 79 10000 4.6 40 00:22 11.02.2020
3144 Rain 29 1013 83 0 6.15 5 23:39 10.02.2020
3145 Clouds 29 1013 83 0 7.04 37 23:20 10.02.2020
3146 Clouds 29 1014 83 10000 4.6 40 22:42 10.02.2020
3147 Clouds 28 1014 88 10000 4.6 40 22:21 10.02.2020
3148 Clouds 28 1014 88 0 7.04 37 21:54 10.02.2020
3149 Clouds 28 1014 88 0 7.04 37 21:36 10.02.2020
3150 Clouds 28 1014 88 0 7.04 37 21:18 10.02.2020
3151 Clouds 28 1014 88 10000 5.1 50 20:54 10.02.2020
3152 Clouds 28 1013 83 10000 5.7 50 20:36 10.02.2020
3153 Rain 28 1013 83 10000 5.7 50 20:18 10.02.2020
3154 Rain 28 1013 83 10000 6.7 50 19:54 10.02.2020
3155 Rain 28 1013 83 0 6.42 61 19:36 10.02.2020
3156 Rain 28 1013 83 0 6.42 61 19:18 10.02.2020
3157 Rain 28 1013 88 10000 7.2 60 18:41 10.02.2020
3158 Rain 27 1012 88 10000 7.2 60 18:21 10.02.2020
3159 Rain 27 1012 88 10000 6.7 60 17:58 10.02.2020
3160 Rain 27 1012 88 0 6.42 61 17:39 10.02.2020
3161 Rain 27 1012 88 0 4.94 68 17:20 10.02.2020
3162 Rain 27 1012 88 10000 5.7 70 16:59 10.02.2020
3163 Rain 27 1012 88 10000 5.7 70 16:40 10.02.2020
3164 Rain 27 1012 88 10000 5.7 70 16:20 10.02.2020
3165 Rain 27 1012 88 10000 3.6 80 15:56 10.02.2020
3166 Rain 27 1013 88 0 4.94 68 15:38 10.02.2020
3167 Rain 27 1013 88 0 4.94 68 15:20 10.02.2020
3168 Rain 27 1013 88 10000 3.6 70 14:56 10.02.2020
3169 Rain 27 1013 88 10000 3.6 70 14:37 10.02.2020
3170 Rain 27 1013 88 10000 3.6 70 14:18 10.02.2020
3171 Rain 27 1014 88 0 5.51 54 13:42 10.02.2020
3172 Rain 27 1014 88 0 5.51 54 13:24 10.02.2020
3173 Rain 27 1014 88 0 5.15 54 13:24 10.02.2020
3174 Rain 27 1015 88 10000 4.1 70 12:51 10.02.2020
3175 Rain 27 1015 88 10000 4.1 70 12:27 10.02.2020
3176 Rain 27 1015 88 0 5.15 54 11:56 10.02.2020
3177 Rain 27 1015 88 10000 5.1 60 11:38 10.02.2020
3178 Rain 27 1015 88 10000 5.1 60 11:20 10.02.2020
3179 Rain 27 1015 88 10000 4.6 60 10:47 10.02.2020
3180 Rain 27 1015 88 10000 5.1 60 10:28 10.02.2020
3181 Rain 27 1015 88 0 5.02 56 09:48 10.02.2020
3182 Rain 27 1015 88 10000 4.6 70 09:26 10.02.2020
3183 Rain 27 1015 88 10000 4.1 70 08:57 10.02.2020
3184 Rain 28 1014 83 10000 4.6 60 08:37 10.02.2020
3185 Clouds 28 1014 83 10000 4.6 60 08:19 10.02.2020
3186 Clouds 28 1014 83 0 5.24 51 07:50 10.02.2020
3187 Clouds 28 1014 83 10000 4.1 60 07:27 10.02.2020
3188 Clouds 28 1013 83 10000 4.1 60 06:22 10.02.2020
3189 Clouds 28 1013 83 10000 2.6 50 04:42 10.02.2020
3190 Clouds 29 1013 79 0 6.67 49 03:45 10.02.2020
3191 Clouds 29 1013 79 10000 4.6 50 02:55 10.02.2020
3192 Clouds 30 1014 79 0 5.98 51 01:57 10.02.2020
3193 Clouds 30 1014 79 10000 6.2 60 00:51 10.02.2020
3194 Clouds 29 1014 79 10000 6.2 60 00:31 10.02.2020
3195 Clouds 29 1014 79 0 6.26 53 23:57 09.02.2020
3196 Clouds 29 1014 79 10000 5.7 60 23:39 09.02.2020
3197 Clouds 29 1014 79 10000 5.7 60 23:19 09.02.2020
3198 Clouds 29 1014 79 0 7.66 52 22:40 09.02.2020
3199 Clouds 29 1014 79 0 7.66 52 22:21 09.02.2020
3200 Clouds 29 1014 79 0 7.66 52 21:43 09.02.2020
3201 Clouds 29 1014 79 10000 7.7 60 21:24 09.02.2020
3202 Clouds 29 1015 79 10000 7.7 60 20:56 09.02.2020
3203 Clouds 29 1014 79 10000 7.2 60 20:38 09.02.2020
3204 Rain 29 1014 79 10000 7.2 60 20:18 09.02.2020
3205 Rain 28 1014 83 10000 7.7 60 19:39 09.02.2020
3206 Rain 28 1014 83 10000 7.7 60 19:21 09.02.2020
3207 Rain 28 1014 83 10000 7.7 60 18:56 09.02.2020
3208 Rain 27 1014 88 10000 6.2 60 18:38 09.02.2020
3209 Rain 27 1014 88 10000 6.2 60 18:20 09.02.2020
3210 Rain 27 1013 88 0 8.94 55 17:42 09.02.2020
3211 Rain 27 1013 88 10000 6.2 60 17:22 09.02.2020
3212 Clouds 27 1013 83 0 8.66 55 16:44 09.02.2020
3213 Clouds 27 1013 88 10000 7.7 60 16:25 09.02.2020
3214 Clouds 27 1013 88 10000 7.7 60 16:25 09.02.2020
3215 Clouds 27 1013 88 0 8.66 55 15:59 09.02.2020
3216 Clouds 27 1013 88 0 8.66 55 15:41 09.02.2020
3217 Clouds 27 1013 88 10000 8.2 70 15:22 09.02.2020
3218 Clouds 27 1013 88 0 8.66 55 14:57 09.02.2020
3219 Clouds 27 1013 88 10000 6.7 60 14:39 09.02.2020
3220 Clouds 27 1013 88 10000 6.7 60 14:39 09.02.2020
3221 Clouds 27 1013 88 10000 6.7 60 14:21 09.02.2020
3222 Clouds 27 1014 88 0 8.34 56 13:44 09.02.2020
3223 Clouds 27 1014 88 10000 6.7 70 13:26 09.02.2020
3224 Clouds 27 1014 88 0 8.51 56 12:57 09.02.2020
3225 Clouds 27 1015 88 10000 6.7 60 12:38 09.02.2020
3226 Clouds 27 1015 88 10000 6.7 60 12:19 09.02.2020
3227 Clouds 28 1015 83 0 8.51 56 11:41 09.02.2020
3228 Clouds 27 1015 88 10000 6.2 60 11:22 09.02.2020
3229 Clouds 27 1015 94 0 7.58 58 10:59 09.02.2020
3230 Clouds 27 1015 94 0 7.58 58 10:40 09.02.2020
3231 Clouds 27 1015 88 10000 6.7 70 10:21 09.02.2020
3232 Clouds 27 1015 88 10000 6.7 70 10:21 09.02.2020
3233 Clouds 27 1015 88 0 7.58 58 09:45 09.02.2020
3234 Clouds 27 1015 88 10000 7.2 70 09:25 09.02.2020
3235 Clouds 27 1015 83 0 7.58 58 08:45 09.02.2020
3236 Clouds 27 1014 83 10000 7.2 70 08:27 09.02.2020
3237 Clouds 27 1014 88 0 6.78 66 07:58 09.02.2020
3238 Clouds 27 1014 83 10000 8.2 70 07:34 09.02.2020
3239 Clouds 28 1014 83 10000 6.7 70 06:46 09.02.2020
3240 Clouds 28 1014 83 10000 6.2 70 05:59 09.02.2020
3241 Clouds 28 1013 83 10000 7.2 70 05:37 09.02.2020
3242 Clouds 28 1013 83 10000 7.2 70 05:18 09.02.2020
3243 Clouds 28 1013 83 10000 5.7 70 03:52 09.02.2020
3244 Clouds 29 1013 74 10000 6.2 60 02:44 09.02.2020
3245 Clouds 29 1013 79 10000 5.7 60 02:24 09.02.2020
3246 Rain 29 1014 79 0 7.88 46 01:34 09.02.2020
3247 Rain 29 1014 74 10000 7.2 50 00:41 09.02.2020
3248 Rain 30 1014 74 10000 6.2 60 00:21 09.02.2020
3249 Rain 30 1015 74 10000 6.2 60 23:42 08.02.2020
3250 Rain 29 1015 79 0 7.59 44 23:20 08.02.2020
3251 Rain 29 1015 79 10000 6.2 60 22:42 08.02.2020
3252 Rain 28 1015 83 10000 5.1 50 22:21 08.02.2020
3253 Rain 28 1015 74 0 7.59 44 21:58 08.02.2020
3254 Rain 28 1015 83 0 7.59 44 21:40 08.02.2020
3255 Rain 28 1015 83 0 7.59 44 21:19 08.02.2020
3256 Rain 26 1015 88 6000 4.6 30 20:55 08.02.2020
3257 Rain 26 1015 88 6000 4.6 30 20:55 08.02.2020
3258 Rain 28 1015 83 10000 6.2 50 20:37 08.02.2020
3259 Rain 28 1015 83 10000 6.2 50 20:18 08.02.2020
3260 Rain 28 1015 83 10000 6.2 50 20:18 08.02.2020
3261 Rain 27 1014 83 10000 5.7 50 19:40 08.02.2020
3262 Rain 27 1014 83 0 7.58 35 19:20 08.02.2020
3263 Rain 27 1014 83 10000 5.7 60 18:59 08.02.2020
3264 Rain 27 1014 83 10000 5.7 60 18:40 08.02.2020
3265 Rain 27 1013 83 10000 5.7 50 18:22 08.02.2020
3266 Rain 26 1013 88 10000 5.7 50 17:42 08.02.2020
3267 Rain 26 1013 88 10000 5.7 50 17:42 08.02.2020
3268 Rain 27 1013 83 0 8.27 37 17:21 08.02.2020
3269 Rain 27 1012 83 10000 5.1 50 16:56 08.02.2020
3270 Rain 27 1013 83 10000 5.7 50 16:37 08.02.2020
3271 Rain 27 1013 83 10000 5.7 50 16:18 08.02.2020
3272 Rain 27 1012 83 10000 5.1 50 15:40 08.02.2020
3273 Rain 27 1012 83 0 8.27 37 15:19 08.02.2020
3274 Rain 27 1012 83 10000 5.7 50 14:46 08.02.2020
3275 Rain 27 1012 83 0 8.27 37 14:24 08.02.2020
3276 Rain 27 1012 83 10000 6.7 60 13:59 08.02.2020
3277 Rain 27 1012 83 10000 6.7 60 13:41 08.02.2020
3278 Rain 26 1013 88 0 8.9 35 13:23 08.02.2020
3279 Rain 24 1013 94 10000 3.6 80 12:49 08.02.2020
3280 Rain 23 1013 94 0 8.9 35 12:23 08.02.2020
3281 Rain 23 1013 94 0 8.9 35 12:23 08.02.2020
3282 Rain 25 1014 94 10000 7.7 60 11:58 08.02.2020
3283 Rain 26 1014 88 0 8.9 35 11:40 08.02.2020
3284 Rain 26 1014 88 0 7.86 33 11:20 08.02.2020
3285 Rain 25 1013 94 5000 7.2 60 10:42 08.02.2020
3286 Rain 25 1014 94 0 7.86 33 10:22 08.02.2020
3287 Rain 25 1014 94 0 7.86 33 10:22 08.02.2020
3288 Rain 25 1014 94 0 7.86 33 10:22 08.02.2020
3289 Rain 25 1014 94 0 7.86 33 10:22 08.02.2020
3290 Rain 25 1014 94 0 7.86 33 10:22 08.02.2020
3291 Rain 26 1013 88 10000 5.7 60 09:53 08.02.2020
3292 Rain 25 1013 88 0 7.86 33 09:29 08.02.2020
3293 Rain 25 1013 94 6000 7.7 50 08:55 08.02.2020
3294 Rain 25 1013 94 6000 7.7 50 08:55 08.02.2020
3295 Rain 25 1012 94 0 7.86 33 08:37 08.02.2020
3296 Rain 25 1012 94 0 7.47 39 08:19 08.02.2020
3297 Rain 27 1012 83 10000 8.2 60 07:45 08.02.2020
3298 Rain 27 1012 83 10000 8.2 60 07:45 08.02.2020
3299 Rain 27 1011 83 10000 7.2 50 07:20 08.02.2020
3300 Rain 28 1011 78 10000 6.2 40 06:29 08.02.2020
3301 Rain 27 1011 83 10000 6.2 50 05:48 08.02.2020
3302 Rain 28 1010 83 10000 7.7 50 05:30 08.02.2020
3303 Rain 28 1010 83 10000 7.7 50 05:30 08.02.2020
3304 Rain 29 1010 74 10000 6.7 50 04:49 08.02.2020
3305 Rain 29 1010 74 10000 6.7 50 03:51 08.02.2020
3306 Rain 29 1010 74 10000 6.2 50 02:51 08.02.2020
3307 Clouds 29 1010 79 10000 7.7 60 01:41 08.02.2020
3308 Clouds 30 1011 74 10000 6.7 40 01:22 08.02.2020
3309 Clouds 29 1011 79 10000 7.7 30 00:39 08.02.2020
3310 Clouds 29 1011 79 10000 7.7 30 00:20 08.02.2020
3311 Clear 29 1011 79 10000 6.7 60 23:43 07.02.2020
3312 Clouds 29 1011 79 10000 4.6 40 23:20 07.02.2020
3313 Rain 28 1011 78 0 6 44 22:56 07.02.2020
3314 Clouds 29 1011 79 10000 5.7 40 22:37 07.02.2020
3315 Clouds 29 1011 79 10000 5.7 40 22:19 07.02.2020
3316 Rain 28 1011 78 10000 5.1 50 21:42 07.02.2020
3317 Clouds 28 1011 83 10000 6.7 30 21:22 07.02.2020
3318 Rain 28 1012 83 0 6 44 20:54 07.02.2020
3319 Rain 28 1012 83 10000 5.7 60 20:36 07.02.2020
3320 Rain 28 1012 83 10000 5.7 60 20:18 07.02.2020
3321 Rain 27 1011 88 10000 3.1 80 19:40 07.02.2020
3322 Rain 27 1011 88 10000 3.1 80 19:19 07.02.2020
3323 Rain 26 1011 94 0 4.56 63 18:46 07.02.2020
3324 Clouds 25 1010 94 10000 2.6 100 18:27 07.02.2020
3325 Rain 23 1010 100 10000 1.5 80 17:57 07.02.2020
3326 Clouds 24 1010 94 10000 0.5 150 17:39 07.02.2020
3327 Clouds 24 1010 94 10000 0.5 150 17:21 07.02.2020
3328 Clear 24 1010 94 0 4.74 105 16:52 07.02.2020
3329 Clear 24 1010 94 0 4.74 105 16:52 07.02.2020
3330 Clouds 24 1009 94 10000 1 150 16:25 07.02.2020
3331 Clear 24 1010 94 0 4.74 105 15:55 07.02.2020
3332 Clouds 24 1009 94 10000 1.5 120 15:36 07.02.2020
3333 Clouds 24 1009 94 10000 1.5 120 15:18 07.02.2020
3334 Clear 24 1010 100 0 4.74 105 14:42 07.02.2020
3335 Clear 24 1010 94 10000 0.5 160 14:24 07.02.2020
3336 Clear 24 1010 94 10000 1 160 13:57 07.02.2020
3337 Clear 25 1011 94 10000 0.5 80 13:38 07.02.2020
3338 Clouds 25 1011 94 10000 0.5 80 13:20 07.02.2020
3339 Clouds 24 1011 94 0 5.79 100 12:42 07.02.2020
3340 Clouds 24 1011 94 10000 0.5 240 12:24 07.02.2020
3341 Clouds 25 1012 88 10000 0.5 180 11:58 07.02.2020
3342 Clouds 25 1012 88 10000 5.79 100 11:39 07.02.2020
3343 Rain 25 1012 88 10000 7.35 107 11:18 07.02.2020
3344 Rain 26 1012 83 10000 0.5 170 10:40 07.02.2020
3345 Rain 26 1012 83 10000 0.5 170 10:20 07.02.2020
3346 Rain 27 1012 78 10000 2.1 110 09:45 07.02.2020
3347 Rain 27 1011 78 10000 3.1 100 09:25 07.02.2020
3348 Rain 27 1011 78 0 7.35 107 08:57 07.02.2020
3349 Rain 27 1011 78 10000 3.6 110 08:36 07.02.2020
3350 Rain 27 1011 78 10000 3.6 110 08:18 07.02.2020
3351 Rain 27 1011 78 10000 3.1 100 07:40 07.02.2020
3352 Rain 27 1011 78 10000 3.1 100 07:40 07.02.2020
3353 Drizzle 27 1011 78 10000 5.1 100 07:19 07.02.2020
3354 Clouds 27 1011 78 0 8.35 111 06:42 07.02.2020
3355 Clouds 28 1011 74 10000 4.1 100 06:22 07.02.2020
3356 Clouds 28 1011 74 10000 4.1 100 05:43 07.02.2020
3357 Rain 29 1011 70 10000 4.6 100 03:55 07.02.2020
3358 Rain 29 1011 74 10000 5.7 90 02:24 07.02.2020
3359 Rain 29 1011 74 10000 7.2 90 01:22 07.02.2020
3360 Rain 29 1012 74 10000 6.7 90 00:37 07.02.2020
3361 Rain 28 1012 83 10000 5.7 100 23:39 06.02.2020
3362 Rain 28 1012 83 10000 5.7 100 23:20 06.02.2020
3363 Rain 29 1013 74 0 8.55 101 22:56 06.02.2020
3364 Rain 29 1013 74 10000 4.6 90 22:38 06.02.2020
3365 Rain 29 1013 74 10000 4.6 90 22:19 06.02.2020
3366 Rain 28 1013 78 10000 4.1 100 21:37 06.02.2020
3367 Rain 28 1013 78 10000 4.1 100 21:18 06.02.2020
3368 Rain 28 1013 78 0 8.55 101 20:55 06.02.2020
3369 Rain 28 1013 78 0 8.55 101 20:55 06.02.2020
3370 Rain 28 1013 78 10000 4.1 100 20:36 06.02.2020
3371 Rain 28 1013 78 10000 4.1 100 20:18 06.02.2020
3372 Rain 27 1013 83 10000 3.6 100 19:56 06.02.2020
3373 Rain 27 1013 83 10000 3.1 100 19:37 06.02.2020
3374 Rain 27 1013 83 10000 3.1 100 19:19 06.02.2020
3375 Rain 27 1013 78 10000 4.6 100 18:42 06.02.2020
3376 Clouds 27 1012 78 10000 4.6 100 18:24 06.02.2020
3377 Rain 27 1012 83 10000 2.6 100 17:57 06.02.2020
3378 Rain 27 1012 83 10000 2.6 100 17:57 06.02.2020
3379 Clouds 27 1012 78 10000 5.1 110 17:39 06.02.2020
3380 Clouds 27 1012 78 10000 5.1 110 17:20 06.02.2020
3381 Rain 27 1012 78 10000 4.6 100 16:42 06.02.2020
3382 Clouds 27 1012 78 10000 5.1 110 16:24 06.02.2020
3383 Rain 27 1012 78 10000 4.1 100 15:43 06.02.2020
3384 Clouds 27 1012 78 10000 4.6 100 15:23 06.02.2020
3385 Rain 27 1012 78 10000 4.6 110 14:58 06.02.2020
3386 Clouds 27 1012 78 10000 5.1 110 14:40 06.02.2020
3387 Clouds 27 1012 78 10000 5.1 110 14:40 06.02.2020
3388 Clouds 27 1012 78 10000 5.1 110 14:22 06.02.2020
3389 Rain 26 1013 83 10000 2.6 110 13:42 06.02.2020
3390 Rain 26 1013 83 10000 4.6 110 13:24 06.02.2020
3391 Rain 27 1014 78 10000 4.1 100 12:44 06.02.2020
3392 Rain 27 1014 78 10000 3.6 110 12:19 06.02.2020
3393 Drizzle 27 1015 78 10000 3.1 100 11:57 06.02.2020
3394 Clouds 27 1015 83 10000 5.1 110 11:39 06.02.2020
3395 Clouds 27 1015 83 10000 5.1 110 11:19 06.02.2020
3396 Clouds 27 1015 78 10000 2.6 120 10:56 06.02.2020
3397 Rain 27 1015 78 10000 2.6 120 10:38 06.02.2020
3398 Rain 27 1015 78 10000 2.6 120 10:38 06.02.2020
3399 Rain 27 1015 78 10000 2.6 120 10:20 06.02.2020
3400 Clouds 27 1015 78 10000 3.1 120 09:56 06.02.2020
3401 Clouds 27 1015 78 10000 3.1 120 09:56 06.02.2020
3402 Rain 27 1015 83 10000 4.6 120 09:36 06.02.2020
3403 Rain 27 1015 83 10000 4.6 120 09:18 06.02.2020
3404 Rain 27 1015 78 10000 2.1 120 08:41 06.02.2020
3405 Clouds 27 1015 78 10000 3.1 100 08:22 06.02.2020
3406 Clear 27 1015 78 10000 2.1 120 07:47 06.02.2020
3407 Rain 27 1014 78 0 8.91 125 07:25 06.02.2020
3408 Clear 28 1014 74 10000 2.6 120 06:22 06.02.2020
3409 Clear 28 1014 74 10000 2.6 120 06:22 06.02.2020
3410 Clear 28 1014 74 10000 2.1 110 05:55 06.02.2020
3411 Clear 29 1014 74 10000 4.6 90 04:24 06.02.2020
3412 Clear 29 1014 74 0 7.93 125 03:20 06.02.2020
3413 Clear 29 1014 70 10000 5.1 90 02:29 06.02.2020
3414 Clouds 30 1014 70 0 6.63 117 01:35 06.02.2020
3415 Clouds 29 1015 70 10000 4.1 100 00:58 06.02.2020
3416 Clouds 29 1015 70 10000 5.1 100 00:26 06.02.2020
3417 Clouds 29 1015 70 10000 4.6 100 23:45 05.02.2020
3418 Clouds 29 1016 70 0 7.07 116 23:25 05.02.2020
3419 Clouds 29 1016 70 10000 4.6 100 22:57 05.02.2020
3420 Clouds 29 1016 74 10000 3.6 110 22:39 05.02.2020
3421 Clouds 29 1016 74 10000 3.6 110 22:39 05.02.2020
3422 Clouds 29 1016 74 10000 3.6 110 22:21 05.02.2020
3423 Clouds 29 1016 74 10000 5.7 100 21:42 05.02.2020
3424 Clouds 29 1016 70 0 7.39 105 21:24 05.02.2020
3425 Clouds 29 1016 70 10000 5.7 90 20:57 05.02.2020
3426 Clouds 28 1016 74 0 7.39 105 20:38 05.02.2020
3427 Clouds 28 1016 74 0 7.39 105 20:38 05.02.2020
3428 Clouds 28 1016 74 0 6.14 107 20:19 05.02.2020
3429 Clouds 28 1016 74 10000 4.6 100 19:55 05.02.2020
3430 Clouds 28 1016 74 0 6.14 107 19:37 05.02.2020
3431 Clouds 28 1016 74 0 6.14 107 19:18 05.02.2020
3432 Clouds 27 1016 78 10000 4.1 100 18:44 05.02.2020
3433 Clouds 27 1016 78 10000 3.1 100 18:21 05.02.2020
3434 Clouds 26 1015 83 0 6.14 107 17:58 05.02.2020
3435 Clouds 26 1015 83 0 6.14 107 17:37 05.02.2020
3436 Clouds 26 1015 83 0 5.83 102 17:18 05.02.2020
3437 Clouds 26 1015 88 10000 2.6 90 16:44 05.02.2020
3438 Clouds 26 1015 88 10000 2.6 90 16:25 05.02.2020
3439 Clouds 26 1015 88 0 5.83 102 15:59 05.02.2020
3440 Clouds 26 1015 88 0 5.83 102 15:59 05.02.2020
3441 Clouds 26 1015 88 0 5.83 102 15:40 05.02.2020
3442 Clouds 26 1015 88 0 5.83 102 15:19 05.02.2020
3443 Clouds 26 1015 88 10000 2.1 100 14:43 05.02.2020
3444 Clouds 26 1015 88 10000 3.1 90 14:25 05.02.2020
3445 Clouds 26 1016 88 0 6.42 101 13:59 05.02.2020
3446 Clouds 26 1016 88 10000 2.1 90 13:39 05.02.2020
3447 Clouds 26 1016 88 10000 2.1 90 13:19 05.02.2020
3448 Clouds 26 1016 88 10000 2.1 90 12:43 05.02.2020
3449 Clouds 26 1016 88 10000 2.1 90 12:43 05.02.2020
3450 Clouds 26 1017 88 10000 1.5 110 12:24 05.02.2020
3451 Clouds 26 1017 88 0 6.54 100 11:55 05.02.2020
3452 Clouds 27 1017 88 10000 2.6 90 11:36 05.02.2020
3453 Clouds 27 1017 88 10000 2.6 90 11:18 05.02.2020
3454 Clouds 27 1017 88 10000 2.6 90 10:42 05.02.2020
3455 Clouds 27 1017 88 10000 2.6 90 10:24 05.02.2020
3456 Clouds 27 1017 88 10000 3.1 90 09:45 05.02.2020
3457 Clouds 27 1017 88 10000 2.6 80 09:23 05.02.2020
3458 Clouds 27 1017 88 10000 3.1 90 08:59 05.02.2020
3459 Clouds 27 1017 88 10000 3.1 90 08:41 05.02.2020
3460 Clouds 28 1016 83 10000 2.6 80 08:22 05.02.2020
3461 Clouds 27 1016 88 0 5.46 84 07:45 05.02.2020
3462 Rain 28 1016 83 10000 2.1 70 07:26 05.02.2020
3463 Clouds 27 1016 88 6000 3.1 90 06:46 05.02.2020
3464 Clouds 28 1015 83 10000 2.6 60 06:23 05.02.2020
3465 Clouds 28 1015 83 0 5.46 84 05:49 05.02.2020
3466 Clouds 29 1015 79 10000 3.1 50 05:18 05.02.2020
3467 Clouds 29 1014 83 10000 3.1 50 04:44 05.02.2020
3468 Clouds 30 1014 79 10000 3.1 40 03:21 05.02.2020
3469 Clouds 30 1015 79 10000 4.1 50 02:23 05.02.2020
3470 Clouds 29 1015 83 10000 5.1 60 01:35 05.02.2020
3471 Clouds 30 1015 79 10000 5.1 40 00:33 05.02.2020
3472 Clouds 29 1015 83 10000 5.1 50 23:42 04.02.2020
3473 Clouds 30 1015 84 10000 4.6 30 23:23 04.02.2020
3474 Clouds 29 1015 89 10000 4.6 40 22:58 04.02.2020
3475 Clouds 29 1015 89 10000 4.6 40 22:40 04.02.2020
3476 Clouds 29 1015 89 10000 4.6 40 22:21 04.02.2020
3477 Clouds 29 1015 83 10000 4.6 30 21:57 04.02.2020
3478 Clouds 29 1015 83 10000 4.6 30 21:38 04.02.2020
3479 Clouds 29 1015 83 10000 4.6 30 21:19 04.02.2020
3480 Clouds 29 1015 83 10000 4.6 30 20:55 04.02.2020
3481 Clouds 29 1015 83 10000 4.6 30 20:37 04.02.2020
3482 Clouds 29 1015 83 10000 4.6 30 20:18 04.02.2020
3483 Clouds 28 1015 88 10000 4.6 40 19:43 04.02.2020
3484 Clouds 28 1015 88 10000 4.6 40 19:25 04.02.2020
3485 Clouds 27 1014 94 10000 4.1 40 18:59 04.02.2020
3486 Clouds 27 1014 94 10000 4.1 40 18:40 04.02.2020
3487 Clouds 27 1014 94 10000 4.1 40 18:21 04.02.2020
3488 Clouds 27 1013 94 10000 4.6 30 17:56 04.02.2020
3489 Clouds 27 1013 94 10000 4.6 30 17:38 04.02.2020
3490 Clouds 27 1013 94 10000 4.6 30 17:19 04.02.2020
3491 Clouds 27 1013 94 10000 3.1 40 16:39 04.02.2020
3492 Clouds 27 1013 94 10000 3.1 40 16:20 04.02.2020
3493 Clouds 27 1013 94 10000 4.1 40 15:57 04.02.2020
3494 Clouds 27 1013 94 10000 4.1 40 15:39 04.02.2020
3495 Clouds 27 1013 94 10000 4.1 40 15:20 04.02.2020
3496 Clouds 27 1013 88 10000 4.6 40 14:45 04.02.2020
3497 Clouds 27 1013 88 10000 4.6 40 14:26 04.02.2020
3498 Clouds 27 1014 88 10000 5.1 30 13:59 04.02.2020
3499 Clouds 27 1014 88 10000 5.1 30 13:40 04.02.2020
3500 Clouds 27 1014 88 10000 5.1 30 13:22 04.02.2020
3501 Clouds 27 1014 88 10000 4.6 30 12:55 04.02.2020
3502 Clouds 27 1014 88 10000 4.6 30 12:37 04.02.2020
3503 Clouds 27 1014 88 10000 4.6 30 12:18 04.02.2020
3504 Clouds 27 1014 88 10000 3.6 40 11:54 04.02.2020
3505 Clouds 27 1014 88 10000 3.6 40 11:54 04.02.2020
3506 Clouds 27 1014 88 10000 3.6 40 11:54 04.02.2020
3507 Clouds 27 1014 88 10000 3.6 40 11:36 04.02.2020
3508 Clouds 27 1014 88 10000 3.6 40 11:18 04.02.2020
3509 Clouds 27 1014 88 10000 3.6 40 11:18 04.02.2020
3510 Clouds 27 1013 85 0 4.1 43 10:42 04.02.2020
3511 Clouds 27 1013 85 0 4.1 43 10:22 04.02.2020
3512 Clouds 27 1013 85 0 4.1 43 09:42 04.02.2020
3513 Clouds 27 1013 85 0 4.1 43 09:24 04.02.2020
3514 Clouds 27 1013 85 0 4.1 43 08:59 04.02.2020
3515 Clouds 27 1013 85 0 4.1 43 08:41 04.02.2020
3516 Clouds 28 1013 84 0 3.6 45 08:22 04.02.2020
3517 Clouds 28 1012 80 0 2.34 58 07:46 04.02.2020
3518 Clouds 28 1012 80 0 2.34 58 07:23 04.02.2020
3519 Clouds 28 1012 80 0 2.34 58 06:44 04.02.2020
3520 Clouds 28 1012 80 0 2.34 58 06:21 04.02.2020
3521 Clouds 28 1012 80 0 2.34 58 05:29 04.02.2020
3522 Rain 28 1010 88 10000 3.6 50 03:54 04.02.2020
3523 Rain 28 1010 88 10000 3.6 50 03:34 04.02.2020
3524 Rain 28 1010 88 10000 3.6 50 02:59 04.02.2020
3525 Clouds 28 1010 83 10000 3.6 50 02:32 04.02.2020
3526 Clouds 28 1010 83 10000 3.6 50 02:32 04.02.2020
3527 Clouds 29 1010 79 10000 4.1 50 01:54 04.02.2020
3528 Clouds 29 1011 83 10000 4.1 50 01:35 04.02.2020
3529 Clouds 29 1011 83 10000 5.1 60 00:45 04.02.2020
3530 Clouds 28 1011 88 10000 4.6 50 00:21 04.02.2020
3531 Clouds 28 1011 88 10000 3.6 50 23:40 03.02.2020
3532 Clouds 28 1011 88 10000 3.6 50 23:20 03.02.2020
3533 Clouds 28 1011 88 10000 4.1 60 22:39 03.02.2020
3534 Clouds 28 1011 88 10000 4.1 60 22:20 03.02.2020
3535 Clouds 28 1011 88 10000 4.1 60 21:55 03.02.2020
3536 Clouds 28 1011 88 10000 4.1 60 21:55 03.02.2020
3537 Clouds 27 1012 88 10000 3.6 70 21:37 03.02.2020
3538 Clouds 27 1012 88 10000 3.6 70 21:18 03.02.2020
3539 Clouds 27 1012 88 10000 3.6 70 21:18 03.02.2020
3540 Clouds 27 1012 88 10000 3.6 70 20:42 03.02.2020
3541 Rain 28 1011 88 10000 3.1 60 20:19 03.02.2020
3542 Rain 28 1011 88 10000 3.1 60 20:19 03.02.2020
3543 Rain 28 1011 88 10000 3.1 60 20:19 03.02.2020
3544 Rain 27 1011 88 10000 2.1 80 19:56 03.02.2020
3545 Rain 27 1011 88 10000 2.1 100 19:38 03.02.2020
3546 Rain 27 1011 88 10000 2.1 100 19:19 03.02.2020
3547 Rain 26 1011 94 10000 2.1 90 18:43 03.02.2020
3548 Rain 25 1011 94 10000 1 80 18:24 03.02.2020
3549 Rain 25 1010 94 10000 1 100 17:59 03.02.2020
3550 Rain 24 1009 100 10000 1.5 70 17:39 03.02.2020
3551 Rain 24 1009 100 10000 1.5 70 17:20 03.02.2020
3552 Rain 24 1009 100 10000 1.5 70 17:20 03.02.2020
3553 Rain 24 1009 100 10000 1.5 70 17:20 03.02.2020
3554 Rain 25 1010 94 10000 1 200 16:55 03.02.2020
3555 Rain 25 1009 94 10000 0.5 170 16:37 03.02.2020
3556 Rain 25 1009 94 10000 0.5 170 16:18 03.02.2020
3557 Rain 25 1009 94 10000 0.5 140 15:54 03.02.2020
3558 Rain 25 1009 94 10000 0.5 160 15:36 03.02.2020
3559 Rain 25 1009 94 10000 0.5 160 15:36 03.02.2020
3560 Rain 25 1009 94 10000 0.5 160 15:18 03.02.2020
3561 Rain 25 1009 94 10000 0.5 130 14:39 03.02.2020
3562 Rain 25 1009 94 10000 0.5 130 14:21 03.02.2020
3563 Rain 25 1009 94 10000 1 70 13:54 03.02.2020
3564 Rain 25 1009 94 10000 1 70 13:54 03.02.2020
3565 Rain 25 1009 94 10000 1.5 90 13:36 03.02.2020
3566 Rain 25 1009 94 10000 1.5 90 13:18 03.02.2020
3567 Rain 26 1010 88 10000 2.1 60 12:40 03.02.2020
3568 Rain 26 1010 88 10000 2.1 60 12:21 03.02.2020
3569 Rain 26 1010 88 10000 1 100 11:57 03.02.2020
3570 Rain 26 1010 88 10000 1 100 11:37 03.02.2020
3571 Rain 26 1010 88 10000 1 100 11:18 03.02.2020
3572 Rain 27 1010 83 10000 2.1 120 10:41 03.02.2020
3573 Rain 27 1010 83 10000 3.1 90 10:22 03.02.2020
3574 Rain 27 1009 83 10000 2.6 110 09:48 03.02.2020
3575 Rain 27 1009 83 10000 2.6 110 09:48 03.02.2020
3576 Rain 27 1009 78 10000 2.6 110 09:24 03.02.2020
3577 Rain 27 1009 78 10000 2.6 110 08:56 03.02.2020
3578 Rain 27 1009 78 10000 2.6 110 08:56 03.02.2020
3579 Rain 27 1009 78 10000 3.6 100 08:37 03.02.2020
3580 Clouds 27 1009 78 10000 3.6 100 08:19 03.02.2020
3581 Clouds 27 1008 78 10000 2.6 110 07:40 03.02.2020
3582 Clouds 27 1008 78 10000 2.1 120 07:21 03.02.2020
3583 Clouds 27 1008 78 10000 2.6 110 06:50 03.02.2020
3584 Clouds 27 1007 78 10000 4.1 110 06:28 03.02.2020
3585 Clouds 27 1006 78 10000 4.6 100 05:37 03.02.2020
3586 Clouds 27 1006 78 10000 4.6 100 05:18 03.02.2020
3587 Rain 27 1006 78 10000 4.6 110 03:19 03.02.2020
3588 Clouds 28 1006 74 10000 6.2 100 02:34 03.02.2020
3589 Clouds 28 1006 74 10000 6.2 90 01:41 03.02.2020
3590 Clouds 29 1006 70 10000 3.1 140 00:46 03.02.2020
3591 Clouds 29 1006 70 10000 3.6 110 00:23 03.02.2020
3592 Clouds 29 1007 70 10000 6.7 90 23:39 02.02.2020
3593 Clouds 29 1007 70 10000 6.7 90 23:20 02.02.2020
3594 Clouds 29 1008 70 10000 6.2 100 22:57 02.02.2020
3595 Clouds 29 1008 70 10000 6.2 100 22:57 02.02.2020
3596 Clouds 29 1008 70 10000 6.2 100 22:57 02.02.2020
3597 Clouds 28 1008 74 10000 5.1 100 22:38 02.02.2020
3598 Clouds 28 1008 74 10000 5.1 100 22:19 02.02.2020
3599 Clouds 28 1008 74 10000 5.1 100 21:54 02.02.2020
3600 Clouds 29 1008 70 10000 5.1 90 21:36 02.02.2020
3601 Clouds 29 1008 70 10000 5.1 90 21:18 02.02.2020
3602 Clouds 28 1008 74 10000 3.1 100 20:55 02.02.2020
3603 Clouds 28 1008 74 10000 3.1 100 20:36 02.02.2020
3604 Clouds 28 1008 74 10000 3.1 100 20:18 02.02.2020
3605 Clear 27 1008 78 10000 3.1 100 19:42 02.02.2020
3606 Clear 27 1008 78 10000 2.1 100 19:23 02.02.2020
3607 Clear 26 1007 78 10000 1.5 110 18:59 02.02.2020
3608 Clear 26 1007 78 10000 2.1 120 18:38 02.02.2020
3609 Clear 26 1007 78 10000 2.1 120 18:20 02.02.2020
3610 Clear 26 1007 78 10000 2.6 110 17:58 02.02.2020
3611 Clear 25 1006 83 10000 2.1 130 17:38 02.02.2020
3612 Clear 25 1006 83 10000 2.1 130 17:38 02.02.2020
3613 Clear 25 1006 83 10000 2.1 130 17:38 02.02.2020
3614 Rain 25 1006 83 10000 2.1 130 17:18 02.02.2020
3615 Rain 25 1006 88 10000 2.1 130 16:58 02.02.2020
3616 Rain 25 1006 88 6000 1 130 16:38 02.02.2020
3617 Rain 25 1006 88 6000 1 130 16:19 02.02.2020
3618 Rain 25 1007 88 10000 0.5 150 15:57 02.02.2020
3619 Rain 25 1006 88 10000 1.5 140 15:38 02.02.2020
3620 Rain 25 1006 88 10000 1.5 140 15:19 02.02.2020
3621 Rain 26 1006 83 10000 2.6 110 14:44 02.02.2020
3622 Rain 26 1006 83 10000 2.1 120 14:19 02.02.2020
3623 Clear 26 1006 83 10000 3.6 90 13:59 02.02.2020
3624 Clear 26 1006 83 10000 3.6 90 13:41 02.02.2020
3625 Rain 26 1007 78 10000 3.6 100 13:21 02.02.2020
3626 Rain 26 1007 83 10000 2.6 90 12:57 02.02.2020
3627 Rain 26 1007 83 10000 2.6 90 12:57 02.02.2020
3628 Rain 26 1007 78 10000 3.1 100 12:38 02.02.2020
3629 Rain 26 1007 78 10000 3.1 100 12:20 02.02.2020
3630 Rain 26 1008 78 10000 4.1 100 11:43 02.02.2020
3631 Rain 26 1008 78 10000 3.1 110 11:20 02.02.2020
3632 Rain 27 1008 78 10000 3.1 120 10:58 02.02.2020
3633 Rain 27 1008 78 10000 4.6 100 10:39 02.02.2020
3634 Rain 27 1008 78 10000 4.6 100 10:21 02.02.2020
3635 Rain 26 1008 83 10000 4.1 100 09:59 02.02.2020
3636 Rain 26 1007 83 10000 3.6 100 09:39 02.02.2020
3637 Rain 26 1007 83 10000 3.6 100 09:20 02.02.2020
3638 Rain 26 1007 83 10000 3.6 100 08:46 02.02.2020
3639 Rain 26 1007 83 10000 2.6 100 08:26 02.02.2020
3640 Rain 27 1007 78 10000 2.6 120 07:48 02.02.2020
3641 Rain 26 1007 83 10000 3.1 120 07:30 02.02.2020
3642 Rain 26 1006 83 10000 3.1 110 06:46 02.02.2020
3643 Rain 27 1006 78 10000 4.1 120 06:28 02.02.2020
3644 Rain 27 1006 78 10000 4.1 120 05:53 02.02.2020
3645 Rain 28 1006 74 10000 4.1 130 04:58 02.02.2020
3646 Rain 28 1006 74 10000 4.1 130 04:58 02.02.2020
3647 Rain 27 1006 83 10000 2.6 120 03:41 02.02.2020
3648 Rain 28 1006 74 10000 3.6 90 02:42 02.02.2020
3649 Rain 29 1006 79 10000 3.1 90 01:57 02.02.2020
3650 Rain 29 1006 74 10000 3.1 110 01:35 02.02.2020
3651 Rain 29 1006 74 10000 2.6 110 00:45 02.02.2020
3652 Rain 28 1006 78 10000 3.1 100 00:23 02.02.2020
3653 Rain 28 1007 78 10000 2.1 110 23:54 01.02.2020
3654 Rain 28 1007 78 10000 3.1 110 23:36 01.02.2020
3655 Clouds 28 1007 78 10000 3.1 110 23:18 01.02.2020
3656 Rain 27 1007 78 10000 3.6 130 22:42 01.02.2020
3657 Clouds 28 1007 74 10000 3.1 110 22:18 01.02.2020
3658 Clouds 28 1007 74 10000 2.6 140 21:39 01.02.2020
3659 Clouds 28 1007 74 10000 2.6 140 21:18 01.02.2020
3660 Clouds 28 1007 74 10000 2.6 140 20:41 01.02.2020
3661 Rain 27 1008 83 10000 2.6 120 20:20 01.02.2020
3662 Rain 27 1007 83 10000 2.6 140 19:57 01.02.2020
3663 Rain 26 1007 88 10000 0.5 180 19:39 01.02.2020
3664 Rain 26 1007 88 10000 0.5 180 19:20 01.02.2020
3665 Rain 25 1007 94 10000 1 130 18:58 01.02.2020
3666 Rain 24 1006 94 10000 0.5 170 18:40 01.02.2020
3667 Rain 24 1006 94 10000 0.5 170 18:21 01.02.2020
3668 Rain 24 1006 94 10000 1 110 17:57 01.02.2020
3669 Rain 24 1006 94 10000 1 110 17:39 01.02.2020
3670 Clear 24 1006 94 10000 1 110 17:19 01.02.2020
3671 Clear 25 1006 88 10000 1 130 16:43 01.02.2020
3672 Clear 25 1005 88 10000 2.1 100 16:24 01.02.2020
3673 Clear 24 1006 94 10000 1.5 190 15:58 01.02.2020
3674 Clear 24 1006 100 10000 0.5 20 15:38 01.02.2020
3675 Clear 24 1006 100 10000 0.5 20 15:19 01.02.2020
3676 Rain 24 1006 94 10000 1 220 14:41 01.02.2020
3677 Rain 25 1006 88 10000 1.5 120 14:21 01.02.2020
3678 Rain 24 1007 94 10000 1 150 13:46 01.02.2020
3679 Rain 25 1007 88 10000 1.5 110 13:24 01.02.2020
3680 Rain 25 1007 88 10000 2.1 110 12:59 01.02.2020
3681 Rain 25 1007 88 10000 2.1 110 12:41 01.02.2020
3682 Rain 25 1007 88 10000 1.5 120 12:22 01.02.2020
3683 Rain 25 1008 88 10000 2.1 120 11:44 01.02.2020
3684 Rain 25 1008 94 10000 2.1 100 11:23 01.02.2020
3685 Rain 24 1008 94 10000 1 140 10:59 01.02.2020
3686 Rain 25 1008 88 10000 0.5 190 10:40 01.02.2020
3687 Rain 25 1008 88 10000 0.5 190 10:22 01.02.2020
3688 Rain 25 1008 94 10000 2.1 130 09:58 01.02.2020
3689 Rain 25 1009 94 6000 2.6 100 09:40 01.02.2020
3690 Rain 25 1009 94 6000 2.6 100 09:20 01.02.2020
3691 Rain 25 1009 94 6000 2.6 100 08:48 01.02.2020
3692 Rain 26 1008 88 10000 0.5 210 07:51 01.02.2020
3693 Rain 26 1008 88 5000 1.5 110 07:28 01.02.2020
3694 Rain 26 1008 88 5000 1.5 110 07:28 01.02.2020
3695 Rain 26 1007 88 9000 2.1 130 06:58 01.02.2020
3696 Rain 27 1007 78 10000 2.1 140 06:38 01.02.2020
3697 Rain 27 1007 78 10000 2.1 130 05:52 01.02.2020
3698 Rain 27 1007 78 10000 2.1 130 05:52 01.02.2020
3699 Clouds 28 1006 78 10000 2.6 120 04:20 01.02.2020
3700 Rain 28 1007 78 10000 4.1 140 03:22 01.02.2020
3701 Clouds 28 1007 78 10000 3.1 110 02:46 01.02.2020
3702 Clouds 29 1007 74 10000 2.6 150 02:27 01.02.2020
3703 Rain 28 1007 78 10000 2.6 130 01:54 01.02.2020
3704 Rain 28 1008 78 10000 3.6 110 01:31 01.02.2020
3705 Clouds 29 1008 74 10000 3.1 90 00:30 01.02.2020
3706 Clouds 29 1008 74 10000 3.6 100 23:43 31.01.2020
3707 Rain 28 1009 78 10000 2.6 100 23:21 31.01.2020
3708 Clouds 29 1009 74 10000 3.6 110 22:59 31.01.2020
3709 Clouds 29 1009 74 10000 4.6 100 22:41 31.01.2020
3710 Clouds 29 1009 74 10000 4.6 100 22:22 31.01.2020
3711 Clouds 29 1010 74 10000 2.6 100 21:57 31.01.2020
3712 Clouds 28 1010 74 10000 3.1 110 21:39 31.01.2020
3713 Clouds 28 1010 74 10000 3.1 110 21:19 31.01.2020
3714 Clouds 28 1010 74 10000 3.1 110 20:56 31.01.2020
3715 Clouds 27 1010 78 10000 3.1 100 20:37 31.01.2020
3716 Clouds 27 1010 78 10000 3.1 100 20:37 31.01.2020
3717 Clouds 27 1010 78 10000 5.1 100 20:19 31.01.2020
3718 Clouds 27 1010 78 10000 5.1 100 19:56 31.01.2020
3719 Clouds 27 1010 78 0 7.96 135 19:37 31.01.2020
3720 Clouds 27 1010 78 0 7.96 135 19:18 31.01.2020
3721 Clouds 26 1010 83 10000 2.1 100 18:41 31.01.2020
3722 Clouds 26 1009 83 10000 2.1 110 18:23 31.01.2020
3723 Rain 26 1009 78 0 7.96 135 17:47 31.01.2020
3724 Clouds 26 1009 83 0 7.96 135 17:28 31.01.2020
3725 Clouds 26 1009 78 10000 1.5 130 16:59 31.01.2020
3726 Clouds 26 1009 78 10000 3.1 110 16:39 31.01.2020
3727 Clouds 26 1009 78 10000 3.1 110 16:39 31.01.2020
3728 Clouds 26 1009 78 10000 3.1 110 16:19 31.01.2020
3729 Clouds 26 1009 78 10000 2.6 100 15:59 31.01.2020
3730 Clouds 26 1009 78 10000 2.6 100 15:59 31.01.2020
3731 Clouds 26 1009 78 10000 2.6 100 15:40 31.01.2020
3732 Clouds 26 1009 78 0 8.12 130 15:20 31.01.2020
3733 Clouds 26 1009 78 10000 3.1 110 14:45 31.01.2020
3734 Clouds 26 1010 78 10000 2.6 110 14:25 31.01.2020
3735 Clouds 26 1010 78 10000 4.6 110 13:57 31.01.2020
3736 Clouds 26 1011 78 0 8.69 119 13:38 31.01.2020
3737 Clouds 26 1011 78 0 7.91 122 13:20 31.01.2020
3738 Clouds 26 1011 78 10000 4.1 100 12:45 31.01.2020
3739 Clouds 26 1011 78 10000 3.1 100 12:24 31.01.2020
3740 Clouds 26 1011 78 0 7.91 122 11:55 31.01.2020
3741 Clouds 26 1012 78 0 8.15 120 11:37 31.01.2020
3742 Clouds 26 1012 78 0 8.76 125 11:19 31.01.2020
3743 Clouds 26 1012 78 10000 3.1 110 10:44 31.01.2020
3744 Clouds 26 1012 78 10000 4.6 110 10:23 31.01.2020
3745 Clouds 26 1012 78 10000 4.6 110 10:23 31.01.2020
3746 Clouds 26 1012 78 0 8.76 125 09:58 31.01.2020
3747 Clouds 26 1012 78 0 8.76 125 09:39 31.01.2020
3748 Clouds 26 1012 78 0 8.76 125 09:39 31.01.2020
3749 Clouds 26 1012 78 0 8.76 125 09:19 31.01.2020
3750 Clouds 26 1012 78 10000 5.7 100 08:53 31.01.2020
3751 Clouds 26 1011 78 10000 2.6 110 08:28 31.01.2020
3752 Clear 26 1011 74 0 10.12 122 07:54 31.01.2020
3753 Clear 27 1011 69 0 10.12 122 07:25 31.01.2020
3754 Clear 27 1011 69 10000 3.1 120 06:49 31.01.2020
3755 Clear 27 1010 65 10000 3.6 120 06:19 31.01.2020
3756 Clear 27 1010 69 10000 3.1 130 05:48 31.01.2020
3757 Clear 28 1010 74 10000 4.1 110 04:56 31.01.2020
3758 Clear 29 1010 74 10000 5.1 110 02:58 31.01.2020
3759 Rain 29 1011 74 10000 6.7 90 01:38 31.01.2020
3760 Rain 29 1011 74 10000 6.7 90 00:46 31.01.2020
3761 Rain 29 1011 74 10000 6.7 90 00:26 31.01.2020
3762 Rain 29 1011 74 0 9.65 115 23:57 30.01.2020
3763 Rain 29 1012 74 10000 8.2 90 23:25 30.01.2020
3764 Rain 29 1012 79 10000 6.2 90 22:57 30.01.2020
3765 Rain 29 1012 79 10000 6.2 90 22:57 30.01.2020
3766 Rain 29 1012 79 10000 6.2 90 22:57 30.01.2020
3767 Rain 28 1012 78 10000 4.1 110 22:36 30.01.2020
3768 Rain 28 1012 78 10000 4.1 110 22:18 30.01.2020
3769 Rain 28 1012 78 10000 5.7 80 21:55 30.01.2020
3770 Rain 28 1013 78 10000 6.2 90 21:36 30.01.2020
3771 Rain 28 1013 78 10000 6.2 90 21:18 30.01.2020
3772 Rain 27 1012 83 10000 5.7 100 20:40 30.01.2020
3773 Rain 27 1012 83 10000 5.7 100 20:21 30.01.2020
3774 Rain 27 1012 83 10000 4.1 100 19:56 30.01.2020
3775 Rain 27 1012 83 10000 3.1 120 19:38 30.01.2020
3776 Rain 27 1012 83 10000 3.1 120 19:18 30.01.2020
3777 Rain 26 1012 88 10000 3.6 110 18:40 30.01.2020
3778 Rain 26 1012 88 10000 4.6 110 18:21 30.01.2020
3779 Rain 26 1012 88 10000 3.6 100 17:55 30.01.2020
3780 Rain 26 1011 83 10000 3.1 100 17:37 30.01.2020
3781 Rain 26 1011 83 10000 3.1 100 17:18 30.01.2020
3782 Rain 26 1011 83 10000 3.1 110 16:56 30.01.2020
3783 Rain 25 1011 94 9000 5.1 80 16:37 30.01.2020
3784 Rain 25 1011 94 9000 5.1 80 16:18 30.01.2020
3785 Rain 26 1011 88 10000 5.7 80 15:42 30.01.2020
3786 Rain 26 1011 88 10000 4.1 90 15:19 30.01.2020
3787 Rain 26 1011 88 0 8.59 106 14:46 30.01.2020
3788 Rain 26 1011 88 10000 5.1 80 14:26 30.01.2020
3789 Rain 26 1011 88 10000 5.1 80 14:26 30.01.2020
3790 Rain 26 1011 88 10000 6.2 80 13:43 30.01.2020
3791 Rain 26 1012 88 10000 5.7 80 13:25 30.01.2020
3792 Rain 26 1012 88 0 8.86 103 12:59 30.01.2020
3793 Rain 26 1012 88 0 8.86 103 12:40 30.01.2020
3794 Rain 26 1012 88 10000 6.2 90 12:22 30.01.2020
3795 Rain 26 1013 88 10000 5.1 80 11:42 30.01.2020
3796 Rain 26 1013 88 10000 5.7 80 11:23 30.01.2020
3797 Clear 26 1013 88 0 8.79 113 10:59 30.01.2020
3798 Clear 26 1013 88 0 8.79 113 10:59 30.01.2020
3799 Clear 26 1013 88 0 8.79 113 10:41 30.01.2020
3800 Clear 26 1013 88 10000 4.6 90 10:21 30.01.2020
3801 Clear 26 1013 88 10000 4.6 90 09:47 30.01.2020
3802 Clear 27 1013 83 10000 4.6 90 09:28 30.01.2020
3803 Clear 27 1012 78 0 8.79 113 08:57 30.01.2020
3804 Clear 27 1012 78 10000 4.6 100 08:37 30.01.2020
3805 Rain 27 1012 78 10000 4.6 100 08:18 30.01.2020
3806 Rain 26 1012 83 0 8.24 120 07:48 30.01.2020
3807 Rain 27 1012 78 10000 5.1 100 07:20 30.01.2020
3808 Rain 27 1011 78 0 8.24 120 06:46 30.01.2020
3809 Rain 27 1011 78 10000 3.6 100 06:26 30.01.2020
3810 Rain 28 1011 74 0 8.24 120 05:43 30.01.2020
3811 Rain 28 1011 74 10000 3.6 90 05:19 30.01.2020
3812 Rain 29 1011 74 0 7.26 128 03:48 30.01.2020
3813 Rain 29 1011 74 10000 2.1 130 03:26 30.01.2020
3814 Rain 29 1011 70 0 7.24 123 01:41 30.01.2020
3815 Clear 29 1012 70 10000 4.1 90 00:37 30.01.2020
3816 Clear 29 1012 70 10000 4.1 90 00:19 30.01.2020
3817 Clear 29 1012 70 10000 4.1 90 00:19 30.01.2020
3818 Clear 29 1012 70 0 6.15 121 23:44 29.01.2020
3819 Clear 28 1012 78 10000 5.7 80 23:20 29.01.2020
3820 Clear 29 1012 74 10000 3.1 100 22:56 29.01.2020
3821 Clear 28 1012 74 0 4.71 125 22:38 29.01.2020
3822 Clear 28 1012 74 0 4.71 125 22:19 29.01.2020
3823 Clear 28 1012 74 0 4.71 125 21:56 29.01.2020
3824 Clear 28 1012 74 10000 3.1 100 21:37 29.01.2020
3825 Clear 28 1012 74 10000 3.1 100 21:37 29.01.2020
3826 Clear 28 1012 74 10000 3.1 100 21:18 29.01.2020
3827 Clear 28 1013 78 10000 1.5 90 20:54 29.01.2020
3828 Clear 27 1013 78 0 4.71 125 20:36 29.01.2020
3829 Rain 27 1013 78 0 5.03 121 20:18 29.01.2020
3830 Rain 27 1012 83 0 5.03 121 19:54 29.01.2020
3831 Rain 26 1012 94 0 5.03 121 19:36 29.01.2020
3832 Rain 26 1012 94 0 5.03 121 19:18 29.01.2020
3833 Rain 24 1012 94 10000 5.03 121 18:38 29.01.2020
3834 Rain 24 1012 94 10000 5.03 121 18:19 29.01.2020
3835 Rain 24 1011 94 10000 0.5 150 17:41 29.01.2020
3836 Rain 24 1011 94 10000 1 150 17:23 29.01.2020
3837 Rain 24 1011 94 10000 1.5 90 16:55 29.01.2020
3838 Rain 24 1011 100 10000 1 200 16:37 29.01.2020
3839 Rain 24 1011 100 10000 1 200 16:19 29.01.2020
3840 Rain 24 1011 100 10000 1 200 16:19 29.01.2020
3841 Rain 24 1011 94 10000 0.5 190 15:39 29.01.2020
3842 Rain 24 1011 94 10000 0.5 190 15:21 29.01.2020
3843 Rain 24 1011 94 10000 0.5 190 15:21 29.01.2020
3844 Rain 24 1011 94 10000 0.5 170 14:46 29.01.2020
3845 Rain 24 1011 94 10000 0.5 250 14:24 29.01.2020
3846 Rain 24 1011 94 10000 0.5 140 13:57 29.01.2020
3847 Rain 24 1011 94 10000 0.5 140 13:57 29.01.2020
3848 Rain 24 1012 94 10000 0.5 200 13:39 29.01.2020
3849 Rain 24 1012 94 10000 0.5 200 13:21 29.01.2020
3850 Rain 25 1012 88 10000 1 100 12:56 29.01.2020
3851 Rain 25 1012 88 10000 2.6 80 12:38 29.01.2020
3852 Rain 25 1012 88 10000 2.6 80 12:19 29.01.2020
3853 Rain 24 1012 94 10000 2.6 80 11:47 29.01.2020
3854 Rain 24 1013 94 10000 1.5 90 11:24 29.01.2020
3855 Clear 24 1013 94 10000 2.1 90 10:54 29.01.2020
3856 Clear 24 1013 100 10000 1 40 10:36 29.01.2020
3857 Clear 24 1013 100 10000 1 40 10:36 29.01.2020
3858 Clear 24 1013 100 10000 1 40 10:36 29.01.2020
3859 Clear 24 1013 100 10000 1 40 10:18 29.01.2020
3860 Clear 24 1013 100 10000 0.5 180 09:40 29.01.2020
3861 Clear 24 1013 100 10000 0.5 180 09:21 29.01.2020
3862 Clear 24 1012 100 10000 1 80 08:57 29.01.2020
3863 Clear 25 1012 94 10000 1 110 08:38 29.01.2020
3864 Rain 25 1012 94 10000 1 110 08:20 29.01.2020
3865 Rain 25 1012 94 10000 0.5 100 07:44 29.01.2020
3866 Rain 25 1012 94 10000 1 100 07:24 29.01.2020
3867 Rain 26 1012 88 10000 1.5 250 06:39 29.01.2020
3868 Rain 26 1012 88 10000 1.5 250 06:21 29.01.2020
3869 Rain 26 1011 88 10000 1.5 90 05:59 29.01.2020
3870 Rain 26 1011 88 10000 3.6 90 05:39 29.01.2020
3871 Rain 26 1011 88 10000 3.6 90 05:21 29.01.2020
3872 Rain 26 1011 88 10000 3.6 70 04:37 29.01.2020
3873 Rain 26 1011 88 10000 3.1 50 02:43 29.01.2020
3874 Rain 26 1012 94 10000 2.1 100 01:49 29.01.2020
3875 Rain 27 1012 88 10000 4.6 70 00:42 29.01.2020
3876 Rain 28 1012 83 10000 3.1 50 00:23 29.01.2020
3877 Rain 27 1012 88 10000 3.1 90 23:44 28.01.2020
3878 Rain 28 1013 83 10000 3.6 60 23:21 28.01.2020
3879 Rain 28 1013 88 10000 3.6 50 22:57 28.01.2020
3880 Rain 28 1013 88 10000 3.6 50 22:39 28.01.2020
3881 Rain 28 1013 88 10000 3.6 50 22:20 28.01.2020
3882 Rain 28 1013 83 10000 3.6 60 21:42 28.01.2020
3883 Rain 28 1013 83 10000 3.6 50 21:20 28.01.2020
3884 Rain 27 1013 88 10000 3.1 60 20:46 28.01.2020
3885 Rain 27 1013 88 10000 3.1 60 20:46 28.01.2020
3886 Rain 27 1013 88 10000 2.6 60 20:28 28.01.2020
3887 Rain 26 1013 94 10000 2.1 80 19:59 28.01.2020
3888 Rain 26 1012 94 10000 1.5 90 19:38 28.01.2020
3889 Rain 26 1012 94 10000 1.5 90 19:19 28.01.2020
3890 Rain 26 1012 94 10000 1.5 90 18:57 28.01.2020
3891 Rain 25 1012 100 10000 1.5 100 18:38 28.01.2020
3892 Rain 25 1012 100 10000 1.5 100 18:38 28.01.2020
3893 Rain 25 1012 100 10000 1.5 100 18:20 28.01.2020
3894 Rain 25 1011 94 10000 1.5 110 17:55 28.01.2020
3895 Rain 26 1011 88 10000 1 90 17:36 28.01.2020
3896 Rain 26 1011 88 10000 1 90 17:18 28.01.2020
3897 Rain 26 1011 88 10000 1 100 16:44 28.01.2020
3898 Rain 26 1011 88 10000 2.1 50 16:26 28.01.2020
3899 Rain 26 1011 88 10000 2.1 50 15:59 28.01.2020
3900 Rain 26 1011 88 10000 2.1 50 15:40 28.01.2020
3901 Rain 26 1011 88 10000 2.6 50 15:18 28.01.2020
3902 Rain 26 1011 88 10000 2.6 40 14:44 28.01.2020
3903 Rain 26 1012 88 10000 2.6 40 14:20 28.01.2020
3904 Rain 26 1012 88 10000 4.1 50 13:43 28.01.2020
3905 Rain 26 1012 88 10000 3.6 50 13:24 28.01.2020
3906 Rain 26 1012 88 10000 4.1 50 12:46 28.01.2020
3907 Rain 26 1012 88 10000 4.1 50 12:25 28.01.2020
3908 Rain 26 1013 88 10000 4.6 50 11:59 28.01.2020
3909 Rain 26 1013 88 10000 4.6 50 11:41 28.01.2020
3910 Rain 26 1013 88 10000 5.1 60 11:22 28.01.2020
3911 Rain 26 1013 88 10000 4.6 60 10:55 28.01.2020
3912 Rain 26 1013 88 10000 5.7 60 10:36 28.01.2020
3913 Rain 26 1013 88 10000 5.7 60 10:18 28.01.2020
3914 Rain 26 1013 88 10000 5.7 60 09:41 28.01.2020
3915 Rain 25 1013 94 10000 5.1 60 09:20 28.01.2020
3916 Rain 25 1013 94 10000 5.1 60 09:20 28.01.2020
3917 Rain 25 1013 94 10000 5.1 60 09:20 28.01.2020
3918 Rain 25 1013 94 10000 5.7 60 08:45 28.01.2020
3919 Rain 26 1013 88 10000 5.1 60 08:26 28.01.2020
3920 Rain 25 1013 94 10000 6.2 70 07:53 28.01.2020
3921 Rain 25 1012 94 10000 6.2 60 07:31 28.01.2020
3922 Rain 25 1012 94 10000 6.2 50 06:47 28.01.2020
3923 Rain 25 1012 94 10000 5.1 60 06:24 28.01.2020
3924 Rain 26 1011 88 10000 5.7 50 05:38 28.01.2020
3925 Rain 26 1011 88 10000 5.7 50 05:20 28.01.2020
3926 Rain 26 1011 88 10000 5.1 70 03:47 28.01.2020
3927 Rain 25 1011 94 10000 2.1 70 02:44 28.01.2020
3928 Rain 25 1011 94 10000 3.51 37 02:25 28.01.2020
3929 Rain 24 1012 94 10000 3.1 30 01:53 28.01.2020
3930 Rain 25 1012 94 9000 2.1 70 01:20 28.01.2020
3931 Rain 24 1012 100 10000 2.6 90 00:41 28.01.2020
3932 Rain 24 1012 100 3000 1 330 00:19 28.01.2020
3933 Rain 24 1013 100 1300 4.1 270 23:42 27.01.2020
3934 Rain 25 1013 94 1700 1.5 200 23:19 27.01.2020
3935 Rain 25 1013 94 7000 6.2 70 22:44 27.01.2020
3936 Rain 25 1013 94 10000 6.2 70 22:20 27.01.2020
3937 Rain 25 1013 94 10000 6.2 70 22:20 27.01.2020
3938 Rain 26 1012 94 10000 6.2 70 21:57 27.01.2020
3939 Rain 25 1012 100 10000 5.7 80 21:38 27.01.2020
3940 Rain 25 1012 100 10000 5.7 80 21:19 27.01.2020
3941 Rain 25 1012 100 9000 5.7 80 20:56 27.01.2020
3942 Rain 26 1012 94 10000 5.1 90 20:37 27.01.2020
3943 Rain 26 1012 94 10000 5.1 90 20:18 27.01.2020
3944 Rain 25 1012 94 10000 5.7 90 19:42 27.01.2020
3945 Rain 25 1012 94 10000 5.7 80 19:23 27.01.2020
3946 Rain 25 1011 94 10000 6.2 90 18:58 27.01.2020
3947 Rain 25 1011 94 9000 6.2 90 18:39 27.01.2020
3948 Rain 25 1011 94 9000 6.2 90 18:20 27.01.2020
3949 Rain 25 1011 94 9000 6.2 90 18:20 27.01.2020
3950 Rain 25 1011 94 9000 6.2 90 18:20 27.01.2020
3951 Rain 25 1011 94 10000 6.7 80 17:57 27.01.2020
3952 Rain 25 1011 94 10000 4.6 90 17:37 27.01.2020
3953 Rain 25 1011 94 10000 4.6 90 17:18 27.01.2020
3954 Rain 25 1011 94 10000 4.6 90 16:42 27.01.2020
3955 Rain 25 1011 94 10000 5.1 90 16:24 27.01.2020
3956 Rain 25 1011 94 10000 5.1 90 16:24 27.01.2020
3957 Rain 25 1011 94 10000 7.2 80 15:55 27.01.2020
3958 Rain 25 1010 94 10000 6.7 80 15:37 27.01.2020
3959 Rain 25 1010 94 10000 6.7 80 15:19 27.01.2020
3960 Rain 25 1010 94 10000 7.7 80 14:54 27.01.2020
3961 Rain 25 1011 94 10000 7.7 70 14:36 27.01.2020
3962 Rain 25 1011 94 10000 7.7 70 14:18 27.01.2020
3963 Rain 25 1011 94 10000 6.7 70 13:41 27.01.2020
3964 Rain 25 1011 94 10000 6.7 60 13:20 27.01.2020
3965 Rain 26 1011 94 10000 6.2 70 12:55 27.01.2020
3966 Rain 26 1011 88 10000 4.6 80 12:37 27.01.2020
3967 Rain 26 1011 88 10000 4.6 80 12:18 27.01.2020
3968 Rain 26 1012 94 10000 5.1 70 11:41 27.01.2020
3969 Rain 26 1012 88 10000 5.7 70 11:21 27.01.2020
3970 Rain 26 1012 88 10000 4.6 60 10:43 27.01.2020
3971 Rain 26 1012 88 10000 5.7 60 10:25 27.01.2020
3972 Rain 26 1012 88 10000 6.2 70 09:56 27.01.2020
3973 Rain 26 1012 88 10000 5.7 60 09:38 27.01.2020
3974 Rain 26 1012 88 10000 5.7 60 09:18 27.01.2020
3975 Rain 26 1012 88 10000 5.1 60 08:42 27.01.2020
3976 Rain 26 1011 88 10000 5.7 60 08:20 27.01.2020
3977 Rain 26 1011 88 10000 5.1 60 07:54 27.01.2020
3978 Drizzle 26 1011 88 10000 4.6 60 07:34 27.01.2020
3979 Rain 26 1010 83 10000 4.6 50 06:53 27.01.2020
3980 Rain 26 1010 88 10000 4.6 40 06:24 27.01.2020
3981 Rain 26 1010 88 10000 4.6 50 05:23 27.01.2020
3982 Rain 25 1010 94 10000 3.1 40 03:47 27.01.2020
3983 Rain 25 1011 94 10000 3.6 360 02:36 27.01.2020
3984 Rain 25 1011 94 9000 2.1 360 01:29 27.01.2020
3985 Rain 25 1011 88 9000 2.6 10 00:43 27.01.2020
3986 Rain 27 1011 88 10000 2.6 30 00:23 27.01.2020
3987 Rain 27 1012 88 10000 3.1 40 23:59 26.01.2020
3988 Rain 27 1012 88 10000 3.1 40 23:41 26.01.2020
3989 Rain 26 1012 88 10000 3.6 40 23:18 26.01.2020
3990 Rain 26 1012 88 10000 4.6 50 22:39 26.01.2020
3991 Rain 26 1012 88 10000 4.6 50 22:20 26.01.2020
3992 Rain 26 1012 88 10000 5.1 50 21:59 26.01.2020
3993 Rain 26 1012 88 10000 5.1 50 21:40 26.01.2020
3994 Rain 25 1012 94 10000 4.6 60 21:22 26.01.2020
3995 Rain 27 1012 94 10000 5.7 50 20:58 26.01.2020
3996 Rain 27 1011 94 10000 5.1 50 20:40 26.01.2020
3997 Rain 27 1011 94 10000 5.1 50 20:20 26.01.2020
3998 Rain 27 1011 94 10000 5.1 50 20:20 26.01.2020
3999 Rain 27 1012 88 10000 4.6 50 19:59 26.01.2020
4000 Rain 27 1011 88 10000 5.1 50 19:39 26.01.2020
4001 Rain 27 1011 88 10000 5.1 50 19:21 26.01.2020
4002 Rain 27 1011 88 10000 5.1 60 18:59 26.01.2020
4003 Rain 27 1011 88 10000 5.1 50 18:39 26.01.2020
4004 Rain 27 1011 88 10000 5.1 50 18:39 26.01.2020
4005 Rain 27 1011 88 10000 5.1 50 18:21 26.01.2020
4006 Rain 27 1010 88 10000 5.1 50 17:55 26.01.2020
4007 Rain 27 1010 88 10000 5.1 50 17:37 26.01.2020
4008 Rain 27 1010 88 10000 5.1 50 17:18 26.01.2020
4009 Rain 27 1010 88 10000 5.1 50 17:18 26.01.2020
4010 Rain 27 1010 88 10000 5.1 60 16:56 26.01.2020
4011 Rain 27 1010 88 10000 5.1 60 16:56 26.01.2020
4012 Rain 27 1010 88 10000 5.1 50 16:38 26.01.2020
4013 Rain 27 1010 88 10000 5.1 50 16:18 26.01.2020
4014 Rain 25 1010 83 0 0.17 176 15:43 26.01.2020
4015 Rain 25 1010 83 0 0.17 176 15:21 26.01.2020
4016 Rain 25 1010 83 0 0.17 176 14:58 26.01.2020
4017 Rain 25 1010 83 0 0.17 176 14:38 26.01.2020
4018 Rain 27 1011 85 0 4.18 29 14:19 26.01.2020
4019 Rain 27 1011 85 0 4.18 29 13:40 26.01.2020
4020 Rain 27 1011 85 0 4.18 29 13:19 26.01.2020
4021 Rain 27 1011 85 0 4.13 30 12:56 26.01.2020
4022 Rain 27 1011 85 0 4.13 30 12:36 26.01.2020
4023 Rain 27 1011 85 0 4.13 30 12:18 26.01.2020
4024 Rain 27 1011 85 0 4.13 30 11:56 26.01.2020
4025 Rain 27 1011 85 0 4.13 30 11:36 26.01.2020
4026 Rain 27 1012 94 10000 4.6 60 11:18 26.01.2020
4027 Rain 27 1012 94 10000 4.6 60 10:39 26.01.2020
4028 Rain 27 1012 94 10000 4.6 60 10:21 26.01.2020
4029 Rain 27 1012 88 10000 4.6 60 09:59 26.01.2020
4030 Rain 27 1012 88 10000 4.6 60 09:41 26.01.2020
4031 Rain 27 1012 88 10000 4.6 50 09:23 26.01.2020
4032 Rain 27 1012 88 10000 4.6 50 08:57 26.01.2020
4033 Rain 27 1012 88 10000 4.6 50 08:57 26.01.2020
4034 Rain 27 1011 88 10000 4.1 60 08:38 26.01.2020
4035 Rain 27 1011 88 10000 4.1 60 08:20 26.01.2020
4036 Rain 27 1011 88 10000 4.1 50 07:45 26.01.2020
4037 Rain 27 1011 88 10000 4.6 60 07:22 26.01.2020
4038 Rain 27 1010 88 10000 4.1 60 06:34 26.01.2020
4039 Rain 28 1010 83 10000 5.1 50 05:52 26.01.2020
4040 Rain 28 1010 83 10000 4.6 60 05:22 26.01.2020
4041 Rain 28 1010 83 10000 5.1 60 03:22 26.01.2020
4042 Rain 28 1010 83 10000 5.1 60 01:59 26.01.2020
4043 Rain 29 1011 83 10000 5.7 50 01:39 26.01.2020
4044 Rain 29 1011 83 10000 5.7 50 01:19 26.01.2020
4045 Rain 29 1011 83 10000 4.6 50 00:39 26.01.2020
4046 Rain 29 1011 83 10000 4.6 50 00:20 26.01.2020
4047 Rain 29 1011 83 10000 4.6 50 00:20 26.01.2020
4048 Rain 29 1011 83 10000 4.6 50 00:20 26.01.2020
4049 Rain 27 1010 83 0 6.01 29 23:37 25.01.2020
4050 Rain 27 1011 85 0 6.62 39 23:19 25.01.2020
4051 Rain 27 1011 85 0 6.62 39 22:43 25.01.2020
4052 Rain 27 1011 85 0 6.62 39 22:20 25.01.2020
4053 Rain 27 1011 85 0 6.62 39 21:57 25.01.2020
4054 Rain 27 1011 85 0 6.62 39 21:39 25.01.2020
4055 Rain 27 1011 85 0 6.62 39 21:21 25.01.2020
4056 Rain 27 1011 85 0 6.62 39 20:45 25.01.2020
4057 Rain 27 1011 85 0 6.62 39 20:26 25.01.2020
4058 Rain 27 1012 86 0 6.75 51 19:56 25.01.2020
4059 Rain 27 1012 86 0 6.75 51 19:56 25.01.2020
4060 Rain 27 1012 87 0 6.7 44 19:37 25.01.2020
4061 Rain 27 1012 86 0 6.75 51 19:19 25.01.2020
4062 Rain 27 1012 87 0 6.7 44 18:44 25.01.2020
4063 Rain 27 1012 87 0 6.7 44 18:24 25.01.2020
4064 Rain 27 1012 86 0 6.75 51 17:59 25.01.2020
4065 Rain 27 1012 86 0 6.75 51 17:39 25.01.2020
4066 Rain 27 1010 88 0 6.61 41 17:19 25.01.2020
4067 Rain 27 1010 88 0 6.61 41 16:56 25.01.2020
4068 Rain 27 1010 88 0 6.61 41 16:36 25.01.2020
4069 Rain 27 1010 88 0 6.61 41 16:18 25.01.2020
4070 Rain 27 1010 88 0 6.61 41 15:42 25.01.2020
4071 Rain 27 1010 88 0 6.61 41 15:23 25.01.2020
4072 Rain 27 1010 88 0 6.61 41 14:44 25.01.2020
4073 Rain 27 1011 87 0 6.38 39 14:19 25.01.2020
4074 Rain 27 1011 87 0 6.38 39 13:54 25.01.2020
4075 Rain 27 1011 87 0 6.38 39 13:36 25.01.2020
4076 Rain 27 1011 87 0 6.47 41 13:18 25.01.2020
4077 Rain 27 1011 87 0 6.47 41 13:18 25.01.2020
4078 Rain 27 1013 88 10000 4.6 60 12:41 25.01.2020
4079 Rain 27 1013 88 10000 4.6 60 12:20 25.01.2020
4080 Rain 27 1013 88 10000 4.6 60 11:40 25.01.2020
4081 Rain 27 1013 88 10000 4.6 60 11:40 25.01.2020
4082 Rain 27 1014 88 10000 3.6 60 11:20 25.01.2020
4083 Rain 27 1014 88 10000 4.1 70 10:56 25.01.2020
4084 Rain 27 1014 94 10000 4.1 60 10:38 25.01.2020
4085 Rain 27 1014 94 10000 4.1 60 10:18 25.01.2020
4086 Rain 27 1013 94 10000 4.1 70 09:40 25.01.2020
4087 Rain 27 1013 94 10000 4.1 70 09:19 25.01.2020
4088 Rain 27 1013 94 10000 4.6 70 08:43 25.01.2020
4089 Rain 27 1013 94 10000 3.6 70 07:58 25.01.2020
4090 Rain 27 1012 94 10000 3.6 60 07:36 25.01.2020
4091 Rain 27 1012 94 10000 3.6 60 06:33 25.01.2020
4092 Rain 27 1012 94 10000 3.6 60 06:33 25.01.2020
4093 Rain 28 1012 88 10000 3.1 50 05:57 25.01.2020
4094 Rain 28 1011 88 10000 3.6 50 05:38 25.01.2020
4095 Rain 28 1011 88 10000 3.6 50 05:38 25.01.2020
4096 Rain 28 1011 83 10000 4.1 20 03:58 25.01.2020
4097 Rain 29 1011 83 10000 4.1 40 03:39 25.01.2020
4098 Rain 28 1012 88 10000 3.6 40 02:36 25.01.2020
4099 Rain 28 1012 88 10000 3.6 30 01:57 25.01.2020
4100 Rain 29 1012 83 10000 4.1 30 01:21 25.01.2020
4101 Rain 28 1013 88 10000 4.1 40 00:37 25.01.2020
4102 Rain 28 1013 88 10000 4.1 40 00:18 25.01.2020
4103 Rain 28 1013 83 10000 3.1 40 23:41 24.01.2020
4104 Rain 28 1013 83 10000 3.1 40 23:41 24.01.2020
4105 Rain 28 1013 83 10000 3.1 40 23:41 24.01.2020
4106 Rain 28 1013 83 10000 3.6 40 23:23 24.01.2020
4107 Clouds 27 1013 88 10000 3.6 60 22:46 24.01.2020
4108 Clouds 26 1013 88 10000 5.1 30 22:27 24.01.2020
4109 Clouds 28 1013 83 10000 3.6 50 21:57 24.01.2020
4110 Clouds 28 1013 83 10000 3.6 50 21:57 24.01.2020
4111 Clouds 28 1013 88 10000 3.6 40 21:39 24.01.2020
4112 Clouds 28 1013 88 10000 3.6 40 21:18 24.01.2020
4113 Clouds 28 1013 88 10000 4.6 40 20:43 24.01.2020
4114 Clouds 28 1013 88 10000 4.1 50 20:21 24.01.2020
4115 Rain 27 1013 88 10000 3.6 30 19:58 24.01.2020
4116 Clouds 27 1013 88 10000 3.1 40 19:39 24.01.2020
4117 Clouds 27 1013 88 10000 3.1 40 19:21 24.01.2020
4118 Rain 26 1013 94 3200 3.1 30 18:43 24.01.2020
4119 Clouds 27 1012 94 10000 4.1 50 18:24 24.01.2020
4120 Clouds 26 1012 94 10000 3.1 60 17:56 24.01.2020
4121 Clouds 26 1012 94 10000 3.1 60 17:56 24.01.2020
4122 Clouds 27 1011 88 10000 4.1 40 17:38 24.01.2020
4123 Rain 27 1011 88 10000 4.1 40 17:18 24.01.2020
4124 Rain 27 1011 94 10000 4.1 50 16:39 24.01.2020
4125 Rain 27 1011 94 10000 4.1 50 16:39 24.01.2020
4126 Rain 27 1011 94 10000 4.1 50 16:21 24.01.2020
4127 Rain 27 1011 94 10000 4.1 50 16:21 24.01.2020
4128 Rain 26 1011 94 10000 3.1 70 15:43 24.01.2020
4129 Rain 26 1011 94 10000 2.6 90 15:23 24.01.2020
4130 Rain 25 1011 94 10000 2.6 90 14:59 24.01.2020
4131 Rain 25 1011 94 10000 2.6 90 14:40 24.01.2020
4132 Rain 26 1012 88 10000 2.6 80 14:21 24.01.2020
4133 Rain 26 1012 88 10000 2.6 50 13:43 24.01.2020
4134 Rain 26 1012 88 10000 4.1 60 13:23 24.01.2020
4135 Rain 26 1012 94 10000 4.6 50 12:44 24.01.2020
4136 Rain 26 1013 88 10000 3.6 50 12:23 24.01.2020
4137 Rain 26 1013 83 10000 3.6 40 11:57 24.01.2020
4138 Rain 26 1013 94 10000 3.6 40 11:38 24.01.2020
4139 Rain 26 1013 94 10000 3.6 40 11:18 24.01.2020
4140 Rain 26 1013 94 10000 3.6 40 11:18 24.01.2020
4141 Rain 27 1013 94 10000 4.1 60 10:41 24.01.2020
4142 Rain 27 1013 94 10000 4.6 70 10:20 24.01.2020
4143 Rain 27 1013 94 10000 3.6 60 09:42 24.01.2020
4144 Rain 27 1013 88 10000 4.6 60 09:24 24.01.2020
4145 Rain 27 1013 88 10000 4.6 60 09:00 24.01.2020
4146 Rain 26 1013 94 10000 4.1 60 08:38 24.01.2020
4147 Rain 26 1013 94 10000 4.1 60 08:18 24.01.2020
4148 Rain 26 1012 94 10000 3.6 70 07:43 24.01.2020
4149 Rain 26 1012 94 10000 3.6 60 07:21 24.01.2020
4150 Rain 26 1012 94 10000 3.6 60 06:43 24.01.2020
4151 Rain 26 1012 94 10000 3.6 60 06:43 24.01.2020
4152 Rain 26 1011 94 10000 3.6 50 06:23 24.01.2020
4153 Rain 26 1011 94 10000 3.1 80 05:21 24.01.2020
4154 Rain 28 1011 88 10000 5.1 50 03:29 24.01.2020
4155 Rain 28 1011 88 10000 5.1 50 02:39 24.01.2020
4156 Rain 28 1011 88 10000 5.1 50 02:19 24.01.2020
4157 Rain 28 1012 83 10000 5.1 50 01:38 24.01.2020
4158 Rain 28 1012 88 10000 5.1 50 00:40 24.01.2020
4159 Rain 28 1012 88 10000 5.1 50 00:18 24.01.2020
4160 Rain 28 1012 88 10000 4.1 50 23:41 23.01.2020
4161 Rain 28 1012 88 10000 4.6 40 23:21 23.01.2020
4162 Rain 28 1013 83 10000 4.6 40 22:58 23.01.2020
4163 Rain 28 1012 83 10000 4.6 40 22:36 23.01.2020
4164 Rain 28 1012 83 10000 4.6 40 22:18 23.01.2020
4165 Rain 28 1012 88 10000 4.6 50 21:55 23.01.2020
4166 Rain 28 1012 83 10000 4.6 40 21:37 23.01.2020
4167 Rain 28 1012 83 10000 4.6 40 21:18 23.01.2020
4168 Rain 28 1012 83 10000 3.6 50 20:40 23.01.2020
4169 Rain 27 1012 88 10000 3.6 40 20:22 23.01.2020
4170 Rain 27 1012 88 10000 3.1 40 19:57 23.01.2020
4171 Rain 27 1012 88 10000 3.1 30 19:38 23.01.2020
4172 Rain 27 1012 88 10000 3.1 30 19:38 23.01.2020
4173 Rain 27 1012 88 10000 3.1 30 19:20 23.01.2020
4174 Rain 27 1012 88 10000 3.1 30 18:56 23.01.2020
4175 Rain 27 1012 88 10000 3.1 30 18:56 23.01.2020
4176 Rain 26 1011 88 10000 3.6 20 18:37 23.01.2020
4177 Rain 26 1011 88 10000 3.6 20 18:19 23.01.2020
4178 Rain 26 1011 88 10000 3.6 30 17:43 23.01.2020
4179 Rain 26 1011 94 10000 3.6 40 17:20 23.01.2020
4180 Rain 26 1011 94 10000 4.1 40 16:58 23.01.2020
4181 Rain 26 1011 94 10000 3.6 40 16:38 23.01.2020
4182 Rain 26 1011 94 10000 3.6 40 16:19 23.01.2020
4183 Rain 26 1010 94 10000 3.6 40 15:57 23.01.2020
4184 Rain 26 1011 94 10000 3.6 50 15:38 23.01.2020
4185 Rain 26 1011 94 10000 3.6 50 15:18 23.01.2020
4186 Rain 26 1011 94 10000 3.6 50 14:56 23.01.2020
4187 Rain 26 1011 94 10000 4.1 60 14:38 23.01.2020
4188 Rain 26 1011 94 10000 4.1 60 14:20 23.01.2020
4189 Rain 26 1011 94 10000 3.6 60 13:44 23.01.2020
4190 Rain 26 1011 94 10000 3.6 50 13:20 23.01.2020
4191 Rain 26 1011 94 10000 3.1 50 12:54 23.01.2020
4192 Rain 26 1012 94 10000 3.1 50 12:36 23.01.2020
4193 Rain 26 1012 94 10000 3.1 50 12:18 23.01.2020
4194 Rain 26 1012 94 10000 3.6 60 11:42 23.01.2020
4195 Rain 26 1012 94 10000 3.1 60 11:23 23.01.2020
4196 Rain 26 1012 94 10000 3.6 50 10:55 23.01.2020
4197 Rain 27 1012 88 10000 3.1 50 10:36 23.01.2020
4198 Rain 27 1012 88 10000 3.1 50 10:18 23.01.2020
4199 Rain 26 1012 94 10000 3.1 50 09:39 23.01.2020
4200 Rain 26 1012 94 10000 3.1 50 09:20 23.01.2020
4201 Rain 26 1012 94 10000 2.6 50 08:43 23.01.2020
4202 Rain 27 1011 88 10000 1.5 40 08:25 23.01.2020
4203 Rain 26 1011 88 10000 2.1 40 07:51 23.01.2020
4204 Drizzle 27 1011 88 10000 2.1 20 07:27 23.01.2020
4205 Rain 27 1011 88 10000 2.1 30 06:54 23.01.2020
4206 Rain 27 1010 83 10000 2.6 30 06:24 23.01.2020
4207 Rain 27 1010 83 10000 4.1 40 05:58 23.01.2020
4208 Rain 27 1010 88 10000 3.6 340 04:24 23.01.2020
4209 Rain 27 1010 88 10000 3.6 340 04:24 23.01.2020
4210 Rain 27 1010 83 10000 4.6 310 02:45 23.01.2020
4211 Rain 27 1010 88 10000 2.6 320 01:44 23.01.2020
4212 Rain 26 1010 94 10000 5.1 300 00:28 23.01.2020
4213 Rain 26 1010 88 10000 4.1 290 23:54 22.01.2020
4214 Rain 26 1010 88 10000 4.1 300 23:36 22.01.2020
4215 Rain 26 1010 88 10000 4.1 300 23:18 22.01.2020
4216 Rain 25 1010 94 10000 2.6 270 22:41 22.01.2020
4217 Rain 25 1010 100 9000 5.1 300 22:23 22.01.2020
4218 Rain 25 1011 100 6000 6.7 290 21:42 22.01.2020
4219 Rain 26 1010 94 9000 3.1 300 21:22 22.01.2020
4220 Rain 26 1010 94 9000 4.1 320 20:58 22.01.2020
4221 Rain 26 1010 94 9000 4.1 320 20:58 22.01.2020
4222 Rain 26 1010 94 10000 3.6 340 20:39 22.01.2020
4223 Rain 26 1010 94 10000 3.6 340 20:21 22.01.2020
4224 Rain 26 1010 94 10000 3.6 330 19:57 22.01.2020
4225 Rain 26 1010 88 10000 4.6 340 19:39 22.01.2020
4226 Rain 26 1010 88 10000 4.6 340 19:19 22.01.2020
4227 Rain 26 1010 94 10000 5.1 350 18:57 22.01.2020
4228 Drizzle 27 1009 88 10000 5.1 360 18:38 22.01.2020
4229 Drizzle 27 1009 88 10000 5.1 360 18:38 22.01.2020
4230 Drizzle 27 1009 88 10000 5.1 360 18:19 22.01.2020
4231 Drizzle 27 1009 88 10000 4.1 360 17:54 22.01.2020
4232 Rain 26 1009 94 10000 4.1 360 17:36 22.01.2020
4233 Rain 26 1009 94 10000 4.1 360 17:18 22.01.2020
4234 Rain 26 1009 94 10000 4.1 360 17:18 22.01.2020
4235 Rain 26 1009 94 9000 4.1 340 16:43 22.01.2020
4236 Rain 26 1008 94 7000 5.1 340 16:22 22.01.2020
4237 Rain 27 1008 88 8000 4.1 340 15:58 22.01.2020
4238 Rain 27 1008 88 10000 4.1 360 15:39 22.01.2020
4239 Rain 27 1008 88 10000 4.1 360 15:21 22.01.2020
4240 Rain 27 1008 88 10000 3.6 10 14:54 22.01.2020
4241 Rain 26 1008 94 10000 5.1 20 14:36 22.01.2020
4242 Rain 26 1008 94 10000 5.1 20 14:36 22.01.2020
4243 Rain 26 1008 94 10000 5.1 20 14:18 22.01.2020
4244 Rain 26 1009 94 10000 2.6 40 13:38 22.01.2020
4245 Rain 26 1009 94 10000 2.6 40 13:20 22.01.2020
4246 Rain 26 1009 94 10000 2.1 40 12:57 22.01.2020
4247 Rain 25 1010 94 10000 2.1 30 12:39 22.01.2020
4248 Rain 25 1010 94 10000 2.1 30 12:20 22.01.2020
4249 Rain 25 1010 94 10000 1.5 340 11:58 22.01.2020
4250 Rain 26 1010 88 10000 3.6 330 11:39 22.01.2020
4251 Rain 26 1010 88 10000 3.6 330 11:19 22.01.2020
4252 Rain 26 1010 88 10000 3.6 330 11:19 22.01.2020
4253 Rain 26 1010 88 10000 3.6 330 11:19 22.01.2020
4254 Rain 26 1010 94 9000 3.6 340 10:54 22.01.2020
4255 Rain 25 1010 100 10000 1.5 10 10:36 22.01.2020
4256 Rain 25 1010 100 10000 1.5 10 10:18 22.01.2020
4257 Rain 25 1010 94 10000 1 100 09:41 22.01.2020
4258 Rain 25 1010 94 2100 1.5 330 09:23 22.01.2020
4259 Rain 25 1010 94 10000 1.5 70 08:56 22.01.2020
4260 Rain 25 1009 94 10000 1 90 08:37 22.01.2020
4261 Rain 25 1009 94 10000 1 90 08:19 22.01.2020
4262 Rain 25 1009 94 10000 1 90 08:19 22.01.2020
4263 Rain 25 1009 94 10000 1.5 100 07:44 22.01.2020
4264 Rain 25 1009 94 6000 1 90 07:26 22.01.2020
4265 Rain 25 1008 94 10000 1.5 70 06:37 22.01.2020
4266 Rain 25 1008 94 10000 1.5 70 06:18 22.01.2020
4267 Rain 26 1008 88 10000 3.1 80 04:27 22.01.2020
4268 Rain 26 1008 88 10000 3.6 70 03:27 22.01.2020
4269 Rain 26 1008 88 10000 4.1 70 02:48 22.01.2020
4270 Rain 25 1009 94 10000 4.1 80 00:48 22.01.2020
4271 Rain 25 1009 94 10000 1 100 00:28 22.01.2020
4272 Rain 25 1009 94 3100 0.5 280 23:59 21.01.2020
4273 Rain 25 1009 94 4400 1 60 23:37 21.01.2020
4274 Rain 25 1009 94 4400 1 60 23:19 21.01.2020
4275 Rain 25 1009 94 10000 2.6 80 22:42 21.01.2020
4276 Rain 25 1010 94 5000 2.6 40 22:23 21.01.2020
4277 Rain 24 1010 100 2800 1.5 270 21:58 21.01.2020
4278 Rain 25 1010 94 4500 1.5 310 21:39 21.01.2020
4279 Rain 25 1010 94 4500 1.5 310 21:20 21.01.2020
4280 Rain 25 1009 88 6000 2.6 260 20:57 21.01.2020
4281 Rain 25 1009 94 10000 1 110 20:39 21.01.2020
4282 Rain 25 1009 94 10000 1 110 20:20 21.01.2020
4283 Rain 24 1009 94 10000 2.6 80 19:57 21.01.2020
4284 Rain 24 1010 94 10000 1 120 19:39 21.01.2020
4285 Rain 24 1010 94 10000 1 120 19:20 21.01.2020
4286 Rain 23 1009 100 10000 1.5 260 18:55 21.01.2020
4287 Rain 23 1009 100 5000 2.1 210 18:37 21.01.2020
4288 Rain 23 1009 100 5000 2.1 210 18:19 21.01.2020
4289 Rain 24 1008 94 8000 1 160 17:45 21.01.2020
4290 Rain 24 1008 94 10000 0.5 270 17:20 21.01.2020
4291 Rain 23 1008 100 10000 1.5 230 16:59 21.01.2020
4292 Rain 23 1008 100 900 2.1 210 16:37 21.01.2020
4293 Rain 23 1008 100 900 2.1 210 16:37 21.01.2020
4294 Rain 23 1008 100 900 2.1 210 16:37 21.01.2020
4295 Rain 23 1008 100 900 2.1 210 16:19 21.01.2020
4296 Rain 24 1007 94 10000 1.5 200 15:54 21.01.2020
4297 Rain 24 1007 94 10000 1.5 210 15:36 21.01.2020
4298 Rain 24 1007 94 10000 1.5 210 15:18 21.01.2020
4299 Rain 26 1008 94 9000 4.1 310 14:38 21.01.2020
4300 Rain 26 1008 94 9000 4.1 310 14:20 21.01.2020
4301 Rain 26 1008 94 9000 4.1 310 13:40 21.01.2020
4302 Rain 26 1008 94 9000 4.1 280 13:19 21.01.2020
4303 Rain 26 1008 88 9000 4.6 280 12:45 21.01.2020
4304 Rain 26 1008 88 10000 4.6 280 12:27 21.01.2020
4305 Rain 26 1009 88 8000 5.1 290 11:58 21.01.2020
4306 Rain 26 1009 94 8000 5.7 280 11:40 21.01.2020
4307 Rain 26 1009 94 8000 5.7 280 11:21 21.01.2020
4308 Rain 26 1009 88 7000 6.2 280 10:55 21.01.2020
4309 Rain 25 1009 94 7000 6.7 280 10:37 21.01.2020
4310 Rain 25 1009 94 7000 6.7 280 10:18 21.01.2020
4311 Haze 25 1009 94 5000 8.7 280 09:41 21.01.2020
4312 Rain 25 1009 94 750 12.3 280 09:22 21.01.2020
4313 Rain 27 1009 88 10000 7.2 320 08:49 21.01.2020
4314 Haze 27 1008 94 5000 4.6 340 08:29 21.01.2020
4315 Rain 27 1008 94 6000 4.6 340 07:59 21.01.2020
4316 Rain 27 1008 88 9000 5.1 330 07:39 21.01.2020
4317 Rain 27 1008 88 9000 5.1 330 07:21 21.01.2020
4318 Rain 27 1008 94 7000 3.6 330 06:48 21.01.2020
4319 Rain 27 1007 88 8000 3.6 330 06:25 21.01.2020
4320 Rain 28 1007 88 7000 3.6 330 05:41 21.01.2020
4321 Clouds 28 1007 83 9000 4.1 340 04:39 21.01.2020
4322 Clouds 28 1007 83 10000 5.1 330 02:55 21.01.2020
4323 Rain 28 1007 83 10000 4.6 340 01:47 21.01.2020
4324 Rain 29 1008 79 10000 4.6 340 00:54 21.01.2020
4325 Rain 28 1008 83 10000 5.1 350 00:32 21.01.2020
4326 Rain 28 1008 83 10000 5.1 340 23:57 20.01.2020
4327 Rain 28 1009 83 9000 5.1 340 23:37 20.01.2020
4328 Rain 28 1009 83 9000 5.1 340 23:18 20.01.2020
4329 Rain 28 1009 88 9000 5.7 330 22:56 20.01.2020
4330 Rain 28 1009 83 10000 5.1 340 22:36 20.01.2020
4331 Rain 28 1009 83 10000 5.1 340 22:18 20.01.2020
4332 Rain 27 1009 88 10000 5.7 350 21:55 20.01.2020
4333 Rain 27 1009 88 9000 5.1 330 21:36 20.01.2020
4334 Rain 27 1009 88 9000 5.1 330 21:18 20.01.2020
4335 Haze 27 1009 88 3100 5.1 340 20:43 20.01.2020
4336 Rain 27 1009 88 10000 5.7 350 20:20 20.01.2020
4337 Rain 27 1009 88 10000 5.1 350 19:59 20.01.2020
4338 Rain 27 1009 88 10000 5.1 350 19:59 20.01.2020
4339 Rain 27 1009 88 10000 5.1 350 19:41 20.01.2020
4340 Rain 27 1009 88 9000 5.1 340 19:19 20.01.2020
4341 Rain 27 1009 88 10000 5.1 340 18:56 20.01.2020
4342 Rain 27 1009 88 10000 5.1 340 18:38 20.01.2020
4343 Rain 27 1009 88 10000 5.1 340 18:19 20.01.2020
4344 Rain 27 1009 88 10000 5.1 340 18:19 20.01.2020
4345 Rain 27 1008 88 9000 4.6 330 17:39 20.01.2020
4346 Rain 27 1008 88 9000 4.6 330 17:19 20.01.2020
4347 Rain 27 1008 88 10000 4.6 330 16:47 20.01.2020
4348 Rain 27 1007 88 10000 4.6 340 16:26 20.01.2020
4349 Rain 27 1007 88 10000 4.6 330 15:59 20.01.2020
4350 Rain 27 1007 88 9000 4.1 330 15:40 20.01.2020
4351 Rain 27 1007 88 9000 4.1 330 15:22 20.01.2020
4352 Rain 27 1007 88 10000 4.6 330 14:56 20.01.2020
4353 Rain 27 1007 88 8000 4.6 340 14:37 20.01.2020
4354 Rain 27 1007 88 8000 4.6 340 14:37 20.01.2020
4355 Rain 27 1007 88 8000 4.6 340 14:19 20.01.2020
4356 Rain 27 1008 88 9000 4.6 340 13:42 20.01.2020
4357 Rain 27 1008 83 10000 4.6 340 13:23 20.01.2020
4358 Rain 27 1008 83 10000 4.6 350 12:56 20.01.2020
4359 Rain 27 1009 83 10000 4.6 350 12:38 20.01.2020
4360 Rain 27 1009 83 10000 4.6 350 12:19 20.01.2020
4361 Rain 26 1009 88 10000 3.6 350 11:43 20.01.2020
4362 Rain 26 1010 88 10000 5.1 350 11:24 20.01.2020
4363 Rain 26 1010 88 10000 5.7 340 10:57 20.01.2020
4364 Rain 26 1010 88 9000 5.7 340 10:39 20.01.2020
4365 Rain 26 1010 88 9000 5.7 340 10:19 20.01.2020
4366 Rain 26 1010 88 10000 6.2 340 09:41 20.01.2020
4367 Rain 26 1010 88 8000 5.7 340 09:22 20.01.2020
4368 Rain 26 1010 88 10000 7.2 330 08:51 20.01.2020
4369 Rain 26 1010 88 10000 6.2 330 08:31 20.01.2020
4370 Rain 26 1009 88 9000 6.2 330 07:54 20.01.2020
4371 Rain 26 1009 88 9000 7.7 320 07:30 20.01.2020
4372 Rain 26 1009 88 9000 7.2 320 06:59 20.01.2020
4373 Rain 26 1009 88 8000 7.7 310 06:30 20.01.2020
4374 Rain 26 1008 88 6000 7.7 300 05:44 20.01.2020
4375 Mist 26 1008 94 4500 9.3 300 05:25 20.01.2020
4376 Haze 25 1008 94 4100 8.7 300 04:58 20.01.2020
4377 Rain 27 1008 88 10000 4.6 360 03:30 20.01.2020
4378 Rain 28 1009 83 10000 4.6 360 01:57 20.01.2020
4379 Rain 27 1009 88 10000 4.6 10 01:37 20.01.2020
4380 Rain 28 1009 88 10000 5.1 10 00:45 20.01.2020
4381 Rain 28 1009 88 10000 4.1 20 00:25 20.01.2020
4382 Rain 27 1010 88 7000 3.6 360 23:40 19.01.2020
4383 Rain 27 1010 88 7000 3.6 360 23:20 19.01.2020
4384 Rain 27 1011 88 5000 5.7 330 22:58 19.01.2020
4385 Rain 28 1011 83 8000 5.7 350 22:40 19.01.2020
4386 Rain 28 1011 83 8000 5.7 350 22:21 19.01.2020
4387 Rain 27 1011 88 9000 5.7 350 21:57 19.01.2020
4388 Rain 27 1011 88 9000 5.7 350 21:57 19.01.2020
4389 Rain 27 1011 88 8000 4.6 350 21:39 19.01.2020
4390 Rain 27 1011 88 8000 4.6 350 21:20 19.01.2020
4391 Rain 27 1011 88 10000 4.1 360 20:57 19.01.2020
4392 Rain 27 1011 88 10000 4.1 360 20:57 19.01.2020
4393 Rain 27 1011 88 10000 3.6 10 20:39 19.01.2020
4394 Rain 27 1011 88 10000 3.6 10 20:21 19.01.2020
4395 Rain 26 1011 88 10000 3.1 10 19:57 19.01.2020
4396 Rain 26 1011 94 9000 3.6 10 19:39 19.01.2020
4397 Rain 26 1011 94 9000 3.6 10 19:21 19.01.2020
4398 Rain 26 1011 88 10000 3.1 10 18:59 19.01.2020
4399 Rain 26 1011 88 10000 3.1 10 18:41 19.01.2020
4400 Rain 25 1010 94 10000 4.1 360 18:21 19.01.2020
4401 Rain 25 1011 88 6000 6.2 320 17:58 19.01.2020
4402 Rain 25 1011 88 6000 6.2 320 17:58 19.01.2020
4403 Rain 25 1010 94 4100 4.1 350 17:40 19.01.2020
4404 Rain 25 1010 94 4100 4.1 350 17:21 19.01.2020
4405 Rain 27 1010 94 9000 3.1 20 16:59 19.01.2020
4406 Rain 27 1010 88 9000 3.1 360 16:39 19.01.2020
4407 Rain 27 1010 88 9000 3.1 360 16:21 19.01.2020
4408 Rain 27 1010 94 9000 3.1 20 15:58 19.01.2020
4409 Rain 27 1010 94 9000 3.1 20 15:39 19.01.2020
4410 Rain 27 1010 94 9000 3.1 20 15:20 19.01.2020
4411 Rain 27 1010 94 9000 2.6 10 14:58 19.01.2020
4412 Rain 27 1010 94 9000 3.1 20 14:39 19.01.2020
4413 Rain 27 1010 94 9000 3.1 20 14:18 19.01.2020
4414 Rain 27 1010 94 9000 3.1 20 13:57 19.01.2020
4415 Rain 27 1010 94 9000 3.1 20 13:38 19.01.2020
4416 Rain 27 1010 94 9000 3.1 20 13:19 19.01.2020
4417 Rain 27 1010 94 8000 3.1 20 12:55 19.01.2020
4418 Rain 27 1011 94 7000 3.6 30 12:36 19.01.2020
4419 Rain 27 1011 94 7000 3.6 30 12:18 19.01.2020
4420 Rain 27 1011 94 8000 3.1 20 11:42 19.01.2020
4421 Clouds 27 1011 94 9000 3.6 20 11:20 19.01.2020
4422 Clouds 27 1012 94 7000 3.6 30 10:56 19.01.2020
4423 Clouds 27 1012 94 6000 4.1 30 10:38 19.01.2020
4424 Clouds 27 1012 94 6000 4.1 30 10:19 19.01.2020
4425 Clouds 27 1011 94 6000 3.1 30 09:45 19.01.2020
4426 Clouds 27 1011 94 6000 3.1 30 09:45 19.01.2020
4427 Clouds 27 1011 94 8000 3.6 40 09:27 19.01.2020
4428 Clouds 27 1011 94 9000 3.1 30 08:58 19.01.2020
4429 Clouds 27 1011 94 9000 3.1 30 08:39 19.01.2020
4430 Clouds 27 1011 94 9000 3.1 30 08:21 19.01.2020
4431 Clouds 27 1011 94 10000 4.1 40 07:42 19.01.2020
4432 Clouds 27 1010 88 10000 5.1 50 07:21 19.01.2020
4433 Clouds 27 1010 88 10000 5.1 50 06:50 19.01.2020
4434 Clouds 27 1009 94 10000 5.1 50 05:21 19.01.2020
4435 Clouds 28 1010 88 10000 5.1 50 02:43 19.01.2020
4436 Rain 27 1010 94 10000 5.7 50 02:21 19.01.2020
4437 Rain 28 1010 88 10000 6.2 50 01:24 19.01.2020
4438 Rain 28 1010 88 10000 6.2 50 01:24 19.01.2020
4439 Rain 28 1010 88 10000 6.2 50 00:45 19.01.2020
4440 Rain 28 1011 88 10000 6.2 50 00:27 19.01.2020
4441 Rain 28 1011 88 10000 6.2 50 23:55 18.01.2020
4442 Rain 29 1011 83 10000 5.7 50 23:37 18.01.2020
4443 Rain 29 1011 83 10000 5.7 50 23:18 18.01.2020
4444 Rain 29 1011 83 10000 5.1 50 22:54 18.01.2020
4445 Rain 29 1011 83 10000 5.1 50 22:36 18.01.2020
4446 Rain 29 1011 83 10000 5.1 50 22:36 18.01.2020
4447 Rain 29 1011 83 10000 5.1 50 22:18 18.01.2020
4448 Rain 28 1011 88 10000 5.1 50 21:56 18.01.2020
4449 Rain 28 1011 88 10000 5.1 50 21:36 18.01.2020
4450 Rain 28 1011 88 10000 5.1 50 21:18 18.01.2020
4451 Rain 28 1011 88 10000 5.1 50 21:18 18.01.2020
4452 Rain 27 1011 88 10000 5.1 60 20:41 18.01.2020
4453 Rain 27 1012 88 10000 4.6 50 20:19 18.01.2020
4454 Rain 27 1011 88 10000 4.1 50 19:44 18.01.2020
4455 Rain 27 1011 88 10000 4.1 50 19:44 18.01.2020
4456 Rain 27 1011 88 10000 4.6 50 19:25 18.01.2020
4457 Rain 27 1011 88 10000 4.6 50 19:25 18.01.2020
4458 Rain 27 1011 88 10000 4.6 50 18:56 18.01.2020
4459 Rain 27 1011 88 10000 4.6 50 18:37 18.01.2020
4460 Rain 27 1011 88 10000 4.6 50 18:19 18.01.2020
4461 Rain 27 1010 88 10000 4.6 50 17:41 18.01.2020
4462 Rain 27 1010 88 10000 5.1 50 17:21 18.01.2020
4463 Rain 27 1010 88 10000 4.6 50 16:57 18.01.2020
4464 Rain 27 1010 88 10000 5.1 50 16:38 18.01.2020
4465 Rain 27 1010 88 10000 5.1 50 16:20 18.01.2020
4466 Rain 27 1010 88 10000 5.1 50 15:56 18.01.2020
4467 Rain 27 1010 88 10000 5.1 50 15:38 18.01.2020
4468 Rain 27 1010 88 10000 5.1 50 15:20 18.01.2020
4469 Rain 27 1010 94 10000 5.1 50 14:41 18.01.2020
4470 Rain 27 1010 94 10000 4.6 50 14:19 18.01.2020
4471 Rain 27 1011 94 10000 5.1 60 13:57 18.01.2020
4472 Rain 27 1011 88 10000 5.1 50 13:36 18.01.2020
4473 Rain 27 1011 88 10000 5.1 50 13:36 18.01.2020
4474 Rain 27 1011 88 10000 5.1 50 13:18 18.01.2020
4475 Rain 27 1011 88 10000 5.7 60 12:41 18.01.2020
4476 Rain 27 1011 88 10000 5.1 60 12:21 18.01.2020
4477 Rain 27 1011 94 10000 5.7 60 11:56 18.01.2020
4478 Rain 27 1012 94 10000 5.1 60 11:38 18.01.2020
4479 Clouds 27 1012 94 10000 5.1 60 11:19 18.01.2020
4480 Clouds 27 1012 94 10000 5.1 60 10:42 18.01.2020
4481 Clouds 27 1012 94 10000 5.1 60 10:20 18.01.2020
4482 Clouds 27 1012 94 10000 5.7 60 09:54 18.01.2020
4483 Clouds 27 1011 94 10000 5.7 70 09:36 18.01.2020
4484 Clouds 27 1011 94 10000 5.1 60 08:59 18.01.2020
4485 Clouds 27 1011 94 10000 5.1 60 08:41 18.01.2020
4486 Clouds 27 1011 94 10000 6.2 70 08:20 18.01.2020
4487 Clouds 27 1010 94 10000 5.7 60 07:52 18.01.2020
4488 Clouds 27 1010 94 10000 5.7 70 07:32 18.01.2020
4489 Clouds 27 1010 94 10000 4.6 60 06:48 18.01.2020
4490 Clouds 27 1009 94 10000 5.1 60 06:19 18.01.2020
4491 Clouds 28 1009 83 10000 5.7 60 05:30 18.01.2020
4492 Clouds 28 1009 88 10000 6.2 60 03:39 18.01.2020
4493 Clouds 28 1009 88 10000 5.7 60 01:59 18.01.2020
4494 Clouds 29 1010 83 10000 5.7 60 01:36 18.01.2020
4495 Clouds 29 1010 83 10000 6.7 60 00:38 18.01.2020
4496 Clouds 29 1010 83 10000 6.7 60 00:19 18.01.2020
4497 Clouds 29 1010 83 10000 7.2 60 23:44 17.01.2020
4498 Clouds 28 1010 88 10000 6.7 60 23:20 17.01.2020
4499 Clouds 29 1011 83 10000 6.2 60 22:59 17.01.2020
4500 Clouds 28 1011 88 10000 5.1 60 22:40 17.01.2020
4501 Clouds 28 1011 88 10000 5.1 60 22:18 17.01.2020
4502 Clouds 28 1011 83 10000 5.1 60 21:41 17.01.2020
4503 Clouds 27 1011 88 10000 4.6 60 21:22 17.01.2020
4504 Clouds 27 1011 88 10000 4.6 60 20:58 17.01.2020
4505 Clouds 27 1011 88 10000 4.6 50 20:39 17.01.2020
4506 Clouds 27 1011 88 10000 4.6 50 20:20 17.01.2020
4507 Clouds 27 1011 88 10000 4.6 60 19:55 17.01.2020
4508 Clouds 26 1011 88 10000 4.6 60 19:37 17.01.2020
4509 Clouds 26 1011 88 10000 4.6 60 19:19 17.01.2020
4510 Rain 26 1011 88 10000 5.1 60 18:47 17.01.2020
4511 Clouds 26 1010 88 10000 4.6 60 18:29 17.01.2020
4512 Clouds 26 1010 88 10000 5.1 60 17:58 17.01.2020
4513 Clouds 26 1010 88 10000 4.6 50 17:39 17.01.2020
4514 Clouds 26 1010 88 10000 4.6 50 17:20 17.01.2020
4515 Clouds 26 1009 88 10000 5.1 40 16:43 17.01.2020
4516 Clouds 26 1009 88 10000 4.6 40 16:20 17.01.2020
4517 Clouds 26 1009 88 10000 3.6 50 15:49 17.01.2020
4518 Clouds 26 1009 88 10000 4.1 40 15:28 17.01.2020
4519 Clouds 26 1009 83 10000 4.1 40 14:59 17.01.2020
4520 Clouds 26 1009 83 10000 4.1 40 14:40 17.01.2020
4521 Clouds 25 1009 94 10000 3.1 50 14:22 17.01.2020
4522 Clouds 25 1009 94 10000 2.6 30 13:42 17.01.2020
4523 Clouds 25 1010 94 10000 2.1 20 13:22 17.01.2020
4524 Clouds 25 1010 94 10000 2.1 20 13:22 17.01.2020
4525 Rain 25 1010 94 10000 3.1 30 12:46 17.01.2020
4526 Clouds 27 1010 88 10000 4.6 60 12:23 17.01.2020
4527 Clouds 27 1010 88 10000 4.6 60 12:23 17.01.2020
4528 Clouds 27 1010 88 10000 4.1 50 11:41 17.01.2020
4529 Clouds 27 1010 88 10000 4.1 50 11:20 17.01.2020
4530 Clouds 27 1011 88 10000 4.6 60 10:55 17.01.2020
4531 Clouds 27 1011 88 10000 4.1 50 10:36 17.01.2020
4532 Clouds 27 1011 88 10000 4.1 50 10:18 17.01.2020
4533 Clouds 27 1011 88 10000 4.1 50 09:42 17.01.2020
4534 Clouds 27 1010 88 10000 4.1 50 09:21 17.01.2020
4535 Clouds 27 1010 88 10000 4.1 50 08:55 17.01.2020
4536 Clouds 27 1010 88 10000 4.6 50 08:37 17.01.2020
4537 Clouds 27 1010 88 10000 4.6 50 08:18 17.01.2020
4538 Clouds 27 1009 88 10000 4.6 60 07:43 17.01.2020
4539 Clouds 27 1009 88 10000 4.6 60 07:43 17.01.2020
4540 Clouds 27 1009 88 10000 4.6 60 07:24 17.01.2020
4541 Clouds 27 1009 88 10000 5.1 60 06:47 17.01.2020
4542 Clouds 27 1008 88 10000 5.1 60 06:29 17.01.2020
4543 Clouds 27 1007 81 0 6.09 39 04:26 17.01.2020
4544 Clouds 27 1007 81 0 6.09 39 02:56 17.01.2020
4545 Clouds 27 1007 81 0 6.09 39 02:31 17.01.2020
4546 Clouds 27 1008 82 0 6.09 35 01:33 17.01.2020
4547 Clouds 26 1008 82 0 5.69 44 00:59 17.01.2020
4548 Clouds 26 1008 82 0 5.69 44 00:59 17.01.2020
4549 Clouds 26 1008 82 0 5.69 44 00:35 17.01.2020
4550 Clouds 27 1009 94 10000 5.1 50 23:56 16.01.2020
4551 Clouds 27 1009 94 10000 5.1 50 23:38 16.01.2020
4552 Clouds 27 1009 94 10000 5.1 50 23:19 16.01.2020
4553 Clouds 28 1009 83 10000 5.7 50 22:40 16.01.2020
4554 Clouds 28 1009 83 10000 5.7 50 22:40 16.01.2020
4555 Clouds 28 1009 83 10000 5.7 50 22:21 16.01.2020
4556 Clouds 28 1009 83 10000 6.2 50 21:56 16.01.2020
4557 Clouds 28 1009 83 10000 6.2 60 21:37 16.01.2020
4558 Clouds 28 1009 83 10000 6.2 60 21:18 16.01.2020
4559 Clouds 27 1009 88 10000 5.7 50 20:56 16.01.2020
4560 Clouds 27 1009 88 10000 5.7 50 20:37 16.01.2020
4561 Clouds 27 1009 88 10000 5.7 50 20:18 16.01.2020
4562 Clouds 27 1009 88 10000 5.7 50 19:41 16.01.2020
4563 Clouds 27 1009 83 10000 6.2 60 19:23 16.01.2020
4564 Clouds 27 1008 88 10000 5.1 50 18:58 16.01.2020
4565 Clouds 26 1008 88 10000 4.6 50 18:39 16.01.2020
4566 Clouds 26 1008 88 10000 4.6 50 18:21 16.01.2020
4567 Clouds 26 1008 88 10000 5.1 50 17:59 16.01.2020
4568 Clouds 26 1008 88 10000 5.1 50 17:41 16.01.2020
4569 Rain 26 1008 88 10000 5.1 60 17:20 16.01.2020
4570 Rain 26 1007 88 10000 6.2 50 16:43 16.01.2020
4571 Rain 26 1007 88 10000 5.7 60 16:25 16.01.2020
4572 Rain 26 1007 88 10000 5.7 60 15:59 16.01.2020
4573 Rain 26 1007 88 10000 5.7 60 15:40 16.01.2020
4574 Rain 26 1007 88 10000 6.2 60 15:21 16.01.2020
4575 Rain 26 1007 88 10000 6.7 60 14:45 16.01.2020
4576 Rain 26 1007 88 10000 7.2 60 14:24 16.01.2020
4577 Rain 26 1007 88 10000 6.2 60 13:56 16.01.2020
4578 Rain 26 1007 88 10000 6.7 60 13:37 16.01.2020
4579 Rain 26 1007 88 10000 6.7 60 13:19 16.01.2020
4580 Rain 26 1007 88 10000 6.7 60 13:19 16.01.2020
4581 Rain 26 1008 88 10000 6.7 60 12:42 16.01.2020
4582 Rain 26 1008 83 10000 6.2 60 12:22 16.01.2020
4583 Drizzle 26 1008 83 10000 6.7 60 11:43 16.01.2020
4584 Drizzle 26 1008 83 10000 6.7 60 11:43 16.01.2020
4585 Rain 26 1009 83 10000 6.7 50 11:24 16.01.2020
4586 Rain 26 1009 88 10000 6.7 50 10:59 16.01.2020
4587 Drizzle 26 1009 88 10000 5.7 50 10:38 16.01.2020
4588 Drizzle 26 1009 88 10000 5.7 50 10:20 16.01.2020
4589 Rain 26 1009 88 10000 6.2 50 09:56 16.01.2020
4590 Rain 26 1009 88 10000 6.7 50 09:37 16.01.2020
4591 Rain 26 1009 88 10000 6.7 50 09:18 16.01.2020
4592 Drizzle 26 1009 88 10000 6.2 50 08:44 16.01.2020
4593 Drizzle 26 1009 88 10000 6.7 50 08:23 16.01.2020
4594 Rain 25 1009 94 10000 6.2 50 07:43 16.01.2020
4595 Rain 25 1008 94 10000 6.2 50 07:25 16.01.2020
4596 Rain 25 1008 94 10000 6.7 50 06:55 16.01.2020
4597 Rain 25 1008 88 9000 7.2 50 06:35 16.01.2020
4598 Rain 25 1008 94 9000 7.2 60 05:56 16.01.2020
4599 Rain 25 1008 88 8000 8.2 60 05:30 16.01.2020
4600 Rain 25 1008 94 10000 8.2 60 04:23 16.01.2020
4601 Rain 24 1008 100 3600 9.3 50 03:27 16.01.2020
4602 Rain 25 1008 94 7000 6.7 50 02:24 16.01.2020
4603 Rain 26 1008 83 10000 7.2 40 00:44 16.01.2020
4604 Rain 26 1009 83 10000 6.2 30 00:23 16.01.2020
4605 Rain 26 1009 88 10000 6.2 30 23:46 15.01.2020
4606 Rain 26 1009 88 10000 6.7 20 23:22 15.01.2020
4607 Rain 27 1009 83 10000 6.7 50 22:57 15.01.2020
4608 Rain 26 1009 83 10000 7.2 50 22:39 15.01.2020
4609 Rain 26 1009 83 10000 7.2 50 22:19 15.01.2020
4610 Rain 26 1009 88 10000 6.2 50 21:56 15.01.2020
4611 Rain 26 1009 88 10000 6.2 50 21:56 15.01.2020
4612 Rain 26 1009 88 10000 7.7 60 21:37 15.01.2020
4613 Rain 26 1009 88 10000 7.7 60 21:19 15.01.2020
4614 Rain 26 1009 88 10000 7.2 60 20:55 15.01.2020
4615 Rain 26 1009 88 10000 7.2 60 20:37 15.01.2020
4616 Rain 26 1009 88 10000 7.2 60 20:18 15.01.2020
4617 Rain 26 1009 83 10000 7.7 60 19:54 15.01.2020
4618 Rain 25 1009 88 10000 8.2 60 19:36 15.01.2020
4619 Rain 25 1009 88 10000 8.2 60 19:18 15.01.2020
4620 Rain 25 1009 88 10000 8.2 60 19:18 15.01.2020
4621 Rain 24 1009 94 10000 5.7 80 18:55 15.01.2020
4622 Rain 24 1009 94 10000 5.7 80 18:55 15.01.2020
4623 Rain 24 1009 94 10000 5.7 80 18:55 15.01.2020
4624 Rain 24 1009 94 10000 8.7 70 18:37 15.01.2020
4625 Rain 24 1009 94 10000 8.7 70 18:37 15.01.2020
4626 Rain 24 1009 94 10000 8.7 70 18:19 15.01.2020
4627 Rain 24 1009 88 10000 6.7 70 17:41 15.01.2020
4628 Rain 24 1009 94 3800 7.2 50 17:23 15.01.2020
4629 Rain 26 1008 88 10000 6.2 70 16:59 15.01.2020
4630 Rain 26 1008 88 10000 6.7 60 16:39 15.01.2020
4631 Rain 26 1008 88 10000 6.7 60 16:21 15.01.2020
4632 Rain 26 1008 88 10000 7.2 70 15:43 15.01.2020
4633 Rain 26 1008 88 10000 7.2 70 15:21 15.01.2020
4634 Rain 26 1009 88 10000 7.7 70 14:57 15.01.2020
4635 Rain 26 1008 88 10000 7.2 70 14:39 15.01.2020
4636 Rain 26 1008 88 10000 7.2 70 14:18 15.01.2020
4637 Rain 26 1009 88 10000 6.7 70 13:44 15.01.2020
4638 Rain 26 1009 88 10000 6.7 70 13:44 15.01.2020
4639 Rain 25 1009 88 10000 3.6 80 13:23 15.01.2020
4640 Rain 24 1010 88 10000 3.6 90 12:56 15.01.2020
4641 Rain 24 1010 83 10000 4.6 90 12:37 15.01.2020
4642 Rain 24 1010 83 10000 4.6 90 12:19 15.01.2020
4643 Rain 24 1010 83 10000 4.6 90 11:54 15.01.2020
4644 Rain 23 1011 94 10000 6.2 90 11:36 15.01.2020
4645 Rain 23 1011 94 10000 6.2 90 11:18 15.01.2020
4646 Rain 23 1012 94 6000 10.3 70 10:41 15.01.2020
4647 Rain 24 1012 94 8000 7.7 50 10:21 15.01.2020
4648 Rain 24 1011 94 10000 4.1 70 09:41 15.01.2020
4649 Rain 24 1011 94 7000 6.2 40 09:22 15.01.2020
4650 Rain 26 1011 88 10000 5.7 80 08:45 15.01.2020
4651 Rain 25 1011 94 5000 3.1 60 08:27 15.01.2020
4652 Rain 24 1011 100 10000 2.6 90 07:56 15.01.2020
4653 Rain 24 1011 100 10000 3.1 90 07:35 15.01.2020
4654 Rain 24 1011 94 7000 4.6 50 06:57 15.01.2020
4655 Rain 24 1011 94 7000 4.6 50 06:57 15.01.2020
4656 Rain 24 1010 94 4000 3.6 30 06:38 15.01.2020
4657 Rain 24 1010 94 6000 6.2 10 05:43 15.01.2020
4658 Rain 28 1010 78 10000 7.7 70 03:35 15.01.2020
4659 Rain 28 1009 78 10000 9.8 70 01:49 15.01.2020
4660 Rain 28 1010 74 10000 8.7 80 01:22 15.01.2020
4661 Rain 28 1010 78 10000 9.3 70 00:37 15.01.2020
4662 Rain 28 1010 78 10000 9.3 70 00:19 15.01.2020
4663 Rain 29 1010 74 10000 8.2 70 23:47 14.01.2020
4664 Rain 28 1011 74 10000 8.2 70 23:28 14.01.2020
4665 Rain 28 1011 78 10000 8.2 70 22:57 14.01.2020
4666 Rain 28 1011 78 10000 8.7 80 22:39 14.01.2020
4667 Rain 28 1011 78 10000 8.7 80 22:18 14.01.2020
4668 Rain 28 1011 78 10000 9.8 70 21:57 14.01.2020
4669 Rain 28 1011 78 10000 9.8 70 21:38 14.01.2020
4670 Rain 28 1011 78 10000 9.8 70 21:19 14.01.2020
4671 Rain 27 1011 83 10000 9.3 80 20:43 14.01.2020
4672 Rain 27 1011 78 10000 7.7 70 20:23 14.01.2020
4673 Rain 27 1011 78 10000 7.7 70 19:58 14.01.2020
4674 Rain 26 1011 88 10000 7.7 80 19:40 14.01.2020
4675 Rain 26 1011 88 10000 7.7 80 19:21 14.01.2020
4676 Rain 26 1011 83 8000 7.2 80 18:59 14.01.2020
4677 Rain 26 1011 83 8000 7.2 80 18:40 14.01.2020
4678 Rain 26 1010 83 10000 5.1 80 18:19 14.01.2020
4679 Rain 25 1009 88 10000 5.1 80 17:39 14.01.2020
4680 Rain 25 1009 88 10000 5.1 80 17:20 14.01.2020
4681 Rain 25 1009 88 10000 5.1 80 16:59 14.01.2020
4682 Rain 25 1009 88 10000 5.1 80 16:41 14.01.2020
4683 Rain 25 1009 83 10000 4.6 80 16:21 14.01.2020
4684 Rain 25 1009 83 10000 5.1 80 15:55 14.01.2020
4685 Rain 25 1009 88 10000 5.1 70 15:37 14.01.2020
4686 Rain 25 1009 88 10000 5.1 70 15:18 14.01.2020
4687 Rain 26 1009 83 10000 5.7 60 14:43 14.01.2020
4688 Clouds 25 1010 88 10000 6.2 50 14:20 14.01.2020
4689 Clouds 26 1010 83 10000 7.7 70 13:43 14.01.2020
4690 Clouds 26 1010 88 10000 6.7 70 13:20 14.01.2020
4691 Rain 26 1010 88 10000 5.7 70 12:59 14.01.2020
4692 Rain 26 1011 88 10000 5.1 80 12:40 14.01.2020
4693 Rain 26 1011 88 10000 5.1 80 12:20 14.01.2020
4694 Rain 26 1011 88 10000 5.1 80 12:20 14.01.2020
4695 Rain 26 1011 88 10000 5.1 80 12:20 14.01.2020
4696 Rain 26 1011 88 10000 5.7 80 11:43 14.01.2020
4697 Clouds 26 1011 88 10000 5.7 80 11:23 14.01.2020
4698 Clouds 26 1011 88 10000 6.2 80 10:58 14.01.2020
4699 Clouds 26 1011 88 10000 6.2 80 10:39 14.01.2020
4700 Clouds 26 1011 88 10000 6.2 80 10:20 14.01.2020
4701 Clouds 26 1011 88 10000 6.2 80 09:57 14.01.2020
4702 Clouds 26 1011 88 10000 5.1 80 09:39 14.01.2020
4703 Clouds 26 1011 88 10000 5.1 80 09:20 14.01.2020
4704 Clouds 26 1010 83 10000 4.1 90 08:44 14.01.2020
4705 Clouds 26 1010 83 10000 6.2 80 08:23 14.01.2020
4706 Rain 26 1010 83 10000 5.1 90 07:53 14.01.2020
4707 Rain 26 1011 78 10000 4.6 90 07:31 14.01.2020
4708 Rain 26 1010 78 10000 5.1 90 06:50 14.01.2020
4709 Rain 26 1010 83 10000 6.7 80 06:23 14.01.2020
4710 Clouds 27 1010 78 10000 6.2 90 04:58 14.01.2020
4711 Clouds 28 1009 74 10000 8.2 70 03:48 14.01.2020
4712 Clouds 28 1009 74 10000 7.7 70 02:41 14.01.2020
4713 Clouds 28 1010 74 10000 7.7 80 01:34 14.01.2020
4714 Rain 29 1010 70 10000 8.2 70 00:49 14.01.2020
4715 Rain 29 1010 74 10000 8.2 70 00:27 14.01.2020
4716 Rain 29 1010 74 10000 7.7 70 23:47 13.01.2020
4717 Rain 28 1011 78 10000 7.7 70 23:19 13.01.2020
4718 Rain 28 1011 78 10000 8.7 80 22:58 13.01.2020
4719 Rain 28 1011 78 10000 7.7 80 22:39 13.01.2020
4720 Rain 28 1011 78 10000 7.7 80 22:20 13.01.2020
4721 Rain 28 1011 78 10000 7.2 80 21:56 13.01.2020
4722 Rain 28 1011 78 10000 7.2 80 21:56 13.01.2020
4723 Rain 28 1011 74 10000 7.2 80 21:37 13.01.2020
4724 Rain 28 1011 74 10000 7.2 80 21:18 13.01.2020
4725 Rain 28 1011 74 10000 7.2 80 21:18 13.01.2020
4726 Rain 27 1011 78 10000 7.2 80 20:56 13.01.2020
4727 Rain 27 1011 78 10000 6.7 80 20:38 13.01.2020
4728 Rain 27 1011 78 10000 6.7 80 20:19 13.01.2020
4729 Rain 27 1011 78 10000 6.7 80 19:41 13.01.2020
4730 Rain 27 1011 78 10000 5.7 80 19:21 13.01.2020
4731 Rain 26 1011 83 10000 3.6 90 18:58 13.01.2020
4732 Rain 25 1011 88 10000 3.6 90 18:38 13.01.2020
4733 Rain 25 1011 88 10000 3.6 90 18:19 13.01.2020
4734 Rain 25 1011 88 10000 3.6 90 18:19 13.01.2020
4735 Rain 25 1010 88 10000 4.6 80 17:58 13.01.2020
4736 Rain 25 1010 88 10000 4.1 90 17:39 13.01.2020
4737 Rain 25 1010 88 10000 4.1 90 17:20 13.01.2020
4738 Rain 26 1009 79 0 6.07 73 16:42 13.01.2020
4739 Rain 26 1009 79 0 6.07 73 16:23 13.01.2020
4740 Rain 26 1009 79 0 6.07 73 15:59 13.01.2020
4741 Rain 26 1009 79 0 6.07 73 15:41 13.01.2020
4742 Rain 26 1009 79 0 6.07 73 15:21 13.01.2020
4743 Rain 26 1009 79 0 6.07 73 14:43 13.01.2020
4744 Rain 26 1009 79 0 6.07 73 14:24 13.01.2020
4745 Rain 27 1010 78 0 7.15 76 13:59 13.01.2020
4746 Rain 27 1010 78 0 7.15 76 13:40 13.01.2020
4747 Rain 27 1010 78 0 6.64 73 13:21 13.01.2020
4748 Rain 26 1011 83 10000 5.1 80 12:56 13.01.2020
4749 Rain 26 1011 83 10000 5.1 80 12:37 13.01.2020
4750 Rain 26 1011 83 10000 5.1 80 12:37 13.01.2020
4751 Rain 26 1011 83 10000 5.1 80 12:19 13.01.2020
4752 Rain 26 1011 83 10000 5.1 80 12:19 13.01.2020
4753 Rain 26 1011 83 10000 5.1 80 12:19 13.01.2020
4754 Rain 26 1011 83 10000 6.2 80 11:39 13.01.2020
4755 Clouds 26 1011 83 10000 6.2 80 11:20 13.01.2020
4756 Clouds 26 1012 88 10000 6.7 80 10:57 13.01.2020
4757 Clouds 26 1012 83 10000 5.7 80 10:39 13.01.2020
4758 Clouds 26 1012 83 10000 5.7 80 10:20 13.01.2020
4759 Clouds 26 1012 83 10000 5.7 80 10:20 13.01.2020
4760 Clouds 26 1012 83 10000 5.1 80 09:56 13.01.2020
4761 Clouds 26 1012 88 10000 5.7 80 09:38 13.01.2020
4762 Clouds 26 1012 88 10000 5.7 80 09:19 13.01.2020
4763 Clouds 26 1011 88 10000 6.7 80 08:39 13.01.2020
4764 Rain 26 1011 88 10000 6.7 80 08:20 13.01.2020
4765 Rain 26 1011 88 10000 6.7 80 08:20 13.01.2020
4766 Rain 26 1011 83 6000 6.2 80 07:46 13.01.2020
4767 Rain 25 1011 88 10000 5.7 80 07:27 13.01.2020
4768 Rain 26 1010 83 10000 5.7 90 06:39 13.01.2020
4769 Rain 26 1010 83 10000 5.7 90 06:18 13.01.2020
4770 Rain 26 1010 83 10000 6.7 80 05:19 13.01.2020
4771 Rain 27 1009 78 10000 7.7 80 03:46 13.01.2020
4772 Rain 28 1010 74 10000 7.7 80 02:51 13.01.2020
4773 Rain 28 1010 78 10000 7.2 80 02:30 13.01.2020
4774 Rain 29 1011 70 10000 7.2 80 01:33 13.01.2020
4775 Rain 28 1011 74 10000 6.7 80 00:48 13.01.2020
4776 Rain 29 1011 66 10000 6.2 80 00:26 13.01.2020
4777 Rain 29 1011 74 10000 7.7 80 23:59 12.01.2020
4778 Rain 28 1012 78 10000 7.2 70 23:40 12.01.2020
4779 Clouds 28 1012 78 10000 7.2 70 23:21 12.01.2020
4780 Clouds 28 1012 78 10000 7.2 70 23:21 12.01.2020
4781 Clouds 28 1012 74 10000 6.7 80 22:56 12.01.2020
4782 Clouds 29 1011 70 10000 7.2 70 22:37 12.01.2020
4783 Clouds 29 1011 70 10000 7.2 70 22:18 12.01.2020
4784 Clouds 28 1012 74 10000 7.2 80 21:42 12.01.2020
4785 Clouds 28 1012 74 10000 6.2 80 21:20 12.01.2020
4786 Clouds 28 1012 74 10000 4.1 90 20:59 12.01.2020
4787 Clouds 27 1012 78 10000 5.7 80 20:39 12.01.2020
4788 Clouds 27 1012 78 10000 5.7 80 20:21 12.01.2020
4789 Clouds 27 1012 78 10000 5.7 90 19:56 12.01.2020
4790 Clouds 27 1012 78 10000 5.7 90 19:56 12.01.2020
4791 Clouds 26 1012 83 10000 5.7 80 19:38 12.01.2020
4792 Clouds 26 1012 83 10000 5.7 80 19:38 12.01.2020
4793 Clouds 26 1012 83 10000 5.7 80 19:19 12.01.2020
4794 Clouds 26 1012 83 10000 4.6 90 18:58 12.01.2020
4795 Clouds 25 1012 83 10000 3.6 90 18:40 12.01.2020
4796 Clouds 25 1012 83 10000 3.6 90 18:21 12.01.2020
4797 Clouds 25 1011 88 10000 3.1 90 17:58 12.01.2020
4798 Clouds 25 1011 88 10000 2.6 90 17:38 12.01.2020
4799 Clouds 25 1011 88 10000 2.6 90 17:19 12.01.2020
4800 Clouds 25 1010 88 10000 3.6 80 16:55 12.01.2020
4801 Clouds 25 1010 88 10000 4.1 90 16:37 12.01.2020
4802 Clouds 25 1010 88 10000 4.1 90 16:37 12.01.2020
4803 Clouds 25 1010 88 10000 4.1 90 16:19 12.01.2020
4804 Clouds 25 1010 88 10000 3.6 90 15:42 12.01.2020
4805 Rain 25 1010 88 10000 3.6 90 15:24 12.01.2020
4806 Rain 25 1010 94 7000 5.1 80 14:57 12.01.2020
4807 Clouds 26 1010 83 10000 5.1 80 14:38 12.01.2020
4808 Rain 26 1010 83 10000 5.1 80 14:19 12.01.2020
4809 Rain 26 1010 83 10000 5.1 80 13:43 12.01.2020
4810 Rain 26 1010 83 10000 5.7 80 13:24 12.01.2020
4811 Rain 26 1011 83 10000 5.7 80 12:58 12.01.2020
4812 Rain 26 1011 83 10000 6.2 80 12:39 12.01.2020
4813 Rain 26 1011 83 10000 6.2 80 12:20 12.01.2020
4814 Rain 26 1011 83 10000 5.7 80 11:57 12.01.2020
4815 Rain 26 1012 83 10000 6.2 80 11:38 12.01.2020
4816 Clouds 26 1012 83 10000 6.2 80 11:19 12.01.2020
4817 Clouds 26 1012 83 10000 6.7 90 10:41 12.01.2020
4818 Clouds 26 1012 83 10000 6.7 90 10:21 12.01.2020
4819 Clouds 26 1012 83 10000 7.2 80 09:56 12.01.2020
4820 Clouds 26 1012 88 10000 6.7 80 09:38 12.01.2020
4821 Clouds 26 1012 88 10000 6.7 80 09:18 12.01.2020
4822 Clouds 26 1011 83 10000 7.7 80 08:42 12.01.2020
4823 Rain 26 1011 83 10000 6.7 80 08:19 12.01.2020
4824 Rain 26 1011 83 10000 7.2 80 07:40 12.01.2020
4825 Rain 26 1011 83 10000 7.2 80 07:21 12.01.2020
4826 Rain 26 1010 83 10000 7.2 80 06:43 12.01.2020
4827 Rain 26 1010 83 10000 7.2 80 06:24 12.01.2020
4828 Rain 27 1010 83 10000 7.2 90 05:23 12.01.2020
4829 Rain 28 1009 78 10000 8.7 80 03:47 12.01.2020
4830 Rain 28 1009 74 10000 9.3 70 03:22 12.01.2020
4831 Rain 28 1010 78 10000 9.8 80 02:30 12.01.2020
4832 Rain 28 1010 74 10000 9.3 80 01:42 12.01.2020
4833 Rain 28 1010 69 10000 9.3 70 01:22 12.01.2020
4834 Rain 28 1010 69 10000 9.3 70 01:22 12.01.2020
4835 Rain 28 1010 69 10000 10.3 70 00:40 12.01.2020
4836 Rain 28 1010 69 10000 10.3 70 00:19 12.01.2020
4837 Rain 28 1010 69 10000 9.3 80 23:42 11.01.2020
4838 Rain 28 1011 74 10000 8.2 80 23:19 11.01.2020
4839 Rain 27 1011 78 10000 8.2 80 22:57 11.01.2020
4840 Rain 27 1011 78 10000 8.7 80 22:39 11.01.2020
4841 Rain 27 1011 78 10000 8.7 80 22:20 11.01.2020
4842 Rain 27 1011 83 10000 7.7 80 21:54 11.01.2020
4843 Rain 27 1011 83 10000 7.7 80 21:54 11.01.2020
4844 Rain 26 1011 94 10000 7.2 80 21:36 11.01.2020
4845 Rain 26 1011 94 10000 7.2 80 21:18 11.01.2020
4846 Rain 27 1011 78 10000 7.7 80 20:40 11.01.2020
4847 Rain 27 1011 78 10000 7.7 80 20:20 11.01.2020
4848 Rain 27 1011 78 10000 7.2 90 19:58 11.01.2020
4849 Rain 26 1011 78 10000 5.7 80 19:38 11.01.2020
4850 Rain 26 1011 78 10000 5.7 80 19:20 11.01.2020
4851 Rain 26 1011 78 10000 4.1 90 18:57 11.01.2020
4852 Rain 25 1011 83 10000 3.1 100 18:37 11.01.2020
4853 Rain 25 1011 83 10000 3.1 100 18:19 11.01.2020
4854 Rain 26 1010 78 10000 5.1 90 17:57 11.01.2020
4855 Rain 26 1009 78 10000 5.1 90 17:39 11.01.2020
4856 Rain 26 1009 78 10000 5.1 90 17:18 11.01.2020
4857 Rain 26 1009 83 10000 4.6 90 16:44 11.01.2020
4858 Rain 26 1009 78 10000 4.1 90 16:25 11.01.2020
4859 Rain 25 1009 83 10000 3.6 90 15:56 11.01.2020
4860 Rain 26 1009 78 10000 3.1 90 15:38 11.01.2020
4861 Rain 26 1009 78 10000 3.1 90 15:20 11.01.2020
4862 Rain 26 1009 78 10000 3.1 100 14:46 11.01.2020
4863 Rain 26 1009 78 10000 3.1 100 14:46 11.01.2020
4864 Rain 26 1010 78 10000 3.6 100 14:25 11.01.2020
4865 Rain 26 1010 78 10000 2.6 100 13:57 11.01.2020
4866 Rain 26 1010 78 10000 3.1 100 13:38 11.01.2020
4867 Rain 26 1010 78 10000 3.1 100 13:20 11.01.2020
4868 Rain 26 1010 78 10000 2.6 110 12:55 11.01.2020
4869 Rain 26 1011 78 10000 2.6 100 12:36 11.01.2020
4870 Rain 26 1011 78 10000 2.6 100 12:18 11.01.2020
4871 Rain 26 1011 78 10000 2.6 100 11:42 11.01.2020
4872 Rain 26 1011 78 10000 4.1 90 11:23 11.01.2020
4873 Clouds 26 1012 78 10000 3.6 90 10:44 11.01.2020
4874 Clouds 26 1012 78 10000 5.1 90 10:24 11.01.2020
4875 Clouds 26 1012 78 10000 5.1 90 10:24 11.01.2020
4876 Clouds 26 1012 78 10000 4.6 100 09:43 11.01.2020
4877 Clouds 26 1012 78 10000 4.1 100 09:21 11.01.2020
4878 Clouds 26 1012 78 10000 4.6 90 08:43 11.01.2020
4879 Clouds 26 1011 78 10000 5.7 90 08:23 11.01.2020
4880 Rain 26 1011 78 10000 4.6 90 07:45 11.01.2020
4881 Rain 26 1011 78 10000 4.6 100 07:27 11.01.2020
4882 Rain 26 1011 78 10000 5.1 100 06:56 11.01.2020
4883 Rain 27 1011 74 10000 5.1 90 06:37 11.01.2020
4884 Rain 27 1010 74 10000 5.1 90 05:18 11.01.2020
4885 Rain 27 1010 74 10000 6.7 90 04:37 11.01.2020
4886 Rain 27 1010 74 10000 6.7 90 04:19 11.01.2020
4887 Rain 28 1010 74 10000 6.2 90 02:45 11.01.2020
4888 Clouds 28 1010 74 10000 9.3 80 01:45 11.01.2020
4889 Clouds 28 1010 69 10000 8.7 80 01:21 11.01.2020
4890 Clouds 28 1011 74 10000 8.2 90 00:47 11.01.2020
4891 Clouds 28 1011 74 10000 8.7 80 00:20 11.01.2020
4892 Clouds 28 1011 78 10000 7.7 90 23:41 10.01.2020
4893 Rain 26 1011 88 10000 5.7 80 23:23 10.01.2020
4894 Clouds 28 1011 74 10000 9.8 80 22:59 10.01.2020
4895 Clouds 28 1012 74 10000 8.7 80 22:41 10.01.2020
4896 Clouds 28 1012 74 10000 8.7 80 22:21 10.01.2020
4897 Clouds 28 1012 74 10000 8.2 90 21:58 10.01.2020
4898 Clouds 27 1012 78 10000 8.2 80 21:39 10.01.2020
4899 Clouds 27 1012 78 10000 8.2 80 21:19 10.01.2020
4900 Clouds 27 1013 78 10000 7.2 80 20:55 10.01.2020
4901 Clouds 27 1013 78 10000 6.2 80 20:37 10.01.2020
4902 Rain 27 1013 78 10000 6.2 80 20:18 10.01.2020
4903 Rain 26 1012 83 10000 6.2 90 19:39 10.01.2020
4904 Rain 26 1012 83 10000 6.2 90 19:20 10.01.2020
4905 Rain 26 1012 83 10000 6.2 90 18:44 10.01.2020
4906 Rain 26 1012 83 10000 4.6 90 18:20 10.01.2020
4907 Rain 26 1012 83 10000 4.6 90 18:20 10.01.2020
4908 Rain 26 1012 78 10000 5.1 90 17:58 10.01.2020
4909 Rain 26 1011 83 10000 5.1 90 17:40 10.01.2020
4910 Rain 26 1011 83 10000 5.1 90 17:21 10.01.2020
4911 Rain 26 1011 78 10000 6.7 90 16:59 10.01.2020
4912 Rain 26 1011 78 10000 6.7 90 16:41 10.01.2020
4913 Rain 26 1011 78 10000 6.7 90 16:21 10.01.2020
4914 Rain 26 1011 78 10000 6.7 90 16:21 10.01.2020
4915 Rain 25 1011 88 10000 6.7 90 15:56 10.01.2020
4916 Rain 25 1011 83 10000 5.1 90 15:37 10.01.2020
4917 Rain 25 1011 83 10000 5.1 90 15:19 10.01.2020
4918 Rain 26 1011 78 10000 5.7 90 14:56 10.01.2020
4919 Rain 26 1012 78 10000 5.7 90 14:38 10.01.2020
4920 Clouds 26 1012 78 10000 5.7 90 14:19 10.01.2020
4921 Clouds 26 1012 78 10000 5.7 90 13:44 10.01.2020
4922 Clouds 25 1012 83 10000 4.6 90 13:26 10.01.2020
4923 Clouds 26 1012 78 10000 5.7 90 12:59 10.01.2020
4924 Rain 25 1013 78 10000 4.6 100 12:39 10.01.2020
4925 Rain 25 1013 78 10000 4.6 100 12:21 10.01.2020
4926 Clouds 26 1013 78 10000 5.7 100 11:56 10.01.2020
4927 Clouds 26 1014 78 10000 4.1 100 11:38 10.01.2020
4928 Rain 26 1014 78 10000 4.1 100 11:19 10.01.2020
4929 Rain 26 1014 78 10000 4.1 100 10:58 10.01.2020
4930 Drizzle 26 1014 78 10000 5.7 90 10:36 10.01.2020
4931 Drizzle 26 1014 78 10000 5.7 90 10:18 10.01.2020
4932 Rain 26 1014 78 10000 4.6 110 09:43 10.01.2020
4933 Rain 26 1014 78 10000 4.6 110 09:24 10.01.2020
4934 Rain 26 1014 78 10000 4.6 110 08:43 10.01.2020
4935 Rain 26 1014 78 10000 5.1 100 08:24 10.01.2020
4936 Clouds 26 1014 78 10000 3.6 100 07:47 10.01.2020
4937 Clouds 26 1013 78 10000 4.1 100 07:28 10.01.2020
4938 Clouds 26 1013 78 10000 4.1 110 06:55 10.01.2020
4939 Rain 26 1013 83 10000 3.6 120 06:27 10.01.2020
4940 Clouds 27 1013 74 10000 6.7 100 05:52 10.01.2020
4941 Clouds 28 1012 74 10000 5.7 110 03:47 10.01.2020
4942 Clouds 28 1012 74 10000 5.7 110 03:28 10.01.2020
4943 Clouds 28 1013 69 10000 5.7 110 02:51 10.01.2020
4944 Clouds 29 1013 70 10000 5.7 90 01:49 10.01.2020
4945 Clouds 28 1013 74 10000 6.2 100 01:28 10.01.2020
4946 Clouds 28 1013 74 10000 7.2 80 00:44 10.01.2020
4947 Clouds 28 1014 74 10000 7.7 80 00:19 10.01.2020
4948 Clouds 28 1014 69 10000 8.2 80 23:39 09.01.2020
4949 Clouds 28 1014 69 10000 8.2 80 23:39 09.01.2020
4950 Clouds 28 1014 69 10000 8.2 80 23:20 09.01.2020
4951 Clouds 28 1014 74 10000 6.7 90 22:57 09.01.2020
4952 Clouds 28 1015 74 10000 7.7 90 22:39 09.01.2020
4953 Clouds 28 1015 74 10000 7.7 90 22:19 09.01.2020
4954 Clouds 28 1015 74 10000 6.7 90 21:57 09.01.2020
4955 Clouds 28 1015 74 10000 5.7 100 21:38 09.01.2020
4956 Clouds 28 1015 74 10000 5.7 100 21:19 09.01.2020
4957 Clouds 27 1015 78 10000 6.2 90 20:57 09.01.2020
4958 Clouds 27 1015 78 10000 6.2 90 20:39 09.01.2020
4959 Rain 27 1015 78 10000 6.2 100 20:19 09.01.2020
4960 Rain 27 1015 78 10000 5.7 100 19:57 09.01.2020
4961 Rain 27 1015 78 10000 5.7 100 19:37 09.01.2020
4962 Rain 27 1015 78 10000 5.1 90 19:19 09.01.2020
4963 Rain 26 1015 83 10000 4.6 90 18:55 09.01.2020
4964 Rain 26 1015 83 10000 4.6 90 18:36 09.01.2020
4965 Rain 26 1015 83 10000 4.6 90 18:18 09.01.2020
4966 Rain 26 1014 83 10000 5.1 90 17:41 09.01.2020
4967 Rain 26 1014 83 10000 5.1 90 17:41 09.01.2020
4968 Clouds 26 1014 83 10000 5.7 90 17:18 09.01.2020
4969 Clouds 26 1014 83 10000 5.1 80 16:49 09.01.2020
4970 Clouds 26 1014 83 10000 4.6 80 16:24 09.01.2020
4971 Clouds 26 1013 83 10000 4.6 90 15:59 09.01.2020
4972 Clouds 26 1013 83 10000 4.6 90 15:40 09.01.2020
4973 Clouds 26 1014 83 10000 6.2 80 15:19 09.01.2020
4974 Clouds 26 1014 83 10000 5.1 90 14:42 09.01.2020
4975 Clouds 26 1014 83 10000 5.1 90 14:22 09.01.2020
4976 Clouds 26 1014 83 10000 5.7 90 13:57 09.01.2020
4977 Clouds 26 1014 83 10000 5.7 90 13:39 09.01.2020
4978 Clouds 26 1014 83 10000 6.2 90 13:20 09.01.2020
4979 Clouds 26 1015 83 10000 7.2 90 12:58 09.01.2020
4980 Clouds 26 1015 83 10000 7.2 90 12:58 09.01.2020
4981 Clouds 26 1015 83 10000 7.2 90 12:38 09.01.2020
4982 Clouds 26 1015 83 10000 7.7 90 12:19 09.01.2020
4983 Clouds 26 1015 83 10000 6.2 90 11:55 09.01.2020
4984 Clouds 26 1015 83 10000 6.2 90 11:37 09.01.2020
4985 Clouds 26 1015 83 10000 5.1 90 11:19 09.01.2020
4986 Clouds 26 1015 83 10000 4.6 100 10:42 09.01.2020
4987 Clouds 27 1016 78 10000 5.1 100 10:22 09.01.2020
4988 Clouds 26 1016 83 10000 4.1 100 09:49 09.01.2020
4989 Clouds 27 1016 78 10000 5.1 90 09:26 09.01.2020
4990 Clouds 27 1016 78 10000 4.1 90 09:00 09.01.2020
4991 Clouds 27 1016 78 10000 4.1 90 08:40 09.01.2020
4992 Clouds 27 1015 78 10000 4.1 90 08:22 09.01.2020
4993 Clouds 27 1015 78 10000 4.6 100 07:55 09.01.2020
4994 Clouds 27 1015 78 10000 4.6 100 07:35 09.01.2020
4995 Clouds 27 1015 78 10000 3.6 100 06:54 09.01.2020
4996 Clouds 27 1014 78 10000 4.6 90 06:32 09.01.2020
4997 Clouds 27 1014 78 10000 4.6 90 05:52 09.01.2020
4998 Clouds 28 1014 74 10000 6.2 90 05:28 09.01.2020
4999 Clouds 28 1014 78 10000 6.2 90 04:41 09.01.2020
5000 Clouds 29 1013 74 10000 6.2 90 03:28 09.01.2020
5001 Clouds 29 1014 74 10000 6.7 80 02:47 09.01.2020
5002 Clouds 29 1014 74 10000 7.7 90 01:42 09.01.2020
5003 Clouds 29 1014 74 10000 7.7 80 01:18 09.01.2020
5004 Clouds 29 1014 74 10000 7.7 80 01:18 09.01.2020
5005 Clouds 28 1014 78 10000 7.2 80 00:38 09.01.2020
5006 Clouds 28 1015 74 10000 7.2 80 00:19 09.01.2020
5007 Clouds 28 1015 74 10000 7.2 80 00:19 09.01.2020
5008 Clouds 29 1014 74 10000 7.7 80 23:40 08.01.2020
5009 Clouds 28 1015 74 10000 6.7 90 23:22 08.01.2020
5010 Clouds 29 1015 70 10000 6.7 80 22:56 08.01.2020
5011 Clouds 29 1015 70 10000 6.7 80 22:56 08.01.2020
5012 Clouds 29 1015 70 10000 6.7 80 22:37 08.01.2020
5013 Clouds 29 1015 70 10000 8.2 80 22:18 08.01.2020
5014 Clouds 28 1015 74 10000 6.7 80 21:55 08.01.2020
5015 Clouds 28 1015 74 10000 6.7 80 21:37 08.01.2020
5016 Clouds 28 1015 74 10000 6.7 80 21:37 08.01.2020
5017 Clouds 29 1015 74 10000 7.2 80 21:18 08.01.2020
5018 Clouds 28 1015 74 10000 7.7 80 20:41 08.01.2020
5019 Clouds 27 1015 78 10000 6.2 90 20:21 08.01.2020
5020 Clouds 27 1015 78 10000 6.7 80 19:58 08.01.2020
5021 Clouds 27 1015 78 10000 6.7 80 19:38 08.01.2020
5022 Clouds 27 1015 83 10000 5.7 90 19:19 08.01.2020
5023 Clouds 26 1015 88 10000 4.6 90 18:58 08.01.2020
5024 Clouds 26 1015 88 10000 4.6 90 18:39 08.01.2020
5025 Clouds 26 1015 88 10000 4.6 90 18:39 08.01.2020
5026 Clouds 26 1015 88 10000 4.1 90 18:19 08.01.2020
5027 Clouds 26 1014 88 10000 3.6 90 17:56 08.01.2020
5028 Clouds 26 1014 88 10000 3.6 90 17:38 08.01.2020
5029 Rain 26 1014 88 10000 4.1 90 17:19 08.01.2020
5030 Rain 26 1014 88 10000 4.1 90 16:55 08.01.2020
5031 Rain 26 1014 88 10000 4.1 90 16:37 08.01.2020
5032 Rain 26 1014 88 10000 4.6 90 16:18 08.01.2020
5033 Rain 26 1014 88 10000 4.6 90 15:44 08.01.2020
5034 Rain 26 1014 88 10000 4.6 80 15:21 08.01.2020
5035 Rain 26 1014 88 10000 3.1 80 14:58 08.01.2020
5036 Rain 26 1014 88 10000 3.1 80 14:58 08.01.2020
5037 Rain 26 1014 88 10000 3.1 80 14:39 08.01.2020
5038 Clouds 26 1014 83 10000 3.1 90 14:20 08.01.2020
5039 Clouds 26 1014 83 10000 3.1 90 14:20 08.01.2020
5040 Clouds 25 1014 88 10000 2.1 90 13:41 08.01.2020
5041 Clouds 26 1015 83 10000 2.1 90 13:20 08.01.2020
5042 Clouds 26 1015 83 10000 1.5 100 12:43 08.01.2020
5043 Clouds 25 1015 88 10000 2.1 90 12:20 08.01.2020
5044 Clouds 24 1015 94 10000 1 100 11:59 08.01.2020
5045 Clouds 24 1015 94 10000 1 100 11:41 08.01.2020
5046 Clouds 24 1016 94 10000 0.5 100 11:19 08.01.2020
5047 Clouds 24 1016 94 10000 1 140 10:56 08.01.2020
5048 Clouds 24 1016 94 10000 1 140 10:37 08.01.2020
5049 Clouds 24 1016 94 10000 0.5 160 10:19 08.01.2020
5050 Clouds 25 1016 88 10000 0.5 170 09:42 08.01.2020
5051 Clouds 25 1016 88 10000 1 190 09:19 08.01.2020
5052 Clouds 25 1015 88 10000 1 210 08:57 08.01.2020
5053 Clouds 25 1015 88 10000 1 210 08:37 08.01.2020
5054 Clouds 25 1015 88 10000 0.5 230 08:19 08.01.2020
5055 Clouds 26 1015 83 10000 1 100 07:49 08.01.2020
5056 Clouds 26 1015 83 10000 1.5 110 07:30 08.01.2020
5057 Clouds 27 1015 78 10000 1 100 06:45 08.01.2020
5058 Clouds 27 1014 83 10000 3.6 80 06:22 08.01.2020
5059 Clouds 27 1014 83 10000 4.6 70 05:41 08.01.2020
5060 Clouds 28 1013 78 10000 4.1 60 04:56 08.01.2020
5061 Clouds 28 1013 74 10000 4.6 70 04:24 08.01.2020
5062 Clouds 29 1014 74 10000 4.1 70 02:45 08.01.2020
5063 Clouds 29 1014 79 10000 3.6 50 02:22 08.01.2020
5064 Clouds 28 1014 78 10000 3.6 40 01:46 08.01.2020
5065 Clouds 28 1014 78 10000 3.6 50 01:19 08.01.2020
5066 Clouds 28 1014 78 10000 4.1 50 00:27 08.01.2020
5067 Clouds 28 1014 78 10000 3.6 40 23:55 07.01.2020
5068 Clouds 28 1014 78 10000 3.6 40 23:37 07.01.2020
5069 Clouds 28 1015 78 10000 4.1 50 23:19 07.01.2020
5070 Clouds 28 1015 78 10000 4.1 50 22:40 07.01.2020
5071 Rain 28 1015 78 10000 4.1 50 22:20 07.01.2020
5072 Clouds 28 1014 78 10000 4.6 60 21:55 07.01.2020
5073 Clouds 28 1014 78 10000 4.6 60 21:37 07.01.2020
5074 Clouds 28 1014 78 10000 4.6 60 21:19 07.01.2020
5075 Clouds 28 1014 78 10000 4.6 60 20:42 07.01.2020
5076 Clouds 27 1014 83 10000 4.6 60 20:24 07.01.2020
5077 Clouds 27 1014 83 10000 4.1 60 19:59 07.01.2020
5078 Clouds 27 1014 83 10000 4.1 60 19:38 07.01.2020
5079 Clouds 27 1014 83 10000 3.6 60 19:19 07.01.2020
5080 Clouds 26 1014 88 10000 2.1 90 18:57 07.01.2020
5081 Clouds 26 1014 88 10000 2.1 90 18:38 07.01.2020
5082 Clouds 25 1014 94 10000 2.1 90 18:18 07.01.2020
5083 Clouds 24 1013 94 10000 2.1 90 17:57 07.01.2020
5084 Clouds 24 1013 94 10000 2.1 90 17:37 07.01.2020
5085 Clouds 25 1013 88 10000 2.6 90 17:19 07.01.2020
5086 Clouds 24 1013 94 10000 2.1 70 16:55 07.01.2020
5087 Clouds 24 1013 94 10000 2.1 70 16:37 07.01.2020
5088 Clouds 23 1013 100 10000 2.1 80 16:18 07.01.2020
5089 Clouds 23 1013 100 10000 2.1 80 15:43 07.01.2020
5090 Clouds 24 1013 94 10000 2.1 70 15:24 07.01.2020
5091 Clouds 24 1013 94 10000 2.1 70 15:24 07.01.2020
5092 Clouds 24 1013 94 10000 2.6 80 14:58 07.01.2020
5093 Clouds 24 1013 94 10000 2.6 80 14:40 07.01.2020
5094 Clouds 24 1013 94 10000 2.6 80 14:21 07.01.2020
5095 Clouds 24 1013 94 10000 2.6 80 13:46 07.01.2020
5096 Clouds 25 1013 88 10000 2.6 90 13:21 07.01.2020
5097 Clouds 24 1013 94 10000 2.6 90 12:56 07.01.2020
5098 Clouds 24 1013 94 10000 2.6 90 12:37 07.01.2020
5099 Clouds 24 1013 94 10000 1.5 90 12:19 07.01.2020
5100 Clouds 24 1014 94 10000 1.5 110 11:41 07.01.2020
5101 Clouds 24 1014 94 10000 1.5 90 11:23 07.01.2020
5102 Clouds 24 1014 94 10000 1 80 10:57 07.01.2020
5103 Clouds 24 1014 94 10000 1 80 10:57 07.01.2020
5104 Clouds 24 1014 94 10000 1 80 10:39 07.01.2020
5105 Clouds 24 1014 94 10000 1 80 10:20 07.01.2020
5106 Clouds 25 1014 94 10000 1 80 09:39 07.01.2020
5107 Clouds 25 1014 94 10000 1 110 09:21 07.01.2020
5108 Clouds 25 1014 94 10000 1 110 08:57 07.01.2020
5109 Clouds 25 1014 94 10000 1 110 08:37 07.01.2020
5110 Clouds 25 1014 94 10000 1 110 08:37 07.01.2020
5111 Clouds 26 1013 88 10000 1.5 110 08:18 07.01.2020
5112 Clouds 26 1013 88 10000 1 80 07:42 07.01.2020
5113 Clouds 27 1013 83 10000 1 40 06:54 07.01.2020
5114 Clouds 27 1013 83 10000 1 40 06:35 07.01.2020
5115 Clouds 27 1012 83 10000 1.5 10 05:58 07.01.2020
5116 Clouds 27 1012 83 10000 1.5 10 05:39 07.01.2020
5117 Clouds 28 1012 78 10000 2.1 350 03:44 07.01.2020
5118 Clouds 28 1012 78 10000 2.6 350 02:38 07.01.2020
5119 Clouds 28 1012 83 10000 3.1 350 01:59 07.01.2020
5120 Clouds 28 1012 83 10000 3.1 350 01:34 07.01.2020
5121 Clouds 28 1013 78 10000 2.1 60 00:40 07.01.2020
5122 Clouds 27 1013 83 10000 1.5 40 00:20 07.01.2020
5123 Clouds 27 1013 88 10000 2.1 40 23:55 06.01.2020
5124 Clouds 27 1013 88 10000 2.1 40 23:36 06.01.2020
5125 Clouds 27 1013 88 10000 2.1 40 23:36 06.01.2020
5126 Rain 26 1014 88 10000 2.1 100 23:18 06.01.2020
5127 Rain 25 1014 88 10000 1.5 80 22:42 06.01.2020
5128 Rain 25 1014 88 10000 2.6 100 22:22 06.01.2020
5129 Rain 24 1014 94 10000 3.1 40 21:57 06.01.2020
5130 Rain 24 1014 94 10000 3.1 40 21:38 06.01.2020
5131 Rain 25 1014 88 10000 2.1 30 21:20 06.01.2020
5132 Rain 25 1014 88 10000 2.1 30 21:20 06.01.2020
5133 Rain 25 1014 88 8000 4.6 340 20:56 06.01.2020
5134 Rain 25 1014 88 8000 4.6 340 20:37 06.01.2020
5135 Clouds 26 1014 88 10000 2.1 360 20:19 06.01.2020
5136 Clouds 27 1014 88 10000 1 40 19:55 06.01.2020
5137 Clouds 27 1014 88 10000 1 40 19:37 06.01.2020
5138 Clouds 27 1013 88 10000 0.5 340 19:19 06.01.2020
5139 Clouds 26 1013 94 10000 0.5 70 18:45 06.01.2020
5140 Clouds 25 1013 100 10000 0.5 70 18:21 06.01.2020
5141 Clouds 25 1013 94 10000 1 140 17:56 06.01.2020
5142 Clouds 25 1012 100 9000 0.5 120 17:37 06.01.2020
5143 Clouds 25 1012 100 9000 0.5 120 17:18 06.01.2020
5144 Fog 25 1012 94 3300 0.5 80 16:42 06.01.2020
5145 Fog 25 1012 94 3300 0.5 80 16:42 06.01.2020
5146 Clouds 25 1012 100 7000 0.5 140 16:23 06.01.2020
5147 Clouds 25 1012 100 8000 0.5 50 15:59 06.01.2020
5148 Clouds 25 1012 100 8000 0.5 50 15:38 06.01.2020
5149 Clouds 25 1012 100 10000 1 60 15:18 06.01.2020
5150 Clouds 25 1012 100 10000 0.5 90 14:42 06.01.2020
5151 Clouds 25 1012 100 10000 0.5 150 14:23 06.01.2020
5152 Clouds 25 1012 100 10000 0.5 150 14:23 06.01.2020
5153 Clouds 25 1012 100 10000 1 190 13:59 06.01.2020
5154 Clouds 25 1012 100 10000 1 190 13:39 06.01.2020
5155 Clouds 25 1012 100 10000 1 200 13:21 06.01.2020
5156 Clouds 25 1012 100 10000 1 200 13:21 06.01.2020
5157 Clouds 26 1013 94 10000 0.5 180 12:58 06.01.2020
5158 Clouds 26 1013 94 10000 0.5 180 12:39 06.01.2020
5159 Clouds 26 1013 94 10000 0.5 220 12:19 06.01.2020
5160 Clouds 26 1013 94 10000 0.5 220 12:19 06.01.2020
5161 Clouds 26 1013 94 9000 0.5 240 11:43 06.01.2020
5162 Clouds 26 1013 94 9000 0.5 240 11:43 06.01.2020
5163 Clouds 26 1013 94 8000 0.5 270 11:24 06.01.2020
5164 Haze 26 1014 94 5000 1 340 10:59 06.01.2020
5165 Haze 26 1014 94 5000 1 340 10:41 06.01.2020
5166 Clouds 26 1014 94 10000 0.5 130 10:20 06.01.2020
5167 Clouds 26 1014 94 10000 0.5 210 09:40 06.01.2020
5168 Clouds 26 1013 94 9000 0.5 80 09:21 06.01.2020
5169 Clouds 26 1013 94 9000 1 40 08:52 06.01.2020
5170 Clouds 26 1013 94 8000 1 50 08:34 06.01.2020
5171 Clouds 26 1013 94 10000 1 100 07:57 06.01.2020
5172 Clouds 26 1013 94 10000 1 100 07:38 06.01.2020
5173 Rain 26 1013 94 7000 1.5 50 06:49 06.01.2020
5174 Rain 27 1012 88 6000 2.1 350 06:30 06.01.2020
5175 Clouds 27 1012 88 10000 2.6 360 05:48 06.01.2020
5176 Clouds 27 1012 88 10000 2.6 40 04:55 06.01.2020
5177 Clouds 27 1011 88 10000 3.1 40 04:21 06.01.2020
5178 Rain 28 1012 83 10000 3.1 50 03:25 06.01.2020
5179 Clouds 27 1012 88 10000 2.1 40 02:25 06.01.2020
5180 Clouds 28 1013 83 10000 2.1 360 01:46 06.01.2020
5181 Clouds 27 1013 88 10000 2.6 20 01:28 06.01.2020
5182 Clouds 27 1013 88 10000 2.6 20 00:44 06.01.2020
5183 Clouds 27 1014 83 10000 2.6 10 00:24 06.01.2020
5184 Clouds 27 1014 83 10000 3.1 20 23:43 05.01.2020
5185 Clouds 27 1014 83 10000 3.1 20 23:43 05.01.2020
5186 Clouds 27 1014 94 10000 3.6 50 23:23 05.01.2020
5187 Clouds 27 1014 94 10000 3.6 50 23:23 05.01.2020
5188 Rain 28 1014 88 10000 3.6 50 22:58 05.01.2020
5189 Rain 28 1014 88 10000 3.6 50 22:39 05.01.2020
5190 Rain 28 1015 88 10000 3.1 60 22:20 05.01.2020
5191 Rain 27 1014 88 10000 3.6 60 21:55 05.01.2020
5192 Rain 27 1014 88 10000 3.6 60 21:37 05.01.2020
5193 Rain 27 1014 88 10000 3.6 60 21:19 05.01.2020
5194 Rain 27 1015 88 10000 3.6 60 20:55 05.01.2020
5195 Rain 27 1015 88 10000 3.6 60 20:37 05.01.2020
5196 Rain 27 1014 88 10000 4.1 60 20:19 05.01.2020
5197 Rain 26 1015 94 10000 4.6 70 19:56 05.01.2020
5198 Rain 26 1015 94 10000 4.6 70 19:37 05.01.2020
5199 Rain 26 1015 88 10000 2.1 80 19:18 05.01.2020
5200 Rain 26 1014 88 10000 2.6 70 18:54 05.01.2020
5201 Rain 26 1014 88 10000 2.6 70 18:36 05.01.2020
5202 Rain 24 1014 100 10000 2.6 80 18:18 05.01.2020
5203 Rain 24 1014 94 10000 1 100 17:55 05.01.2020
5204 Rain 24 1014 94 10000 1 100 17:55 05.01.2020
5205 Rain 24 1014 94 10000 1 100 17:37 05.01.2020
5206 Clouds 24 1013 94 10000 1 90 17:18 05.01.2020
5207 Clouds 24 1013 94 10000 0.5 90 16:42 05.01.2020
5208 Clouds 24 1013 94 10000 1 90 16:23 05.01.2020
5209 Clouds 24 1013 94 10000 1 90 16:23 05.01.2020
5210 Clouds 24 1013 94 10000 1 90 16:23 05.01.2020
5211 Clouds 24 1013 94 10000 1 90 16:23 05.01.2020
5212 Clouds 24 1013 94 10000 1 90 16:23 05.01.2020
5213 Clouds 24 1013 94 10000 1.5 80 15:41 05.01.2020
5214 Clouds 24 1013 94 10000 1.5 90 15:23 05.01.2020
5215 Clouds 24 1013 94 10000 1 90 14:58 05.01.2020
5216 Clouds 24 1013 94 10000 1 90 14:40 05.01.2020
5217 Clouds 24 1013 94 10000 1.5 60 14:22 05.01.2020
5218 Clouds 25 1013 94 10000 1 100 13:59 05.01.2020
5219 Clouds 25 1013 94 10000 1 100 13:39 05.01.2020
5220 Clouds 25 1014 94 10000 0.5 70 13:20 05.01.2020
5221 Clouds 25 1014 94 10000 0.5 200 12:57 05.01.2020
5222 Clouds 25 1014 94 10000 0.5 200 12:38 05.01.2020
5223 Clouds 25 1014 94 10000 1.5 80 12:20 05.01.2020
5224 Clouds 25 1014 94 10000 1.5 80 12:20 05.01.2020
5225 Clouds 24 1015 94 10000 1 80 11:55 05.01.2020
5226 Clouds 24 1015 94 10000 1 80 11:36 05.01.2020
5227 Rain 25 1015 88 10000 0.5 100 11:18 05.01.2020
5228 Rain 25 1015 94 10000 0.5 80 10:41 05.01.2020
5229 Rain 25 1015 94 10000 0.5 210 10:20 05.01.2020
5230 Rain 25 1016 94 10000 0.5 170 09:55 05.01.2020
5231 Rain 25 1016 94 10000 0.5 170 09:36 05.01.2020
5232 Rain 25 1016 94 10000 1 160 09:18 05.01.2020
5233 Rain 26 1016 88 10000 0.5 110 08:44 05.01.2020
5234 Clouds 26 1015 88 10000 0.5 80 08:21 05.01.2020
5235 Rain 26 1015 88 8000 0.5 190 07:44 05.01.2020
5236 Rain 26 1015 88 8000 0.5 190 07:44 05.01.2020
5237 Rain 27 1015 83 10000 0.5 170 07:26 05.01.2020
5238 Rain 27 1014 83 10000 0.5 200 06:54 05.01.2020
5239 Rain 27 1014 88 10000 1 260 05:41 05.01.2020
5240 Rain 28 1014 83 10000 2.6 260 04:56 05.01.2020
5241 Rain 28 1013 83 10000 1.5 270 04:19 05.01.2020
5242 Rain 28 1013 83 10000 1.5 270 04:19 05.01.2020
5243 Rain 28 1014 83 10000 1.5 10 03:31 05.01.2020
5244 Rain 28 1014 83 10000 1.5 320 02:33 05.01.2020
5245 Rain 28 1014 83 10000 1.5 330 01:49 05.01.2020
5246 Rain 27 1014 88 10000 2.6 40 01:20 05.01.2020
5247 Rain 28 1015 83 10000 2.6 50 00:57 05.01.2020
5248 Rain 28 1015 83 10000 2.6 50 00:39 05.01.2020
5249 Rain 28 1015 88 10000 2.1 60 00:19 05.01.2020
5250 Rain 27 1015 94 10000 2.6 60 23:41 04.01.2020
5251 Clear 27 1015 88 10000 2.6 40 23:20 04.01.2020
5252 Clear 27 1015 83 10000 3.1 40 22:56 04.01.2020
5253 Clear 27 1015 83 10000 3.1 40 22:38 04.01.2020
5254 Clear 28 1015 83 10000 2.6 40 22:20 04.01.2020
5255 Clear 28 1015 83 10000 2.6 50 21:55 04.01.2020
5256 Clear 28 1015 83 10000 2.6 50 21:37 04.01.2020
5257 Clear 27 1015 83 10000 3.1 50 21:18 04.01.2020
5258 Rain 26 1015 88 10000 2.6 40 20:41 04.01.2020
5259 Clear 27 1015 83 10000 3.6 50 20:22 04.01.2020
5260 Clouds 26 1015 88 10000 3.1 50 19:57 04.01.2020
5261 Clouds 26 1015 88 10000 3.1 50 19:39 04.01.2020
5262 Clouds 26 1015 88 10000 2.6 90 19:21 04.01.2020
5263 Clouds 25 1015 88 10000 2.1 100 18:57 04.01.2020
5264 Clouds 25 1015 88 10000 2.1 100 18:38 04.01.2020
5265 Clouds 25 1014 88 7000 2.1 90 18:19 04.01.2020
5266 Clouds 23 1014 94 10000 2.6 80 17:42 04.01.2020
5267 Clouds 24 1014 94 10000 3.1 90 17:24 04.01.2020
5268 Rain 24 1014 94 10000 2.6 80 16:59 04.01.2020
5269 Rain 24 1014 94 10000 2.6 80 16:40 04.01.2020
5270 Rain 24 1014 94 10000 1.5 90 16:22 04.01.2020
5271 Rain 24 1013 94 10000 1.5 90 15:56 04.01.2020
5272 Rain 24 1013 94 10000 1.5 90 15:38 04.01.2020
5273 Rain 24 1013 94 10000 1.5 90 15:38 04.01.2020
5274 Rain 24 1013 94 10000 2.1 90 15:18 04.01.2020
5275 Rain 25 1013 88 10000 2.1 90 14:43 04.01.2020
5276 Clouds 24 1014 94 10000 2.1 80 14:20 04.01.2020
5277 Clouds 24 1013 94 10000 3.1 80 13:59 04.01.2020
5278 Clouds 24 1013 94 10000 3.1 80 13:39 04.01.2020
5279 Clouds 25 1014 88 10000 2.6 90 13:20 04.01.2020
5280 Clouds 25 1014 94 8000 2.6 80 12:57 04.01.2020
5281 Clouds 25 1014 94 8000 2.6 80 12:39 04.01.2020
5282 Clouds 25 1014 94 10000 3.6 90 12:19 04.01.2020
5283 Clouds 25 1014 88 10000 3.1 90 11:57 04.01.2020
5284 Clouds 25 1014 88 10000 3.1 90 11:57 04.01.2020
5285 Clouds 25 1014 88 10000 3.1 90 11:38 04.01.2020
5286 Clouds 25 1014 88 10000 3.1 90 11:38 04.01.2020
5287 Clouds 25 1015 88 10000 2.1 90 11:18 04.01.2020
5288 Clouds 25 1015 88 10000 2.6 80 10:41 04.01.2020
5289 Clouds 25 1015 88 10000 2.6 90 10:22 04.01.2020
5290 Clouds 25 1015 88 10000 3.6 80 09:48 04.01.2020
5291 Clouds 25 1015 88 10000 3.6 80 09:26 04.01.2020
5292 Clouds 25 1014 88 10000 3.1 80 08:49 04.01.2020
5293 Clear 25 1014 83 10000 3.6 90 08:29 04.01.2020
5294 Clouds 25 1014 83 10000 3.1 90 07:59 04.01.2020
5295 Clouds 25 1014 83 10000 3.1 90 07:40 04.01.2020
5296 Clouds 25 1013 83 10000 5.1 90 06:46 04.01.2020
5297 Clouds 26 1012 78 10000 7.2 80 05:59 04.01.2020
5298 Clear 27 1012 69 10000 6.2 80 04:53 04.01.2020
5299 Clear 27 1012 69 10000 7.2 70 04:32 04.01.2020
5300 Clear 27 1012 69 10000 6.7 80 03:37 04.01.2020
5301 Clear 27 1012 69 10000 7.7 70 03:18 04.01.2020
5302 Clear 28 1011 69 10000 7.7 70 02:20 04.01.2020
5303 Clear 27 1011 69 10000 6.2 80 01:51 04.01.2020
5304 Clear 28 1012 69 10000 7.2 60 01:30 04.01.2020
5305 Clear 27 1012 69 10000 7.2 70 00:30 04.01.2020
5306 Clear 28 1012 69 10000 7.7 70 23:59 03.01.2020
5307 Clear 28 1012 69 10000 7.7 70 23:37 03.01.2020
5308 Clear 27 1012 69 10000 7.2 70 23:19 03.01.2020
5309 Clear 27 1012 69 10000 5.7 60 22:41 03.01.2020
5310 Clear 27 1012 69 10000 5.7 60 22:19 03.01.2020
5311 Clear 27 1012 69 10000 6.2 70 21:57 03.01.2020
5312 Clear 27 1012 69 10000 6.2 70 21:38 03.01.2020
5313 Clear 27 1012 69 10000 3.1 90 21:19 03.01.2020
5314 Clear 27 1013 69 10000 3.1 50 20:55 03.01.2020
5315 Clear 27 1013 69 10000 3.1 50 20:37 03.01.2020
5316 Clouds 26 1013 74 10000 2.1 270 20:18 03.01.2020
5317 Clouds 26 1013 74 10000 1.5 50 19:54 03.01.2020
5318 Clouds 26 1013 74 10000 1.5 50 19:36 03.01.2020
5319 Clouds 24 1013 88 10000 0.5 340 19:18 03.01.2020
5320 Clouds 23 1012 94 10000 0.5 200 18:39 03.01.2020
5321 Clouds 23 1012 94 10000 0.5 200 18:39 03.01.2020
5322 Clouds 21 1012 100 10000 1 180 18:20 03.01.2020
5323 Clouds 20 1012 100 10000 0.5 130 17:42 03.01.2020
5324 Clouds 20 1011 94 10000 0.5 120 17:22 03.01.2020
5325 Clouds 20 1011 94 10000 0.5 100 16:59 03.01.2020
5326 Clouds 20 1011 94 10000 0.5 100 16:40 03.01.2020
5327 Clouds 20 1010 94 10000 0.5 160 16:21 03.01.2020
5328 Clouds 20 1010 94 10000 0.5 100 15:42 03.01.2020
5329 Clouds 20 1010 94 10000 0.5 150 15:19 03.01.2020
5330 Clouds 20 1010 94 10000 0.5 200 14:40 03.01.2020
5331 Clouds 20 1010 94 10000 0.5 200 14:40 03.01.2020
5332 Clouds 20 1010 100 10000 0.5 140 14:20 03.01.2020
5333 Clouds 20 1010 100 10000 1 170 13:59 03.01.2020
5334 Clouds 20 1010 100 10000 1 170 13:40 03.01.2020
5335 Clouds 20 1010 100 10000 1 150 13:21 03.01.2020
5336 Clouds 20 1011 100 10000 1.5 180 12:41 03.01.2020
5337 Clouds 21 1011 94 10000 0.5 170 12:22 03.01.2020
5338 Clouds 21 1011 94 10000 1 160 11:54 03.01.2020
5339 Clouds 21 1011 94 10000 1 160 11:35 03.01.2020
5340 Clouds 21 1011 94 10000 0.5 80 10:58 03.01.2020
5341 Clouds 21 1011 94 10000 0.5 80 10:39 03.01.2020
5342 Clouds 21 1011 94 10000 1 130 10:21 03.01.2020
5343 Clouds 21 1011 94 10000 0.5 140 09:55 03.01.2020
5344 Clouds 21 1011 94 10000 0.5 140 09:37 03.01.2020
5345 Clouds 22 1011 88 10000 0.5 140 09:19 03.01.2020
5346 Clouds 22 1011 88 10000 0.5 130 08:44 03.01.2020
5347 Clouds 23 1011 83 10000 1 170 08:22 03.01.2020
5348 Clouds 24 1010 78 10000 1.5 150 07:43 03.01.2020
5349 Clouds 24 1010 83 10000 1 120 07:19 03.01.2020
5350 Clouds 24 1010 83 10000 1 110 06:59 03.01.2020
5351 Clouds 24 1010 83 10000 1 110 06:40 03.01.2020
5352 Clouds 25 1009 78 10000 1.5 90 06:22 03.01.2020
5353 Clouds 25 1009 78 10000 1.5 90 06:22 03.01.2020
5354 Clouds 25 1009 78 10000 1.5 90 06:22 03.01.2020
5355 Clouds 26 1008 69 10000 3.1 70 04:45 03.01.2020
5356 Clouds 26 1008 74 10000 3.1 20 03:38 03.01.2020
5357 Clouds 26 1008 74 10000 2.6 40 02:53 03.01.2020
5358 Clouds 26 1008 74 10000 3.1 40 01:50 03.01.2020
5359 Clouds 26 1008 74 10000 2.1 30 01:18 03.01.2020
5360 Clouds 26 1009 74 10000 2.6 360 00:34 03.01.2020
5361 Clouds 26 1009 74 10000 3.1 40 23:59 02.01.2020
5362 Clouds 26 1009 74 10000 3.1 40 23:39 02.01.2020
5363 Clouds 27 1009 74 10000 3.6 40 23:20 02.01.2020
5364 Clouds 26 1009 74 10000 3.1 40 22:58 02.01.2020
5365 Clouds 26 1009 74 10000 3.1 40 22:39 02.01.2020
5366 Clouds 26 1009 74 10000 3.1 40 22:19 02.01.2020
5367 Clouds 27 1009 69 10000 1.5 120 21:55 02.01.2020
5368 Clouds 26 1009 74 10000 2.1 200 21:37 02.01.2020
5369 Clouds 26 1009 74 10000 2.1 200 21:18 02.01.2020
5370 Clouds 26 1009 74 10000 1 110 20:55 02.01.2020
5371 Clouds 26 1009 74 10000 1 110 20:36 02.01.2020
5372 Clouds 25 1009 73 10000 1 200 20:18 02.01.2020
5373 Clouds 24 1009 78 10000 1 190 19:54 02.01.2020
5374 Clouds 24 1009 78 10000 1 190 19:36 02.01.2020
5375 Clouds 24 1009 78 10000 1 190 19:36 02.01.2020
5376 Clouds 24 1009 83 10000 0.5 180 19:18 02.01.2020
5377 Clouds 23 1009 94 10000 0.5 190 18:42 02.01.2020
5378 Clouds 22 1008 94 10000 0.5 160 18:23 02.01.2020
5379 Clouds 21 1008 94 10000 1 120 17:58 02.01.2020
5380 Clouds 21 1008 94 10000 1 120 17:38 02.01.2020
5381 Clouds 21 1007 94 10000 0.5 150 17:19 02.01.2020
5382 Clouds 21 1007 94 10000 1 160 16:57 02.01.2020
5383 Clouds 21 1007 94 10000 1 160 16:39 02.01.2020
5384 Clouds 21 1006 94 10000 0.5 110 16:20 02.01.2020
5385 Clouds 22 1006 94 10000 1 200 15:57 02.01.2020
5386 Clouds 22 1006 94 10000 1 200 15:57 02.01.2020
5387 Clouds 22 1006 94 10000 0.5 220 15:37 02.01.2020
5388 Clouds 22 1006 94 10000 0.5 220 15:19 02.01.2020
5389 Haze 22 1006 94 4600 1 130 14:55 02.01.2020
5390 Clouds 23 1006 88 10000 1 190 14:36 02.01.2020
5391 Clouds 23 1006 88 10000 1 190 14:18 02.01.2020
5392 Clouds 23 1006 88 10000 1.5 180 13:47 02.01.2020
5393 Clouds 23 1006 94 10000 1.5 180 13:29 02.01.2020
5394 Clouds 24 1006 88 10000 1.5 190 12:45 02.01.2020
5395 Clouds 24 1007 88 10000 2.1 210 12:25 02.01.2020
5396 Clouds 24 1007 88 10000 2.1 210 12:25 02.01.2020
5397 Clouds 24 1007 88 10000 2.1 210 11:44 02.01.2020
5398 Rain 23 1007 94 10000 2.6 200 11:26 02.01.2020
5399 Clouds 24 1006 88 10000 2.6 210 10:58 02.01.2020
5400 Clouds 24 1006 88 10000 2.6 210 10:38 02.01.2020
5401 Clouds 23 1006 94 10000 3.1 210 10:19 02.01.2020
5402 Rain 23 1006 94 4400 3.1 200 09:41 02.01.2020
5403 Rain 23 1006 94 8000 3.6 200 09:22 02.01.2020
5404 Rain 24 1005 88 9000 3.6 220 08:44 02.01.2020
5405 Clouds 25 1005 83 10000 4.1 230 08:25 02.01.2020
5406 Clouds 25 1004 83 10000 4.6 230 07:49 02.01.2020
5407 Clouds 25 1004 83 10000 4.6 240 07:30 02.01.2020
5408 Clouds 25 1003 88 10000 5.1 240 06:43 02.01.2020
5409 Clouds 26 1002 83 10000 7.7 250 05:58 02.01.2020
5410 Rain 27 1001 78 8000 8.2 260 04:40 02.01.2020
5411 Rain 27 1000 78 7000 9.3 270 04:21 02.01.2020
5412 Rain 27 1000 78 6000 10.8 260 02:25 02.01.2020
5413 Rain 28 1000 74 6000 11.8 270 01:57 02.01.2020
5414 Haze 27 999 74 5000 12.9 270 01:32 02.01.2020
5415 -273 0 0 0 0 0 00:52 02.01.2020
5416 Rain 27 999 74 6000 15.9 270 00:28 02.01.2020
5417 Rain 26 998 78 6000 17 280 23:47 01.01.2020
5418 Rain 27 998 74 6000 16.5 280 23:24 01.01.2020
5419 Haze 26 997 74 5000 18 280 22:39 01.01.2020
5420 Haze 27 997 78 5000 13.4 300 22:21 01.01.2020
5421 Haze 27 997 78 5000 13.4 320 21:59 01.01.2020
5422 Haze 27 997 78 5000 13.4 320 21:40 01.01.2020
5423 Haze 27 997 78 5000 11.3 330 21:20 01.01.2020
5424 Haze 27 997 78 5000 11.3 330 21:20 01.01.2020
5425 Rain 27 997 78 6000 11.8 340 20:58 01.01.2020
5426 Rain 27 997 78 6000 11.8 340 20:38 01.01.2020
5427 Rain 27 997 78 6000 11.8 340 20:38 01.01.2020
5428 Rain 27 998 83 6000 10.3 340 20:20 01.01.2020
5429 Rain 27 998 83 6000 10.3 340 20:20 01.01.2020
5430 Rain 26 997 88 6000 12.3 350 19:57 01.01.2020
5431 Rain 26 997 88 6000 12.3 350 19:38 01.01.2020
5432 Rain 27 997 88 7000 8.2 10 19:20 01.01.2020
5433 Rain 27 998 88 8000 9.3 10 18:57 01.01.2020
5434 Rain 27 998 88 8000 9.3 10 18:37 01.01.2020
5435 Rain 27 998 88 5000 8.2 10 18:19 01.01.2020
5436 Rain 27 998 88 10000 8.2 360 17:57 01.01.2020
5437 Rain 27 998 88 10000 8.2 360 17:39 01.01.2020
5438 Rain 27 998 88 8000 7.7 10 17:19 01.01.2020
5439 Rain 27 998 88 9000 9.3 20 16:56 01.01.2020
5440 Rain 27 998 88 9000 9.3 20 16:37 01.01.2020
5441 Rain 27 997 88 10000 8.7 20 16:19 01.01.2020
5442 Rain 27 997 88 10000 8.7 20 16:19 01.01.2020
5443 Rain 27 998 88 9000 7.2 30 15:54 01.01.2020
5444 Rain 27 998 88 9000 7.2 30 15:36 01.01.2020
5445 Rain 27 998 88 10000 7.2 30 15:18 01.01.2020
5446 Rain 27 999 88 10000 7.7 30 14:41 01.01.2020
5447 Rain 27 999 88 10000 7.2 20 14:22 01.01.2020
5448 Rain 27 1000 88 10000 6.7 20 13:56 01.01.2020
5449 Rain 27 1000 88 10000 6.7 20 13:56 01.01.2020
5450 Rain 27 1000 88 10000 6.7 20 13:37 01.01.2020
5451 Rain 26 1000 94 7000 6.2 20 13:19 01.01.2020
5452 Rain 27 1001 88 10000 6.2 20 12:57 01.01.2020
5453 Rain 27 1001 88 10000 6.2 20 12:39 01.01.2020
5454 Rain 27 1001 88 10000 6.2 20 12:19 01.01.2020
5455 Rain 27 1001 88 10000 6.2 30 11:55 01.01.2020
5456 Rain 27 1001 88 10000 6.2 30 11:36 01.01.2020
5457 Rain 27 1002 88 10000 4.6 40 11:18 01.01.2020
5458 Rain 27 1003 88 10000 5.1 30 10:41 01.01.2020
5459 Rain 27 1003 88 10000 5.7 30 10:21 01.01.2020
5460 Rain 26 1003 94 10000 4.1 30 09:59 01.01.2020
5461 Rain 26 1003 94 10000 4.1 30 09:38 01.01.2020
5462 Rain 26 1003 94 10000 4.1 30 09:38 01.01.2020
5463 Rain 27 1003 88 10000 4.6 30 09:19 01.01.2020
5464 Rain 26 1003 94 10000 4.1 40 08:55 01.01.2020
5465 Rain 26 1003 94 10000 4.1 40 08:55 01.01.2020
5466 Rain 26 1003 94 10000 4.1 40 08:36 01.01.2020
5467 Rain 26 1003 94 10000 4.6 50 08:18 01.01.2020
5468 Rain 26 1003 94 10000 4.6 50 07:54 01.01.2020
5469 Rain 26 1003 94 10000 4.6 50 07:35 01.01.2020
5470 Rain 26 1003 88 10000 4.1 40 06:44 01.01.2020
5471 Rain 26 1003 88 10000 5.1 40 06:20 01.01.2020
5472 Clouds 27 1003 83 10000 5.75 7 05:21 01.01.2020
5473 Clouds 26 1003 83 10000 5.7 40 03:43 01.01.2020
5474 Clouds 26 1004 88 10000 5.1 50 03:23 01.01.2020
5475 Rain 26 1004 94 10000 5.1 50 02:57 01.01.2020
5476 Rain 26 1004 94 10000 5.1 50 02:34 01.01.2020
5477 Rain 26 1005 88 10000 4.1 60 01:55 01.01.2020
5478 Rain 26 1005 88 10000 4.1 60 01:36 01.01.2020
5479 Rain 26 1005 88 10000 5.1 50 01:18 01.01.2020
5480 Rain 26 1005 88 10000 5.1 60 00:44 01.01.2020
5481 Rain 26 1005 83 10000 4.1 50 00:24 01.01.2020
5482 Rain 26 1005 83 10000 4.6 60 23:41 31.12.2019
5483 Clouds 26 1006 83 10000 4.6 60 23:21 31.12.2019
5484 Clouds 26 1006 83 10000 4.1 50 22:57 31.12.2019
5485 Clouds 26 1006 83 10000 4.1 50 22:38 31.12.2019
5486 Clouds 26 1006 83 10000 4.1 60 22:18 31.12.2019
5487 Clouds 26 1006 78 10000 4.1 60 21:55 31.12.2019
5488 Clouds 26 1006 78 10000 4.1 60 21:36 31.12.2019
5489 Rain 26 1006 83 10000 3.6 60 21:18 31.12.2019
5490 Rain 26 1007 83 10000 2.6 40 20:40 31.12.2019
5491 Rain 26 1007 83 10000 2.6 40 20:40 31.12.2019
5492 Rain 25 1007 78 10000 1.5 60 20:21 31.12.2019
5493 Rain 25 1007 78 10000 1.5 80 19:59 31.12.2019
5494 Rain 25 1007 78 10000 1.5 80 19:40 31.12.2019
5495 Rain 24 1007 83 10000 1.5 100 19:22 31.12.2019
5496 Rain 23 1007 88 10000 2.1 100 18:57 31.12.2019
5497 Rain 23 1007 88 10000 2.1 100 18:39 31.12.2019
5498 Rain 22 1007 94 10000 1 210 18:19 31.12.2019
5499 Rain 22 1007 94 10000 0.5 220 17:56 31.12.2019
5500 Rain 22 1007 94 10000 0.5 220 17:37 31.12.2019
5501 Rain 22 1006 100 10000 0.5 120 17:19 31.12.2019
5502 Rain 22 1006 100 10000 1 180 16:56 31.12.2019
5503 Rain 22 1006 100 10000 1 180 16:37 31.12.2019
5504 Rain 22 1006 100 10000 1 170 16:19 31.12.2019
5505 Rain 22 1006 100 10000 1 180 15:56 31.12.2019
5506 Rain 22 1006 100 10000 1 180 15:38 31.12.2019
5507 Rain 22 1006 100 10000 1 180 15:19 31.12.2019
5508 Rain 22 1006 100 10000 1.5 200 14:55 31.12.2019
5509 Rain 22 1006 100 10000 1.5 200 14:37 31.12.2019
5510 Rain 22 1006 94 10000 1.5 90 14:18 31.12.2019
5511 Rain 22 1007 94 10000 0.5 170 13:56 31.12.2019
5512 Rain 22 1007 94 10000 0.5 170 13:38 31.12.2019
5513 Clouds 23 1007 88 10000 1 140 13:19 31.12.2019
5514 Rain 23 1008 88 10000 1 200 12:55 31.12.2019
5515 Rain 23 1008 88 10000 1 200 12:55 31.12.2019
5516 Rain 23 1008 88 10000 1 200 12:37 31.12.2019
5517 Rain 23 1008 88 10000 1 200 12:37 31.12.2019
5518 Clouds 22 1008 94 10000 1.5 200 12:18 31.12.2019
5519 Clouds 23 1009 88 10000 1 200 11:55 31.12.2019
5520 Clouds 23 1009 88 10000 1 200 11:36 31.12.2019
5521 Clouds 23 1009 88 10000 1.5 190 11:18 31.12.2019
5522 Clouds 22 1009 94 10000 1.5 200 10:55 31.12.2019
5523 Clouds 22 1009 94 10000 1.5 200 10:37 31.12.2019
5524 Clouds 23 1009 88 10000 1 180 10:19 31.12.2019
5525 Rain 23 1009 88 10000 0.5 160 09:55 31.12.2019
5526 Rain 23 1009 88 10000 0.5 160 09:37 31.12.2019
5527 Rain 23 1009 88 10000 0.5 160 09:37 31.12.2019
5528 Clouds 23 1009 88 10000 0.5 140 09:18 31.12.2019
5529 Clouds 23 1009 88 10000 0.5 150 08:42 31.12.2019
5530 Haze 23 1009 88 2800 0.5 150 08:22 31.12.2019
5531 Clouds 24 1008 83 10000 1 150 07:45 31.12.2019
5532 Clouds 24 1008 78 10000 0.5 150 07:22 31.12.2019
5533 Clouds 25 1008 78 9000 1 200 06:51 31.12.2019
5534 Clouds 25 1008 78 10000 1.5 190 06:27 31.12.2019
5535 Clouds 25 1007 78 10000 2.1 190 04:54 31.12.2019
5536 Rain 26 1007 74 10000 2.6 240 04:24 31.12.2019
5537 Clouds 26 1007 74 10000 2.6 260 02:57 31.12.2019
5538 Clouds 26 1007 74 10000 2.6 270 02:20 31.12.2019
5539 Clouds 26 1007 74 10000 2.6 270 01:48 31.12.2019
5540 Clouds 26 1008 74 10000 3.1 270 01:29 31.12.2019
5541 Clouds 26 1008 74 10000 3.1 250 00:48 31.12.2019
5542 Rain 26 1008 74 10000 3.6 270 00:24 31.12.2019
5543 Clouds 26 1008 74 10000 4.1 260 23:58 30.12.2019
5544 Clouds 26 1008 74 10000 4.1 260 23:38 30.12.2019
5545 Clouds 26 1009 74 10000 3.6 240 23:20 30.12.2019
5546 Clouds 27 1009 74 10000 3.6 260 22:59 30.12.2019
5547 Clouds 27 1009 74 10000 3.6 260 22:40 30.12.2019
5548 Clouds 26 1009 74 10000 3.1 240 22:20 30.12.2019
5549 Clouds 26 1009 74 10000 3.1 240 22:20 30.12.2019
5550 Clouds 26 1009 74 10000 3.1 230 21:57 30.12.2019
5551 Clouds 26 1009 74 10000 3.1 230 21:39 30.12.2019
5552 Clouds 26 1009 74 10000 3.1 230 21:39 30.12.2019
5553 Clouds 27 1009 69 10000 2.1 200 21:19 30.12.2019
5554 Clouds 25 1009 78 10000 2.1 190 20:57 30.12.2019
5555 Clouds 25 1009 78 10000 2.1 190 20:39 30.12.2019
5556 Clouds 25 1009 78 10000 2.6 190 20:20 30.12.2019
5557 Clouds 25 1009 78 10000 2.1 200 19:58 30.12.2019
5558 Clouds 25 1009 78 10000 2.1 200 19:38 30.12.2019
5559 Clouds 25 1009 78 10000 2.1 200 19:19 30.12.2019
5560 Clouds 25 1009 78 10000 2.1 180 18:57 30.12.2019
5561 Clouds 25 1009 78 10000 2.1 180 18:38 30.12.2019
5562 Clouds 23 1009 88 10000 0.5 180 18:20 30.12.2019
5563 Clouds 23 1009 88 10000 1 170 17:55 30.12.2019
5564 Clouds 23 1009 88 10000 1 170 17:37 30.12.2019
5565 Clouds 22 1009 94 10000 1 200 17:18 30.12.2019
5566 Clouds 22 1008 94 10000 1 180 16:57 30.12.2019
5567 Clouds 22 1008 94 10000 1 180 16:36 30.12.2019
5568 Clouds 22 1008 94 10000 1 180 16:36 30.12.2019
5569 Clouds 23 1008 88 10000 1 180 16:18 30.12.2019
5570 Clouds 23 1008 88 10000 1 160 15:55 30.12.2019
5571 Clouds 23 1008 88 10000 1 160 15:36 30.12.2019
5572 Clouds 24 1008 83 10000 2.1 190 15:18 30.12.2019
5573 Clouds 24 1008 83 10000 2.1 180 14:42 30.12.2019
5574 Clouds 24 1008 83 10000 2.1 180 14:42 30.12.2019
5575 Clouds 24 1008 83 10000 3.6 180 14:19 30.12.2019
5576 Clouds 24 1008 83 10000 2.6 180 13:55 30.12.2019
5577 Clouds 24 1008 83 10000 2.6 180 13:37 30.12.2019
5578 Clouds 24 1008 83 10000 2.6 180 13:18 30.12.2019
5579 Clouds 24 1008 83 10000 1.5 180 12:42 30.12.2019
5580 Clouds 24 1009 83 10000 1.5 160 12:20 30.12.2019
5581 Rain 24 1009 88 6000 1.5 160 11:58 30.12.2019
5582 Rain 24 1009 88 6000 1.5 160 11:40 30.12.2019
5583 Rain 24 1010 88 10000 2.1 160 11:19 30.12.2019
5584 Rain 25 1010 83 10000 2.1 200 10:44 30.12.2019
5585 Rain 24 1010 83 10000 2.6 160 10:21 30.12.2019
5586 Rain 25 1010 78 10000 2.1 170 09:57 30.12.2019
5587 Rain 25 1010 78 10000 2.1 170 09:37 30.12.2019
5588 Rain 25 1009 78 10000 3.1 160 09:19 30.12.2019
5589 Rain 25 1009 78 10000 2.1 180 08:49 30.12.2019
5590 Rain 25 1010 83 10000 2.1 180 08:23 30.12.2019
5591 Clouds 25 1009 83 10000 3.1 170 07:55 30.12.2019
5592 Clouds 25 1009 83 10000 3.1 170 07:33 30.12.2019
5593 Clouds 25 1008 78 10000 3.6 180 06:51 30.12.2019
5594 Clouds 26 1008 78 10000 2.1 200 04:56 30.12.2019
5595 Clouds 26 1007 78 10000 1 20 03:53 30.12.2019
5596 Clouds 25 1008 78 10000 1 170 02:50 30.12.2019
5597 Clouds 25 1009 78 10000 1.5 210 02:32 30.12.2019
5598 Haze 24 1009 88 4800 1.5 180 01:50 30.12.2019
5599 Clouds 26 1009 74 10000 1 130 01:20 30.12.2019
5600 Clouds 26 1009 69 10000 2.1 150 00:43 30.12.2019
5601 Clouds 26 1009 69 10000 2.1 70 23:59 29.12.2019
5602 Clouds 26 1009 69 10000 2.1 70 23:59 29.12.2019
5603 Clouds 26 1009 69 10000 2.1 70 23:38 29.12.2019
5604 Clouds 26 1009 69 10000 4.1 90 23:20 29.12.2019
5605 Clouds 26 1008 69 10000 4.1 110 22:42 29.12.2019
5606 Clouds 26 1008 69 10000 6.2 100 22:22 29.12.2019
5607 Clouds 26 1008 69 10000 6.2 100 22:22 29.12.2019
5608 Clouds 26 1008 69 10000 4.6 100 21:57 29.12.2019
5609 Clouds 26 1008 69 10000 4.6 100 21:39 29.12.2019
5610 Clouds 24 1009 83 10000 3.6 120 21:20 29.12.2019
5611 Clouds 25 1009 78 10000 3.6 110 20:57 29.12.2019
5612 Clouds 25 1009 78 10000 3.6 110 20:38 29.12.2019
5613 Rain 25 1009 78 10000 4.6 80 20:20 29.12.2019
5614 Rain 24 1009 78 10000 6.2 80 19:58 29.12.2019
5615 Rain 24 1009 78 10000 6.2 80 19:39 29.12.2019
5616 Rain 25 1010 78 10000 3.1 100 19:20 29.12.2019
5617 Rain 25 1009 78 10000 3.6 90 18:55 29.12.2019
5618 Rain 25 1009 78 10000 3.6 90 18:37 29.12.2019
5619 Rain 25 1009 73 10000 3.1 110 18:18 29.12.2019
5620 Rain 25 1009 73 10000 2.6 130 17:56 29.12.2019
5621 Rain 25 1009 73 10000 2.6 130 17:38 29.12.2019
5622 Rain 25 1009 73 10000 3.6 110 17:19 29.12.2019
5623 Rain 24 1009 83 10000 2.6 110 16:55 29.12.2019
5624 Rain 25 1008 78 10000 4.1 110 16:36 29.12.2019
5625 Rain 25 1008 78 10000 4.1 110 16:36 29.12.2019
5626 Rain 25 1008 78 10000 4.1 110 16:18 29.12.2019
5627 Rain 25 1009 78 10000 4.1 120 15:55 29.12.2019
5628 Rain 25 1009 78 10000 4.1 120 15:37 29.12.2019
5629 Rain 25 1009 78 10000 2.6 90 15:18 29.12.2019
5630 Rain 25 1009 73 10000 1.5 130 14:55 29.12.2019
5631 Rain 25 1009 73 10000 1.5 130 14:37 29.12.2019
5632 Clouds 25 1010 78 10000 2.1 90 14:18 29.12.2019
5633 Clouds 25 1010 78 10000 4.1 100 13:41 29.12.2019
5634 Clouds 25 1010 78 10000 4.1 100 13:22 29.12.2019
5635 Clouds 25 1010 78 10000 4.1 100 12:58 29.12.2019
5636 Clouds 25 1010 78 10000 4.1 100 12:40 29.12.2019
5637 Clouds 25 1011 78 10000 3.1 100 12:22 29.12.2019
5638 Clouds 25 1011 78 10000 3.1 100 12:22 29.12.2019
5639 Clouds 25 1011 78 10000 3.6 100 11:43 29.12.2019
5640 Clouds 25 1011 78 10000 5.1 100 11:23 29.12.2019
5641 Clouds 25 1011 78 10000 4.1 90 10:59 29.12.2019
5642 Clouds 25 1011 78 10000 4.1 90 10:40 29.12.2019
5643 Clouds 25 1012 78 10000 4.6 90 10:18 29.12.2019
5644 Clouds 25 1012 78 10000 4.1 90 09:46 29.12.2019
5645 Clouds 25 1012 78 10000 4.1 90 09:28 29.12.2019
5646 Clouds 25 1012 78 10000 3.6 100 08:56 29.12.2019
5647 Clouds 25 1012 78 10000 3.6 100 08:38 29.12.2019
5648 Clouds 25 1012 78 10000 3.1 90 08:20 29.12.2019
5649 Clouds 25 1011 78 10000 4.1 90 07:43 29.12.2019
5650 Clouds 25 1011 78 10000 4.1 90 07:25 29.12.2019
5651 Clouds 25 1011 73 10000 5.1 80 06:28 29.12.2019
5652 Clouds 26 1011 69 10000 7.2 80 05:55 29.12.2019
5653 Clouds 26 1011 74 10000 6.7 80 04:59 29.12.2019
5654 Clouds 26 1011 74 10000 6.7 70 04:30 29.12.2019
5655 Clouds 27 1011 69 10000 6.7 70 03:32 29.12.2019
5656 Clouds 27 1010 65 10000 7.2 70 02:27 29.12.2019
5657 Clouds 27 1011 69 10000 7.7 80 01:47 29.12.2019
5658 Clouds 27 1011 65 10000 7.2 90 01:28 29.12.2019
5659 Clouds 26 1011 69 10000 7.2 80 00:45 29.12.2019
5660 Clouds 27 1011 69 10000 7.2 80 00:24 29.12.2019
5661 Clouds 27 1012 69 10000 7.2 80 23:46 28.12.2019
5662 Clouds 27 1012 65 10000 8.2 70 23:19 28.12.2019
5663 Clouds 26 1012 74 10000 8.2 70 22:59 28.12.2019
5664 Clouds 26 1012 74 10000 8.2 70 22:37 28.12.2019
5665 Clouds 26 1012 69 10000 8.2 80 22:18 28.12.2019
5666 Clouds 26 1012 69 10000 7.7 70 21:55 28.12.2019
5667 Clouds 26 1012 69 10000 7.7 70 21:37 28.12.2019
5668 Clouds 26 1012 69 10000 7.2 70 21:19 28.12.2019
5669 Clouds 26 1012 69 10000 7.2 70 20:40 28.12.2019
5670 Clouds 26 1012 69 10000 7.7 70 20:22 28.12.2019
5671 Clouds 26 1012 69 10000 7.7 80 19:59 28.12.2019
5672 Clouds 26 1012 69 10000 7.7 80 19:40 28.12.2019
5673 Clouds 25 1012 78 10000 4.6 80 19:22 28.12.2019
5674 Clouds 24 1012 78 10000 2.6 100 18:59 28.12.2019
5675 Clouds 24 1012 78 10000 2.6 100 18:40 28.12.2019
5676 Clouds 23 1012 78 10000 2.1 90 18:19 28.12.2019
5677 Clouds 23 1011 78 10000 3.1 90 17:56 28.12.2019
5678 Clouds 23 1011 78 10000 3.1 90 17:38 28.12.2019
5679 Clouds 23 1011 78 10000 3.1 90 17:18 28.12.2019
5680 Clouds 23 1011 78 10000 3.1 90 17:18 28.12.2019
5681 Clouds 23 1011 78 10000 3.1 90 16:46 28.12.2019
5682 Clouds 23 1011 78 10000 3.1 90 16:26 28.12.2019
5683 Clouds 23 1011 78 10000 3.1 90 16:26 28.12.2019
5684 Clouds 23 1011 78 10000 3.1 90 16:26 28.12.2019
5685 Clouds 23 1011 78 10000 3.1 90 15:47 28.12.2019
5686 Clouds 23 1011 78 10000 4.1 90 15:24 28.12.2019
5687 Clouds 23 1010 78 10000 5.1 90 14:59 28.12.2019
5688 Clouds 23 1010 78 10000 5.1 90 14:39 28.12.2019
5689 Clouds 23 1011 78 10000 4.6 90 14:20 28.12.2019
5690 Clouds 23 1011 78 10000 5.1 90 13:56 28.12.2019
5691 Clouds 23 1011 78 10000 5.1 90 13:37 28.12.2019
5692 Clouds 23 1011 78 10000 5.1 90 13:18 28.12.2019
5693 Clouds 23 1011 78 10000 4.6 90 12:42 28.12.2019
5694 Clouds 23 1012 78 10000 5.1 90 12:23 28.12.2019
5695 Clouds 23 1012 78 10000 4.6 90 11:56 28.12.2019
5696 Clouds 23 1012 78 10000 4.6 90 11:37 28.12.2019
5697 Clouds 24 1013 69 10000 5.1 90 11:18 28.12.2019
5698 Clouds 24 1013 69 10000 5.7 90 10:43 28.12.2019
5699 Clouds 24 1013 69 10000 4.6 90 10:21 28.12.2019
5700 Clouds 24 1013 69 10000 4.6 90 09:57 28.12.2019
5701 Clouds 24 1013 69 10000 4.6 90 09:39 28.12.2019
5702 Clouds 24 1012 69 10000 4.6 90 09:19 28.12.2019
5703 Clouds 24 1012 69 10000 3.6 90 08:44 28.12.2019
5704 Clouds 24 1012 69 10000 2.1 100 08:26 28.12.2019
5705 Rain 24 1012 69 10000 4.1 100 07:49 28.12.2019
5706 Rain 24 1012 69 10000 4.1 90 07:27 28.12.2019
5707 Rain 24 1012 73 10000 3.1 100 06:21 28.12.2019
5708 Rain 26 1011 61 10000 5.7 90 03:59 28.12.2019
5709 Rain 26 1011 61 10000 5.7 90 03:38 28.12.2019
5710 Rain 26 1011 65 10000 6.7 80 02:48 28.12.2019
5711 Rain 27 1011 65 10000 6.7 70 01:59 28.12.2019
5712 Clouds 27 1011 57 10000 7.2 80 01:29 28.12.2019
5713 Rain 26 1011 61 10000 7.2 80 00:54 28.12.2019
5714 Rain 26 1011 61 10000 7.2 80 00:36 28.12.2019
5715 Rain 27 1011 65 10000 7.2 70 00:18 28.12.2019
5716 Rain 26 1012 65 10000 6.7 80 23:42 27.12.2019
5717 Clouds 26 1012 65 10000 6.7 60 23:19 27.12.2019
5718 Clouds 26 1012 65 10000 6.2 70 22:57 27.12.2019
5719 Clouds 26 1012 65 10000 6.2 70 22:38 27.12.2019
5720 Clouds 26 1012 65 10000 6.2 70 22:20 27.12.2019
5721 Clouds 26 1013 61 10000 5.1 70 21:44 27.12.2019
5722 Rain 25 1013 65 10000 5.7 70 21:25 27.12.2019
5723 Clouds 25 1013 69 10000 4.6 70 20:58 27.12.2019
5724 Clouds 25 1013 69 10000 4.6 70 20:40 27.12.2019
5725 Clear 26 1013 65 10000 3.1 100 20:21 27.12.2019
5726 Clear 25 1013 69 10000 2.1 100 19:42 27.12.2019
5727 Clear 24 1013 73 10000 3.1 100 19:20 27.12.2019
5728 Clear 23 1012 78 10000 1 140 18:58 27.12.2019
5729 Clear 23 1012 78 10000 1 140 18:37 27.12.2019
5730 Clear 21 1012 83 10000 1.5 120 18:19 27.12.2019
5731 Clear 20 1012 82 10000 1.5 120 17:56 27.12.2019
5732 Clear 20 1012 82 10000 1.5 120 17:38 27.12.2019
5733 Rain 18 1011 93 10000 1 140 17:18 27.12.2019
5734 Rain 18 1011 93 10000 1 140 16:44 27.12.2019
5735 Rain 19 1011 93 10000 1 160 16:26 27.12.2019
5736 Rain 20 1011 82 10000 1 200 15:59 27.12.2019
5737 Rain 20 1011 82 10000 1 200 15:40 27.12.2019
5738 Rain 20 1011 82 10000 0.5 110 15:20 27.12.2019
5739 Rain 22 1011 78 10000 1.5 110 14:56 27.12.2019
5740 Rain 22 1011 78 10000 1.5 110 14:38 27.12.2019
5741 Rain 22 1012 78 10000 1.5 130 14:20 27.12.2019
5742 Rain 21 1012 83 10000 1.5 110 13:47 27.12.2019
5743 Rain 21 1012 83 10000 1 140 13:24 27.12.2019
5744 Rain 22 1013 78 10000 2.1 120 12:56 27.12.2019
5745 Rain 22 1013 78 10000 2.1 120 12:37 27.12.2019
5746 Rain 21 1013 83 10000 1 130 12:18 27.12.2019
5747 Rain 21 1013 83 10000 1 130 12:18 27.12.2019
5748 Rain 21 1013 83 10000 0.5 130 11:42 27.12.2019
5749 Clear 22 1013 78 10000 1.5 130 11:20 27.12.2019
5750 Clear 22 1013 78 10000 1 140 10:47 27.12.2019
5751 Clear 23 1013 73 10000 2.1 120 10:25 27.12.2019
5752 Clear 23 1013 73 10000 2.6 120 09:59 27.12.2019
5753 Clear 23 1013 73 10000 2.6 120 09:39 27.12.2019
5754 Clear 22 1013 78 10000 1.5 120 09:21 27.12.2019
5755 Clear 22 1013 78 10000 1.5 120 08:49 27.12.2019
5756 Clear 22 1012 78 10000 1.5 110 08:30 27.12.2019
5757 Rain 22 1012 78 10000 0.5 120 07:48 27.12.2019
5758 Rain 23 1012 73 10000 1 130 07:26 27.12.2019
5759 Rain 24 1012 69 10000 3.1 90 06:33 27.12.2019
5760 Clear 25 1011 65 10000 4.6 90 04:51 27.12.2019
5761 Clear 25 1011 65 10000 3.6 100 02:35 27.12.2019
5762 Clear 26 1011 65 10000 5.7 90 01:48 27.12.2019
5763 Clear 26 1011 65 10000 6.7 90 01:23 27.12.2019
5764 Clear 25 1011 69 10000 7.7 80 00:51 27.12.2019
5765 Clear 25 1011 69 10000 7.7 80 00:33 27.12.2019
5766 Clear 25 1012 69 10000 4.1 100 23:56 26.12.2019
5767 Clear 25 1012 69 10000 4.1 100 23:38 26.12.2019
5768 Clear 25 1012 69 10000 5.1 80 23:20 26.12.2019
5769 Clear 25 1012 65 10000 6.2 90 22:41 26.12.2019
5770 Clear 25 1013 69 10000 6.2 100 22:19 26.12.2019
5771 Clear 24 1013 73 10000 4.6 110 21:40 26.12.2019
5772 Clear 24 1013 73 10000 4.1 110 21:22 26.12.2019
5773 Clear 24 1013 78 10000 1.5 120 20:59 26.12.2019
5774 Clear 24 1013 78 10000 1.5 120 20:41 26.12.2019
5775 Rain 22 1013 88 10000 1.5 50 20:22 26.12.2019
5776 Rain 23 1013 73 10000 4.1 100 19:57 26.12.2019
5777 Rain 23 1013 73 10000 4.1 100 19:38 26.12.2019
5778 Rain 23 1013 78 10000 3.1 90 19:20 26.12.2019
5779 Rain 22 1013 88 10000 1.5 100 18:57 26.12.2019
5780 Rain 22 1013 88 10000 1.5 100 18:37 26.12.2019
5781 Rain 22 1013 83 10000 2.6 110 18:18 26.12.2019
5782 Rain 22 1012 83 10000 3.1 120 17:42 26.12.2019
5783 Rain 23 1012 78 10000 1.5 140 17:22 26.12.2019
5784 Rain 22 1011 83 10000 1.5 140 16:50 26.12.2019
5785 Rain 23 1011 78 10000 1 120 16:28 26.12.2019
5786 Rain 22 1011 83 10000 1.5 120 15:59 26.12.2019
5787 Rain 22 1011 83 10000 1.5 120 15:40 26.12.2019
5788 Rain 23 1011 78 10000 2.6 100 15:19 26.12.2019
5789 Rain 23 1011 78 10000 3.1 100 14:42 26.12.2019
5790 Rain 23 1011 78 10000 3.6 100 14:23 26.12.2019
5791 Rain 23 1011 78 10000 3.6 100 13:57 26.12.2019
5792 Rain 23 1011 78 10000 3.6 100 13:39 26.12.2019
5793 Rain 24 1012 73 10000 3.6 100 13:18 26.12.2019
5794 Rain 23 1012 78 10000 2.6 90 12:45 26.12.2019
5795 Rain 24 1012 73 10000 3.1 110 12:25 26.12.2019
5796 Rain 24 1013 73 10000 4.1 100 11:59 26.12.2019
5797 Rain 24 1013 73 10000 4.1 100 11:40 26.12.2019
5798 Rain 24 1013 73 10000 4.1 100 11:21 26.12.2019
5799 Rain 24 1013 73 10000 5.1 100 10:50 26.12.2019
5800 Rain 24 1013 73 10000 2.6 110 10:27 26.12.2019
5801 Rain 23 1013 73 10000 2.1 110 09:55 26.12.2019
5802 Rain 23 1013 73 10000 2.1 110 09:36 26.12.2019
5803 Rain 24 1013 69 10000 2.6 110 09:18 26.12.2019
5804 Rain 24 1013 69 10000 3.6 100 08:39 26.12.2019
5805 Clear 24 1012 64 10000 2.6 110 08:21 26.12.2019
5806 Clear 24 1012 69 10000 2.6 110 07:41 26.12.2019
5807 Clear 24 1012 69 10000 3.1 110 07:19 26.12.2019
5808 Clear 24 1012 69 10000 2.6 110 06:37 26.12.2019
5809 Clear 25 1012 65 10000 3.1 110 06:19 26.12.2019
5810 Clear 25 1011 65 10000 4.1 100 05:41 26.12.2019
5811 Clear 25 1011 65 10000 5.7 100 04:33 26.12.2019
5812 Clear 26 1011 61 10000 5.7 100 03:31 26.12.2019
5813 Clear 26 1011 61 10000 5.7 100 02:46 26.12.2019
5814 Clear 26 1011 61 10000 6.2 100 02:27 26.12.2019
5815 Rain 26 1011 61 10000 5.7 110 01:44 26.12.2019
5816 Rain 26 1012 65 10000 5.7 100 01:24 26.12.2019
5817 Rain 27 1012 61 10000 8.7 70 00:44 26.12.2019
5818 Rain 26 1012 65 10000 7.7 80 00:23 26.12.2019
5819 Rain 26 1012 65 10000 7.7 80 23:57 25.12.2019
5820 Rain 26 1012 65 10000 7.7 80 23:36 25.12.2019
5821 Clear 26 1012 65 10000 7.2 90 23:18 25.12.2019
5822 Clear 26 1013 69 10000 7.7 90 22:55 25.12.2019
5823 Clear 26 1013 69 10000 7.7 90 22:37 25.12.2019
5824 Clear 26 1013 69 10000 5.7 90 22:18 25.12.2019
5825 Rain 24 1013 78 10000 6.2 90 21:40 25.12.2019
5826 Clear 23 1013 83 10000 5.1 80 21:22 25.12.2019
5827 Clear 24 1013 69 10000 4.6 110 20:58 25.12.2019
5828 Clear 24 1013 69 10000 4.6 110 20:40 25.12.2019
5829 Clear 24 1013 73 10000 4.1 90 20:18 25.12.2019
5830 Clear 23 1013 78 10000 5.1 100 19:44 25.12.2019
5831 Clear 23 1013 78 10000 4.6 100 19:25 25.12.2019
5832 Rain 23 1013 83 6000 6.2 100 18:59 25.12.2019
5833 Rain 23 1013 83 6000 6.2 100 18:39 25.12.2019
5834 Clear 23 1012 78 10000 4.6 110 18:20 25.12.2019
5835 Clear 23 1012 83 10000 4.6 100 17:43 25.12.2019
5836 Rain 23 1011 78 10000 3.6 120 17:21 25.12.2019
5837 Clear 23 1011 73 10000 2.1 100 16:59 25.12.2019
5838 Clear 23 1011 73 10000 2.1 100 16:39 25.12.2019
5839 Clear 24 1011 69 10000 3.6 110 16:19 25.12.2019
5840 Clear 24 1011 73 10000 4.1 100 15:57 25.12.2019
5841 Clear 24 1011 73 10000 4.1 100 15:39 25.12.2019
5842 Clear 23 1011 78 10000 2.6 100 15:20 25.12.2019
5843 Clear 24 1011 78 10000 3.6 100 14:58 25.12.2019
5844 Clear 24 1011 78 10000 3.6 100 14:39 25.12.2019
5845 Clear 24 1011 78 10000 3.6 100 14:39 25.12.2019
5846 Clear 24 1011 78 10000 3.6 100 14:39 25.12.2019
5847 Clear 24 1011 78 10000 3.6 100 14:39 25.12.2019
5848 Clear 24 1011 73 10000 3.6 100 14:20 25.12.2019
5849 Clear 24 1012 73 10000 3.6 100 13:46 25.12.2019
5850 Clear 24 1012 73 10000 4.1 100 13:22 25.12.2019
5851 Clear 24 1012 73 10000 5.1 100 12:58 25.12.2019
5852 Clear 24 1012 73 10000 5.1 100 12:38 25.12.2019
5853 Clear 24 1012 73 10000 5.7 90 12:20 25.12.2019
5854 Clear 24 1013 73 10000 6.2 90 11:43 25.12.2019
5855 Rain 23 1013 83 10000 4.6 90 11:23 25.12.2019
5856 Rain 23 1013 83 6000 5.1 100 10:59 25.12.2019
5857 Rain 23 1013 83 6000 5.1 100 10:37 25.12.2019
5858 Rain 24 1013 73 10000 4.6 90 10:19 25.12.2019
5859 Rain 24 1013 78 10000 4.6 100 09:45 25.12.2019
5860 Rain 24 1013 78 10000 5.7 100 09:27 25.12.2019
5861 Rain 24 1013 73 10000 6.7 100 08:47 25.12.2019
5862 Rain 24 1012 73 10000 6.7 90 08:28 25.12.2019
5863 Clouds 24 1012 73 10000 6.7 100 07:48 25.12.2019
5864 Clouds 25 1012 73 10000 6.7 110 07:29 25.12.2019
5865 Clouds 25 1011 69 10000 5.7 100 06:49 25.12.2019
5866 Clouds 25 1011 69 10000 4.6 100 06:22 25.12.2019
5867 Clouds 26 1010 65 10000 6.2 90 04:50 25.12.2019
5868 Clouds 26 1010 69 10000 6.7 90 04:26 25.12.2019
5869 Clouds 26 1010 69 10000 7.7 90 03:58 25.12.2019
5870 Clouds 26 1010 69 10000 7.7 90 03:40 25.12.2019
5871 Clouds 26 1010 65 10000 8.7 80 02:39 25.12.2019
5872 Clouds 26 1010 65 10000 9.8 90 01:58 25.12.2019
5873 Clouds 26 1011 74 10000 8.7 90 01:25 25.12.2019
5874 Clouds 26 1011 74 10000 8.7 90 00:48 25.12.2019
5875 Clouds 27 1011 65 10000 9.3 90 00:28 25.12.2019
5876 Clouds 27 1011 61 10000 10.3 80 23:55 24.12.2019
5877 Clouds 27 1011 61 10000 10.3 80 23:36 24.12.2019
5878 Clouds 27 1011 65 10000 9.8 90 23:18 24.12.2019
5879 Clouds 27 1011 65 10000 11.3 80 22:38 24.12.2019
5880 Clouds 26 1011 69 10000 9.8 90 22:20 24.12.2019
5881 Clouds 26 1011 69 10000 9.8 90 22:20 24.12.2019
5882 Clouds 27 1011 69 10000 9.8 90 21:42 24.12.2019
5883 Clouds 26 1011 74 10000 10.8 80 21:22 24.12.2019
5884 Clouds 26 1011 74 10000 10.8 80 20:45 24.12.2019
5885 Clouds 26 1011 74 10000 10.8 80 20:24 24.12.2019
5886 Clouds 26 1011 69 10000 10.8 80 19:57 24.12.2019
5887 Clouds 26 1011 69 10000 10.8 80 19:38 24.12.2019
5888 Clouds 25 1011 78 10000 9.8 80 19:18 24.12.2019
5889 Clouds 25 1011 73 10000 9.8 90 18:42 24.12.2019
5890 Clouds 25 1010 73 10000 8.2 90 18:19 24.12.2019
5891 Clouds 25 1010 73 10000 8.2 90 17:45 24.12.2019
5892 Clouds 24 1010 78 10000 8.7 90 17:23 24.12.2019
5893 Clouds 25 1010 73 10000 7.2 90 16:58 24.12.2019
5894 Clouds 25 1010 73 10000 7.2 90 16:58 24.12.2019
5895 Clouds 25 1010 73 10000 7.2 90 16:40 24.12.2019
5896 Clouds 25 1010 73 10000 6.7 90 16:21 24.12.2019
5897 Clouds 25 1010 73 10000 5.1 90 15:58 24.12.2019
5898 Clouds 25 1010 73 10000 5.1 90 15:37 24.12.2019
5899 Clouds 25 1010 73 10000 9.3 80 15:19 24.12.2019
5900 Clouds 25 1010 78 10000 8.2 90 14:58 24.12.2019
5901 Clouds 25 1010 78 10000 8.2 90 14:40 24.12.2019
5902 Clouds 25 1010 78 10000 8.2 90 14:40 24.12.2019
5903 Clouds 25 1010 78 10000 7.2 90 14:21 24.12.2019
5904 Clouds 25 1010 73 10000 7.2 90 13:56 24.12.2019
5905 Clouds 25 1010 73 10000 7.2 90 13:38 24.12.2019
5906 Clouds 25 1010 73 10000 5.1 90 13:19 24.12.2019
5907 Clouds 25 1010 73 10000 7.2 90 12:56 24.12.2019
5908 Clouds 25 1010 73 10000 7.2 90 12:37 24.12.2019
5909 Clouds 25 1010 73 10000 8.2 90 12:19 24.12.2019
5910 Clouds 25 1010 73 10000 8.2 90 12:19 24.12.2019
5911 Clouds 25 1011 73 10000 8.2 80 11:56 24.12.2019
5912 Clouds 25 1011 73 10000 8.2 80 11:37 24.12.2019
5913 Clouds 25 1011 73 10000 8.2 80 11:37 24.12.2019
5914 Clouds 25 1011 73 10000 8.2 80 11:37 24.12.2019
5915 Clouds 25 1011 73 10000 9.3 90 11:19 24.12.2019
5916 Clouds 25 1011 73 10000 8.2 90 10:56 24.12.2019
5917 Clouds 25 1011 73 10000 8.2 90 10:56 24.12.2019
5918 Clouds 25 1011 73 10000 8.2 90 10:37 24.12.2019
5919 Clouds 25 1011 73 10000 9.3 80 10:19 24.12.2019
5920 Clouds 25 1011 78 10000 9.3 90 09:55 24.12.2019
5921 Clouds 25 1011 78 10000 9.3 90 09:37 24.12.2019
5922 Clouds 25 1011 78 10000 9.3 90 09:37 24.12.2019
5923 Clouds 25 1010 78 10000 10.3 80 09:19 24.12.2019
5924 Clouds 25 1010 73 10000 9.8 80 08:45 24.12.2019
5925 Clouds 25 1010 73 10000 9.3 80 08:24 24.12.2019
5926 Clouds 24 1010 73 10000 7.2 90 07:46 24.12.2019
5927 Clouds 25 1010 69 10000 7.2 90 07:26 24.12.2019
5928 Clouds 24 1009 78 10000 7.7 90 06:58 24.12.2019
5929 Clouds 24 1009 78 10000 7.7 90 06:38 24.12.2019
5930 Clouds 25 1009 73 10000 8.7 80 06:19 24.12.2019
5931 Clouds 25 1008 78 10000 10.8 80 05:27 24.12.2019
5932 Clouds 25 1008 83 10000 10.3 80 04:59 24.12.2019
5933 Clouds 26 1008 74 10000 9.3 90 03:50 24.12.2019
5934 Clouds 26 1008 74 10000 12.3 80 03:22 24.12.2019
5935 Clouds 27 1008 69 10000 12.9 80 02:23 24.12.2019
5936 Rain 26 1008 78 10000 12.3 80 01:50 24.12.2019
5937 Rain 26 1009 78 10000 12.9 80 01:22 24.12.2019
5938 Rain 25 1009 73 10000 10.8 90 00:45 24.12.2019
5939 Rain 25 1010 73 10000 9.8 90 00:24 24.12.2019
5940 Rain 24 1010 83 10000 11.3 80 23:56 23.12.2019
5941 Rain 24 1010 83 10000 11.3 80 23:37 23.12.2019
5942 Rain 24 1010 83 10000 11.3 80 23:37 23.12.2019
5943 Rain 24 1010 78 10000 10.3 90 23:19 23.12.2019
5944 Rain 25 1010 83 10000 8.7 90 22:56 23.12.2019
5945 Rain 25 1010 83 10000 8.7 90 22:56 23.12.2019
5946 Rain 25 1010 83 10000 8.7 90 22:36 23.12.2019
5947 Rain 25 1010 83 10000 8.7 90 22:36 23.12.2019
5948 Rain 25 1010 73 10000 10.3 90 22:18 23.12.2019
5949 Drizzle 25 1010 78 10000 9.8 90 21:55 23.12.2019
5950 Drizzle 25 1010 78 10000 9.8 90 21:36 23.12.2019
5951 Drizzle 25 1010 78 10000 9.8 90 21:36 23.12.2019
5952 Rain 24 1010 83 8000 9.3 90 21:18 23.12.2019
5953 Rain 23 1010 94 4700 6.7 100 20:56 23.12.2019
5954 Rain 23 1010 94 4700 6.7 100 20:56 23.12.2019
5955 Rain 23 1010 94 4700 6.7 100 20:38 23.12.2019
5956 Rain 23 1010 94 4900 6.2 100 20:18 23.12.2019
5957 Rain 23 1010 94 4400 5.7 120 19:55 23.12.2019
5958 Rain 23 1010 94 4400 5.7 120 19:36 23.12.2019
5959 Rain 24 1009 88 10000 7.7 90 19:18 23.12.2019
5960 Rain 23 1009 94 10000 11.3 90 18:55 23.12.2019
5961 Rain 23 1009 94 10000 11.3 90 18:36 23.12.2019
5962 Rain 23 1008 94 3500 11.3 80 18:18 23.12.2019
5963 Rain 23 1008 100 1900 10.3 90 17:55 23.12.2019
5964 Rain 23 1008 100 1900 10.3 90 17:37 23.12.2019
5965 Rain 23 1008 100 1900 10.3 90 17:37 23.12.2019
5966 Rain 24 1008 94 3700 8.7 80 17:18 23.12.2019
5967 Rain 24 1008 94 4100 9.8 80 16:42 23.12.2019
5968 Rain 24 1008 94 5000 10.3 60 16:19 23.12.2019
5969 Rain 24 1008 94 5000 10.3 60 16:19 23.12.2019
5970 Rain 24 1008 94 8000 9.8 60 15:58 23.12.2019
5971 Rain 24 1008 94 8000 9.8 60 15:38 23.12.2019
5972 Rain 24 1008 100 9000 9.8 70 15:19 23.12.2019
5973 Rain 24 1008 94 5000 6.7 60 14:57 23.12.2019
5974 Rain 24 1008 94 5000 6.7 60 14:39 23.12.2019
5975 Rain 24 1008 94 10000 7.2 60 14:20 23.12.2019
5976 Rain 24 1008 94 10000 7.2 60 13:57 23.12.2019
5977 Rain 24 1008 94 10000 7.2 60 13:39 23.12.2019
5978 Rain 24 1009 94 8000 6.2 60 13:21 23.12.2019
5979 Rain 24 1010 94 8000 4.6 50 12:55 23.12.2019
5980 Rain 24 1010 94 8000 4.6 50 12:37 23.12.2019
5981 Rain 24 1010 94 8000 4.6 50 12:37 23.12.2019
5982 Rain 24 1010 94 10000 4.6 60 12:18 23.12.2019
5983 Rain 23 1010 100 10000 3.6 70 11:42 23.12.2019
5984 Rain 23 1010 94 10000 4.1 50 11:24 23.12.2019
5985 Rain 23 1011 94 10000 3.6 50 10:56 23.12.2019
5986 Rain 23 1011 94 10000 3.6 50 10:38 23.12.2019
5987 Rain 23 1011 94 10000 3.6 50 10:38 23.12.2019
5988 Rain 23 1011 100 10000 4.1 60 10:20 23.12.2019
5989 Rain 23 1011 100 10000 4.6 70 09:58 23.12.2019
5990 Rain 23 1011 100 10000 4.6 70 09:39 23.12.2019
5991 Rain 23 1011 100 10000 4.6 70 09:39 23.12.2019
5992 Rain 24 1010 94 10000 3.1 60 09:19 23.12.2019
5993 Rain 23 1010 100 10000 3.1 40 08:55 23.12.2019
5994 Rain 23 1010 100 10000 3.1 40 08:37 23.12.2019
5995 Rain 23 1010 100 7000 3.1 70 08:18 23.12.2019
5996 Rain 23 1010 100 5000 2.6 70 07:42 23.12.2019
5997 Rain 23 1010 100 5000 2.6 70 07:19 23.12.2019
5998 Rain 23 1010 100 10000 1 110 06:44 23.12.2019
5999 Rain 23 1009 100 10000 1 180 06:22 23.12.2019
6000 Rain 23 1009 100 8000 1 200 05:46 23.12.2019
6001 Rain 24 1008 94 5000 3.1 350 04:55 23.12.2019
6002 Rain 25 1007 94 10000 2.6 90 03:59 23.12.2019
6003 Rain 25 1008 88 10000 3.6 90 02:48 23.12.2019
6004 Rain 25 1007 88 10000 6.7 80 02:20 23.12.2019
6005 Rain 26 1008 83 10000 6.7 80 01:50 23.12.2019
6006 Rain 25 1008 94 10000 7.2 80 01:31 23.12.2019
6007 Rain 25 1008 94 7000 5.7 80 00:48 23.12.2019
6008 Rain 25 1009 94 10000 5.7 80 00:27 23.12.2019
6009 Rain 25 1009 88 10000 5.7 80 23:56 22.12.2019
6010 Rain 25 1009 88 10000 5.7 80 23:37 22.12.2019
6011 Rain 25 1009 88 10000 6.2 80 23:19 22.12.2019
6012 Rain 25 1009 88 10000 6.7 80 22:42 22.12.2019
6013 Rain 25 1009 88 10000 6.7 80 22:42 22.12.2019
6014 Rain 25 1009 88 10000 6.7 80 22:42 22.12.2019
6015 Rain 25 1009 88 10000 6.7 80 22:23 22.12.2019
6016 Rain 24 1010 88 10000 6.7 80 21:59 22.12.2019
6017 Rain 24 1010 88 10000 6.7 80 21:40 22.12.2019
6018 Rain 24 1010 94 10000 7.2 80 21:21 22.12.2019
6019 Rain 24 1010 94 10000 7.2 80 21:21 22.12.2019
6020 Drizzle 25 1010 94 10000 6.7 80 20:59 22.12.2019
6021 Drizzle 25 1010 94 10000 6.7 80 20:39 22.12.2019
6022 Rain 25 1009 94 10000 6.7 80 20:19 22.12.2019
6023 Rain 25 1009 88 10000 5.7 90 19:57 22.12.2019
6024 Rain 25 1009 88 10000 5.7 90 19:39 22.12.2019
6025 Rain 25 1009 94 10000 6.7 80 19:20 22.12.2019
6026 Rain 25 1009 88 10000 5.1 80 18:42 22.12.2019
6027 Rain 24 1009 94 10000 5.1 80 18:24 22.12.2019
6028 Drizzle 24 1008 94 10000 5.1 90 17:57 22.12.2019
6029 Drizzle 24 1008 94 10000 5.1 90 17:39 22.12.2019
6030 Rain 24 1008 94 10000 4.6 90 17:19 22.12.2019
6031 Rain 24 1008 94 10000 4.6 90 17:19 22.12.2019
6032 Rain 24 1008 94 10000 5.1 80 16:57 22.12.2019
6033 Rain 24 1008 94 10000 5.1 80 16:57 22.12.2019
6034 Rain 24 1008 94 10000 5.1 80 16:39 22.12.2019
6035 Rain 24 1008 94 10000 5.1 90 16:21 22.12.2019
6036 Rain 24 1007 94 10000 5.1 100 15:56 22.12.2019
6037 Rain 24 1007 94 10000 5.1 100 15:56 22.12.2019
6038 Rain 24 1007 94 10000 5.1 100 15:38 22.12.2019
6039 Rain 24 1007 94 10000 5.7 90 15:19 22.12.2019
6040 Rain 24 1008 94 10000 5.1 90 14:55 22.12.2019
6041 Rain 24 1008 94 10000 5.1 90 14:37 22.12.2019
6042 Rain 24 1008 94 10000 4.6 80 14:18 22.12.2019
6043 Rain 24 1008 88 10000 4.1 80 13:55 22.12.2019
6044 Rain 24 1008 88 10000 4.1 80 13:36 22.12.2019
6045 Rain 24 1008 94 10000 4.1 90 13:18 22.12.2019
6046 Rain 24 1008 94 10000 4.1 90 13:18 22.12.2019
6047 Rain 24 1009 94 10000 3.6 80 12:55 22.12.2019
6048 Rain 24 1009 94 10000 3.6 80 12:37 22.12.2019
6049 Rain 24 1009 94 10000 4.1 90 12:18 22.12.2019
6050 Rain 24 1009 94 10000 4.1 90 12:18 22.12.2019
6051 Rain 24 1009 94 10000 4.6 80 11:54 22.12.2019
6052 Rain 24 1009 94 10000 4.6 80 11:36 22.12.2019
6053 Rain 24 1010 94 10000 4.1 80 11:18 22.12.2019
6054 Rain 24 1010 94 10000 3.6 80 10:54 22.12.2019
6055 Rain 24 1010 94 10000 3.6 80 10:36 22.12.2019
6056 Rain 23 1010 100 10000 3.1 90 10:18 22.12.2019
6057 Drizzle 24 1010 94 10000 4.6 70 09:40 22.12.2019
6058 Rain 24 1010 94 10000 4.6 60 09:22 22.12.2019
6059 Rain 24 1010 94 10000 5.1 70 08:59 22.12.2019
6060 Rain 24 1010 94 10000 5.1 70 08:38 22.12.2019
6061 Rain 24 1010 94 10000 4.1 60 08:20 22.12.2019
6062 Rain 23 1010 100 10000 4.6 50 07:38 22.12.2019
6063 Rain 24 1009 94 6000 5.7 40 07:20 22.12.2019
6064 Rain 24 1009 94 6000 5.1 60 06:40 22.12.2019
6065 Rain 24 1008 94 4000 6.7 80 05:54 22.12.2019
6066 Rain 24 1008 94 9000 4.6 60 05:21 22.12.2019
6067 Rain 24 1008 100 3800 5.7 20 04:29 22.12.2019
6068 Rain 24 1007 100 10000 6.2 60 03:53 22.12.2019
6069 Drizzle 24 1007 100 6000 8.7 80 02:40 22.12.2019
6070 Rain 24 1008 100 3600 8.2 80 01:42 22.12.2019
6071 Rain 25 1008 94 9000 8.2 70 01:22 22.12.2019
6072 Rain 25 1008 94 4400 8.2 80 00:45 22.12.2019
6073 Rain 25 1008 94 4400 8.7 70 00:22 22.12.2019
6074 Rain 25 1008 94 6000 8.2 80 23:55 21.12.2019
6075 Rain 25 1008 94 6000 8.2 80 23:37 21.12.2019
6076 Rain 25 1008 94 5000 7.7 80 23:18 21.12.2019
6077 Rain 25 1008 94 10000 9.8 80 22:40 21.12.2019
6078 Rain 25 1008 94 10000 9.8 80 22:40 21.12.2019
6079 Rain 25 1008 94 8000 8.7 70 22:19 21.12.2019
6080 Rain 25 1008 94 5000 9.8 70 21:57 21.12.2019
6081 Rain 25 1008 94 5000 9.8 70 21:37 21.12.2019
6082 Rain 25 1008 94 10000 10.8 70 21:19 21.12.2019
6083 Rain 25 1008 94 10000 10.3 60 20:58 21.12.2019
6084 Rain 25 1008 94 10000 10.3 60 20:58 21.12.2019
6085 Rain 25 1008 94 10000 10.3 60 20:39 21.12.2019
6086 Rain 25 1008 94 10000 9.8 70 20:21 21.12.2019
6087 Rain 25 1008 94 10000 10.8 70 19:57 21.12.2019
6088 Rain 25 1008 94 10000 10.8 70 19:39 21.12.2019
6089 Rain 25 1007 94 10000 10.8 70 19:19 21.12.2019
6090 Rain 25 1007 88 10000 11.3 80 18:42 21.12.2019
6091 Rain 25 1006 88 10000 12.3 70 18:24 21.12.2019
6092 Rain 25 1006 88 10000 11.8 70 17:57 21.12.2019
6093 Rain 25 1006 88 10000 11.8 70 17:39 21.12.2019
6094 Rain 25 1005 88 10000 14.4 70 17:20 21.12.2019
6095 Drizzle 24 1005 94 10000 14.4 80 16:57 21.12.2019
6096 Drizzle 24 1005 94 10000 14.4 80 16:57 21.12.2019
6097 Drizzle 24 1005 94 10000 14.4 80 16:39 21.12.2019
6098 Rain 24 1004 94 3300 13.9 80 16:18 21.12.2019
6099 Rain 24 1004 94 2100 13.4 80 15:56 21.12.2019
6100 Rain 24 1004 94 2100 13.4 80 15:37 21.12.2019
6101 Rain 24 1004 94 1900 13.9 80 15:18 21.12.2019
6102 Drizzle 24 1004 94 5000 11.8 80 14:43 21.12.2019
6103 Rain 24 1003 94 3300 12.9 80 14:24 21.12.2019
6104 Rain 24 1004 94 2300 10.8 80 13:58 21.12.2019
6105 Rain 24 1004 94 2300 10.8 80 13:40 21.12.2019
6106 Drizzle 24 1004 94 5000 11.3 90 13:19 21.12.2019
6107 Drizzle 24 1004 94 4300 11.8 90 12:56 21.12.2019
6108 Drizzle 24 1004 94 4300 11.8 90 12:38 21.12.2019
6109 Drizzle 24 1004 94 4300 11.8 90 12:38 21.12.2019
6110 Drizzle 24 1004 94 4300 11.8 90 12:38 21.12.2019
6111 Rain 24 1004 94 4200 9.3 100 12:20 21.12.2019
6112 Rain 24 1004 88 4100 10.3 100 11:48 21.12.2019
6113 Rain 24 1005 94 6000 10.8 100 11:27 21.12.2019
6114 Rain 24 1005 94 2700 9.3 100 10:59 21.12.2019
6115 Rain 24 1005 94 2700 9.3 100 10:40 21.12.2019
6116 Rain 24 1005 94 5000 9.8 100 10:21 21.12.2019
6117 Drizzle 24 1005 94 10000 9.8 100 09:58 21.12.2019
6118 Drizzle 24 1005 94 10000 9.8 100 09:39 21.12.2019
6119 Drizzle 24 1005 94 10000 9.8 100 09:39 21.12.2019
6120 Rain 24 1005 94 3000 7.7 100 09:19 21.12.2019
6121 Rain 24 1005 94 2900 10.3 90 08:47 21.12.2019
6122 Rain 24 1004 94 3200 11.8 90 08:27 21.12.2019
6123 Rain 24 1005 94 6000 7.2 100 07:47 21.12.2019
6124 Rain 25 1004 88 10000 7.7 110 07:23 21.12.2019
6125 Rain 25 1004 83 10000 7.7 110 06:49 21.12.2019
6126 Rain 24 1005 88 6000 6.7 100 06:31 21.12.2019
6127 Rain 25 1004 83 10000 8.2 90 05:59 21.12.2019
6128 Rain 24 1004 88 10000 6.7 100 04:59 21.12.2019
6129 Rain 24 1004 88 10000 6.7 100 04:33 21.12.2019
6130 Rain 25 1004 83 10000 6.2 110 03:56 21.12.2019
6131 Rain 26 1005 78 10000 8.7 90 02:19 21.12.2019
6132 Rain 26 1005 83 8000 7.7 90 01:41 21.12.2019
6133 Rain 26 1005 83 10000 6.2 100 01:23 21.12.2019
6134 Rain 27 1005 78 10000 6.2 100 00:39 21.12.2019
6135 Rain 26 1005 83 10000 8.7 90 00:19 21.12.2019
6136 Rain 27 1006 78 10000 8.2 100 23:38 20.12.2019
6137 Rain 27 1006 78 10000 7.2 100 23:19 20.12.2019
6138 Rain 26 1006 78 10000 6.2 120 22:57 20.12.2019
6139 Rain 26 1006 78 10000 6.2 120 22:36 20.12.2019
6140 Rain 26 1007 78 10000 5.7 120 22:18 20.12.2019
6141 Rain 26 1007 78 10000 5.7 130 21:40 20.12.2019
6142 Rain 26 1007 78 10000 5.7 130 21:20 20.12.2019
6143 Rain 26 1007 78 10000 5.1 110 20:56 20.12.2019
6144 Rain 26 1007 78 10000 5.1 110 20:36 20.12.2019
6145 Rain 25 1007 78 10000 6.7 110 20:18 20.12.2019
6146 Rain 25 1007 83 10000 7.7 100 19:42 20.12.2019
6147 Rain 25 1007 83 10000 7.2 110 19:20 20.12.2019
6148 Rain 24 1007 88 10000 7.2 100 18:58 20.12.2019
6149 Rain 24 1007 88 10000 7.2 100 18:38 20.12.2019
6150 Rain 24 1007 88 10000 5.7 100 18:20 20.12.2019
6151 Rain 23 1007 94 6000 4.6 90 17:54 20.12.2019
6152 Rain 23 1007 94 6000 4.6 90 17:36 20.12.2019
6153 Rain 23 1007 94 6000 4.6 90 17:18 20.12.2019
6154 Rain 24 1006 88 10000 4.1 100 16:40 20.12.2019
6155 Rain 24 1006 88 10000 4.1 100 16:20 20.12.2019
6156 Rain 24 1006 88 10000 4.6 100 15:57 20.12.2019
6157 Rain 24 1006 88 10000 5.7 100 15:39 20.12.2019
6158 Rain 24 1006 88 10000 5.7 100 15:19 20.12.2019
6159 Rain 24 1006 88 10000 5.1 100 14:57 20.12.2019
6160 Drizzle 24 1006 88 10000 4.6 90 14:39 20.12.2019
6161 Drizzle 24 1006 88 10000 4.6 90 14:20 20.12.2019
6162 Rain 24 1006 88 10000 4.6 90 13:41 20.12.2019
6163 Rain 24 1007 88 10000 4.1 90 13:21 20.12.2019
6164 Rain 24 1007 88 10000 3.1 100 12:59 20.12.2019
6165 Rain 24 1007 88 10000 3.1 100 12:40 20.12.2019
6166 Rain 24 1007 88 10000 3.1 100 12:19 20.12.2019
6167 Rain 24 1007 88 10000 4.1 100 11:59 20.12.2019
6168 Rain 23 1008 94 10000 5.1 90 11:39 20.12.2019
6169 Rain 23 1008 94 10000 5.1 90 11:19 20.12.2019
6170 Rain 23 1008 94 10000 4.6 90 10:58 20.12.2019
6171 Rain 24 1008 88 10000 4.1 110 10:40 20.12.2019
6172 Rain 24 1008 88 10000 4.1 110 10:20 20.12.2019
6173 Drizzle 24 1008 88 7000 4.6 100 09:55 20.12.2019
6174 Drizzle 24 1008 88 10000 3.1 110 09:36 20.12.2019
6175 Drizzle 24 1008 88 10000 3.1 110 09:18 20.12.2019
6176 Rain 24 1008 88 10000 4.1 100 08:42 20.12.2019
6177 Rain 24 1008 88 10000 5.7 100 08:22 20.12.2019
6178 Rain 24 1008 94 10000 7.2 90 07:58 20.12.2019
6179 Rain 23 1008 100 4000 6.2 90 07:39 20.12.2019
6180 Rain 23 1008 100 4000 6.2 90 07:18 20.12.2019
6181 Rain 23 1008 100 4300 6.2 90 06:49 20.12.2019
6182 Rain 24 1007 88 5000 8.2 90 06:30 20.12.2019
6183 Rain 24 1007 88 9000 7.7 100 05:49 20.12.2019
6184 Rain 24 1007 94 4300 8.2 100 05:25 20.12.2019
6185 Rain 25 1006 88 7000 7.2 100 03:50 20.12.2019
6186 Rain 25 1006 83 10000 7.7 90 03:29 20.12.2019
6187 Rain 25 1007 88 10000 8.2 90 02:38 20.12.2019
6188 Rain 25 1008 88 10000 8.2 90 01:36 20.12.2019
6189 Rain 25 1008 88 10000 8.2 90 01:36 20.12.2019
6190 Rain 24 1008 88 10000 7.2 100 00:58 20.12.2019
6191 Rain 25 1008 88 10000 7.7 90 00:39 20.12.2019
6192 Rain 24 1008 88 10000 8.2 90 23:59 19.12.2019
6193 Rain 24 1008 88 10000 7.7 100 23:40 19.12.2019
6194 Rain 24 1008 88 10000 7.7 100 23:21 19.12.2019
6195 Rain 25 1008 78 10000 8.2 90 22:40 19.12.2019
6196 Rain 25 1008 78 10000 8.2 90 22:40 19.12.2019
6197 Rain 25 1008 78 10000 8.2 90 22:22 19.12.2019
6198 Rain 25 1009 78 10000 8.7 100 21:59 19.12.2019
6199 Rain 25 1009 78 10000 8.7 100 21:41 19.12.2019
6200 Rain 25 1009 78 10000 9.8 90 21:19 19.12.2019
6201 Rain 25 1009 73 10000 7.7 100 20:58 19.12.2019
6202 Rain 25 1009 78 10000 8.2 110 20:38 19.12.2019
6203 Rain 25 1009 78 10000 8.2 110 20:20 19.12.2019
6204 Rain 25 1009 78 10000 8.2 110 20:20 19.12.2019
6205 Rain 25 1009 73 10000 8.2 100 19:58 19.12.2019
6206 Rain 25 1008 78 10000 9.8 100 19:40 19.12.2019
6207 Rain 25 1008 78 10000 9.8 100 19:40 19.12.2019
6208 Rain 25 1008 78 10000 9.8 100 19:19 19.12.2019
6209 Rain 25 1008 78 10000 9.8 100 19:19 19.12.2019
6210 Rain 25 1008 78 10000 9.8 100 19:19 19.12.2019
6211 Rain 25 1009 73 10000 8.2 100 18:58 19.12.2019
6212 Rain 24 1008 83 10000 8.2 100 18:40 19.12.2019
6213 Rain 24 1008 83 10000 8.2 100 18:19 19.12.2019
6214 Rain 24 1008 83 10000 8.2 100 17:56 19.12.2019
6215 Rain 24 1008 83 6000 7.7 100 17:37 19.12.2019
6216 Rain 24 1008 83 6000 7.7 100 17:18 19.12.2019
6217 Rain 24 1008 83 6000 7.7 100 17:18 19.12.2019
6218 Rain 25 1008 78 10000 7.7 100 16:56 19.12.2019
6219 Drizzle 25 1008 73 10000 6.2 100 16:37 19.12.2019
6220 Drizzle 25 1008 73 10000 6.2 100 16:19 19.12.2019
6221 Rain 25 1007 73 10000 7.7 100 15:56 19.12.2019
6222 Rain 25 1008 73 10000 8.7 110 15:37 19.12.2019
6223 Rain 25 1008 73 10000 8.7 110 15:19 19.12.2019
6224 Rain 25 1008 73 10000 8.7 110 15:19 19.12.2019
6225 Rain 24 1008 83 10000 6.7 110 14:43 19.12.2019
6226 Rain 24 1008 83 10000 8.2 100 14:20 19.12.2019
6227 Rain 24 1008 83 10000 8.2 110 13:59 19.12.2019
6228 Rain 24 1008 88 8000 6.7 100 13:38 19.12.2019
6229 Rain 24 1008 88 8000 6.7 100 13:19 19.12.2019
6230 Rain 23 1009 94 1700 6.2 100 12:57 19.12.2019
6231 Rain 24 1009 88 8000 7.2 100 12:39 19.12.2019
6232 Rain 24 1009 88 8000 7.2 100 12:19 19.12.2019
6233 Rain 25 1010 78 10000 8.2 110 11:58 19.12.2019
6234 Rain 25 1010 78 10000 7.2 110 11:40 19.12.2019
6235 Rain 25 1010 78 10000 7.2 110 11:18 19.12.2019
6236 Rain 24 1010 83 7000 6.7 110 10:57 19.12.2019
6237 Rain 25 1010 78 10000 5.7 110 10:38 19.12.2019
6238 Rain 25 1010 78 10000 5.7 110 10:19 19.12.2019
6239 Rain 25 1010 83 6000 5.1 110 09:54 19.12.2019
6240 Rain 25 1010 78 10000 6.2 110 09:36 19.12.2019
6241 Rain 25 1010 78 10000 6.2 110 09:18 19.12.2019
6242 Rain 25 1010 78 10000 6.2 110 08:41 19.12.2019
6243 Rain 25 1010 78 10000 6.2 110 08:19 19.12.2019
6244 Rain 25 1010 78 10000 6.7 100 07:57 19.12.2019
6245 Rain 25 1010 78 10000 6.2 100 07:38 19.12.2019
6246 Rain 25 1010 78 10000 6.2 100 07:19 19.12.2019
6247 Rain 25 1009 83 10000 5.7 100 06:49 19.12.2019
6248 Rain 24 1009 83 10000 6.7 100 06:29 19.12.2019
6249 Haze 24 1009 88 1900 6.7 90 05:55 19.12.2019
6250 Rain 24 1009 88 10000 6.7 110 05:34 19.12.2019
6251 Drizzle 24 1009 88 5000 6.2 100 04:51 19.12.2019
6252 Clouds 26 1008 74 10000 7.2 100 02:54 19.12.2019
6253 Clouds 26 1009 74 10000 7.7 100 01:51 19.12.2019
6254 Clouds 26 1009 74 10000 7.2 100 01:22 19.12.2019
6255 Clouds 26 1009 74 10000 6.2 100 00:41 19.12.2019
6256 Clouds 26 1009 74 10000 6.2 100 00:22 19.12.2019
6257 Clouds 26 1010 78 10000 6.7 90 23:56 18.12.2019
6258 Clouds 26 1010 74 10000 6.7 110 23:38 18.12.2019
6259 Clouds 26 1010 74 10000 6.7 110 23:18 18.12.2019
6260 Clouds 26 1010 74 10000 7.2 100 22:55 18.12.2019
6261 Clouds 26 1010 74 10000 7.7 110 22:36 18.12.2019
6262 Clouds 26 1010 74 10000 7.7 110 22:18 18.12.2019
6263 Clouds 26 1010 74 10000 5.7 100 21:55 18.12.2019
6264 Clouds 26 1010 74 10000 4.6 100 21:36 18.12.2019
6265 Clouds 26 1010 74 10000 4.6 100 21:36 18.12.2019
6266 Clouds 26 1010 74 10000 4.6 100 21:18 18.12.2019
6267 Clouds 25 1011 78 10000 6.7 100 20:54 18.12.2019
6268 Clouds 25 1011 78 10000 7.7 100 20:36 18.12.2019
6269 Clouds 25 1011 78 10000 7.7 100 20:18 18.12.2019
6270 Clouds 25 1011 78 10000 6.7 90 19:54 18.12.2019
6271 Clouds 25 1011 78 10000 6.7 90 19:54 18.12.2019
6272 Clouds 25 1011 78 10000 7.2 90 19:36 18.12.2019
6273 Clouds 25 1011 78 10000 7.2 90 19:18 18.12.2019
6274 Clouds 25 1010 73 10000 6.7 100 18:43 18.12.2019
6275 Clouds 25 1010 73 10000 6.2 100 18:25 18.12.2019
6276 Clouds 25 1010 73 10000 5.7 100 17:56 18.12.2019
6277 Clouds 25 1010 73 10000 5.1 110 17:38 18.12.2019
6278 Clouds 25 1010 73 10000 5.1 110 17:38 18.12.2019
6279 Rain 25 1010 73 10000 5.1 110 17:19 18.12.2019
6280 Rain 25 1009 78 10000 5.7 110 16:43 18.12.2019
6281 Rain 25 1009 78 10000 5.7 100 16:24 18.12.2019
6282 Rain 25 1010 78 10000 4.1 110 15:59 18.12.2019
6283 Rain 25 1010 78 10000 4.1 110 15:40 18.12.2019
6284 Rain 25 1010 78 10000 7.2 100 15:21 18.12.2019
6285 Rain 25 1010 78 10000 6.2 100 14:58 18.12.2019
6286 Rain 25 1010 78 10000 6.2 100 14:40 18.12.2019
6287 Clouds 25 1010 78 10000 5.7 100 14:19 18.12.2019
6288 Clouds 25 1010 78 10000 6.2 90 13:56 18.12.2019
6289 Clouds 25 1010 78 10000 6.2 90 13:56 18.12.2019
6290 Clouds 25 1010 78 10000 6.2 90 13:37 18.12.2019
6291 Clouds 24 1011 83 10000 6.2 90 13:19 18.12.2019
6292 Rain 25 1011 78 10000 7.2 90 12:55 18.12.2019
6293 Rain 25 1011 78 10000 7.2 90 12:54 18.12.2019
6294 Rain 25 1011 78 10000 7.2 90 12:36 18.12.2019
6295 Rain 25 1011 78 10000 7.7 90 12:18 18.12.2019
6296 Rain 25 1012 73 10000 8.7 80 11:54 18.12.2019
6297 Rain 25 1012 78 10000 7.7 90 11:36 18.12.2019
6298 Clouds 25 1012 78 10000 7.7 90 11:18 18.12.2019
6299 Clouds 26 1012 69 10000 8.2 90 10:54 18.12.2019
6300 Clouds 26 1012 69 10000 8.2 90 10:54 18.12.2019
6301 Clouds 25 1012 78 10000 7.2 90 10:36 18.12.2019
6302 Clouds 25 1012 78 10000 7.2 90 10:18 18.12.2019
6303 Clouds 25 1011 78 10000 9.3 90 09:21 18.12.2019
6304 Clouds 25 1011 83 10000 7.2 90 08:57 18.12.2019
6305 Clouds 25 1011 83 10000 7.2 90 08:57 18.12.2019
6306 Clouds 25 1011 83 10000 7.2 90 08:57 18.12.2019
6307 Clouds 25 1011 83 10000 7.2 90 08:39 18.12.2019
6308 Rain 25 1011 83 10000 5.7 90 08:20 18.12.2019
6309 Rain 25 1011 83 10000 6.7 90 07:42 18.12.2019
6310 Rain 25 1011 83 10000 5.1 90 07:21 18.12.2019
6311 Rain 25 1011 83 10000 6.7 90 06:53 18.12.2019
6312 Rain 25 1010 83 10000 6.2 100 06:26 18.12.2019
6313 Rain 26 1010 78 10000 7.2 90 05:39 18.12.2019
6314 Rain 26 1010 78 10000 6.2 90 04:35 18.12.2019
6315 Rain 27 1010 74 10000 8.2 90 02:50 18.12.2019
6316 Rain 27 1010 74 10000 8.2 100 02:30 18.12.2019
6317 Rain 27 1010 74 10000 8.7 100 01:46 18.12.2019
6318 Rain 27 1011 74 10000 7.2 100 01:27 18.12.2019
6319 Rain 27 1011 74 10000 7.2 90 00:59 18.12.2019
6320 Rain 27 1011 74 10000 7.2 90 00:39 18.12.2019
6321 Rain 27 1011 74 10000 7.2 100 00:21 18.12.2019
6322 Rain 27 1011 74 10000 7.2 100 23:43 17.12.2019
6323 Rain 27 1011 74 10000 7.2 100 23:43 17.12.2019
6324 Rain 27 1012 74 10000 7.2 90 23:24 17.12.2019
6325 Rain 27 1012 74 10000 7.2 90 22:57 17.12.2019
6326 Rain 27 1012 74 10000 7.2 90 22:39 17.12.2019
6327 Rain 26 1012 78 10000 8.2 90 22:20 17.12.2019
6328 Rain 27 1012 74 10000 8.2 90 21:57 17.12.2019
6329 Rain 27 1012 74 10000 8.2 90 21:39 17.12.2019
6330 Rain 26 1012 78 10000 6.7 90 21:20 17.12.2019
6331 Rain 26 1012 78 10000 6.7 90 21:20 17.12.2019
6332 Rain 26 1012 78 10000 6.7 90 21:20 17.12.2019
6333 Rain 26 1012 78 10000 8.7 80 20:59 17.12.2019
6334 Rain 26 1012 78 10000 8.7 80 20:40 17.12.2019
6335 Rain 26 1012 78 10000 7.7 90 20:19 17.12.2019
6336 Rain 26 1012 78 10000 7.7 90 19:57 17.12.2019
6337 Rain 26 1012 78 10000 7.7 90 19:39 17.12.2019
6338 Rain 26 1012 78 10000 7.7 90 19:19 17.12.2019
6339 Rain 25 1012 78 10000 7.7 90 18:57 17.12.2019
6340 Rain 25 1012 78 10000 7.7 90 18:38 17.12.2019
6341 Rain 25 1011 83 10000 8.2 90 18:20 17.12.2019
6342 Rain 25 1011 83 10000 7.7 90 17:55 17.12.2019
6343 Rain 24 1011 88 10000 7.2 90 17:36 17.12.2019
6344 Rain 24 1011 88 10000 7.2 90 17:18 17.12.2019
6345 Rain 24 1010 88 10000 6.2 90 16:54 17.12.2019
6346 Rain 24 1010 88 10000 6.2 90 16:36 17.12.2019
6347 Rain 23 1010 94 4600 5.1 90 16:18 17.12.2019
6348 Rain 23 1011 94 10000 7.2 70 15:38 17.12.2019
6349 Rain 24 1010 88 10000 4.6 100 15:19 17.12.2019
6350 Rain 24 1011 88 10000 4.1 100 14:56 17.12.2019
6351 Rain 24 1011 88 10000 4.1 100 14:38 17.12.2019
6352 Rain 23 1011 88 10000 5.7 90 14:19 17.12.2019
6353 Rain 25 1011 78 10000 5.1 90 13:56 17.12.2019
6354 Rain 25 1011 78 10000 5.1 90 13:38 17.12.2019
6355 Rain 25 1011 78 10000 5.1 100 13:19 17.12.2019
6356 Rain 25 1012 78 10000 6.2 90 12:56 17.12.2019
6357 Rain 25 1012 78 10000 6.2 90 12:37 17.12.2019
6358 Rain 24 1012 83 10000 5.7 90 12:18 17.12.2019
6359 Rain 25 1012 78 10000 5.7 100 11:55 17.12.2019
6360 Rain 25 1013 78 10000 6.2 90 11:36 17.12.2019
6361 Rain 25 1013 78 10000 6.2 90 11:18 17.12.2019
6362 Rain 25 1013 78 10000 5.7 100 10:54 17.12.2019
6363 Rain 25 1013 78 10000 5.7 100 10:36 17.12.2019
6364 Rain 25 1013 78 10000 5.7 100 10:18 17.12.2019
6365 Rain 25 1013 73 10000 6.7 100 09:42 17.12.2019
6366 Rain 25 1013 78 10000 6.2 100 09:21 17.12.2019
6367 Rain 25 1013 78 10000 6.2 100 09:21 17.12.2019
6368 Rain 25 1013 78 10000 6.2 100 08:57 17.12.2019
6369 Rain 25 1013 78 10000 6.2 100 08:38 17.12.2019
6370 Rain 25 1013 78 10000 6.2 100 08:38 17.12.2019
6371 Rain 25 1013 78 10000 6.2 100 08:38 17.12.2019
6372 Clouds 25 1013 78 10000 5.1 100 08:20 17.12.2019
6373 Rain 24 1013 83 10000 5.1 90 07:55 17.12.2019
6374 Rain 24 1013 83 10000 5.1 90 07:36 17.12.2019
6375 Rain 24 1012 83 10000 5.7 90 07:18 17.12.2019
6376 Rain 25 1012 73 10000 4.6 100 06:35 17.12.2019
6377 Rain 26 1011 69 10000 5.1 110 05:56 17.12.2019
6378 Rain 26 1012 69 10000 5.1 110 05:36 17.12.2019
6379 Rain 26 1011 69 10000 6.2 90 04:33 17.12.2019
6380 Rain 26 1011 69 10000 8.2 90 02:45 17.12.2019
6381 Rain 27 1012 65 10000 7.2 110 01:56 17.12.2019
6382 Clear 27 1012 65 10000 5.7 110 01:18 17.12.2019
6383 Clear 27 1012 65 10000 5.1 100 00:38 17.12.2019
6384 Clear 27 1012 69 10000 8.2 80 00:19 17.12.2019
6385 Clear 27 1012 65 10000 8.2 90 23:42 16.12.2019
6386 Rain 26 1013 74 10000 8.2 80 23:19 16.12.2019
6387 Rain 26 1013 74 10000 8.2 80 23:19 16.12.2019
6388 Rain 26 1013 74 10000 8.2 80 23:19 16.12.2019
6389 Rain 26 1013 74 10000 8.2 80 23:19 16.12.2019
6390 Rain 26 1013 74 10000 6.7 90 22:56 16.12.2019
6391 Rain 26 1013 74 10000 6.7 90 22:37 16.12.2019
6392 Rain 26 1013 69 10000 6.2 100 22:19 16.12.2019
6393 Rain 26 1013 69 10000 6.2 100 22:19 16.12.2019
6394 Rain 26 1013 69 10000 6.2 100 22:19 16.12.2019
6395 Rain 26 1013 69 10000 5.7 90 21:55 16.12.2019
6396 Rain 26 1013 69 10000 5.7 90 21:55 16.12.2019
6397 Rain 26 1013 69 10000 5.7 90 21:37 16.12.2019
6398 Rain 26 1013 69 10000 6.7 100 21:19 16.12.2019
6399 Rain 25 1013 73 10000 6.2 90 20:57 16.12.2019
6400 Rain 25 1013 73 10000 6.2 90 20:37 16.12.2019
6401 Clouds 25 1013 78 10000 4.6 100 20:19 16.12.2019
6402 Clouds 25 1013 73 10000 5.7 100 19:55 16.12.2019
6403 Clouds 25 1013 73 10000 5.7 100 19:37 16.12.2019
6404 Clouds 25 1013 73 10000 5.1 110 19:18 16.12.2019
6405 Clouds 25 1013 73 10000 3.6 100 18:56 16.12.2019
6406 Clouds 25 1012 73 10000 5.7 100 18:37 16.12.2019
6407 Clouds 25 1012 73 10000 5.7 100 18:19 16.12.2019
6408 Clouds 25 1012 73 10000 5.7 100 18:19 16.12.2019
6409 Clouds 24 1012 78 10000 4.6 90 17:57 16.12.2019
6410 Clouds 24 1012 73 10000 4.1 100 17:37 16.12.2019
6411 Clouds 24 1012 73 10000 4.1 100 17:19 16.12.2019
6412 Clouds 24 1011 73 10000 3.6 100 16:55 16.12.2019
6413 Clouds 24 1011 73 10000 3.6 100 16:37 16.12.2019
6414 Clouds 24 1011 73 10000 3.6 100 16:37 16.12.2019
6415 Clouds 24 1011 78 10000 4.6 90 16:18 16.12.2019
6416 Clouds 24 1011 73 10000 4.1 100 15:55 16.12.2019
6417 Clouds 24 1011 73 10000 4.1 100 15:37 16.12.2019
6418 Clouds 24 1011 78 10000 3.6 100 15:19 16.12.2019
6419 Clouds 24 1011 73 10000 3.6 100 14:54 16.12.2019
6420 Clouds 24 1011 73 10000 3.6 100 14:36 16.12.2019
6421 Clouds 24 1012 73 10000 4.1 90 14:18 16.12.2019
6422 Clouds 24 1012 73 10000 6.2 90 13:38 16.12.2019
6423 Clouds 24 1012 78 10000 4.1 90 13:20 16.12.2019
6424 Clouds 25 1013 73 10000 4.1 100 12:59 16.12.2019
6425 Clouds 25 1013 73 10000 4.1 100 12:41 16.12.2019
6426 Clouds 25 1013 69 10000 4.1 90 12:20 16.12.2019
6427 Clouds 25 1013 69 10000 4.6 90 11:59 16.12.2019
6428 Clouds 25 1013 69 10000 4.6 90 11:41 16.12.2019
6429 Clouds 25 1013 69 10000 5.7 90 11:22 16.12.2019
6430 Clouds 25 1013 69 10000 5.7 90 10:59 16.12.2019
6431 Clouds 25 1013 69 10000 5.7 90 10:40 16.12.2019
6432 Clouds 25 1013 69 10000 4.1 90 10:21 16.12.2019
6433 Clouds 25 1013 73 10000 4.1 100 09:47 16.12.2019
6434 Clouds 25 1013 69 10000 4.6 90 09:29 16.12.2019
6435 Clouds 25 1013 69 10000 4.1 100 08:58 16.12.2019
6436 Clouds 25 1013 69 10000 4.1 100 08:38 16.12.2019
6437 Clear 25 1013 69 10000 3.1 100 08:19 16.12.2019
6438 Clear 25 1012 69 10000 4.6 110 07:49 16.12.2019
6439 Clear 25 1012 69 10000 4.6 100 07:30 16.12.2019
6440 Clear 25 1012 69 10000 4.1 100 06:46 16.12.2019
6441 Clear 25 1012 69 10000 5.1 90 06:26 16.12.2019
6442 Clear 25 1011 73 10000 5.7 90 05:54 16.12.2019
6443 Clear 26 1011 69 10000 5.1 110 05:35 16.12.2019
6444 Clear 26 1011 69 10000 4.6 90 04:33 16.12.2019
6445 Clear 27 1011 65 10000 8.2 80 02:49 16.12.2019
6446 Clouds 27 1011 69 10000 9.3 80 01:45 16.12.2019
6447 Clear 27 1012 69 10000 7.2 90 00:54 16.12.2019
6448 Clear 27 1012 65 10000 7.2 90 00:36 16.12.2019
6449 Clear 27 1012 65 10000 7.2 90 00:18 16.12.2019
6450 Clear 26 1012 69 10000 8.2 90 23:40 15.12.2019
6451 Clouds 26 1012 69 10000 7.2 90 23:21 15.12.2019
6452 Clouds 27 1012 69 10000 7.2 90 22:56 15.12.2019
6453 Clouds 27 1012 69 10000 7.2 90 22:37 15.12.2019
6454 Clouds 26 1012 69 10000 6.7 90 22:18 15.12.2019
6455 Clouds 26 1013 69 10000 5.7 110 21:56 15.12.2019
6456 Clouds 26 1013 69 10000 5.7 110 21:38 15.12.2019
6457 Clouds 26 1013 65 10000 5.1 110 21:19 15.12.2019
6458 Clouds 25 1013 69 10000 6.2 90 20:56 15.12.2019
6459 Clouds 25 1013 69 10000 6.2 90 20:37 15.12.2019
6460 Clear 25 1013 69 10000 5.1 100 20:19 15.12.2019
6461 Clear 26 1013 65 10000 5.1 110 19:57 15.12.2019
6462 Clear 26 1013 65 10000 5.1 110 19:57 15.12.2019
6463 Clear 26 1013 65 10000 5.1 110 19:38 15.12.2019
6464 Clouds 25 1013 69 10000 6.7 100 19:18 15.12.2019
6465 Clouds 25 1012 65 10000 5.7 100 18:55 15.12.2019
6466 Clouds 24 1012 69 10000 6.2 100 18:37 15.12.2019
6467 Clouds 24 1012 69 10000 6.2 100 18:18 15.12.2019
6468 Clouds 24 1012 73 10000 6.7 100 17:56 15.12.2019
6469 Clear 24 1011 73 10000 4.6 100 17:36 15.12.2019
6470 Clear 24 1011 73 10000 4.6 100 17:18 15.12.2019
6471 Clear 24 1011 73 10000 4.6 100 17:18 15.12.2019
6472 Clear 24 1011 69 10000 5.7 100 16:43 15.12.2019
6473 Clear 24 1011 73 10000 5.1 100 16:23 15.12.2019
6474 Clear 24 1011 73 10000 5.1 100 15:57 15.12.2019
6475 Clear 24 1011 73 10000 5.1 100 15:39 15.12.2019
6476 Clear 24 1011 69 10000 4.6 100 15:20 15.12.2019
6477 Clear 24 1011 69 10000 3.6 100 14:56 15.12.2019
6478 Clear 24 1011 69 10000 3.6 100 14:38 15.12.2019
6479 Clear 24 1011 69 10000 3.6 100 14:38 15.12.2019
6480 Clear 24 1011 69 10000 5.7 90 14:19 15.12.2019
6481 Clear 24 1011 73 10000 5.1 100 13:59 15.12.2019
6482 Clear 24 1011 73 10000 5.1 100 13:39 15.12.2019
6483 Clear 24 1012 73 10000 5.1 90 13:20 15.12.2019
6484 Clear 24 1012 73 10000 4.1 100 12:57 15.12.2019
6485 Clear 24 1012 73 10000 4.1 100 12:57 15.12.2019
6486 Clear 24 1012 73 10000 4.1 100 12:39 15.12.2019
6487 Clear 24 1012 73 10000 4.1 100 12:39 15.12.2019
6488 Clear 24 1012 73 10000 4.6 100 12:21 15.12.2019
6489 Clear 24 1013 73 10000 5.1 100 11:59 15.12.2019
6490 Clear 25 1013 69 10000 5.1 90 11:37 15.12.2019
6491 Clear 25 1013 69 10000 5.1 90 11:19 15.12.2019
6492 Clear 25 1013 69 10000 5.1 90 11:19 15.12.2019
6493 Clear 25 1013 69 10000 4.6 90 10:55 15.12.2019
6494 Clear 25 1013 69 10000 4.6 90 10:37 15.12.2019
6495 Clear 25 1013 69 10000 4.1 100 10:19 15.12.2019
6496 Clear 25 1013 69 10000 3.6 100 09:41 15.12.2019
6497 Clear 24 1013 73 10000 5.1 90 09:20 15.12.2019
6498 Clear 25 1012 69 10000 3.6 100 08:59 15.12.2019
6499 Clear 25 1012 69 10000 3.6 100 08:41 15.12.2019
6500 Clouds 25 1012 69 10000 3.6 100 08:22 15.12.2019
6501 Clouds 25 1012 69 10000 4.1 100 07:56 15.12.2019
6502 Clouds 25 1012 65 10000 4.6 100 07:35 15.12.2019
6503 Clouds 25 1012 69 10000 4.6 90 06:52 15.12.2019
6504 Clouds 25 1011 69 10000 5.7 90 06:20 15.12.2019
6505 Clouds 26 1011 61 10000 7.2 90 05:28 15.12.2019
6506 Clouds 26 1010 65 10000 7.7 80 04:47 15.12.2019
6507 Clouds 26 1010 74 10000 9.3 80 03:31 15.12.2019
6508 Clouds 27 1010 65 10000 9.8 80 02:34 15.12.2019
6509 Clouds 27 1011 65 10000 8.7 80 01:47 15.12.2019
6510 Clouds 27 1011 65 10000 8.2 90 01:28 15.12.2019
6511 Clouds 27 1012 65 10000 6.2 90 00:58 15.12.2019
6512 Clouds 27 1012 65 10000 6.2 90 00:40 15.12.2019
6513 Clouds 26 1012 69 10000 5.7 100 00:21 15.12.2019
6514 Clouds 26 1011 65 10000 6.2 100 23:40 14.12.2019
6515 Clouds 28 1012 65 10000 6.2 90 23:21 14.12.2019
6516 Clouds 26 1012 65 10000 5.1 90 22:58 14.12.2019
6517 Clouds 26 1012 65 10000 5.1 90 22:40 14.12.2019
6518 Clouds 26 1012 65 10000 9.3 80 22:20 14.12.2019
6519 Clouds 26 1012 65 10000 8.7 80 21:56 14.12.2019
6520 Clouds 26 1012 65 10000 8.7 80 21:37 14.12.2019
6521 Clouds 26 1013 69 10000 6.7 90 21:18 14.12.2019
6522 Clouds 25 1013 69 10000 4.6 110 20:55 14.12.2019
6523 Clouds 25 1013 69 10000 4.6 110 20:37 14.12.2019
6524 Rain 26 1012 69 10000 4.6 90 20:19 14.12.2019
6525 Rain 25 1012 73 10000 6.7 90 19:40 14.12.2019
6526 Rain 25 1012 73 10000 6.7 90 19:40 14.12.2019
6527 Rain 25 1012 73 10000 5.1 100 19:21 14.12.2019
6528 Rain 25 1012 73 10000 7.2 90 18:58 14.12.2019
6529 Rain 25 1012 73 10000 7.2 90 18:39 14.12.2019
6530 Rain 25 1012 73 10000 5.1 90 18:21 14.12.2019
6531 Rain 25 1013 73 10000 4.6 90 17:59 14.12.2019
6532 Rain 25 1013 73 10000 4.6 90 17:41 14.12.2019
6533 Clouds 25 1012 73 10000 7.2 80 17:22 14.12.2019
6534 Clouds 24 1011 73 10000 6.2 90 16:42 14.12.2019
6535 Clouds 24 1011 73 10000 6.7 90 16:19 14.12.2019
6536 Clouds 25 1011 69 10000 4.6 90 15:57 14.12.2019
6537 Clouds 25 1011 69 10000 4.6 90 15:38 14.12.2019
6538 Clouds 25 1011 69 10000 4.6 90 15:19 14.12.2019
6539 Clouds 25 1011 69 10000 5.7 90 14:57 14.12.2019
6540 Clouds 25 1011 69 10000 5.7 90 14:37 14.12.2019
6541 Clouds 25 1011 69 10000 5.7 90 14:18 14.12.2019
6542 Clouds 25 1011 69 10000 5.7 100 13:44 14.12.2019
6543 Clouds 25 1011 69 10000 6.7 80 13:19 14.12.2019
6544 Clouds 24 1012 73 10000 5.1 90 12:58 14.12.2019
6545 Clouds 24 1012 73 10000 5.1 90 12:39 14.12.2019
6546 Clouds 25 1012 69 10000 5.1 100 12:20 14.12.2019
6547 Clouds 25 1012 69 10000 4.1 90 11:58 14.12.2019
6548 Clouds 25 1013 69 10000 4.6 100 11:39 14.12.2019
6549 Rain 25 1013 69 10000 4.6 100 11:19 14.12.2019
6550 Rain 25 1013 69 10000 4.1 100 10:56 14.12.2019
6551 Rain 25 1013 69 10000 4.1 100 10:56 14.12.2019
6552 Rain 25 1013 69 10000 4.1 100 10:38 14.12.2019
6553 Rain 25 1013 69 10000 5.7 90 10:19 14.12.2019
6554 Rain 25 1013 69 10000 5.1 90 09:43 14.12.2019
6555 Rain 25 1014 69 10000 4.1 100 09:23 14.12.2019
6556 Rain 25 1013 69 10000 4.6 90 08:57 14.12.2019
6557 Rain 25 1013 69 10000 4.6 90 08:57 14.12.2019
6558 Rain 25 1013 69 10000 4.6 90 08:38 14.12.2019
6559 Rain 25 1013 69 10000 4.6 90 08:38 14.12.2019
6560 Clouds 25 1013 73 10000 3.6 100 08:19 14.12.2019
6561 Clouds 25 1013 69 10000 5.1 90 07:40 14.12.2019
6562 Clouds 25 1013 73 10000 4.6 100 07:21 14.12.2019
6563 Clouds 25 1013 73 10000 4.1 90 06:48 14.12.2019
6564 Clouds 25 1013 73 10000 5.1 100 06:30 14.12.2019
6565 Clouds 25 1012 69 10000 4.6 90 05:50 14.12.2019
6566 Clouds 25 1012 69 10000 3.6 100 03:44 14.12.2019
6567 Clouds 26 1012 65 10000 7.2 80 02:24 14.12.2019
6568 Clouds 26 1012 69 10000 6.7 80 01:44 14.12.2019
6569 Clouds 26 1012 65 10000 7.7 90 01:20 14.12.2019
6570 Clouds 27 1012 65 10000 7.7 80 00:41 14.12.2019
6571 Clouds 27 1012 65 10000 7.2 80 00:20 14.12.2019
6572 Clouds 27 1012 65 10000 7.2 90 23:41 13.12.2019
6573 Clouds 27 1013 65 10000 7.2 90 23:19 13.12.2019
6574 Clouds 27 1013 65 10000 8.2 80 22:56 13.12.2019
6575 Clouds 27 1013 65 10000 8.2 80 22:37 13.12.2019
6576 Clouds 27 1013 65 10000 6.7 80 22:18 13.12.2019
6577 Clouds 26 1013 61 10000 8.2 80 21:44 13.12.2019
6578 Clouds 26 1014 65 10000 7.2 90 21:22 13.12.2019
6579 Clouds 26 1014 65 10000 5.7 90 20:59 13.12.2019
6580 Clouds 26 1014 65 10000 5.7 90 20:39 13.12.2019
6581 Rain 26 1014 65 10000 5.7 90 20:20 13.12.2019
6582 Rain 26 1014 65 10000 5.7 90 19:56 13.12.2019
6583 Rain 25 1014 69 10000 5.1 100 19:38 13.12.2019
6584 Rain 25 1014 69 10000 5.1 100 19:19 13.12.2019
6585 Rain 24 1014 73 10000 4.1 100 18:42 13.12.2019
6586 Rain 24 1014 73 10000 4.1 100 18:20 13.12.2019
6587 Rain 24 1013 73 10000 4.1 90 18:00 13.12.2019
6588 Rain 24 1013 73 10000 5.1 90 17:39 13.12.2019
6589 Clouds 24 1013 73 10000 5.1 90 17:18 13.12.2019
6590 Clouds 24 1013 73 10000 5.1 90 17:18 13.12.2019
6591 Clouds 24 1013 73 10000 4.1 100 16:56 13.12.2019
6592 Clouds 24 1013 73 10000 4.6 100 16:38 13.12.2019
6593 Clouds 24 1013 73 10000 4.6 100 16:38 13.12.2019
6594 Clouds 24 1013 73 10000 4.6 100 16:20 13.12.2019
6595 Clouds 24 1013 73 10000 3.1 100 15:42 13.12.2019
6596 Clouds 24 1013 73 10000 3.1 100 15:42 13.12.2019
6597 Clouds 24 1012 73 10000 4.1 100 15:21 13.12.2019
6598 Clouds 24 1012 73 10000 5.1 100 14:57 13.12.2019
6599 Clouds 24 1012 73 10000 4.6 90 14:37 13.12.2019
6600 Clouds 24 1012 73 10000 4.6 90 14:19 13.12.2019
6601 Clouds 24 1012 73 10000 5.1 90 13:43 13.12.2019
6602 Clouds 24 1013 73 10000 5.1 90 13:24 13.12.2019
6603 Clouds 24 1013 73 10000 5.1 90 13:24 13.12.2019
6604 Clouds 24 1013 73 10000 4.1 90 12:57 13.12.2019
6605 Clouds 25 1014 69 10000 4.6 90 12:39 13.12.2019
6606 Clouds 25 1014 69 10000 4.6 90 12:18 13.12.2019
6607 Clouds 24 1014 73 10000 5.1 90 11:43 13.12.2019
6608 Clouds 24 1014 73 10000 5.1 90 11:24 13.12.2019
6609 Clouds 25 1014 65 10000 5.1 100 10:56 13.12.2019
6610 Clouds 25 1014 69 10000 5.7 90 10:38 13.12.2019
6611 Clouds 25 1014 69 10000 5.7 90 10:19 13.12.2019
6612 Clouds 25 1014 69 10000 5.1 90 09:42 13.12.2019
6613 Clouds 25 1014 69 10000 5.1 90 09:21 13.12.2019
6614 Clouds 25 1014 69 10000 5.7 90 08:45 13.12.2019
6615 Clouds 25 1014 69 10000 5.1 100 08:26 13.12.2019
6616 Clouds 25 1014 69 10000 5.7 90 07:48 13.12.2019
6617 Clouds 25 1014 69 10000 6.2 90 07:25 13.12.2019
6618 Clouds 25 1013 73 10000 7.2 90 06:57 13.12.2019
6619 Clouds 25 1013 69 10000 6.2 90 06:29 13.12.2019
6620 Clouds 25 1013 73 10000 6.7 90 05:51 13.12.2019
6621 Clouds 25 1012 73 10000 7.7 90 05:30 13.12.2019
6622 Clouds 26 1012 74 10000 7.2 90 04:48 13.12.2019
6623 Clouds 26 1012 78 10000 8.2 90 03:49 13.12.2019
6624 Clouds 27 1012 74 10000 9.3 80 02:35 13.12.2019
6625 Rain 27 1012 74 10000 10.3 80 01:49 13.12.2019
6626 Rain 27 1012 78 10000 10.3 70 01:19 13.12.2019
6627 Rain 26 1012 78 10000 10.8 80 00:45 13.12.2019
6628 Rain 28 1013 74 10000 10.8 70 00:22 13.12.2019
6629 Rain 26 1013 78 10000 10.3 70 23:40 12.12.2019
6630 Rain 26 1013 78 10000 10.3 70 23:22 12.12.2019
6631 Rain 26 1013 83 10000 9.8 70 22:56 12.12.2019
6632 Rain 26 1013 83 10000 9.8 80 22:37 12.12.2019
6633 Rain 26 1013 83 10000 9.8 80 22:19 12.12.2019
6634 Rain 26 1013 83 10000 7.2 80 21:55 12.12.2019
6635 Rain 26 1014 83 10000 7.2 80 21:36 12.12.2019
6636 Rain 26 1014 83 10000 7.2 80 21:36 12.12.2019
6637 Rain 26 1014 83 10000 7.2 80 21:18 12.12.2019
6638 Rain 26 1014 83 10000 5.1 90 20:55 12.12.2019
6639 Rain 26 1014 83 10000 4.1 100 20:37 12.12.2019
6640 Rain 26 1014 83 10000 4.1 100 20:19 12.12.2019
6641 Rain 25 1013 88 10000 9.3 80 19:42 12.12.2019
6642 Rain 25 1013 88 10000 9.3 80 19:23 12.12.2019
6643 Rain 25 1013 88 10000 8.2 80 18:58 12.12.2019
6644 Rain 25 1013 83 10000 6.2 90 18:40 12.12.2019
6645 Rain 25 1013 83 10000 6.2 90 18:21 12.12.2019
6646 Rain 25 1013 88 10000 5.7 90 17:58 12.12.2019
6647 Rain 25 1012 88 10000 5.1 90 17:40 12.12.2019
6648 Rain 25 1012 88 10000 5.1 90 17:21 12.12.2019
6649 Rain 25 1012 88 10000 6.2 80 16:58 12.12.2019
6650 Rain 25 1012 88 10000 6.7 90 16:39 12.12.2019
6651 Rain 25 1012 88 10000 6.7 90 16:20 12.12.2019
6652 Rain 25 1012 88 10000 7.2 80 15:56 12.12.2019
6653 Rain 25 1012 88 10000 7.2 80 15:56 12.12.2019
6654 Rain 25 1012 83 10000 6.7 80 15:38 12.12.2019
6655 Rain 25 1012 83 10000 6.7 80 15:18 12.12.2019
6656 Rain 25 1012 88 10000 6.2 80 14:38 12.12.2019
6657 Rain 25 1012 88 10000 6.2 80 14:38 12.12.2019
6658 Clouds 25 1012 88 10000 6.2 80 14:20 12.12.2019
6659 Rain 25 1012 88 10000 6.7 80 13:58 12.12.2019
6660 Clouds 25 1013 88 10000 5.7 80 13:40 12.12.2019
6661 Rain 25 1013 88 10000 5.7 80 13:21 12.12.2019
6662 Rain 25 1013 88 10000 5.1 80 12:59 12.12.2019
6663 Rain 25 1013 88 10000 5.1 80 12:40 12.12.2019
6664 Rain 25 1013 88 10000 5.1 80 12:21 12.12.2019
6665 Rain 25 1013 88 10000 6.7 80 11:56 12.12.2019
6666 Rain 25 1013 88 10000 5.1 80 11:38 12.12.2019
6667 Clouds 25 1013 88 10000 5.1 80 11:19 12.12.2019
6668 Clouds 25 1014 88 10000 4.6 90 10:55 12.12.2019
6669 Clouds 25 1014 88 10000 6.7 80 10:37 12.12.2019
6670 Clouds 25 1014 88 10000 6.7 80 10:19 12.12.2019
6671 Clouds 25 1013 88 10000 5.7 90 09:42 12.12.2019
6672 Clouds 25 1013 88 10000 5.7 90 09:24 12.12.2019
6673 Clouds 25 1013 94 10000 6.7 80 08:58 12.12.2019
6674 Rain 25 1013 88 10000 6.7 80 08:38 12.12.2019
6675 Rain 25 1013 88 10000 6.7 80 08:38 12.12.2019
6676 Rain 25 1013 88 10000 6.7 80 08:20 12.12.2019
6677 Rain 25 1012 94 9000 6.2 80 07:46 12.12.2019
6678 Rain 24 1012 94 5000 6.2 90 07:25 12.12.2019
6679 Rain 23 1012 100 5000 5.7 90 06:54 12.12.2019
6680 Rain 24 1012 94 10000 5.7 90 06:33 12.12.2019
6681 Rain 26 1012 88 10000 8.2 70 05:40 12.12.2019
6682 Rain 26 1011 88 10000 7.7 80 04:52 12.12.2019
6683 Rain 27 1011 83 10000 8.2 70 03:31 12.12.2019
6684 Rain 27 1011 83 10000 8.2 70 02:38 12.12.2019
6685 Rain 27 1011 83 10000 8.2 70 02:20 12.12.2019
6686 Rain 27 1012 83 10000 7.2 70 01:37 12.12.2019
6687 Rain 27 1012 83 10000 7.2 70 01:19 12.12.2019
6688 Rain 27 1012 83 10000 7.2 70 00:46 12.12.2019
6689 Rain 27 1012 83 10000 7.7 70 00:19 12.12.2019
6690 Rain 28 1012 78 10000 8.2 70 23:44 11.12.2019
6691 Rain 27 1013 88 10000 7.2 70 23:21 11.12.2019
6692 Rain 28 1013 78 10000 7.7 80 22:57 11.12.2019
6693 Rain 27 1013 83 10000 7.7 70 22:38 11.12.2019
6694 Rain 27 1013 83 10000 7.7 70 22:20 11.12.2019
6695 Rain 27 1013 83 10000 7.2 70 21:57 11.12.2019
6696 Rain 25 1013 88 8000 7.7 60 21:38 11.12.2019
6697 Rain 25 1013 88 8000 7.7 60 21:19 11.12.2019
6698 Rain 26 1013 88 10000 7.2 70 20:56 11.12.2019
6699 Rain 26 1013 88 10000 7.2 70 20:56 11.12.2019
6700 Rain 27 1013 83 10000 8.2 80 20:37 11.12.2019
6701 Rain 27 1013 83 10000 8.2 80 20:37 11.12.2019
6702 Rain 27 1013 83 10000 8.2 80 20:37 11.12.2019
6703 Rain 27 1013 83 10000 8.2 80 20:19 11.12.2019
6704 Rain 26 1013 83 10000 6.7 70 19:57 11.12.2019
6705 Rain 26 1013 83 10000 6.2 70 19:38 11.12.2019
6706 Rain 26 1013 83 10000 6.2 70 19:18 11.12.2019
6707 Rain 25 1012 94 10000 5.1 70 18:40 11.12.2019
6708 Rain 25 1012 94 10000 5.1 70 18:21 11.12.2019
6709 Rain 25 1012 88 10000 5.1 80 17:57 11.12.2019
6710 Rain 25 1011 88 10000 5.7 80 17:38 11.12.2019
6711 Clouds 25 1011 88 10000 5.7 80 17:18 11.12.2019
6712 Clouds 25 1011 88 10000 5.1 80 16:57 11.12.2019
6713 Clouds 25 1012 88 10000 4.6 80 16:38 11.12.2019
6714 Clouds 25 1012 88 10000 4.6 80 16:20 11.12.2019
6715 Clouds 25 1012 88 10000 5.1 80 15:58 11.12.2019
6716 Clouds 25 1012 94 10000 5.7 80 15:38 11.12.2019
6717 Clouds 25 1012 94 10000 5.7 80 15:20 11.12.2019
6718 Clouds 25 1012 88 10000 5.1 80 14:55 11.12.2019
6719 Clouds 25 1012 88 10000